<?xml version="1.0" encoding="UTF-8" standalone="no" ?><gpx xmlns="http://www.topografix.com/GPX/1/1" xmlns:gpxx="http://www.garmin.com/xmlschemas/GpxExtensions/v3" xmlns:wptx1="http://www.garmin.com/xmlschemas/WaypointExtension/v1" xmlns:gpxtpx="http://www.garmin.com/xmlschemas/TrackPointExtension/v1" creator="GuideVTT.com" version="1.1" xmlns:xsi="http://www.w3.org/2001/XMLSchema-instance" xsi:schemaLocation="http://www.topografix.com/GPX/1/1 http://www.topografix.com/GPX/1/1/gpx.xsd http://www.garmin.com/xmlschemas/GpxExtensions/v3 http://www8.garmin.com/xmlschemas/GpxExtensionsv3.xsd http://www.garmin.com/xmlschemas/WaypointExtension/v1 http://www8.garmin.com/xmlschemas/WaypointExtensionv1.xsd http://www.garmin.com/xmlschemas/TrackPointExtension/v1 http://www.garmin.com/xmlschemas/TrackPointExtensionv1.xsd">
<metadata><link href="http://www.garmin.com"><text>Garmin International</text></link><time>2013-06-22T15:13:50Z</time></metadata>
<trk><name>le_saleve.gpx</name><extensions><gpxx:TrackExtension><gpxx:DisplayColor>Cyan</gpxx:DisplayColor></gpxx:TrackExtension></extensions><trkseg>
<trkpt lat="46.170964" lon="6.076484"><ele></ele><time>2017-5-18T5:41:5Z</time></trkpt>
<trkpt lat="46.170915" lon="6.076499"><ele></ele><time>2017-5-18T5:41:8Z</time></trkpt>
<trkpt lat="46.170872" lon="6.076537"><ele></ele><time>2017-5-18T5:41:11Z</time></trkpt>
<trkpt lat="46.170826" lon="6.076592"><ele></ele><time>2017-5-18T5:41:14Z</time></trkpt>
<trkpt lat="46.170786" lon="6.076643"><ele></ele><time>2017-5-18T5:41:17Z</time></trkpt>
<trkpt lat="46.170661" lon="6.076789"><ele></ele><time>2017-5-18T5:41:20Z</time></trkpt>
<trkpt lat="46.170628" lon="6.076846"><ele></ele><time>2017-5-18T5:41:23Z</time></trkpt>
<trkpt lat="46.170606" lon="6.076918"><ele></ele><time>2017-5-18T5:41:26Z</time></trkpt>
<trkpt lat="46.170596" lon="6.077006"><ele></ele><time>2017-5-18T5:41:29Z</time></trkpt>
<trkpt lat="46.170601" lon="6.077109"><ele></ele><time>2017-5-18T5:41:32Z</time></trkpt>
<trkpt lat="46.170622" lon="6.077221"><ele></ele><time>2017-5-18T5:41:35Z</time></trkpt>
<trkpt lat="46.170657" lon="6.077347"><ele></ele><time>2017-5-18T5:41:38Z</time></trkpt>
<trkpt lat="46.170692" lon="6.077448"><ele></ele><time>2017-5-18T5:41:41Z</time></trkpt>
<trkpt lat="46.170933" lon="6.078318"><ele></ele><time>2017-5-18T5:41:44Z</time></trkpt>
<trkpt lat="46.171187" lon="6.079292"><ele></ele><time>2017-5-18T5:41:47Z</time></trkpt>
<trkpt lat="46.171282" lon="6.079575"><ele></ele><time>2017-5-18T5:41:50Z</time></trkpt>
<trkpt lat="46.171340" lon="6.079705"><ele></ele><time>2017-5-18T5:41:53Z</time></trkpt>
<trkpt lat="46.171405" lon="6.079825"><ele></ele><time>2017-5-18T5:41:56Z</time></trkpt>
<trkpt lat="46.171626" lon="6.080149"><ele></ele><time>2017-5-18T5:41:59Z</time></trkpt>
<trkpt lat="46.171709" lon="6.080229"><ele></ele><time>2017-5-18T5:42:2Z</time></trkpt>
<trkpt lat="46.171797" lon="6.080295"><ele></ele><time>2017-5-18T5:42:5Z</time></trkpt>
<trkpt lat="46.172260" lon="6.080683"><ele></ele><time>2017-5-18T5:42:8Z</time></trkpt>
<trkpt lat="46.172505" lon="6.080897"><ele></ele><time>2017-5-18T5:42:11Z</time></trkpt>
<trkpt lat="46.172526" lon="6.080934"><ele></ele><time>2017-5-18T5:42:14Z</time></trkpt>
<trkpt lat="46.172530" lon="6.080980"><ele></ele><time>2017-5-18T5:42:17Z</time></trkpt>
<trkpt lat="46.172519" lon="6.081023"><ele></ele><time>2017-5-18T5:42:20Z</time></trkpt>
<trkpt lat="46.172400" lon="6.081346"><ele></ele><time>2017-5-18T5:42:23Z</time></trkpt>
<trkpt lat="46.172354" lon="6.081529"><ele></ele><time>2017-5-18T5:42:26Z</time></trkpt>
<trkpt lat="46.172229" lon="6.082233"><ele></ele><time>2017-5-18T5:42:29Z</time></trkpt>
<trkpt lat="46.172211" lon="6.082307"><ele></ele><time>2017-5-18T5:42:32Z</time></trkpt>
<trkpt lat="46.172189" lon="6.082359"><ele></ele><time>2017-5-18T5:42:35Z</time></trkpt>
<trkpt lat="46.172151" lon="6.082408"><ele></ele><time>2017-5-18T5:42:38Z</time></trkpt>
<trkpt lat="46.172125" lon="6.082429"><ele></ele><time>2017-5-18T5:42:41Z</time></trkpt>
<trkpt lat="46.172087" lon="6.082453"><ele></ele><time>2017-5-18T5:42:44Z</time></trkpt>
<trkpt lat="46.172066" lon="6.082481"><ele></ele><time>2017-5-18T5:42:47Z</time></trkpt>
<trkpt lat="46.172050" lon="6.082533"><ele></ele><time>2017-5-18T5:42:50Z</time></trkpt>
<trkpt lat="46.172061" lon="6.082576"><ele></ele><time>2017-5-18T5:42:53Z</time></trkpt>
<trkpt lat="46.172088" lon="6.082612"><ele></ele><time>2017-5-18T5:42:56Z</time></trkpt>
<trkpt lat="46.172116" lon="6.082641"><ele></ele><time>2017-5-18T5:42:59Z</time></trkpt>
<trkpt lat="46.172291" lon="6.082836"><ele></ele><time>2017-5-18T5:43:2Z</time></trkpt>
<trkpt lat="46.172330" lon="6.082893"><ele></ele><time>2017-5-18T5:43:5Z</time></trkpt>
<trkpt lat="46.172372" lon="6.082968"><ele></ele><time>2017-5-18T5:43:8Z</time></trkpt>
<trkpt lat="46.172616" lon="6.083455"><ele></ele><time>2017-5-18T5:43:11Z</time></trkpt>
<trkpt lat="46.172994" lon="6.084115"><ele></ele><time>2017-5-18T5:43:14Z</time></trkpt>
<trkpt lat="46.173461" lon="6.084690"><ele></ele><time>2017-5-18T5:43:17Z</time></trkpt>
<trkpt lat="46.173620" lon="6.084865"><ele></ele><time>2017-5-18T5:43:20Z</time></trkpt>
<trkpt lat="46.173648" lon="6.084924"><ele></ele><time>2017-5-18T5:43:23Z</time></trkpt>
<trkpt lat="46.173647" lon="6.084996"><ele></ele><time>2017-5-18T5:43:26Z</time></trkpt>
<trkpt lat="46.173631" lon="6.085028"><ele></ele><time>2017-5-18T5:43:29Z</time></trkpt>
<trkpt lat="46.173601" lon="6.085073"><ele></ele><time>2017-5-18T5:43:32Z</time></trkpt>
<trkpt lat="46.173565" lon="6.085124"><ele></ele><time>2017-5-18T5:43:35Z</time></trkpt>
<trkpt lat="46.173341" lon="6.085431"><ele></ele><time>2017-5-18T5:43:38Z</time></trkpt>
<trkpt lat="46.172976" lon="6.085842"><ele></ele><time>2017-5-18T5:43:41Z</time></trkpt>
<trkpt lat="46.172904" lon="6.085922"><ele></ele><time>2017-5-18T5:43:44Z</time></trkpt>
<trkpt lat="46.172763" lon="6.086073"><ele></ele><time>2017-5-18T5:43:47Z</time></trkpt>
<trkpt lat="46.172505" lon="6.086328"><ele></ele><time>2017-5-18T5:43:50Z</time></trkpt>
<trkpt lat="46.172020" lon="6.086896"><ele></ele><time>2017-5-18T5:43:53Z</time></trkpt>
<trkpt lat="46.171881" lon="6.087054"><ele></ele><time>2017-5-18T5:43:56Z</time></trkpt>
<trkpt lat="46.171827" lon="6.087132"><ele></ele><time>2017-5-18T5:43:59Z</time></trkpt>
<trkpt lat="46.171471" lon="6.087580"><ele></ele><time>2017-5-18T5:44:2Z</time></trkpt>
<trkpt lat="46.170977" lon="6.088156"><ele></ele><time>2017-5-18T5:44:5Z</time></trkpt>
<trkpt lat="46.170776" lon="6.088397"><ele></ele><time>2017-5-18T5:44:8Z</time></trkpt>
<trkpt lat="46.170748" lon="6.088473"><ele></ele><time>2017-5-18T5:44:11Z</time></trkpt>
<trkpt lat="46.170737" lon="6.088549"><ele></ele><time>2017-5-18T5:44:14Z</time></trkpt>
<trkpt lat="46.170746" lon="6.088626"><ele></ele><time>2017-5-18T5:44:17Z</time></trkpt>
<trkpt lat="46.170771" lon="6.088698"><ele></ele><time>2017-5-18T5:44:20Z</time></trkpt>
<trkpt lat="46.170800" lon="6.088753"><ele></ele><time>2017-5-18T5:44:23Z</time></trkpt>
<trkpt lat="46.170832" lon="6.088813"><ele></ele><time>2017-5-18T5:44:26Z</time></trkpt>
<trkpt lat="46.170860" lon="6.088879"><ele></ele><time>2017-5-18T5:44:29Z</time></trkpt>
<trkpt lat="46.170887" lon="6.088952"><ele></ele><time>2017-5-18T5:44:32Z</time></trkpt>
<trkpt lat="46.171190" lon="6.089620"><ele></ele><time>2017-5-18T5:44:35Z</time></trkpt>
<trkpt lat="46.171521" lon="6.090382"><ele></ele><time>2017-5-18T5:44:38Z</time></trkpt>
<trkpt lat="46.171556" lon="6.090451"><ele></ele><time>2017-5-18T5:44:41Z</time></trkpt>
<trkpt lat="46.171599" lon="6.090509"><ele></ele><time>2017-5-18T5:44:44Z</time></trkpt>
<trkpt lat="46.171647" lon="6.090543"><ele></ele><time>2017-5-18T5:44:47Z</time></trkpt>
<trkpt lat="46.171697" lon="6.090554"><ele></ele><time>2017-5-18T5:44:50Z</time></trkpt>
<trkpt lat="46.171799" lon="6.090554"><ele></ele><time>2017-5-18T5:44:53Z</time></trkpt>
<trkpt lat="46.171810" lon="6.090576"><ele></ele><time>2017-5-18T5:44:56Z</time></trkpt>
<trkpt lat="46.171749" lon="6.090653"><ele></ele><time>2017-5-18T5:44:59Z</time></trkpt>
<trkpt lat="46.171721" lon="6.090675"><ele></ele><time>2017-5-18T5:45:2Z</time></trkpt>
<trkpt lat="46.171520" lon="6.090869"><ele></ele><time>2017-5-18T5:45:5Z</time></trkpt>
<trkpt lat="46.171248" lon="6.091110"><ele></ele><time>2017-5-18T5:45:8Z</time></trkpt>
<trkpt lat="46.171158" lon="6.091210"><ele></ele><time>2017-5-18T5:45:11Z</time></trkpt>
<trkpt lat="46.171187" lon="6.091342"><ele></ele><time>2017-5-18T5:45:14Z</time></trkpt>
<trkpt lat="46.171198" lon="6.091465"><ele></ele><time>2017-5-18T5:45:17Z</time></trkpt>
<trkpt lat="46.171188" lon="6.091490"><ele></ele><time>2017-5-18T5:45:20Z</time></trkpt>
<trkpt lat="46.171169" lon="6.091502"><ele></ele><time>2017-5-18T5:45:23Z</time></trkpt>
<trkpt lat="46.171148" lon="6.091498"><ele></ele><time>2017-5-18T5:45:26Z</time></trkpt>
<trkpt lat="46.171126" lon="6.091472"><ele></ele><time>2017-5-18T5:45:29Z</time></trkpt>
<trkpt lat="46.171114" lon="6.091458"><ele></ele><time>2017-5-18T5:45:32Z</time></trkpt>
<trkpt lat="46.171094" lon="6.091452"><ele></ele><time>2017-5-18T5:45:35Z</time></trkpt>
<trkpt lat="46.171080" lon="6.091466"><ele></ele><time>2017-5-18T5:45:38Z</time></trkpt>
<trkpt lat="46.171076" lon="6.091500"><ele></ele><time>2017-5-18T5:45:41Z</time></trkpt>
<trkpt lat="46.171078" lon="6.091529"><ele></ele><time>2017-5-18T5:45:44Z</time></trkpt>
<trkpt lat="46.171089" lon="6.091559"><ele></ele><time>2017-5-18T5:45:47Z</time></trkpt>
<trkpt lat="46.171106" lon="6.091580"><ele></ele><time>2017-5-18T5:45:50Z</time></trkpt>
<trkpt lat="46.171132" lon="6.091642"><ele></ele><time>2017-5-18T5:45:53Z</time></trkpt>
<trkpt lat="46.171133" lon="6.091683"><ele></ele><time>2017-5-18T5:45:56Z</time></trkpt>
<trkpt lat="46.171124" lon="6.091720"><ele></ele><time>2017-5-18T5:45:59Z</time></trkpt>
<trkpt lat="46.171103" lon="6.091749"><ele></ele><time>2017-5-18T5:46:2Z</time></trkpt>
<trkpt lat="46.171080" lon="6.091771"><ele></ele><time>2017-5-18T5:46:5Z</time></trkpt>
<trkpt lat="46.171052" lon="6.091793"><ele></ele><time>2017-5-18T5:46:8Z</time></trkpt>
<trkpt lat="46.171023" lon="6.091849"><ele></ele><time>2017-5-18T5:46:11Z</time></trkpt>
<trkpt lat="46.171024" lon="6.091869"><ele></ele><time>2017-5-18T5:46:14Z</time></trkpt>
<trkpt lat="46.171039" lon="6.091894"><ele></ele><time>2017-5-18T5:46:17Z</time></trkpt>
<trkpt lat="46.171027" lon="6.091933"><ele></ele><time>2017-5-18T5:46:20Z</time></trkpt>
<trkpt lat="46.171034" lon="6.091949"><ele></ele><time>2017-5-18T5:46:23Z</time></trkpt>
<trkpt lat="46.171043" lon="6.091974"><ele></ele><time>2017-5-18T5:46:26Z</time></trkpt>
<trkpt lat="46.171118" lon="6.092209"><ele></ele><time>2017-5-18T5:46:29Z</time></trkpt>
<trkpt lat="46.171342" lon="6.092806"><ele></ele><time>2017-5-18T5:46:32Z</time></trkpt>
<trkpt lat="46.171612" lon="6.093394"><ele></ele><time>2017-5-18T5:46:35Z</time></trkpt>
<trkpt lat="46.171851" lon="6.093973"><ele></ele><time>2017-5-18T5:46:38Z</time></trkpt>
<trkpt lat="46.172138" lon="6.094568"><ele></ele><time>2017-5-18T5:46:41Z</time></trkpt>
<trkpt lat="46.172469" lon="6.095328"><ele></ele><time>2017-5-18T5:46:44Z</time></trkpt>
<trkpt lat="46.172597" lon="6.095597"><ele></ele><time>2017-5-18T5:46:47Z</time></trkpt>
<trkpt lat="46.172640" lon="6.095642"><ele></ele><time>2017-5-18T5:46:50Z</time></trkpt>
<trkpt lat="46.172687" lon="6.095676"><ele></ele><time>2017-5-18T5:46:53Z</time></trkpt>
<trkpt lat="46.172835" lon="6.095782"><ele></ele><time>2017-5-18T5:46:56Z</time></trkpt>
<trkpt lat="46.172835" lon="6.095787"><ele></ele><time>2017-5-18T5:46:59Z</time></trkpt>
<trkpt lat="46.172816" lon="6.095791"><ele></ele><time>2017-5-18T5:47:2Z</time></trkpt>
<trkpt lat="46.172822" lon="6.095784"><ele></ele><time>2017-5-18T5:47:5Z</time></trkpt>
<trkpt lat="46.172883" lon="6.095854"><ele></ele><time>2017-5-18T5:47:8Z</time></trkpt>
<trkpt lat="46.173003" lon="6.096135"><ele></ele><time>2017-5-18T5:47:11Z</time></trkpt>
<trkpt lat="46.173119" lon="6.096409"><ele></ele><time>2017-5-18T5:47:14Z</time></trkpt>
<trkpt lat="46.173143" lon="6.096415"><ele></ele><time>2017-5-18T5:47:17Z</time></trkpt>
<trkpt lat="46.173165" lon="6.096405"><ele></ele><time>2017-5-18T5:47:20Z</time></trkpt>
<trkpt lat="46.173193" lon="6.096405"><ele></ele><time>2017-5-18T5:47:23Z</time></trkpt>
<trkpt lat="46.173210" lon="6.096411"><ele></ele><time>2017-5-18T5:47:26Z</time></trkpt>
<trkpt lat="46.173241" lon="6.096423"><ele></ele><time>2017-5-18T5:47:29Z</time></trkpt>
<trkpt lat="46.173285" lon="6.096445"><ele></ele><time>2017-5-18T5:47:32Z</time></trkpt>
<trkpt lat="46.173336" lon="6.096466"><ele></ele><time>2017-5-18T5:47:35Z</time></trkpt>
<trkpt lat="46.173383" lon="6.096479"><ele></ele><time>2017-5-18T5:47:38Z</time></trkpt>
<trkpt lat="46.173693" lon="6.096574"><ele></ele><time>2017-5-18T5:47:41Z</time></trkpt>
<trkpt lat="46.173812" lon="6.096798"><ele></ele><time>2017-5-18T5:47:44Z</time></trkpt>
<trkpt lat="46.174011" lon="6.097057"><ele></ele><time>2017-5-18T5:47:47Z</time></trkpt>
<trkpt lat="46.174352" lon="6.097513"><ele></ele><time>2017-5-18T5:47:50Z</time></trkpt>
<trkpt lat="46.174730" lon="6.098068"><ele></ele><time>2017-5-18T5:47:53Z</time></trkpt>
<trkpt lat="46.175090" lon="6.098567"><ele></ele><time>2017-5-18T5:47:56Z</time></trkpt>
<trkpt lat="46.175293" lon="6.098856"><ele></ele><time>2017-5-18T5:47:59Z</time></trkpt>
<trkpt lat="46.175331" lon="6.098882"><ele></ele><time>2017-5-18T5:48:2Z</time></trkpt>
<trkpt lat="46.175383" lon="6.098891"><ele></ele><time>2017-5-18T5:48:5Z</time></trkpt>
<trkpt lat="46.175432" lon="6.098886"><ele></ele><time>2017-5-18T5:48:8Z</time></trkpt>
<trkpt lat="46.175489" lon="6.098883"><ele></ele><time>2017-5-18T5:48:11Z</time></trkpt>
<trkpt lat="46.175542" lon="6.098887"><ele></ele><time>2017-5-18T5:48:14Z</time></trkpt>
<trkpt lat="46.175589" lon="6.098896"><ele></ele><time>2017-5-18T5:48:17Z</time></trkpt>
<trkpt lat="46.175826" lon="6.098950"><ele></ele><time>2017-5-18T5:48:20Z</time></trkpt>
<trkpt lat="46.175871" lon="6.098981"><ele></ele><time>2017-5-18T5:48:23Z</time></trkpt>
<trkpt lat="46.176201" lon="6.099225"><ele></ele><time>2017-5-18T5:48:26Z</time></trkpt>
<trkpt lat="46.176394" lon="6.099454"><ele></ele><time>2017-5-18T5:48:29Z</time></trkpt>
<trkpt lat="46.176437" lon="6.099529"><ele></ele><time>2017-5-18T5:48:32Z</time></trkpt>
<trkpt lat="46.176538" lon="6.099758"><ele></ele><time>2017-5-18T5:48:35Z</time></trkpt>
<trkpt lat="46.176562" lon="6.099827"><ele></ele><time>2017-5-18T5:48:38Z</time></trkpt>
<trkpt lat="46.176679" lon="6.100202"><ele></ele><time>2017-5-18T5:48:41Z</time></trkpt>
<trkpt lat="46.176706" lon="6.100356"><ele></ele><time>2017-5-18T5:48:44Z</time></trkpt>
<trkpt lat="46.176685" lon="6.100382"><ele></ele><time>2017-5-18T5:48:47Z</time></trkpt>
<trkpt lat="46.176665" lon="6.100394"><ele></ele><time>2017-5-18T5:48:50Z</time></trkpt>
<trkpt lat="46.176642" lon="6.100408"><ele></ele><time>2017-5-18T5:48:53Z</time></trkpt>
<trkpt lat="46.176618" lon="6.100425"><ele></ele><time>2017-5-18T5:48:56Z</time></trkpt>
<trkpt lat="46.176594" lon="6.100444"><ele></ele><time>2017-5-18T5:48:59Z</time></trkpt>
<trkpt lat="46.176571" lon="6.100473"><ele></ele><time>2017-5-18T5:49:2Z</time></trkpt>
<trkpt lat="46.176554" lon="6.100522"><ele></ele><time>2017-5-18T5:49:5Z</time></trkpt>
<trkpt lat="46.176551" lon="6.100564"><ele></ele><time>2017-5-18T5:49:8Z</time></trkpt>
<trkpt lat="46.176549" lon="6.100607"><ele></ele><time>2017-5-18T5:49:11Z</time></trkpt>
<trkpt lat="46.176549" lon="6.100615"><ele></ele><time>2017-5-18T5:49:14Z</time></trkpt>
<trkpt lat="46.176542" lon="6.100630"><ele></ele><time>2017-5-18T5:49:17Z</time></trkpt>
<trkpt lat="46.176497" lon="6.100753"><ele></ele><time>2017-5-18T5:49:20Z</time></trkpt>
<trkpt lat="46.176443" lon="6.100861"><ele></ele><time>2017-5-18T5:49:23Z</time></trkpt>
<trkpt lat="46.176416" lon="6.100933"><ele></ele><time>2017-5-18T5:49:26Z</time></trkpt>
<trkpt lat="46.176195" lon="6.101615"><ele></ele><time>2017-5-18T5:49:29Z</time></trkpt>
<trkpt lat="46.176155" lon="6.101706"><ele></ele><time>2017-5-18T5:49:32Z</time></trkpt>
<trkpt lat="46.176120" lon="6.101771"><ele></ele><time>2017-5-18T5:49:35Z</time></trkpt>
<trkpt lat="46.176078" lon="6.101839"><ele></ele><time>2017-5-18T5:49:38Z</time></trkpt>
<trkpt lat="46.176034" lon="6.101900"><ele></ele><time>2017-5-18T5:49:41Z</time></trkpt>
<trkpt lat="46.175986" lon="6.101959"><ele></ele><time>2017-5-18T5:49:44Z</time></trkpt>
<trkpt lat="46.175738" lon="6.102282"><ele></ele><time>2017-5-18T5:49:47Z</time></trkpt>
<trkpt lat="46.175645" lon="6.102434"><ele></ele><time>2017-5-18T5:49:50Z</time></trkpt>
<trkpt lat="46.175603" lon="6.102505"><ele></ele><time>2017-5-18T5:49:53Z</time></trkpt>
<trkpt lat="46.175360" lon="6.102904"><ele></ele><time>2017-5-18T5:49:56Z</time></trkpt>
<trkpt lat="46.175330" lon="6.103013"><ele></ele><time>2017-5-18T5:49:59Z</time></trkpt>
<trkpt lat="46.175319" lon="6.103085"><ele></ele><time>2017-5-18T5:50:2Z</time></trkpt>
<trkpt lat="46.175320" lon="6.103199"><ele></ele><time>2017-5-18T5:50:5Z</time></trkpt>
<trkpt lat="46.175318" lon="6.103806"><ele></ele><time>2017-5-18T5:50:8Z</time></trkpt>
<trkpt lat="46.175330" lon="6.104401"><ele></ele><time>2017-5-18T5:50:11Z</time></trkpt>
<trkpt lat="46.175326" lon="6.105024"><ele></ele><time>2017-5-18T5:50:14Z</time></trkpt>
<trkpt lat="46.175328" lon="6.105362"><ele></ele><time>2017-5-18T5:50:17Z</time></trkpt>
<trkpt lat="46.175335" lon="6.105369"><ele></ele><time>2017-5-18T5:50:20Z</time></trkpt>
<trkpt lat="46.175345" lon="6.105430"><ele></ele><time>2017-5-18T5:50:23Z</time></trkpt>
<trkpt lat="46.175340" lon="6.105664"><ele></ele><time>2017-5-18T5:50:26Z</time></trkpt>
<trkpt lat="46.175308" lon="6.106195"><ele></ele><time>2017-5-18T5:50:29Z</time></trkpt>
<trkpt lat="46.175291" lon="6.106865"><ele></ele><time>2017-5-18T5:50:32Z</time></trkpt>
<trkpt lat="46.175285" lon="6.107154"><ele></ele><time>2017-5-18T5:50:35Z</time></trkpt>
<trkpt lat="46.175290" lon="6.107205"><ele></ele><time>2017-5-18T5:50:38Z</time></trkpt>
<trkpt lat="46.175309" lon="6.107273"><ele></ele><time>2017-5-18T5:50:41Z</time></trkpt>
<trkpt lat="46.175327" lon="6.107316"><ele></ele><time>2017-5-18T5:50:44Z</time></trkpt>
<trkpt lat="46.175352" lon="6.107365"><ele></ele><time>2017-5-18T5:50:47Z</time></trkpt>
<trkpt lat="46.175399" lon="6.107466"><ele></ele><time>2017-5-18T5:50:50Z</time></trkpt>
<trkpt lat="46.175421" lon="6.107527"><ele></ele><time>2017-5-18T5:50:53Z</time></trkpt>
<trkpt lat="46.175439" lon="6.107592"><ele></ele><time>2017-5-18T5:50:56Z</time></trkpt>
<trkpt lat="46.175550" lon="6.107927"><ele></ele><time>2017-5-18T5:50:59Z</time></trkpt>
<trkpt lat="46.175660" lon="6.108177"><ele></ele><time>2017-5-18T5:51:2Z</time></trkpt>
<trkpt lat="46.175825" lon="6.108683"><ele></ele><time>2017-5-18T5:51:5Z</time></trkpt>
<trkpt lat="46.175973" lon="6.109344"><ele></ele><time>2017-5-18T5:51:8Z</time></trkpt>
<trkpt lat="46.176032" lon="6.110103"><ele></ele><time>2017-5-18T5:51:11Z</time></trkpt>
<trkpt lat="46.176082" lon="6.110493"><ele></ele><time>2017-5-18T5:51:14Z</time></trkpt>
<trkpt lat="46.176107" lon="6.110583"><ele></ele><time>2017-5-18T5:51:17Z</time></trkpt>
<trkpt lat="46.176136" lon="6.110666"><ele></ele><time>2017-5-18T5:51:20Z</time></trkpt>
<trkpt lat="46.176172" lon="6.110752"><ele></ele><time>2017-5-18T5:51:23Z</time></trkpt>
<trkpt lat="46.176212" lon="6.110833"><ele></ele><time>2017-5-18T5:51:26Z</time></trkpt>
<trkpt lat="46.176457" lon="6.111278"><ele></ele><time>2017-5-18T5:51:29Z</time></trkpt>
<trkpt lat="46.176591" lon="6.111578"><ele></ele><time>2017-5-18T5:51:32Z</time></trkpt>
<trkpt lat="46.176625" lon="6.111643"><ele></ele><time>2017-5-18T5:51:35Z</time></trkpt>
<trkpt lat="46.176690" lon="6.111797"><ele></ele><time>2017-5-18T5:51:38Z</time></trkpt>
<trkpt lat="46.176946" lon="6.112577"><ele></ele><time>2017-5-18T5:51:41Z</time></trkpt>
<trkpt lat="46.177229" lon="6.113307"><ele></ele><time>2017-5-18T5:51:44Z</time></trkpt>
<trkpt lat="46.177475" lon="6.113962"><ele></ele><time>2017-5-18T5:51:47Z</time></trkpt>
<trkpt lat="46.177628" lon="6.114259"><ele></ele><time>2017-5-18T5:51:50Z</time></trkpt>
<trkpt lat="46.177669" lon="6.114317"><ele></ele><time>2017-5-18T5:51:53Z</time></trkpt>
<trkpt lat="46.177720" lon="6.114378"><ele></ele><time>2017-5-18T5:51:56Z</time></trkpt>
<trkpt lat="46.177772" lon="6.114430"><ele></ele><time>2017-5-18T5:51:59Z</time></trkpt>
<trkpt lat="46.177827" lon="6.114480"><ele></ele><time>2017-5-18T5:52:2Z</time></trkpt>
<trkpt lat="46.178192" lon="6.114740"><ele></ele><time>2017-5-18T5:52:5Z</time></trkpt>
<trkpt lat="46.178495" lon="6.115012"><ele></ele><time>2017-5-18T5:52:8Z</time></trkpt>
<trkpt lat="46.178537" lon="6.115063"><ele></ele><time>2017-5-18T5:52:11Z</time></trkpt>
<trkpt lat="46.178953" lon="6.115591"><ele></ele><time>2017-5-18T5:52:14Z</time></trkpt>
<trkpt lat="46.179061" lon="6.115698"><ele></ele><time>2017-5-18T5:52:17Z</time></trkpt>
<trkpt lat="46.179132" lon="6.115746"><ele></ele><time>2017-5-18T5:52:20Z</time></trkpt>
<trkpt lat="46.179246" lon="6.115809"><ele></ele><time>2017-5-18T5:52:23Z</time></trkpt>
<trkpt lat="46.179312" lon="6.115833"><ele></ele><time>2017-5-18T5:52:26Z</time></trkpt>
<trkpt lat="46.179386" lon="6.115849"><ele></ele><time>2017-5-18T5:52:29Z</time></trkpt>
<trkpt lat="46.179865" lon="6.115940"><ele></ele><time>2017-5-18T5:52:32Z</time></trkpt>
<trkpt lat="46.180167" lon="6.116025"><ele></ele><time>2017-5-18T5:52:35Z</time></trkpt>
<trkpt lat="46.180213" lon="6.116080"><ele></ele><time>2017-5-18T5:52:38Z</time></trkpt>
<trkpt lat="46.180244" lon="6.116159"><ele></ele><time>2017-5-18T5:52:41Z</time></trkpt>
<trkpt lat="46.180257" lon="6.116242"><ele></ele><time>2017-5-18T5:52:44Z</time></trkpt>
<trkpt lat="46.180270" lon="6.116353"><ele></ele><time>2017-5-18T5:52:47Z</time></trkpt>
<trkpt lat="46.180278" lon="6.116401"><ele></ele><time>2017-5-18T5:52:50Z</time></trkpt>
<trkpt lat="46.180299" lon="6.116475"><ele></ele><time>2017-5-18T5:52:53Z</time></trkpt>
<trkpt lat="46.180332" lon="6.116543"><ele></ele><time>2017-5-18T5:52:56Z</time></trkpt>
<trkpt lat="46.180352" lon="6.116573"><ele></ele><time>2017-5-18T5:52:59Z</time></trkpt>
<trkpt lat="46.180382" lon="6.116615"><ele></ele><time>2017-5-18T5:53:2Z</time></trkpt>
<trkpt lat="46.180408" lon="6.116652"><ele></ele><time>2017-5-18T5:53:5Z</time></trkpt>
<trkpt lat="46.180435" lon="6.116685"><ele></ele><time>2017-5-18T5:53:8Z</time></trkpt>
<trkpt lat="46.180458" lon="6.116713"><ele></ele><time>2017-5-18T5:53:11Z</time></trkpt>
<trkpt lat="46.180479" lon="6.116742"><ele></ele><time>2017-5-18T5:53:14Z</time></trkpt>
<trkpt lat="46.180498" lon="6.116775"><ele></ele><time>2017-5-18T5:53:17Z</time></trkpt>
<trkpt lat="46.180516" lon="6.116813"><ele></ele><time>2017-5-18T5:53:20Z</time></trkpt>
<trkpt lat="46.180535" lon="6.116855"><ele></ele><time>2017-5-18T5:53:23Z</time></trkpt>
<trkpt lat="46.180692" lon="6.117192"><ele></ele><time>2017-5-18T5:53:26Z</time></trkpt>
<trkpt lat="46.180810" lon="6.117457"><ele></ele><time>2017-5-18T5:53:29Z</time></trkpt>
<trkpt lat="46.180828" lon="6.117548"><ele></ele><time>2017-5-18T5:53:32Z</time></trkpt>
<trkpt lat="46.180819" lon="6.117603"><ele></ele><time>2017-5-18T5:53:35Z</time></trkpt>
<trkpt lat="46.180813" lon="6.117638"><ele></ele><time>2017-5-18T5:53:38Z</time></trkpt>
<trkpt lat="46.180804" lon="6.117673"><ele></ele><time>2017-5-18T5:53:41Z</time></trkpt>
<trkpt lat="46.180794" lon="6.117709"><ele></ele><time>2017-5-18T5:53:44Z</time></trkpt>
<trkpt lat="46.180787" lon="6.117756"><ele></ele><time>2017-5-18T5:53:47Z</time></trkpt>
<trkpt lat="46.180782" lon="6.117794"><ele></ele><time>2017-5-18T5:53:50Z</time></trkpt>
<trkpt lat="46.180702" lon="6.118063"><ele></ele><time>2017-5-18T5:53:53Z</time></trkpt>
<trkpt lat="46.180631" lon="6.118215"><ele></ele><time>2017-5-18T5:53:56Z</time></trkpt>
<trkpt lat="46.180611" lon="6.118272"><ele></ele><time>2017-5-18T5:53:59Z</time></trkpt>
<trkpt lat="46.180461" lon="6.118713"><ele></ele><time>2017-5-18T5:54:2Z</time></trkpt>
<trkpt lat="46.180465" lon="6.118768"><ele></ele><time>2017-5-18T5:54:5Z</time></trkpt>
<trkpt lat="46.180483" lon="6.118792"><ele></ele><time>2017-5-18T5:54:8Z</time></trkpt>
<trkpt lat="46.180503" lon="6.118809"><ele></ele><time>2017-5-18T5:54:11Z</time></trkpt>
<trkpt lat="46.180528" lon="6.118830"><ele></ele><time>2017-5-18T5:54:14Z</time></trkpt>
<trkpt lat="46.180545" lon="6.118845"><ele></ele><time>2017-5-18T5:54:17Z</time></trkpt>
<trkpt lat="46.180562" lon="6.118870"><ele></ele><time>2017-5-18T5:54:20Z</time></trkpt>
<trkpt lat="46.180556" lon="6.118896"><ele></ele><time>2017-5-18T5:54:23Z</time></trkpt>
<trkpt lat="46.180540" lon="6.118921"><ele></ele><time>2017-5-18T5:54:26Z</time></trkpt>
<trkpt lat="46.180589" lon="6.118948"><ele></ele><time>2017-5-18T5:54:29Z</time></trkpt>
<trkpt lat="46.180822" lon="6.119103"><ele></ele><time>2017-5-18T5:54:32Z</time></trkpt>
<trkpt lat="46.181368" lon="6.119500"><ele></ele><time>2017-5-18T5:54:35Z</time></trkpt>
<trkpt lat="46.181822" lon="6.119830"><ele></ele><time>2017-5-18T5:54:38Z</time></trkpt>
<trkpt lat="46.181874" lon="6.119880"><ele></ele><time>2017-5-18T5:54:41Z</time></trkpt>
<trkpt lat="46.181883" lon="6.119912"><ele></ele><time>2017-5-18T5:54:44Z</time></trkpt>
<trkpt lat="46.181935" lon="6.120096"><ele></ele><time>2017-5-18T5:54:47Z</time></trkpt>
<trkpt lat="46.182067" lon="6.120375"><ele></ele><time>2017-5-18T5:54:50Z</time></trkpt>
<trkpt lat="46.182191" lon="6.120518"><ele></ele><time>2017-5-18T5:54:53Z</time></trkpt>
<trkpt lat="46.182200" lon="6.120538"><ele></ele><time>2017-5-18T5:54:56Z</time></trkpt>
<trkpt lat="46.182205" lon="6.120558"><ele></ele><time>2017-5-18T5:54:59Z</time></trkpt>
<trkpt lat="46.182208" lon="6.120581"><ele></ele><time>2017-5-18T5:55:2Z</time></trkpt>
<trkpt lat="46.182212" lon="6.120606"><ele></ele><time>2017-5-18T5:55:5Z</time></trkpt>
<trkpt lat="46.182216" lon="6.120624"><ele></ele><time>2017-5-18T5:55:8Z</time></trkpt>
<trkpt lat="46.182227" lon="6.120666"><ele></ele><time>2017-5-18T5:55:11Z</time></trkpt>
<trkpt lat="46.182231" lon="6.120840"><ele></ele><time>2017-5-18T5:55:14Z</time></trkpt>
<trkpt lat="46.182223" lon="6.120866"><ele></ele><time>2017-5-18T5:55:17Z</time></trkpt>
<trkpt lat="46.182223" lon="6.120882"><ele></ele><time>2017-5-18T5:55:20Z</time></trkpt>
<trkpt lat="46.182225" lon="6.120887"><ele></ele><time>2017-5-18T5:55:23Z</time></trkpt>
<trkpt lat="46.182219" lon="6.120877"><ele></ele><time>2017-5-18T5:55:26Z</time></trkpt>
<trkpt lat="46.182201" lon="6.120879"><ele></ele><time>2017-5-18T5:55:29Z</time></trkpt>
<trkpt lat="46.182204" lon="6.120904"><ele></ele><time>2017-5-18T5:55:32Z</time></trkpt>
<trkpt lat="46.182200" lon="6.120900"><ele></ele><time>2017-5-18T5:55:35Z</time></trkpt>
<trkpt lat="46.182205" lon="6.120892"><ele></ele><time>2017-5-18T5:55:38Z</time></trkpt>
<trkpt lat="46.182205" lon="6.120903"><ele></ele><time>2017-5-18T5:55:41Z</time></trkpt>
<trkpt lat="46.182206" lon="6.120901"><ele></ele><time>2017-5-18T5:55:44Z</time></trkpt>
<trkpt lat="46.182200" lon="6.120889"><ele></ele><time>2017-5-18T5:55:47Z</time></trkpt>
<trkpt lat="46.182187" lon="6.120911"><ele></ele><time>2017-5-18T5:55:50Z</time></trkpt>
<trkpt lat="46.182161" lon="6.121037"><ele></ele><time>2017-5-18T5:55:53Z</time></trkpt>
<trkpt lat="46.182148" lon="6.121322"><ele></ele><time>2017-5-18T5:55:56Z</time></trkpt>
<trkpt lat="46.182275" lon="6.121492"><ele></ele><time>2017-5-18T5:55:59Z</time></trkpt>
<trkpt lat="46.182534" lon="6.121805"><ele></ele><time>2017-5-18T5:56:2Z</time></trkpt>
<trkpt lat="46.182791" lon="6.122154"><ele></ele><time>2017-5-18T5:56:5Z</time></trkpt>
<trkpt lat="46.182803" lon="6.122206"><ele></ele><time>2017-5-18T5:56:8Z</time></trkpt>
<trkpt lat="46.182792" lon="6.122259"><ele></ele><time>2017-5-18T5:56:11Z</time></trkpt>
<trkpt lat="46.182739" lon="6.122314"><ele></ele><time>2017-5-18T5:56:14Z</time></trkpt>
<trkpt lat="46.182704" lon="6.122336"><ele></ele><time>2017-5-18T5:56:17Z</time></trkpt>
<trkpt lat="46.182675" lon="6.122354"><ele></ele><time>2017-5-18T5:56:20Z</time></trkpt>
<trkpt lat="46.182600" lon="6.122413"><ele></ele><time>2017-5-18T5:56:23Z</time></trkpt>
<trkpt lat="46.182272" lon="6.122657"><ele></ele><time>2017-5-18T5:56:26Z</time></trkpt>
<trkpt lat="46.181925" lon="6.122911"><ele></ele><time>2017-5-18T5:56:29Z</time></trkpt>
<trkpt lat="46.181484" lon="6.123222"><ele></ele><time>2017-5-18T5:56:32Z</time></trkpt>
<trkpt lat="46.181129" lon="6.123458"><ele></ele><time>2017-5-18T5:56:35Z</time></trkpt>
<trkpt lat="46.180606" lon="6.123757"><ele></ele><time>2017-5-18T5:56:38Z</time></trkpt>
<trkpt lat="46.180243" lon="6.123977"><ele></ele><time>2017-5-18T5:56:41Z</time></trkpt>
<trkpt lat="46.179867" lon="6.124185"><ele></ele><time>2017-5-18T5:56:44Z</time></trkpt>
<trkpt lat="46.179609" lon="6.124278"><ele></ele><time>2017-5-18T5:56:47Z</time></trkpt>
<trkpt lat="46.179527" lon="6.124296"><ele></ele><time>2017-5-18T5:56:50Z</time></trkpt>
<trkpt lat="46.179484" lon="6.124312"><ele></ele><time>2017-5-18T5:56:53Z</time></trkpt>
<trkpt lat="46.179432" lon="6.124326"><ele></ele><time>2017-5-18T5:56:56Z</time></trkpt>
<trkpt lat="46.179405" lon="6.124325"><ele></ele><time>2017-5-18T5:56:59Z</time></trkpt>
<trkpt lat="46.179366" lon="6.124322"><ele></ele><time>2017-5-18T5:57:2Z</time></trkpt>
<trkpt lat="46.179324" lon="6.124324"><ele></ele><time>2017-5-18T5:57:5Z</time></trkpt>
<trkpt lat="46.179053" lon="6.124339"><ele></ele><time>2017-5-18T5:57:8Z</time></trkpt>
<trkpt lat="46.178790" lon="6.124320"><ele></ele><time>2017-5-18T5:57:11Z</time></trkpt>
<trkpt lat="46.178323" lon="6.124251"><ele></ele><time>2017-5-18T5:57:14Z</time></trkpt>
<trkpt lat="46.177848" lon="6.124246"><ele></ele><time>2017-5-18T5:57:17Z</time></trkpt>
<trkpt lat="46.177502" lon="6.124290"><ele></ele><time>2017-5-18T5:57:20Z</time></trkpt>
<trkpt lat="46.177257" lon="6.124365"><ele></ele><time>2017-5-18T5:57:23Z</time></trkpt>
<trkpt lat="46.177088" lon="6.124370"><ele></ele><time>2017-5-18T5:57:26Z</time></trkpt>
<trkpt lat="46.177046" lon="6.124385"><ele></ele><time>2017-5-18T5:57:29Z</time></trkpt>
<trkpt lat="46.177000" lon="6.124410"><ele></ele><time>2017-5-18T5:57:32Z</time></trkpt>
<trkpt lat="46.176838" lon="6.124501"><ele></ele><time>2017-5-18T5:57:35Z</time></trkpt>
<trkpt lat="46.176795" lon="6.124522"><ele></ele><time>2017-5-18T5:57:38Z</time></trkpt>
<trkpt lat="46.176755" lon="6.124545"><ele></ele><time>2017-5-18T5:57:41Z</time></trkpt>
<trkpt lat="46.176625" lon="6.124621"><ele></ele><time>2017-5-18T5:57:44Z</time></trkpt>
<trkpt lat="46.176581" lon="6.124641"><ele></ele><time>2017-5-18T5:57:47Z</time></trkpt>
<trkpt lat="46.176539" lon="6.124664"><ele></ele><time>2017-5-18T5:57:50Z</time></trkpt>
<trkpt lat="46.176124" lon="6.125021"><ele></ele><time>2017-5-18T5:57:53Z</time></trkpt>
<trkpt lat="46.175992" lon="6.125139"><ele></ele><time>2017-5-18T5:57:56Z</time></trkpt>
<trkpt lat="46.175830" lon="6.125307"><ele></ele><time>2017-5-18T5:57:59Z</time></trkpt>
<trkpt lat="46.175789" lon="6.125333"><ele></ele><time>2017-5-18T5:58:2Z</time></trkpt>
<trkpt lat="46.175745" lon="6.125356"><ele></ele><time>2017-5-18T5:58:5Z</time></trkpt>
<trkpt lat="46.175705" lon="6.125386"><ele></ele><time>2017-5-18T5:58:8Z</time></trkpt>
<trkpt lat="46.175667" lon="6.125423"><ele></ele><time>2017-5-18T5:58:11Z</time></trkpt>
<trkpt lat="46.175631" lon="6.125465"><ele></ele><time>2017-5-18T5:58:14Z</time></trkpt>
<trkpt lat="46.175593" lon="6.125514"><ele></ele><time>2017-5-18T5:58:17Z</time></trkpt>
<trkpt lat="46.175326" lon="6.125938"><ele></ele><time>2017-5-18T5:58:20Z</time></trkpt>
<trkpt lat="46.175208" lon="6.126155"><ele></ele><time>2017-5-18T5:58:23Z</time></trkpt>
<trkpt lat="46.174952" lon="6.126630"><ele></ele><time>2017-5-18T5:58:26Z</time></trkpt>
<trkpt lat="46.174918" lon="6.126671"><ele></ele><time>2017-5-18T5:58:29Z</time></trkpt>
<trkpt lat="46.174881" lon="6.126716"><ele></ele><time>2017-5-18T5:58:32Z</time></trkpt>
<trkpt lat="46.174854" lon="6.126762"><ele></ele><time>2017-5-18T5:58:35Z</time></trkpt>
<trkpt lat="46.174828" lon="6.126811"><ele></ele><time>2017-5-18T5:58:38Z</time></trkpt>
<trkpt lat="46.174690" lon="6.127063"><ele></ele><time>2017-5-18T5:58:41Z</time></trkpt>
<trkpt lat="46.174664" lon="6.127118"><ele></ele><time>2017-5-18T5:58:44Z</time></trkpt>
<trkpt lat="46.174640" lon="6.127181"><ele></ele><time>2017-5-18T5:58:47Z</time></trkpt>
<trkpt lat="46.174411" lon="6.127771"><ele></ele><time>2017-5-18T5:58:50Z</time></trkpt>
<trkpt lat="46.174394" lon="6.127821"><ele></ele><time>2017-5-18T5:58:53Z</time></trkpt>
<trkpt lat="46.174373" lon="6.127880"><ele></ele><time>2017-5-18T5:58:56Z</time></trkpt>
<trkpt lat="46.174260" lon="6.128169"><ele></ele><time>2017-5-18T5:58:59Z</time></trkpt>
<trkpt lat="46.174226" lon="6.128223"><ele></ele><time>2017-5-18T5:59:2Z</time></trkpt>
<trkpt lat="46.174202" lon="6.128259"><ele></ele><time>2017-5-18T5:59:5Z</time></trkpt>
<trkpt lat="46.174143" lon="6.128405"><ele></ele><time>2017-5-18T5:59:8Z</time></trkpt>
<trkpt lat="46.174114" lon="6.128520"><ele></ele><time>2017-5-18T5:59:11Z</time></trkpt>
<trkpt lat="46.174094" lon="6.128570"><ele></ele><time>2017-5-18T5:59:14Z</time></trkpt>
<trkpt lat="46.174066" lon="6.128609"><ele></ele><time>2017-5-18T5:59:17Z</time></trkpt>
<trkpt lat="46.174029" lon="6.128648"><ele></ele><time>2017-5-18T5:59:20Z</time></trkpt>
<trkpt lat="46.173965" lon="6.128687"><ele></ele><time>2017-5-18T5:59:23Z</time></trkpt>
<trkpt lat="46.173937" lon="6.128698"><ele></ele><time>2017-5-18T5:59:26Z</time></trkpt>
<trkpt lat="46.173898" lon="6.128713"><ele></ele><time>2017-5-18T5:59:29Z</time></trkpt>
<trkpt lat="46.173596" lon="6.128801"><ele></ele><time>2017-5-18T5:59:32Z</time></trkpt>
<trkpt lat="46.173564" lon="6.128847"><ele></ele><time>2017-5-18T5:59:35Z</time></trkpt>
<trkpt lat="46.173549" lon="6.128896"><ele></ele><time>2017-5-18T5:59:38Z</time></trkpt>
<trkpt lat="46.173543" lon="6.128956"><ele></ele><time>2017-5-18T5:59:41Z</time></trkpt>
<trkpt lat="46.173543" lon="6.129013"><ele></ele><time>2017-5-18T5:59:44Z</time></trkpt>
<trkpt lat="46.173550" lon="6.129064"><ele></ele><time>2017-5-18T5:59:47Z</time></trkpt>
<trkpt lat="46.173552" lon="6.129117"><ele></ele><time>2017-5-18T5:59:50Z</time></trkpt>
<trkpt lat="46.173541" lon="6.129161"><ele></ele><time>2017-5-18T5:59:53Z</time></trkpt>
<trkpt lat="46.173523" lon="6.129191"><ele></ele><time>2017-5-18T5:59:56Z</time></trkpt>
<trkpt lat="46.173495" lon="6.129218"><ele></ele><time>2017-5-18T5:59:59Z</time></trkpt>
<trkpt lat="46.173463" lon="6.129243"><ele></ele><time>2017-5-18T6:0:2Z</time></trkpt>
<trkpt lat="46.173435" lon="6.129260"><ele></ele><time>2017-5-18T6:0:5Z</time></trkpt>
<trkpt lat="46.173412" lon="6.129272"><ele></ele><time>2017-5-18T6:0:8Z</time></trkpt>
<trkpt lat="46.173403" lon="6.129285"><ele></ele><time>2017-5-18T6:0:11Z</time></trkpt>
<trkpt lat="46.173397" lon="6.129303"><ele></ele><time>2017-5-18T6:0:14Z</time></trkpt>
<trkpt lat="46.173375" lon="6.129333"><ele></ele><time>2017-5-18T6:0:17Z</time></trkpt>
<trkpt lat="46.173368" lon="6.129357"><ele></ele><time>2017-5-18T6:0:20Z</time></trkpt>
<trkpt lat="46.173365" lon="6.129393"><ele></ele><time>2017-5-18T6:0:23Z</time></trkpt>
<trkpt lat="46.173373" lon="6.129435"><ele></ele><time>2017-5-18T6:0:26Z</time></trkpt>
<trkpt lat="46.173405" lon="6.129488"><ele></ele><time>2017-5-18T6:0:29Z</time></trkpt>
<trkpt lat="46.173434" lon="6.129517"><ele></ele><time>2017-5-18T6:0:32Z</time></trkpt>
<trkpt lat="46.173462" lon="6.129540"><ele></ele><time>2017-5-18T6:0:35Z</time></trkpt>
<trkpt lat="46.173500" lon="6.129568"><ele></ele><time>2017-5-18T6:0:38Z</time></trkpt>
<trkpt lat="46.173847" lon="6.129807"><ele></ele><time>2017-5-18T6:0:41Z</time></trkpt>
<trkpt lat="46.174128" lon="6.129999"><ele></ele><time>2017-5-18T6:0:44Z</time></trkpt>
<trkpt lat="46.174223" lon="6.130074"><ele></ele><time>2017-5-18T6:0:47Z</time></trkpt>
<trkpt lat="46.174225" lon="6.130110"><ele></ele><time>2017-5-18T6:0:50Z</time></trkpt>
<trkpt lat="46.174212" lon="6.130159"><ele></ele><time>2017-5-18T6:0:53Z</time></trkpt>
<trkpt lat="46.174187" lon="6.130213"><ele></ele><time>2017-5-18T6:0:56Z</time></trkpt>
<trkpt lat="46.174169" lon="6.130253"><ele></ele><time>2017-5-18T6:0:59Z</time></trkpt>
<trkpt lat="46.174151" lon="6.130298"><ele></ele><time>2017-5-18T6:1:2Z</time></trkpt>
<trkpt lat="46.173957" lon="6.130747"><ele></ele><time>2017-5-18T6:1:5Z</time></trkpt>
<trkpt lat="46.173770" lon="6.131149"><ele></ele><time>2017-5-18T6:1:8Z</time></trkpt>
<trkpt lat="46.173625" lon="6.131456"><ele></ele><time>2017-5-18T6:1:11Z</time></trkpt>
<trkpt lat="46.173537" lon="6.131616"><ele></ele><time>2017-5-18T6:1:14Z</time></trkpt>
<trkpt lat="46.173429" lon="6.131850"><ele></ele><time>2017-5-18T6:1:17Z</time></trkpt>
<trkpt lat="46.173287" lon="6.132169"><ele></ele><time>2017-5-18T6:1:20Z</time></trkpt>
<trkpt lat="46.173122" lon="6.132519"><ele></ele><time>2017-5-18T6:1:23Z</time></trkpt>
<trkpt lat="46.172981" lon="6.132832"><ele></ele><time>2017-5-18T6:1:26Z</time></trkpt>
<trkpt lat="46.172863" lon="6.133077"><ele></ele><time>2017-5-18T6:1:29Z</time></trkpt>
<trkpt lat="46.172740" lon="6.133343"><ele></ele><time>2017-5-18T6:1:32Z</time></trkpt>
<trkpt lat="46.172601" lon="6.133623"><ele></ele><time>2017-5-18T6:1:35Z</time></trkpt>
<trkpt lat="46.172451" lon="6.133859"><ele></ele><time>2017-5-18T6:1:38Z</time></trkpt>
<trkpt lat="46.172268" lon="6.134090"><ele></ele><time>2017-5-18T6:1:41Z</time></trkpt>
<trkpt lat="46.172044" lon="6.134321"><ele></ele><time>2017-5-18T6:1:44Z</time></trkpt>
<trkpt lat="46.171807" lon="6.134550"><ele></ele><time>2017-5-18T6:1:47Z</time></trkpt>
<trkpt lat="46.171561" lon="6.134797"><ele></ele><time>2017-5-18T6:1:50Z</time></trkpt>
<trkpt lat="46.171379" lon="6.135007"><ele></ele><time>2017-5-18T6:1:53Z</time></trkpt>
<trkpt lat="46.171236" lon="6.135176"><ele></ele><time>2017-5-18T6:1:56Z</time></trkpt>
<trkpt lat="46.171203" lon="6.135203"><ele></ele><time>2017-5-18T6:1:59Z</time></trkpt>
<trkpt lat="46.171175" lon="6.135234"><ele></ele><time>2017-5-18T6:2:2Z</time></trkpt>
<trkpt lat="46.171150" lon="6.135268"><ele></ele><time>2017-5-18T6:2:5Z</time></trkpt>
<trkpt lat="46.171124" lon="6.135304"><ele></ele><time>2017-5-18T6:2:8Z</time></trkpt>
<trkpt lat="46.171096" lon="6.135338"><ele></ele><time>2017-5-18T6:2:11Z</time></trkpt>
<trkpt lat="46.171068" lon="6.135370"><ele></ele><time>2017-5-18T6:2:14Z</time></trkpt>
<trkpt lat="46.170839" lon="6.135655"><ele></ele><time>2017-5-18T6:2:17Z</time></trkpt>
<trkpt lat="46.170590" lon="6.135930"><ele></ele><time>2017-5-18T6:2:20Z</time></trkpt>
<trkpt lat="46.170273" lon="6.136304"><ele></ele><time>2017-5-18T6:2:23Z</time></trkpt>
<trkpt lat="46.170053" lon="6.136539"><ele></ele><time>2017-5-18T6:2:26Z</time></trkpt>
<trkpt lat="46.169805" lon="6.136837"><ele></ele><time>2017-5-18T6:2:29Z</time></trkpt>
<trkpt lat="46.169529" lon="6.137168"><ele></ele><time>2017-5-18T6:2:32Z</time></trkpt>
<trkpt lat="46.169269" lon="6.137480"><ele></ele><time>2017-5-18T6:2:35Z</time></trkpt>
<trkpt lat="46.169059" lon="6.137706"><ele></ele><time>2017-5-18T6:2:38Z</time></trkpt>
<trkpt lat="46.168800" lon="6.138021"><ele></ele><time>2017-5-18T6:2:41Z</time></trkpt>
<trkpt lat="46.168555" lon="6.138327"><ele></ele><time>2017-5-18T6:2:44Z</time></trkpt>
<trkpt lat="46.168451" lon="6.138451"><ele></ele><time>2017-5-18T6:2:47Z</time></trkpt>
<trkpt lat="46.168109" lon="6.138862"><ele></ele><time>2017-5-18T6:2:50Z</time></trkpt>
<trkpt lat="46.167754" lon="6.139336"><ele></ele><time>2017-5-18T6:2:53Z</time></trkpt>
<trkpt lat="46.167658" lon="6.139479"><ele></ele><time>2017-5-18T6:2:56Z</time></trkpt>
<trkpt lat="46.167546" lon="6.139666"><ele></ele><time>2017-5-18T6:2:59Z</time></trkpt>
<trkpt lat="46.167363" lon="6.139967"><ele></ele><time>2017-5-18T6:3:2Z</time></trkpt>
<trkpt lat="46.167128" lon="6.140374"><ele></ele><time>2017-5-18T6:3:5Z</time></trkpt>
<trkpt lat="46.167002" lon="6.140789"><ele></ele><time>2017-5-18T6:3:8Z</time></trkpt>
<trkpt lat="46.166829" lon="6.141129"><ele></ele><time>2017-5-18T6:3:11Z</time></trkpt>
<trkpt lat="46.166645" lon="6.141573"><ele></ele><time>2017-5-18T6:3:14Z</time></trkpt>
<trkpt lat="46.166456" lon="6.142018"><ele></ele><time>2017-5-18T6:3:17Z</time></trkpt>
<trkpt lat="46.166272" lon="6.142404"><ele></ele><time>2017-5-18T6:3:20Z</time></trkpt>
<trkpt lat="46.166130" lon="6.142702"><ele></ele><time>2017-5-18T6:3:23Z</time></trkpt>
<trkpt lat="46.166012" lon="6.142907"><ele></ele><time>2017-5-18T6:3:26Z</time></trkpt>
<trkpt lat="46.165946" lon="6.143070"><ele></ele><time>2017-5-18T6:3:29Z</time></trkpt>
<trkpt lat="46.165693" lon="6.143644"><ele></ele><time>2017-5-18T6:3:32Z</time></trkpt>
<trkpt lat="46.165510" lon="6.144054"><ele></ele><time>2017-5-18T6:3:35Z</time></trkpt>
<trkpt lat="46.165491" lon="6.144100"><ele></ele><time>2017-5-18T6:3:38Z</time></trkpt>
<trkpt lat="46.165288" lon="6.144541"><ele></ele><time>2017-5-18T6:3:41Z</time></trkpt>
<trkpt lat="46.165121" lon="6.144915"><ele></ele><time>2017-5-18T6:3:44Z</time></trkpt>
<trkpt lat="46.164908" lon="6.145370"><ele></ele><time>2017-5-18T6:3:47Z</time></trkpt>
<trkpt lat="46.164774" lon="6.145677"><ele></ele><time>2017-5-18T6:3:50Z</time></trkpt>
<trkpt lat="46.164842" lon="6.145844"><ele></ele><time>2017-5-18T6:3:53Z</time></trkpt>
<trkpt lat="46.165012" lon="6.145989"><ele></ele><time>2017-5-18T6:3:56Z</time></trkpt>
<trkpt lat="46.165301" lon="6.146258"><ele></ele><time>2017-5-18T6:3:59Z</time></trkpt>
<trkpt lat="46.165439" lon="6.146467"><ele></ele><time>2017-5-18T6:4:2Z</time></trkpt>
<trkpt lat="46.165433" lon="6.146499"><ele></ele><time>2017-5-18T6:4:5Z</time></trkpt>
<trkpt lat="46.165425" lon="6.146515"><ele></ele><time>2017-5-18T6:4:8Z</time></trkpt>
<trkpt lat="46.165408" lon="6.146545"><ele></ele><time>2017-5-18T6:4:11Z</time></trkpt>
<trkpt lat="46.165387" lon="6.146579"><ele></ele><time>2017-5-18T6:4:14Z</time></trkpt>
<trkpt lat="46.165365" lon="6.146612"><ele></ele><time>2017-5-18T6:4:17Z</time></trkpt>
<trkpt lat="46.165343" lon="6.146644"><ele></ele><time>2017-5-18T6:4:20Z</time></trkpt>
<trkpt lat="46.165321" lon="6.146674"><ele></ele><time>2017-5-18T6:4:23Z</time></trkpt>
<trkpt lat="46.165141" lon="6.146885"><ele></ele><time>2017-5-18T6:4:26Z</time></trkpt>
<trkpt lat="46.164771" lon="6.147306"><ele></ele><time>2017-5-18T6:4:29Z</time></trkpt>
<trkpt lat="46.164482" lon="6.147632"><ele></ele><time>2017-5-18T6:4:32Z</time></trkpt>
<trkpt lat="46.164170" lon="6.148033"><ele></ele><time>2017-5-18T6:4:35Z</time></trkpt>
<trkpt lat="46.163946" lon="6.148378"><ele></ele><time>2017-5-18T6:4:38Z</time></trkpt>
<trkpt lat="46.163750" lon="6.148723"><ele></ele><time>2017-5-18T6:4:41Z</time></trkpt>
<trkpt lat="46.163614" lon="6.148988"><ele></ele><time>2017-5-18T6:4:44Z</time></trkpt>
<trkpt lat="46.163460" lon="6.149276"><ele></ele><time>2017-5-18T6:4:47Z</time></trkpt>
<trkpt lat="46.163249" lon="6.149761"><ele></ele><time>2017-5-18T6:4:50Z</time></trkpt>
<trkpt lat="46.162976" lon="6.150187"><ele></ele><time>2017-5-18T6:4:53Z</time></trkpt>
<trkpt lat="46.162664" lon="6.150666"><ele></ele><time>2017-5-18T6:4:56Z</time></trkpt>
<trkpt lat="46.162565" lon="6.150875"><ele></ele><time>2017-5-18T6:4:59Z</time></trkpt>
<trkpt lat="46.162409" lon="6.151279"><ele></ele><time>2017-5-18T6:5:2Z</time></trkpt>
<trkpt lat="46.162257" lon="6.151661"><ele></ele><time>2017-5-18T6:5:5Z</time></trkpt>
<trkpt lat="46.162125" lon="6.151883"><ele></ele><time>2017-5-18T6:5:8Z</time></trkpt>
<trkpt lat="46.161935" lon="6.151861"><ele></ele><time>2017-5-18T6:5:11Z</time></trkpt>
<trkpt lat="46.161892" lon="6.151861"><ele></ele><time>2017-5-18T6:5:14Z</time></trkpt>
<trkpt lat="46.161850" lon="6.151878"><ele></ele><time>2017-5-18T6:5:17Z</time></trkpt>
<trkpt lat="46.161814" lon="6.151917"><ele></ele><time>2017-5-18T6:5:20Z</time></trkpt>
<trkpt lat="46.161793" lon="6.151955"><ele></ele><time>2017-5-18T6:5:23Z</time></trkpt>
<trkpt lat="46.161780" lon="6.151989"><ele></ele><time>2017-5-18T6:5:26Z</time></trkpt>
<trkpt lat="46.161768" lon="6.152024"><ele></ele><time>2017-5-18T6:5:29Z</time></trkpt>
<trkpt lat="46.161703" lon="6.152220"><ele></ele><time>2017-5-18T6:5:32Z</time></trkpt>
<trkpt lat="46.161642" lon="6.152483"><ele></ele><time>2017-5-18T6:5:35Z</time></trkpt>
<trkpt lat="46.161527" lon="6.152934"><ele></ele><time>2017-5-18T6:5:38Z</time></trkpt>
<trkpt lat="46.161369" lon="6.153579"><ele></ele><time>2017-5-18T6:5:41Z</time></trkpt>
<trkpt lat="46.161334" lon="6.153816"><ele></ele><time>2017-5-18T6:5:44Z</time></trkpt>
<trkpt lat="46.161327" lon="6.153936"><ele></ele><time>2017-5-18T6:5:47Z</time></trkpt>
<trkpt lat="46.161377" lon="6.154653"><ele></ele><time>2017-5-18T6:5:50Z</time></trkpt>
<trkpt lat="46.161377" lon="6.154764"><ele></ele><time>2017-5-18T6:5:53Z</time></trkpt>
<trkpt lat="46.161368" lon="6.154876"><ele></ele><time>2017-5-18T6:5:56Z</time></trkpt>
<trkpt lat="46.161350" lon="6.154980"><ele></ele><time>2017-5-18T6:5:59Z</time></trkpt>
<trkpt lat="46.161322" lon="6.155080"><ele></ele><time>2017-5-18T6:6:2Z</time></trkpt>
<trkpt lat="46.161291" lon="6.155168"><ele></ele><time>2017-5-18T6:6:5Z</time></trkpt>
<trkpt lat="46.161257" lon="6.155253"><ele></ele><time>2017-5-18T6:6:8Z</time></trkpt>
<trkpt lat="46.161192" lon="6.155413"><ele></ele><time>2017-5-18T6:6:11Z</time></trkpt>
<trkpt lat="46.160949" lon="6.155918"><ele></ele><time>2017-5-18T6:6:14Z</time></trkpt>
<trkpt lat="46.160783" lon="6.156276"><ele></ele><time>2017-5-18T6:6:17Z</time></trkpt>
<trkpt lat="46.160754" lon="6.156326"><ele></ele><time>2017-5-18T6:6:20Z</time></trkpt>
<trkpt lat="46.160469" lon="6.156866"><ele></ele><time>2017-5-18T6:6:23Z</time></trkpt>
<trkpt lat="46.160215" lon="6.157258"><ele></ele><time>2017-5-18T6:6:26Z</time></trkpt>
<trkpt lat="46.159860" lon="6.157617"><ele></ele><time>2017-5-18T6:6:29Z</time></trkpt>
<trkpt lat="46.159784" lon="6.157699"><ele></ele><time>2017-5-18T6:6:32Z</time></trkpt>
<trkpt lat="46.159746" lon="6.157735"><ele></ele><time>2017-5-18T6:6:35Z</time></trkpt>
<trkpt lat="46.159484" lon="6.158085"><ele></ele><time>2017-5-18T6:6:38Z</time></trkpt>
<trkpt lat="46.159130" lon="6.158526"><ele></ele><time>2017-5-18T6:6:41Z</time></trkpt>
<trkpt lat="46.158833" lon="6.158816"><ele></ele><time>2017-5-18T6:6:44Z</time></trkpt>
<trkpt lat="46.158536" lon="6.159071"><ele></ele><time>2017-5-18T6:6:47Z</time></trkpt>
<trkpt lat="46.158271" lon="6.159321"><ele></ele><time>2017-5-18T6:6:50Z</time></trkpt>
<trkpt lat="46.158151" lon="6.159454"><ele></ele><time>2017-5-18T6:6:53Z</time></trkpt>
<trkpt lat="46.158127" lon="6.159534"><ele></ele><time>2017-5-18T6:6:56Z</time></trkpt>
<trkpt lat="46.158130" lon="6.159575"><ele></ele><time>2017-5-18T6:6:59Z</time></trkpt>
<trkpt lat="46.158135" lon="6.159606"><ele></ele><time>2017-5-18T6:7:2Z</time></trkpt>
<trkpt lat="46.158266" lon="6.159971"><ele></ele><time>2017-5-18T6:7:5Z</time></trkpt>
<trkpt lat="46.158288" lon="6.160027"><ele></ele><time>2017-5-18T6:7:8Z</time></trkpt>
<trkpt lat="46.158531" lon="6.160596"><ele></ele><time>2017-5-18T6:7:11Z</time></trkpt>
<trkpt lat="46.158724" lon="6.161068"><ele></ele><time>2017-5-18T6:7:14Z</time></trkpt>
<trkpt lat="46.158898" lon="6.161538"><ele></ele><time>2017-5-18T6:7:17Z</time></trkpt>
<trkpt lat="46.159097" lon="6.162135"><ele></ele><time>2017-5-18T6:7:20Z</time></trkpt>
<trkpt lat="46.159243" lon="6.162655"><ele></ele><time>2017-5-18T6:7:23Z</time></trkpt>
<trkpt lat="46.159401" lon="6.163250"><ele></ele><time>2017-5-18T6:7:26Z</time></trkpt>
<trkpt lat="46.159449" lon="6.163427"><ele></ele><time>2017-5-18T6:7:29Z</time></trkpt>
<trkpt lat="46.159458" lon="6.163490"><ele></ele><time>2017-5-18T6:7:32Z</time></trkpt>
<trkpt lat="46.159466" lon="6.163550"><ele></ele><time>2017-5-18T6:7:35Z</time></trkpt>
<trkpt lat="46.159620" lon="6.164335"><ele></ele><time>2017-5-18T6:7:38Z</time></trkpt>
<trkpt lat="46.159697" lon="6.164899"><ele></ele><time>2017-5-18T6:7:41Z</time></trkpt>
<trkpt lat="46.159796" lon="6.165723"><ele></ele><time>2017-5-18T6:7:44Z</time></trkpt>
<trkpt lat="46.159872" lon="6.166428"><ele></ele><time>2017-5-18T6:7:47Z</time></trkpt>
<trkpt lat="46.159899" lon="6.166688"><ele></ele><time>2017-5-18T6:7:50Z</time></trkpt>
<trkpt lat="46.160003" lon="6.167532"><ele></ele><time>2017-5-18T6:7:53Z</time></trkpt>
<trkpt lat="46.160096" lon="6.168323"><ele></ele><time>2017-5-18T6:7:56Z</time></trkpt>
<trkpt lat="46.160176" lon="6.169023"><ele></ele><time>2017-5-18T6:7:59Z</time></trkpt>
<trkpt lat="46.160212" lon="6.169403"><ele></ele><time>2017-5-18T6:8:2Z</time></trkpt>
<trkpt lat="46.160217" lon="6.169465"><ele></ele><time>2017-5-18T6:8:5Z</time></trkpt>
<trkpt lat="46.160283" lon="6.169955"><ele></ele><time>2017-5-18T6:8:8Z</time></trkpt>
<trkpt lat="46.160351" lon="6.170560"><ele></ele><time>2017-5-18T6:8:11Z</time></trkpt>
<trkpt lat="46.160427" lon="6.171202"><ele></ele><time>2017-5-18T6:8:14Z</time></trkpt>
<trkpt lat="46.160495" lon="6.171772"><ele></ele><time>2017-5-18T6:8:17Z</time></trkpt>
<trkpt lat="46.160530" lon="6.172063"><ele></ele><time>2017-5-18T6:8:20Z</time></trkpt>
<trkpt lat="46.160537" lon="6.172119"><ele></ele><time>2017-5-18T6:8:23Z</time></trkpt>
<trkpt lat="46.160596" lon="6.172644"><ele></ele><time>2017-5-18T6:8:26Z</time></trkpt>
<trkpt lat="46.160663" lon="6.173247"><ele></ele><time>2017-5-18T6:8:29Z</time></trkpt>
<trkpt lat="46.160668" lon="6.173309"><ele></ele><time>2017-5-18T6:8:32Z</time></trkpt>
<trkpt lat="46.160753" lon="6.174020"><ele></ele><time>2017-5-18T6:8:35Z</time></trkpt>
<trkpt lat="46.160832" lon="6.174660"><ele></ele><time>2017-5-18T6:8:38Z</time></trkpt>
<trkpt lat="46.160891" lon="6.175226"><ele></ele><time>2017-5-18T6:8:41Z</time></trkpt>
<trkpt lat="46.160965" lon="6.175846"><ele></ele><time>2017-5-18T6:8:44Z</time></trkpt>
<trkpt lat="46.161040" lon="6.176451"><ele></ele><time>2017-5-18T6:8:47Z</time></trkpt>
<trkpt lat="46.161176" lon="6.176951"><ele></ele><time>2017-5-18T6:8:50Z</time></trkpt>
<trkpt lat="46.161362" lon="6.177346"><ele></ele><time>2017-5-18T6:8:53Z</time></trkpt>
<trkpt lat="46.161596" lon="6.177615"><ele></ele><time>2017-5-18T6:8:56Z</time></trkpt>
<trkpt lat="46.161883" lon="6.177898"><ele></ele><time>2017-5-18T6:8:59Z</time></trkpt>
<trkpt lat="46.162133" lon="6.178112"><ele></ele><time>2017-5-18T6:9:2Z</time></trkpt>
<trkpt lat="46.162374" lon="6.178371"><ele></ele><time>2017-5-18T6:9:5Z</time></trkpt>
<trkpt lat="46.162595" lon="6.178600"><ele></ele><time>2017-5-18T6:9:8Z</time></trkpt>
<trkpt lat="46.162854" lon="6.178829"><ele></ele><time>2017-5-18T6:9:11Z</time></trkpt>
<trkpt lat="46.162885" lon="6.178868"><ele></ele><time>2017-5-18T6:9:14Z</time></trkpt>
<trkpt lat="46.162917" lon="6.178912"><ele></ele><time>2017-5-18T6:9:17Z</time></trkpt>
<trkpt lat="46.162948" lon="6.178947"><ele></ele><time>2017-5-18T6:9:20Z</time></trkpt>
<trkpt lat="46.162979" lon="6.178983"><ele></ele><time>2017-5-18T6:9:23Z</time></trkpt>
<trkpt lat="46.163011" lon="6.179020"><ele></ele><time>2017-5-18T6:9:26Z</time></trkpt>
<trkpt lat="46.163044" lon="6.179054"><ele></ele><time>2017-5-18T6:9:29Z</time></trkpt>
<trkpt lat="46.163077" lon="6.179098"><ele></ele><time>2017-5-18T6:9:32Z</time></trkpt>
<trkpt lat="46.163111" lon="6.179146"><ele></ele><time>2017-5-18T6:9:35Z</time></trkpt>
<trkpt lat="46.163148" lon="6.179188"><ele></ele><time>2017-5-18T6:9:38Z</time></trkpt>
<trkpt lat="46.163348" lon="6.179406"><ele></ele><time>2017-5-18T6:9:41Z</time></trkpt>
<trkpt lat="46.163355" lon="6.179472"><ele></ele><time>2017-5-18T6:9:44Z</time></trkpt>
<trkpt lat="46.163351" lon="6.179515"><ele></ele><time>2017-5-18T6:9:47Z</time></trkpt>
<trkpt lat="46.163350" lon="6.179584"><ele></ele><time>2017-5-18T6:9:50Z</time></trkpt>
<trkpt lat="46.163345" lon="6.179672"><ele></ele><time>2017-5-18T6:9:53Z</time></trkpt>
<trkpt lat="46.163346" lon="6.180220"><ele></ele><time>2017-5-18T6:9:56Z</time></trkpt>
<trkpt lat="46.163464" lon="6.180727"><ele></ele><time>2017-5-18T6:9:59Z</time></trkpt>
<trkpt lat="46.163583" lon="6.181130"><ele></ele><time>2017-5-18T6:10:2Z</time></trkpt>
<trkpt lat="46.163701" lon="6.181553"><ele></ele><time>2017-5-18T6:10:5Z</time></trkpt>
<trkpt lat="46.163821" lon="6.181942"><ele></ele><time>2017-5-18T6:10:8Z</time></trkpt>
<trkpt lat="46.163970" lon="6.182303"><ele></ele><time>2017-5-18T6:10:11Z</time></trkpt>
<trkpt lat="46.164149" lon="6.182604"><ele></ele><time>2017-5-18T6:10:14Z</time></trkpt>
<trkpt lat="46.164396" lon="6.182989"><ele></ele><time>2017-5-18T6:10:17Z</time></trkpt>
<trkpt lat="46.164601" lon="6.183264"><ele></ele><time>2017-5-18T6:10:20Z</time></trkpt>
<trkpt lat="46.164841" lon="6.183570"><ele></ele><time>2017-5-18T6:10:23Z</time></trkpt>
<trkpt lat="46.164963" lon="6.183799"><ele></ele><time>2017-5-18T6:10:26Z</time></trkpt>
<trkpt lat="46.164965" lon="6.183848"><ele></ele><time>2017-5-18T6:10:29Z</time></trkpt>
<trkpt lat="46.164967" lon="6.183880"><ele></ele><time>2017-5-18T6:10:32Z</time></trkpt>
<trkpt lat="46.164971" lon="6.183927"><ele></ele><time>2017-5-18T6:10:35Z</time></trkpt>
<trkpt lat="46.164976" lon="6.183967"><ele></ele><time>2017-5-18T6:10:38Z</time></trkpt>
<trkpt lat="46.165023" lon="6.184241"><ele></ele><time>2017-5-18T6:10:41Z</time></trkpt>
<trkpt lat="46.165104" lon="6.184382"><ele></ele><time>2017-5-18T6:10:44Z</time></trkpt>
<trkpt lat="46.165113" lon="6.184396"><ele></ele><time>2017-5-18T6:10:47Z</time></trkpt>
<trkpt lat="46.165113" lon="6.184410"><ele></ele><time>2017-5-18T6:10:50Z</time></trkpt>
<trkpt lat="46.165116" lon="6.184425"><ele></ele><time>2017-5-18T6:10:53Z</time></trkpt>
<trkpt lat="46.165125" lon="6.184428"><ele></ele><time>2017-5-18T6:10:56Z</time></trkpt>
<trkpt lat="46.165131" lon="6.184420"><ele></ele><time>2017-5-18T6:10:59Z</time></trkpt>
<trkpt lat="46.165142" lon="6.184416"><ele></ele><time>2017-5-18T6:11:2Z</time></trkpt>
<trkpt lat="46.165148" lon="6.184424"><ele></ele><time>2017-5-18T6:11:5Z</time></trkpt>
<trkpt lat="46.165136" lon="6.184412"><ele></ele><time>2017-5-18T6:11:8Z</time></trkpt>
<trkpt lat="46.165125" lon="6.184404"><ele></ele><time>2017-5-18T6:11:11Z</time></trkpt>
<trkpt lat="46.165121" lon="6.184382"><ele></ele><time>2017-5-18T6:11:14Z</time></trkpt>
<trkpt lat="46.165120" lon="6.184395"><ele></ele><time>2017-5-18T6:11:17Z</time></trkpt>
<trkpt lat="46.165099" lon="6.184408"><ele></ele><time>2017-5-18T6:11:20Z</time></trkpt>
<trkpt lat="46.165126" lon="6.184546"><ele></ele><time>2017-5-18T6:11:23Z</time></trkpt>
<trkpt lat="46.165195" lon="6.184794"><ele></ele><time>2017-5-18T6:11:26Z</time></trkpt>
<trkpt lat="46.165320" lon="6.185101"><ele></ele><time>2017-5-18T6:11:29Z</time></trkpt>
<trkpt lat="46.165486" lon="6.185268"><ele></ele><time>2017-5-18T6:11:32Z</time></trkpt>
<trkpt lat="46.165628" lon="6.185265"><ele></ele><time>2017-5-18T6:11:35Z</time></trkpt>
<trkpt lat="46.165837" lon="6.185127"><ele></ele><time>2017-5-18T6:11:38Z</time></trkpt>
<trkpt lat="46.165874" lon="6.185142"><ele></ele><time>2017-5-18T6:11:41Z</time></trkpt>
<trkpt lat="46.166158" lon="6.185288"><ele></ele><time>2017-5-18T6:11:44Z</time></trkpt>
<trkpt lat="46.166195" lon="6.185313"><ele></ele><time>2017-5-18T6:11:47Z</time></trkpt>
<trkpt lat="46.166315" lon="6.185390"><ele></ele><time>2017-5-18T6:11:50Z</time></trkpt>
<trkpt lat="46.166446" lon="6.185477"><ele></ele><time>2017-5-18T6:11:53Z</time></trkpt>
<trkpt lat="46.166699" lon="6.185735"><ele></ele><time>2017-5-18T6:11:56Z</time></trkpt>
<trkpt lat="46.166875" lon="6.185875"><ele></ele><time>2017-5-18T6:11:59Z</time></trkpt>
<trkpt lat="46.166937" lon="6.186113"><ele></ele><time>2017-5-18T6:12:2Z</time></trkpt>
<trkpt lat="46.166987" lon="6.186397"><ele></ele><time>2017-5-18T6:12:5Z</time></trkpt>
<trkpt lat="46.167065" lon="6.186666"><ele></ele><time>2017-5-18T6:12:8Z</time></trkpt>
<trkpt lat="46.167058" lon="6.186693"><ele></ele><time>2017-5-18T6:12:11Z</time></trkpt>
<trkpt lat="46.167047" lon="6.186722"><ele></ele><time>2017-5-18T6:12:14Z</time></trkpt>
<trkpt lat="46.166925" lon="6.187073"><ele></ele><time>2017-5-18T6:12:17Z</time></trkpt>
<trkpt lat="46.166697" lon="6.187720"><ele></ele><time>2017-5-18T6:12:20Z</time></trkpt>
<trkpt lat="46.166675" lon="6.187772"><ele></ele><time>2017-5-18T6:12:23Z</time></trkpt>
<trkpt lat="46.166616" lon="6.187906"><ele></ele><time>2017-5-18T6:12:26Z</time></trkpt>
<trkpt lat="46.166584" lon="6.187965"><ele></ele><time>2017-5-18T6:12:29Z</time></trkpt>
<trkpt lat="46.166308" lon="6.188482"><ele></ele><time>2017-5-18T6:12:32Z</time></trkpt>
<trkpt lat="46.166259" lon="6.188561"><ele></ele><time>2017-5-18T6:12:35Z</time></trkpt>
<trkpt lat="46.166255" lon="6.188561"><ele></ele><time>2017-5-18T6:12:38Z</time></trkpt>
<trkpt lat="46.166210" lon="6.188623"><ele></ele><time>2017-5-18T6:12:41Z</time></trkpt>
<trkpt lat="46.166191" lon="6.188654"><ele></ele><time>2017-5-18T6:12:44Z</time></trkpt>
<trkpt lat="46.166159" lon="6.188716"><ele></ele><time>2017-5-18T6:12:47Z</time></trkpt>
<trkpt lat="46.166155" lon="6.188746"><ele></ele><time>2017-5-18T6:12:50Z</time></trkpt>
<trkpt lat="46.166162" lon="6.188791"><ele></ele><time>2017-5-18T6:12:53Z</time></trkpt>
<trkpt lat="46.166171" lon="6.188811"><ele></ele><time>2017-5-18T6:12:56Z</time></trkpt>
<trkpt lat="46.166200" lon="6.188935"><ele></ele><time>2017-5-18T6:12:59Z</time></trkpt>
<trkpt lat="46.166191" lon="6.188994"><ele></ele><time>2017-5-18T6:13:2Z</time></trkpt>
<trkpt lat="46.166174" lon="6.189043"><ele></ele><time>2017-5-18T6:13:5Z</time></trkpt>
<trkpt lat="46.166149" lon="6.189087"><ele></ele><time>2017-5-18T6:13:8Z</time></trkpt>
<trkpt lat="46.166082" lon="6.189137"><ele></ele><time>2017-5-18T6:13:11Z</time></trkpt>
<trkpt lat="46.166063" lon="6.189143"><ele></ele><time>2017-5-18T6:13:14Z</time></trkpt>
<trkpt lat="46.166043" lon="6.189153"><ele></ele><time>2017-5-18T6:13:17Z</time></trkpt>
<trkpt lat="46.166020" lon="6.189170"><ele></ele><time>2017-5-18T6:13:20Z</time></trkpt>
<trkpt lat="46.165996" lon="6.189188"><ele></ele><time>2017-5-18T6:13:23Z</time></trkpt>
<trkpt lat="46.165797" lon="6.189326"><ele></ele><time>2017-5-18T6:13:26Z</time></trkpt>
<trkpt lat="46.165595" lon="6.189472"><ele></ele><time>2017-5-18T6:13:29Z</time></trkpt>
<trkpt lat="46.165333" lon="6.189704"><ele></ele><time>2017-5-18T6:13:32Z</time></trkpt>
<trkpt lat="46.165105" lon="6.189953"><ele></ele><time>2017-5-18T6:13:35Z</time></trkpt>
<trkpt lat="46.165026" lon="6.190077"><ele></ele><time>2017-5-18T6:13:38Z</time></trkpt>
<trkpt lat="46.165003" lon="6.190127"><ele></ele><time>2017-5-18T6:13:41Z</time></trkpt>
<trkpt lat="46.164984" lon="6.190178"><ele></ele><time>2017-5-18T6:13:44Z</time></trkpt>
<trkpt lat="46.164898" lon="6.190539"><ele></ele><time>2017-5-18T6:13:47Z</time></trkpt>
<trkpt lat="46.164733" lon="6.190783"><ele></ele><time>2017-5-18T6:13:50Z</time></trkpt>
<trkpt lat="46.164634" lon="6.190853"><ele></ele><time>2017-5-18T6:13:53Z</time></trkpt>
<trkpt lat="46.164492" lon="6.190935"><ele></ele><time>2017-5-18T6:13:56Z</time></trkpt>
<trkpt lat="46.164378" lon="6.190997"><ele></ele><time>2017-5-18T6:13:59Z</time></trkpt>
<trkpt lat="46.164350" lon="6.190985"><ele></ele><time>2017-5-18T6:14:2Z</time></trkpt>
<trkpt lat="46.164335" lon="6.190966"><ele></ele><time>2017-5-18T6:14:5Z</time></trkpt>
<trkpt lat="46.164321" lon="6.190929"><ele></ele><time>2017-5-18T6:14:8Z</time></trkpt>
<trkpt lat="46.164313" lon="6.190910"><ele></ele><time>2017-5-18T6:14:11Z</time></trkpt>
<trkpt lat="46.164219" lon="6.190640"><ele></ele><time>2017-5-18T6:14:14Z</time></trkpt>
<trkpt lat="46.164036" lon="6.190227"><ele></ele><time>2017-5-18T6:14:17Z</time></trkpt>
<trkpt lat="46.163817" lon="6.189756"><ele></ele><time>2017-5-18T6:14:20Z</time></trkpt>
<trkpt lat="46.163559" lon="6.189349"><ele></ele><time>2017-5-18T6:14:23Z</time></trkpt>
<trkpt lat="46.163358" lon="6.189276"><ele></ele><time>2017-5-18T6:14:26Z</time></trkpt>
<trkpt lat="46.163054" lon="6.189335"><ele></ele><time>2017-5-18T6:14:29Z</time></trkpt>
<trkpt lat="46.162930" lon="6.189344"><ele></ele><time>2017-5-18T6:14:32Z</time></trkpt>
<trkpt lat="46.162783" lon="6.189325"><ele></ele><time>2017-5-18T6:14:35Z</time></trkpt>
<trkpt lat="46.162766" lon="6.189286"><ele></ele><time>2017-5-18T6:14:38Z</time></trkpt>
<trkpt lat="46.162764" lon="6.189275"><ele></ele><time>2017-5-18T6:14:41Z</time></trkpt>
<trkpt lat="46.162768" lon="6.189256"><ele></ele><time>2017-5-18T6:14:44Z</time></trkpt>
<trkpt lat="46.162748" lon="6.189264"><ele></ele><time>2017-5-18T6:14:47Z</time></trkpt>
<trkpt lat="46.162753" lon="6.189308"><ele></ele><time>2017-5-18T6:14:50Z</time></trkpt>
<trkpt lat="46.162741" lon="6.189288"><ele></ele><time>2017-5-18T6:14:53Z</time></trkpt>
<trkpt lat="46.162754" lon="6.189256"><ele></ele><time>2017-5-18T6:14:56Z</time></trkpt>
<trkpt lat="46.162761" lon="6.189269"><ele></ele><time>2017-5-18T6:14:59Z</time></trkpt>
<trkpt lat="46.162758" lon="6.189286"><ele></ele><time>2017-5-18T6:15:2Z</time></trkpt>
<trkpt lat="46.162765" lon="6.189279"><ele></ele><time>2017-5-18T6:15:5Z</time></trkpt>
<trkpt lat="46.162764" lon="6.189269"><ele></ele><time>2017-5-18T6:15:8Z</time></trkpt>
<trkpt lat="46.162752" lon="6.189280"><ele></ele><time>2017-5-18T6:15:11Z</time></trkpt>
<trkpt lat="46.162763" lon="6.189305"><ele></ele><time>2017-5-18T6:15:14Z</time></trkpt>
<trkpt lat="46.162756" lon="6.189326"><ele></ele><time>2017-5-18T6:15:17Z</time></trkpt>
<trkpt lat="46.162746" lon="6.189325"><ele></ele><time>2017-5-18T6:15:20Z</time></trkpt>
<trkpt lat="46.162744" lon="6.189355"><ele></ele><time>2017-5-18T6:15:23Z</time></trkpt>
<trkpt lat="46.162742" lon="6.189339"><ele></ele><time>2017-5-18T6:15:26Z</time></trkpt>
<trkpt lat="46.162742" lon="6.189345"><ele></ele><time>2017-5-18T6:15:29Z</time></trkpt>
<trkpt lat="46.162743" lon="6.189349"><ele></ele><time>2017-5-18T6:15:32Z</time></trkpt>
<trkpt lat="46.162761" lon="6.189341"><ele></ele><time>2017-5-18T6:15:35Z</time></trkpt>
<trkpt lat="46.162764" lon="6.189343"><ele></ele><time>2017-5-18T6:15:38Z</time></trkpt>
<trkpt lat="46.162760" lon="6.189333"><ele></ele><time>2017-5-18T6:15:41Z</time></trkpt>
<trkpt lat="46.162770" lon="6.189338"><ele></ele><time>2017-5-18T6:15:44Z</time></trkpt>
<trkpt lat="46.162731" lon="6.189370"><ele></ele><time>2017-5-18T6:15:47Z</time></trkpt>
<trkpt lat="46.162677" lon="6.189379"><ele></ele><time>2017-5-18T6:15:50Z</time></trkpt>
<trkpt lat="46.162668" lon="6.189368"><ele></ele><time>2017-5-18T6:15:53Z</time></trkpt>
<trkpt lat="46.162651" lon="6.189336"><ele></ele><time>2017-5-18T6:15:56Z</time></trkpt>
<trkpt lat="46.162652" lon="6.189254"><ele></ele><time>2017-5-18T6:15:59Z</time></trkpt>
<trkpt lat="46.162662" lon="6.189244"><ele></ele><time>2017-5-18T6:16:2Z</time></trkpt>
<trkpt lat="46.162684" lon="6.189209"><ele></ele><time>2017-5-18T6:16:5Z</time></trkpt>
<trkpt lat="46.162670" lon="6.189181"><ele></ele><time>2017-5-18T6:16:8Z</time></trkpt>
<trkpt lat="46.162678" lon="6.189201"><ele></ele><time>2017-5-18T6:16:11Z</time></trkpt>
<trkpt lat="46.162660" lon="6.189186"><ele></ele><time>2017-5-18T6:16:14Z</time></trkpt>
<trkpt lat="46.162646" lon="6.189150"><ele></ele><time>2017-5-18T6:16:17Z</time></trkpt>
<trkpt lat="46.162632" lon="6.189099"><ele></ele><time>2017-5-18T6:16:20Z</time></trkpt>
<trkpt lat="46.162650" lon="6.189108"><ele></ele><time>2017-5-18T6:16:23Z</time></trkpt>
<trkpt lat="46.162640" lon="6.189095"><ele></ele><time>2017-5-18T6:16:26Z</time></trkpt>
<trkpt lat="46.162671" lon="6.189202"><ele></ele><time>2017-5-18T6:16:29Z</time></trkpt>
<trkpt lat="46.162662" lon="6.189221"><ele></ele><time>2017-5-18T6:16:32Z</time></trkpt>
<trkpt lat="46.162641" lon="6.189147"><ele></ele><time>2017-5-18T6:16:35Z</time></trkpt>
<trkpt lat="46.162643" lon="6.189207"><ele></ele><time>2017-5-18T6:16:38Z</time></trkpt>
<trkpt lat="46.162642" lon="6.189201"><ele></ele><time>2017-5-18T6:16:41Z</time></trkpt>
<trkpt lat="46.162668" lon="6.189203"><ele></ele><time>2017-5-18T6:16:44Z</time></trkpt>
<trkpt lat="46.162699" lon="6.189187"><ele></ele><time>2017-5-18T6:16:47Z</time></trkpt>
<trkpt lat="46.162709" lon="6.189243"><ele></ele><time>2017-5-18T6:16:50Z</time></trkpt>
<trkpt lat="46.162727" lon="6.189183"><ele></ele><time>2017-5-18T6:16:53Z</time></trkpt>
<trkpt lat="46.162697" lon="6.189183"><ele></ele><time>2017-5-18T6:16:56Z</time></trkpt>
<trkpt lat="46.162716" lon="6.189162"><ele></ele><time>2017-5-18T6:16:59Z</time></trkpt>
<trkpt lat="46.162739" lon="6.189213"><ele></ele><time>2017-5-18T6:17:2Z</time></trkpt>
<trkpt lat="46.162736" lon="6.189223"><ele></ele><time>2017-5-18T6:17:5Z</time></trkpt>
<trkpt lat="46.162772" lon="6.189210"><ele></ele><time>2017-5-18T6:17:8Z</time></trkpt>
<trkpt lat="46.162741" lon="6.189141"><ele></ele><time>2017-5-18T6:17:11Z</time></trkpt>
<trkpt lat="46.162755" lon="6.189088"><ele></ele><time>2017-5-18T6:17:14Z</time></trkpt>
<trkpt lat="46.162718" lon="6.189141"><ele></ele><time>2017-5-18T6:17:17Z</time></trkpt>
<trkpt lat="46.162699" lon="6.189114"><ele></ele><time>2017-5-18T6:17:20Z</time></trkpt>
<trkpt lat="46.162700" lon="6.189172"><ele></ele><time>2017-5-18T6:17:23Z</time></trkpt>
<trkpt lat="46.162736" lon="6.189129"><ele></ele><time>2017-5-18T6:17:26Z</time></trkpt>
<trkpt lat="46.162717" lon="6.189167"><ele></ele><time>2017-5-18T6:17:29Z</time></trkpt>
<trkpt lat="46.162656" lon="6.189205"><ele></ele><time>2017-5-18T6:17:32Z</time></trkpt>
<trkpt lat="46.162684" lon="6.189225"><ele></ele><time>2017-5-18T6:17:35Z</time></trkpt>
<trkpt lat="46.162738" lon="6.189289"><ele></ele><time>2017-5-18T6:17:38Z</time></trkpt>
<trkpt lat="46.162744" lon="6.189290"><ele></ele><time>2017-5-18T6:17:41Z</time></trkpt>
<trkpt lat="46.162761" lon="6.189275"><ele></ele><time>2017-5-18T6:17:44Z</time></trkpt>
<trkpt lat="46.162753" lon="6.189278"><ele></ele><time>2017-5-18T6:17:47Z</time></trkpt>
<trkpt lat="46.162757" lon="6.189262"><ele></ele><time>2017-5-18T6:17:50Z</time></trkpt>
<trkpt lat="46.162762" lon="6.189248"><ele></ele><time>2017-5-18T6:17:53Z</time></trkpt>
<trkpt lat="46.162777" lon="6.189241"><ele></ele><time>2017-5-18T6:17:56Z</time></trkpt>
<trkpt lat="46.162786" lon="6.189261"><ele></ele><time>2017-5-18T6:17:59Z</time></trkpt>
<trkpt lat="46.162787" lon="6.189260"><ele></ele><time>2017-5-18T6:18:2Z</time></trkpt>
<trkpt lat="46.162784" lon="6.189275"><ele></ele><time>2017-5-18T6:18:5Z</time></trkpt>
<trkpt lat="46.162774" lon="6.189292"><ele></ele><time>2017-5-18T6:18:8Z</time></trkpt>
<trkpt lat="46.162781" lon="6.189323"><ele></ele><time>2017-5-18T6:18:11Z</time></trkpt>
<trkpt lat="46.162785" lon="6.189316"><ele></ele><time>2017-5-18T6:18:14Z</time></trkpt>
<trkpt lat="46.162770" lon="6.189319"><ele></ele><time>2017-5-18T6:18:17Z</time></trkpt>
<trkpt lat="46.162615" lon="6.189398"><ele></ele><time>2017-5-18T6:18:20Z</time></trkpt>
<trkpt lat="46.162298" lon="6.189554"><ele></ele><time>2017-5-18T6:18:23Z</time></trkpt>
<trkpt lat="46.161811" lon="6.189784"><ele></ele><time>2017-5-18T6:18:26Z</time></trkpt>
<trkpt lat="46.161136" lon="6.190096"><ele></ele><time>2017-5-18T6:18:29Z</time></trkpt>
<trkpt lat="46.160487" lon="6.190396"><ele></ele><time>2017-5-18T6:18:32Z</time></trkpt>
<trkpt lat="46.159589" lon="6.190822"><ele></ele><time>2017-5-18T6:18:35Z</time></trkpt>
<trkpt lat="46.158827" lon="6.191186"><ele></ele><time>2017-5-18T6:18:38Z</time></trkpt>
<trkpt lat="46.158092" lon="6.191556"><ele></ele><time>2017-5-18T6:18:41Z</time></trkpt>
<trkpt lat="46.157460" lon="6.191867"><ele></ele><time>2017-5-18T6:18:44Z</time></trkpt>
<trkpt lat="46.156608" lon="6.192321"><ele></ele><time>2017-5-18T6:18:47Z</time></trkpt>
<trkpt lat="46.156018" lon="6.192619"><ele></ele><time>2017-5-18T6:18:50Z</time></trkpt>
<trkpt lat="46.155196" lon="6.192995"><ele></ele><time>2017-5-18T6:18:53Z</time></trkpt>
<trkpt lat="46.154893" lon="6.193176"><ele></ele><time>2017-5-18T6:18:56Z</time></trkpt>
<trkpt lat="46.154792" lon="6.193272"><ele></ele><time>2017-5-18T6:18:59Z</time></trkpt>
<trkpt lat="46.154768" lon="6.193335"><ele></ele><time>2017-5-18T6:19:2Z</time></trkpt>
<trkpt lat="46.154720" lon="6.193333"><ele></ele><time>2017-5-18T6:19:5Z</time></trkpt>
<trkpt lat="46.154651" lon="6.193314"><ele></ele><time>2017-5-18T6:19:8Z</time></trkpt>
<trkpt lat="46.154632" lon="6.193330"><ele></ele><time>2017-5-18T6:19:11Z</time></trkpt>
<trkpt lat="46.154636" lon="6.193336"><ele></ele><time>2017-5-18T6:19:14Z</time></trkpt>
<trkpt lat="46.154638" lon="6.193359"><ele></ele><time>2017-5-18T6:19:17Z</time></trkpt>
<trkpt lat="46.154615" lon="6.193340"><ele></ele><time>2017-5-18T6:19:20Z</time></trkpt>
<trkpt lat="46.154587" lon="6.193316"><ele></ele><time>2017-5-18T6:19:23Z</time></trkpt>
<trkpt lat="46.154572" lon="6.193293"><ele></ele><time>2017-5-18T6:19:26Z</time></trkpt>
<trkpt lat="46.154469" lon="6.193279"><ele></ele><time>2017-5-18T6:19:29Z</time></trkpt>
<trkpt lat="46.154388" lon="6.193283"><ele></ele><time>2017-5-18T6:19:32Z</time></trkpt>
<trkpt lat="46.154340" lon="6.193299"><ele></ele><time>2017-5-18T6:19:35Z</time></trkpt>
<trkpt lat="46.154160" lon="6.193840"><ele></ele><time>2017-5-18T6:19:38Z</time></trkpt>
<trkpt lat="46.154192" lon="6.193942"><ele></ele><time>2017-5-18T6:19:41Z</time></trkpt>
<trkpt lat="46.154244" lon="6.194053"><ele></ele><time>2017-5-18T6:19:44Z</time></trkpt>
<trkpt lat="46.154287" lon="6.194098"><ele></ele><time>2017-5-18T6:19:47Z</time></trkpt>
<trkpt lat="46.154286" lon="6.194084"><ele></ele><time>2017-5-18T6:19:50Z</time></trkpt>
<trkpt lat="46.154295" lon="6.194096"><ele></ele><time>2017-5-18T6:19:53Z</time></trkpt>
<trkpt lat="46.154295" lon="6.194067"><ele></ele><time>2017-5-18T6:19:56Z</time></trkpt>
<trkpt lat="46.154303" lon="6.194059"><ele></ele><time>2017-5-18T6:19:59Z</time></trkpt>
<trkpt lat="46.154300" lon="6.194070"><ele></ele><time>2017-5-18T6:20:2Z</time></trkpt>
<trkpt lat="46.154259" lon="6.194078"><ele></ele><time>2017-5-18T6:20:5Z</time></trkpt>
<trkpt lat="46.154265" lon="6.194109"><ele></ele><time>2017-5-18T6:20:8Z</time></trkpt>
<trkpt lat="46.154270" lon="6.194114"><ele></ele><time>2017-5-18T6:20:11Z</time></trkpt>
<trkpt lat="46.154263" lon="6.194114"><ele></ele><time>2017-5-18T6:20:14Z</time></trkpt>
<trkpt lat="46.154251" lon="6.194108"><ele></ele><time>2017-5-18T6:20:17Z</time></trkpt>
<trkpt lat="46.154246" lon="6.194105"><ele></ele><time>2017-5-18T6:20:20Z</time></trkpt>
<trkpt lat="46.154250" lon="6.194129"><ele></ele><time>2017-5-18T6:20:23Z</time></trkpt>
<trkpt lat="46.154237" lon="6.194262"><ele></ele><time>2017-5-18T6:20:26Z</time></trkpt>
<trkpt lat="46.154165" lon="6.194304"><ele></ele><time>2017-5-18T6:20:29Z</time></trkpt>
<trkpt lat="46.154139" lon="6.194299"><ele></ele><time>2017-5-18T6:20:32Z</time></trkpt>
<trkpt lat="46.154121" lon="6.194298"><ele></ele><time>2017-5-18T6:20:35Z</time></trkpt>
<trkpt lat="46.154097" lon="6.194300"><ele></ele><time>2017-5-18T6:20:38Z</time></trkpt>
<trkpt lat="46.154073" lon="6.194306"><ele></ele><time>2017-5-18T6:20:41Z</time></trkpt>
<trkpt lat="46.154047" lon="6.194320"><ele></ele><time>2017-5-18T6:20:44Z</time></trkpt>
<trkpt lat="46.154020" lon="6.194341"><ele></ele><time>2017-5-18T6:20:47Z</time></trkpt>
<trkpt lat="46.153998" lon="6.194363"><ele></ele><time>2017-5-18T6:20:50Z</time></trkpt>
<trkpt lat="46.153978" lon="6.194389"><ele></ele><time>2017-5-18T6:20:53Z</time></trkpt>
<trkpt lat="46.153960" lon="6.194413"><ele></ele><time>2017-5-18T6:20:56Z</time></trkpt>
<trkpt lat="46.153941" lon="6.194436"><ele></ele><time>2017-5-18T6:20:59Z</time></trkpt>
<trkpt lat="46.153780" lon="6.194652"><ele></ele><time>2017-5-18T6:21:2Z</time></trkpt>
<trkpt lat="46.153619" lon="6.194794"><ele></ele><time>2017-5-18T6:21:5Z</time></trkpt>
<trkpt lat="46.153487" lon="6.194875"><ele></ele><time>2017-5-18T6:21:8Z</time></trkpt>
<trkpt lat="46.153352" lon="6.194970"><ele></ele><time>2017-5-18T6:21:11Z</time></trkpt>
<trkpt lat="46.153212" lon="6.195097"><ele></ele><time>2017-5-18T6:21:14Z</time></trkpt>
<trkpt lat="46.153090" lon="6.195205"><ele></ele><time>2017-5-18T6:21:17Z</time></trkpt>
<trkpt lat="46.152936" lon="6.195188"><ele></ele><time>2017-5-18T6:21:20Z</time></trkpt>
<trkpt lat="46.152881" lon="6.195056"><ele></ele><time>2017-5-18T6:21:23Z</time></trkpt>
<trkpt lat="46.152889" lon="6.194982"><ele></ele><time>2017-5-18T6:21:26Z</time></trkpt>
<trkpt lat="46.152900" lon="6.194961"><ele></ele><time>2017-5-18T6:21:29Z</time></trkpt>
<trkpt lat="46.152914" lon="6.194940"><ele></ele><time>2017-5-18T6:21:32Z</time></trkpt>
<trkpt lat="46.152929" lon="6.194923"><ele></ele><time>2017-5-18T6:21:35Z</time></trkpt>
<trkpt lat="46.152945" lon="6.194908"><ele></ele><time>2017-5-18T6:21:38Z</time></trkpt>
<trkpt lat="46.152959" lon="6.194896"><ele></ele><time>2017-5-18T6:21:41Z</time></trkpt>
<trkpt lat="46.153097" lon="6.194816"><ele></ele><time>2017-5-18T6:21:44Z</time></trkpt>
<trkpt lat="46.153238" lon="6.194665"><ele></ele><time>2017-5-18T6:21:47Z</time></trkpt>
<trkpt lat="46.153302" lon="6.194465"><ele></ele><time>2017-5-18T6:21:50Z</time></trkpt>
<trkpt lat="46.153351" lon="6.194298"><ele></ele><time>2017-5-18T6:21:53Z</time></trkpt>
<trkpt lat="46.153379" lon="6.194160"><ele></ele><time>2017-5-18T6:21:56Z</time></trkpt>
<trkpt lat="46.153380" lon="6.194141"><ele></ele><time>2017-5-18T6:21:59Z</time></trkpt>
<trkpt lat="46.153383" lon="6.194118"><ele></ele><time>2017-5-18T6:22:2Z</time></trkpt>
<trkpt lat="46.153385" lon="6.194096"><ele></ele><time>2017-5-18T6:22:5Z</time></trkpt>
<trkpt lat="46.153386" lon="6.194075"><ele></ele><time>2017-5-18T6:22:8Z</time></trkpt>
<trkpt lat="46.153389" lon="6.194054"><ele></ele><time>2017-5-18T6:22:11Z</time></trkpt>
<trkpt lat="46.153391" lon="6.194033"><ele></ele><time>2017-5-18T6:22:14Z</time></trkpt>
<trkpt lat="46.153392" lon="6.194011"><ele></ele><time>2017-5-18T6:22:17Z</time></trkpt>
<trkpt lat="46.153386" lon="6.193802"><ele></ele><time>2017-5-18T6:22:20Z</time></trkpt>
<trkpt lat="46.153383" lon="6.193783"><ele></ele><time>2017-5-18T6:22:23Z</time></trkpt>
<trkpt lat="46.153359" lon="6.193633"><ele></ele><time>2017-5-18T6:22:26Z</time></trkpt>
<trkpt lat="46.153334" lon="6.193441"><ele></ele><time>2017-5-18T6:22:29Z</time></trkpt>
<trkpt lat="46.153317" lon="6.193346"><ele></ele><time>2017-5-18T6:22:32Z</time></trkpt>
<trkpt lat="46.153313" lon="6.193324"><ele></ele><time>2017-5-18T6:22:35Z</time></trkpt>
<trkpt lat="46.153310" lon="6.193300"><ele></ele><time>2017-5-18T6:22:38Z</time></trkpt>
<trkpt lat="46.153307" lon="6.193276"><ele></ele><time>2017-5-18T6:22:41Z</time></trkpt>
<trkpt lat="46.153304" lon="6.193251"><ele></ele><time>2017-5-18T6:22:44Z</time></trkpt>
<trkpt lat="46.153298" lon="6.193229"><ele></ele><time>2017-5-18T6:22:47Z</time></trkpt>
<trkpt lat="46.153293" lon="6.193207"><ele></ele><time>2017-5-18T6:22:50Z</time></trkpt>
<trkpt lat="46.153290" lon="6.193185"><ele></ele><time>2017-5-18T6:22:53Z</time></trkpt>
<trkpt lat="46.153249" lon="6.193013"><ele></ele><time>2017-5-18T6:22:56Z</time></trkpt>
<trkpt lat="46.153245" lon="6.192990"><ele></ele><time>2017-5-18T6:22:59Z</time></trkpt>
<trkpt lat="46.153239" lon="6.192972"><ele></ele><time>2017-5-18T6:23:2Z</time></trkpt>
<trkpt lat="46.153185" lon="6.192840"><ele></ele><time>2017-5-18T6:23:5Z</time></trkpt>
<trkpt lat="46.153118" lon="6.192684"><ele></ele><time>2017-5-18T6:23:8Z</time></trkpt>
<trkpt lat="46.153041" lon="6.192506"><ele></ele><time>2017-5-18T6:23:11Z</time></trkpt>
<trkpt lat="46.152952" lon="6.192279"><ele></ele><time>2017-5-18T6:23:14Z</time></trkpt>
<trkpt lat="46.152890" lon="6.192099"><ele></ele><time>2017-5-18T6:23:17Z</time></trkpt>
<trkpt lat="46.152871" lon="6.192034"><ele></ele><time>2017-5-18T6:23:20Z</time></trkpt>
<trkpt lat="46.152863" lon="6.192013"><ele></ele><time>2017-5-18T6:23:23Z</time></trkpt>
<trkpt lat="46.152855" lon="6.191991"><ele></ele><time>2017-5-18T6:23:26Z</time></trkpt>
<trkpt lat="46.152845" lon="6.191972"><ele></ele><time>2017-5-18T6:23:29Z</time></trkpt>
<trkpt lat="46.152830" lon="6.191957"><ele></ele><time>2017-5-18T6:23:32Z</time></trkpt>
<trkpt lat="46.152814" lon="6.191942"><ele></ele><time>2017-5-18T6:23:35Z</time></trkpt>
<trkpt lat="46.152799" lon="6.191925"><ele></ele><time>2017-5-18T6:23:38Z</time></trkpt>
<trkpt lat="46.152784" lon="6.191913"><ele></ele><time>2017-5-18T6:23:41Z</time></trkpt>
<trkpt lat="46.152638" lon="6.191912"><ele></ele><time>2017-5-18T6:23:44Z</time></trkpt>
<trkpt lat="46.152534" lon="6.192062"><ele></ele><time>2017-5-18T6:23:47Z</time></trkpt>
<trkpt lat="46.152543" lon="6.192241"><ele></ele><time>2017-5-18T6:23:50Z</time></trkpt>
<trkpt lat="46.152619" lon="6.192414"><ele></ele><time>2017-5-18T6:23:53Z</time></trkpt>
<trkpt lat="46.152679" lon="6.192590"><ele></ele><time>2017-5-18T6:23:56Z</time></trkpt>
<trkpt lat="46.152715" lon="6.192815"><ele></ele><time>2017-5-18T6:23:59Z</time></trkpt>
<trkpt lat="46.152691" lon="6.193019"><ele></ele><time>2017-5-18T6:24:2Z</time></trkpt>
<trkpt lat="46.152633" lon="6.193248"><ele></ele><time>2017-5-18T6:24:5Z</time></trkpt>
<trkpt lat="46.152565" lon="6.193441"><ele></ele><time>2017-5-18T6:24:8Z</time></trkpt>
<trkpt lat="46.152489" lon="6.193538"><ele></ele><time>2017-5-18T6:24:11Z</time></trkpt>
<trkpt lat="46.152359" lon="6.193626"><ele></ele><time>2017-5-18T6:24:14Z</time></trkpt>
<trkpt lat="46.152205" lon="6.193683"><ele></ele><time>2017-5-18T6:24:17Z</time></trkpt>
<trkpt lat="46.152021" lon="6.193706"><ele></ele><time>2017-5-18T6:24:20Z</time></trkpt>
<trkpt lat="46.151856" lon="6.193716"><ele></ele><time>2017-5-18T6:24:23Z</time></trkpt>
<trkpt lat="46.151702" lon="6.193710"><ele></ele><time>2017-5-18T6:24:26Z</time></trkpt>
<trkpt lat="46.151566" lon="6.193702"><ele></ele><time>2017-5-18T6:24:29Z</time></trkpt>
<trkpt lat="46.151457" lon="6.193708"><ele></ele><time>2017-5-18T6:24:32Z</time></trkpt>
<trkpt lat="46.151314" lon="6.193739"><ele></ele><time>2017-5-18T6:24:35Z</time></trkpt>
<trkpt lat="46.151170" lon="6.193796"><ele></ele><time>2017-5-18T6:24:38Z</time></trkpt>
<trkpt lat="46.151035" lon="6.193835"><ele></ele><time>2017-5-18T6:24:41Z</time></trkpt>
<trkpt lat="46.150915" lon="6.193884"><ele></ele><time>2017-5-18T6:24:44Z</time></trkpt>
<trkpt lat="46.150758" lon="6.193940"><ele></ele><time>2017-5-18T6:24:47Z</time></trkpt>
<trkpt lat="46.150598" lon="6.193996"><ele></ele><time>2017-5-18T6:24:50Z</time></trkpt>
<trkpt lat="46.150413" lon="6.194066"><ele></ele><time>2017-5-18T6:24:53Z</time></trkpt>
<trkpt lat="46.150279" lon="6.194077"><ele></ele><time>2017-5-18T6:24:56Z</time></trkpt>
<trkpt lat="46.150184" lon="6.194073"><ele></ele><time>2017-5-18T6:24:59Z</time></trkpt>
<trkpt lat="46.150170" lon="6.194065"><ele></ele><time>2017-5-18T6:25:2Z</time></trkpt>
<trkpt lat="46.150153" lon="6.194062"><ele></ele><time>2017-5-18T6:25:5Z</time></trkpt>
<trkpt lat="46.150138" lon="6.194059"><ele></ele><time>2017-5-18T6:25:8Z</time></trkpt>
<trkpt lat="46.150125" lon="6.194057"><ele></ele><time>2017-5-18T6:25:11Z</time></trkpt>
<trkpt lat="46.150113" lon="6.194060"><ele></ele><time>2017-5-18T6:25:14Z</time></trkpt>
<trkpt lat="46.150101" lon="6.194060"><ele></ele><time>2017-5-18T6:25:17Z</time></trkpt>
<trkpt lat="46.150089" lon="6.194056"><ele></ele><time>2017-5-18T6:25:20Z</time></trkpt>
<trkpt lat="46.150078" lon="6.194053"><ele></ele><time>2017-5-18T6:25:23Z</time></trkpt>
<trkpt lat="46.150058" lon="6.194054"><ele></ele><time>2017-5-18T6:25:26Z</time></trkpt>
<trkpt lat="46.150040" lon="6.194053"><ele></ele><time>2017-5-18T6:25:29Z</time></trkpt>
<trkpt lat="46.150029" lon="6.194045"><ele></ele><time>2017-5-18T6:25:32Z</time></trkpt>
<trkpt lat="46.149978" lon="6.194027"><ele></ele><time>2017-5-18T6:25:35Z</time></trkpt>
<trkpt lat="46.149969" lon="6.194033"><ele></ele><time>2017-5-18T6:25:38Z</time></trkpt>
<trkpt lat="46.149962" lon="6.194049"><ele></ele><time>2017-5-18T6:25:41Z</time></trkpt>
<trkpt lat="46.149953" lon="6.194057"><ele></ele><time>2017-5-18T6:25:44Z</time></trkpt>
<trkpt lat="46.149943" lon="6.194063"><ele></ele><time>2017-5-18T6:25:47Z</time></trkpt>
<trkpt lat="46.149884" lon="6.194056"><ele></ele><time>2017-5-18T6:25:50Z</time></trkpt>
<trkpt lat="46.149885" lon="6.194054"><ele></ele><time>2017-5-18T6:25:53Z</time></trkpt>
<trkpt lat="46.149890" lon="6.194042"><ele></ele><time>2017-5-18T6:25:56Z</time></trkpt>
<trkpt lat="46.149872" lon="6.194050"><ele></ele><time>2017-5-18T6:25:59Z</time></trkpt>
<trkpt lat="46.149872" lon="6.194035"><ele></ele><time>2017-5-18T6:26:2Z</time></trkpt>
<trkpt lat="46.149864" lon="6.194016"><ele></ele><time>2017-5-18T6:26:5Z</time></trkpt>
<trkpt lat="46.149860" lon="6.194001"><ele></ele><time>2017-5-18T6:26:8Z</time></trkpt>
<trkpt lat="46.149847" lon="6.193987"><ele></ele><time>2017-5-18T6:26:11Z</time></trkpt>
<trkpt lat="46.149831" lon="6.193974"><ele></ele><time>2017-5-18T6:26:14Z</time></trkpt>
<trkpt lat="46.149813" lon="6.193966"><ele></ele><time>2017-5-18T6:26:17Z</time></trkpt>
<trkpt lat="46.149795" lon="6.193961"><ele></ele><time>2017-5-18T6:26:20Z</time></trkpt>
<trkpt lat="46.149777" lon="6.193954"><ele></ele><time>2017-5-18T6:26:23Z</time></trkpt>
<trkpt lat="46.149759" lon="6.193950"><ele></ele><time>2017-5-18T6:26:26Z</time></trkpt>
<trkpt lat="46.149610" lon="6.193911"><ele></ele><time>2017-5-18T6:26:29Z</time></trkpt>
<trkpt lat="46.149430" lon="6.193853"><ele></ele><time>2017-5-18T6:26:32Z</time></trkpt>
<trkpt lat="46.149280" lon="6.193797"><ele></ele><time>2017-5-18T6:26:35Z</time></trkpt>
<trkpt lat="46.149131" lon="6.193731"><ele></ele><time>2017-5-18T6:26:38Z</time></trkpt>
<trkpt lat="46.149007" lon="6.193669"><ele></ele><time>2017-5-18T6:26:41Z</time></trkpt>
<trkpt lat="46.148918" lon="6.193619"><ele></ele><time>2017-5-18T6:26:44Z</time></trkpt>
<trkpt lat="46.148782" lon="6.193554"><ele></ele><time>2017-5-18T6:26:47Z</time></trkpt>
<trkpt lat="46.148656" lon="6.193481"><ele></ele><time>2017-5-18T6:26:50Z</time></trkpt>
<trkpt lat="46.148549" lon="6.193419"><ele></ele><time>2017-5-18T6:26:53Z</time></trkpt>
<trkpt lat="46.148408" lon="6.193343"><ele></ele><time>2017-5-18T6:26:56Z</time></trkpt>
<trkpt lat="46.148260" lon="6.193268"><ele></ele><time>2017-5-18T6:26:59Z</time></trkpt>
<trkpt lat="46.148116" lon="6.193205"><ele></ele><time>2017-5-18T6:27:2Z</time></trkpt>
<trkpt lat="46.148006" lon="6.193173"><ele></ele><time>2017-5-18T6:27:5Z</time></trkpt>
<trkpt lat="46.147992" lon="6.193175"><ele></ele><time>2017-5-18T6:27:8Z</time></trkpt>
<trkpt lat="46.147838" lon="6.193176"><ele></ele><time>2017-5-18T6:27:11Z</time></trkpt>
<trkpt lat="46.147728" lon="6.193136"><ele></ele><time>2017-5-18T6:27:14Z</time></trkpt>
<trkpt lat="46.147665" lon="6.192994"><ele></ele><time>2017-5-18T6:27:17Z</time></trkpt>
<trkpt lat="46.147688" lon="6.192824"><ele></ele><time>2017-5-18T6:27:20Z</time></trkpt>
<trkpt lat="46.147788" lon="6.192719"><ele></ele><time>2017-5-18T6:27:23Z</time></trkpt>
<trkpt lat="46.147916" lon="6.192667"><ele></ele><time>2017-5-18T6:27:26Z</time></trkpt>
<trkpt lat="46.148039" lon="6.192623"><ele></ele><time>2017-5-18T6:27:29Z</time></trkpt>
<trkpt lat="46.148174" lon="6.192528"><ele></ele><time>2017-5-18T6:27:32Z</time></trkpt>
<trkpt lat="46.148306" lon="6.192379"><ele></ele><time>2017-5-18T6:27:35Z</time></trkpt>
<trkpt lat="46.148384" lon="6.192268"><ele></ele><time>2017-5-18T6:27:38Z</time></trkpt>
<trkpt lat="46.148395" lon="6.192252"><ele></ele><time>2017-5-18T6:27:41Z</time></trkpt>
<trkpt lat="46.148408" lon="6.192235"><ele></ele><time>2017-5-18T6:27:44Z</time></trkpt>
<trkpt lat="46.148420" lon="6.192218"><ele></ele><time>2017-5-18T6:27:47Z</time></trkpt>
<trkpt lat="46.148430" lon="6.192203"><ele></ele><time>2017-5-18T6:27:50Z</time></trkpt>
<trkpt lat="46.148441" lon="6.192187"><ele></ele><time>2017-5-18T6:27:53Z</time></trkpt>
<trkpt lat="46.148545" lon="6.192058"><ele></ele><time>2017-5-18T6:27:56Z</time></trkpt>
<trkpt lat="46.148667" lon="6.191900"><ele></ele><time>2017-5-18T6:27:59Z</time></trkpt>
<trkpt lat="46.148780" lon="6.191750"><ele></ele><time>2017-5-18T6:28:2Z</time></trkpt>
<trkpt lat="46.148901" lon="6.191599"><ele></ele><time>2017-5-18T6:28:5Z</time></trkpt>
<trkpt lat="46.148986" lon="6.191479"><ele></ele><time>2017-5-18T6:28:8Z</time></trkpt>
<trkpt lat="46.149098" lon="6.191328"><ele></ele><time>2017-5-18T6:28:11Z</time></trkpt>
<trkpt lat="46.149245" lon="6.191200"><ele></ele><time>2017-5-18T6:28:14Z</time></trkpt>
<trkpt lat="46.149397" lon="6.191152"><ele></ele><time>2017-5-18T6:28:17Z</time></trkpt>
<trkpt lat="46.149545" lon="6.191096"><ele></ele><time>2017-5-18T6:28:20Z</time></trkpt>
<trkpt lat="46.149596" lon="6.191044"><ele></ele><time>2017-5-18T6:28:23Z</time></trkpt>
<trkpt lat="46.149607" lon="6.191039"><ele></ele><time>2017-5-18T6:28:26Z</time></trkpt>
<trkpt lat="46.149664" lon="6.191052"><ele></ele><time>2017-5-18T6:28:29Z</time></trkpt>
<trkpt lat="46.149680" lon="6.191047"><ele></ele><time>2017-5-18T6:28:32Z</time></trkpt>
<trkpt lat="46.149695" lon="6.191035"><ele></ele><time>2017-5-18T6:28:35Z</time></trkpt>
<trkpt lat="46.149706" lon="6.191017"><ele></ele><time>2017-5-18T6:28:38Z</time></trkpt>
<trkpt lat="46.149715" lon="6.190994"><ele></ele><time>2017-5-18T6:28:41Z</time></trkpt>
<trkpt lat="46.149720" lon="6.190969"><ele></ele><time>2017-5-18T6:28:44Z</time></trkpt>
<trkpt lat="46.149725" lon="6.190943"><ele></ele><time>2017-5-18T6:28:47Z</time></trkpt>
<trkpt lat="46.149730" lon="6.190918"><ele></ele><time>2017-5-18T6:28:50Z</time></trkpt>
<trkpt lat="46.149732" lon="6.190895"><ele></ele><time>2017-5-18T6:28:53Z</time></trkpt>
<trkpt lat="46.149731" lon="6.190871"><ele></ele><time>2017-5-18T6:28:56Z</time></trkpt>
<trkpt lat="46.149726" lon="6.190829"><ele></ele><time>2017-5-18T6:28:59Z</time></trkpt>
<trkpt lat="46.149747" lon="6.190666"><ele></ele><time>2017-5-18T6:29:2Z</time></trkpt>
<trkpt lat="46.149739" lon="6.190521"><ele></ele><time>2017-5-18T6:29:5Z</time></trkpt>
<trkpt lat="46.149714" lon="6.190481"><ele></ele><time>2017-5-18T6:29:8Z</time></trkpt>
<trkpt lat="46.149635" lon="6.190358"><ele></ele><time>2017-5-18T6:29:11Z</time></trkpt>
<trkpt lat="46.149591" lon="6.190260"><ele></ele><time>2017-5-18T6:29:14Z</time></trkpt>
<trkpt lat="46.149500" lon="6.190183"><ele></ele><time>2017-5-18T6:29:17Z</time></trkpt>
<trkpt lat="46.149450" lon="6.190103"><ele></ele><time>2017-5-18T6:29:20Z</time></trkpt>
<trkpt lat="46.149377" lon="6.189969"><ele></ele><time>2017-5-18T6:29:23Z</time></trkpt>
<trkpt lat="46.149370" lon="6.189947"><ele></ele><time>2017-5-18T6:29:26Z</time></trkpt>
<trkpt lat="46.149251" lon="6.189810"><ele></ele><time>2017-5-18T6:29:29Z</time></trkpt>
<trkpt lat="46.149185" lon="6.189718"><ele></ele><time>2017-5-18T6:29:32Z</time></trkpt>
<trkpt lat="46.149133" lon="6.189674"><ele></ele><time>2017-5-18T6:29:35Z</time></trkpt>
<trkpt lat="46.149001" lon="6.189566"><ele></ele><time>2017-5-18T6:29:38Z</time></trkpt>
<trkpt lat="46.148917" lon="6.189517"><ele></ele><time>2017-5-18T6:29:41Z</time></trkpt>
<trkpt lat="46.148832" lon="6.189442"><ele></ele><time>2017-5-18T6:29:44Z</time></trkpt>
<trkpt lat="46.148792" lon="6.189426"><ele></ele><time>2017-5-18T6:29:47Z</time></trkpt>
<trkpt lat="46.148780" lon="6.189414"><ele></ele><time>2017-5-18T6:29:50Z</time></trkpt>
<trkpt lat="46.148781" lon="6.189420"><ele></ele><time>2017-5-18T6:29:53Z</time></trkpt>
<trkpt lat="46.148777" lon="6.189408"><ele></ele><time>2017-5-18T6:29:56Z</time></trkpt>
<trkpt lat="46.148764" lon="6.189397"><ele></ele><time>2017-5-18T6:29:59Z</time></trkpt>
<trkpt lat="46.148773" lon="6.189403"><ele></ele><time>2017-5-18T6:30:2Z</time></trkpt>
<trkpt lat="46.148772" lon="6.189411"><ele></ele><time>2017-5-18T6:30:5Z</time></trkpt>
<trkpt lat="46.148723" lon="6.189401"><ele></ele><time>2017-5-18T6:30:8Z</time></trkpt>
<trkpt lat="46.148613" lon="6.189315"><ele></ele><time>2017-5-18T6:30:11Z</time></trkpt>
<trkpt lat="46.148504" lon="6.189221"><ele></ele><time>2017-5-18T6:30:14Z</time></trkpt>
<trkpt lat="46.148378" lon="6.189156"><ele></ele><time>2017-5-18T6:30:17Z</time></trkpt>
<trkpt lat="46.148288" lon="6.189089"><ele></ele><time>2017-5-18T6:30:20Z</time></trkpt>
<trkpt lat="46.148156" lon="6.189066"><ele></ele><time>2017-5-18T6:30:23Z</time></trkpt>
<trkpt lat="46.148035" lon="6.188980"><ele></ele><time>2017-5-18T6:30:26Z</time></trkpt>
<trkpt lat="46.147919" lon="6.188837"><ele></ele><time>2017-5-18T6:30:29Z</time></trkpt>
<trkpt lat="46.147821" lon="6.188626"><ele></ele><time>2017-5-18T6:30:32Z</time></trkpt>
<trkpt lat="46.147690" lon="6.188458"><ele></ele><time>2017-5-18T6:30:35Z</time></trkpt>
<trkpt lat="46.147659" lon="6.188428"><ele></ele><time>2017-5-18T6:30:38Z</time></trkpt>
<trkpt lat="46.147610" lon="6.188392"><ele></ele><time>2017-5-18T6:30:41Z</time></trkpt>
<trkpt lat="46.147594" lon="6.188387"><ele></ele><time>2017-5-18T6:30:44Z</time></trkpt>
<trkpt lat="46.147575" lon="6.188375"><ele></ele><time>2017-5-18T6:30:47Z</time></trkpt>
<trkpt lat="46.147558" lon="6.188356"><ele></ele><time>2017-5-18T6:30:50Z</time></trkpt>
<trkpt lat="46.147541" lon="6.188337"><ele></ele><time>2017-5-18T6:30:53Z</time></trkpt>
<trkpt lat="46.147526" lon="6.188319"><ele></ele><time>2017-5-18T6:30:56Z</time></trkpt>
<trkpt lat="46.147511" lon="6.188303"><ele></ele><time>2017-5-18T6:30:59Z</time></trkpt>
<trkpt lat="46.147495" lon="6.188290"><ele></ele><time>2017-5-18T6:31:2Z</time></trkpt>
<trkpt lat="46.147478" lon="6.188278"><ele></ele><time>2017-5-18T6:31:5Z</time></trkpt>
<trkpt lat="46.147461" lon="6.188271"><ele></ele><time>2017-5-18T6:31:8Z</time></trkpt>
<trkpt lat="46.147444" lon="6.188265"><ele></ele><time>2017-5-18T6:31:11Z</time></trkpt>
<trkpt lat="46.147312" lon="6.188263"><ele></ele><time>2017-5-18T6:31:14Z</time></trkpt>
<trkpt lat="46.147221" lon="6.188218"><ele></ele><time>2017-5-18T6:31:17Z</time></trkpt>
<trkpt lat="46.147118" lon="6.188141"><ele></ele><time>2017-5-18T6:31:20Z</time></trkpt>
<trkpt lat="46.146993" lon="6.188090"><ele></ele><time>2017-5-18T6:31:23Z</time></trkpt>
<trkpt lat="46.146942" lon="6.188097"><ele></ele><time>2017-5-18T6:31:26Z</time></trkpt>
<trkpt lat="46.146929" lon="6.188092"><ele></ele><time>2017-5-18T6:31:29Z</time></trkpt>
<trkpt lat="46.146917" lon="6.188088"><ele></ele><time>2017-5-18T6:31:32Z</time></trkpt>
<trkpt lat="46.146865" lon="6.188044"><ele></ele><time>2017-5-18T6:31:35Z</time></trkpt>
<trkpt lat="46.146859" lon="6.188029"><ele></ele><time>2017-5-18T6:31:38Z</time></trkpt>
<trkpt lat="46.146856" lon="6.188012"><ele></ele><time>2017-5-18T6:31:41Z</time></trkpt>
<trkpt lat="46.146854" lon="6.187992"><ele></ele><time>2017-5-18T6:31:44Z</time></trkpt>
<trkpt lat="46.146853" lon="6.187975"><ele></ele><time>2017-5-18T6:31:47Z</time></trkpt>
<trkpt lat="46.146854" lon="6.187955"><ele></ele><time>2017-5-18T6:31:50Z</time></trkpt>
<trkpt lat="46.146856" lon="6.187936"><ele></ele><time>2017-5-18T6:31:53Z</time></trkpt>
<trkpt lat="46.146867" lon="6.187786"><ele></ele><time>2017-5-18T6:31:56Z</time></trkpt>
<trkpt lat="46.146863" lon="6.187759"><ele></ele><time>2017-5-18T6:31:59Z</time></trkpt>
<trkpt lat="46.146852" lon="6.187738"><ele></ele><time>2017-5-18T6:32:2Z</time></trkpt>
<trkpt lat="46.146777" lon="6.187637"><ele></ele><time>2017-5-18T6:32:5Z</time></trkpt>
<trkpt lat="46.146769" lon="6.187618"><ele></ele><time>2017-5-18T6:32:8Z</time></trkpt>
<trkpt lat="46.146761" lon="6.187595"><ele></ele><time>2017-5-18T6:32:11Z</time></trkpt>
<trkpt lat="46.146750" lon="6.187573"><ele></ele><time>2017-5-18T6:32:14Z</time></trkpt>
<trkpt lat="46.146738" lon="6.187557"><ele></ele><time>2017-5-18T6:32:17Z</time></trkpt>
<trkpt lat="46.146725" lon="6.187538"><ele></ele><time>2017-5-18T6:32:20Z</time></trkpt>
<trkpt lat="46.146711" lon="6.187519"><ele></ele><time>2017-5-18T6:32:23Z</time></trkpt>
<trkpt lat="46.146695" lon="6.187504"><ele></ele><time>2017-5-18T6:32:26Z</time></trkpt>
<trkpt lat="46.146576" lon="6.187447"><ele></ele><time>2017-5-18T6:32:29Z</time></trkpt>
<trkpt lat="46.146531" lon="6.187399"><ele></ele><time>2017-5-18T6:32:32Z</time></trkpt>
<trkpt lat="46.146522" lon="6.187386"><ele></ele><time>2017-5-18T6:32:35Z</time></trkpt>
<trkpt lat="46.146509" lon="6.187369"><ele></ele><time>2017-5-18T6:32:38Z</time></trkpt>
<trkpt lat="46.146496" lon="6.187359"><ele></ele><time>2017-5-18T6:32:41Z</time></trkpt>
<trkpt lat="46.146482" lon="6.187351"><ele></ele><time>2017-5-18T6:32:44Z</time></trkpt>
<trkpt lat="46.146469" lon="6.187339"><ele></ele><time>2017-5-18T6:32:47Z</time></trkpt>
<trkpt lat="46.146458" lon="6.187326"><ele></ele><time>2017-5-18T6:32:50Z</time></trkpt>
<trkpt lat="46.146414" lon="6.187264"><ele></ele><time>2017-5-18T6:32:53Z</time></trkpt>
<trkpt lat="46.146323" lon="6.187211"><ele></ele><time>2017-5-18T6:32:56Z</time></trkpt>
<trkpt lat="46.146194" lon="6.187145"><ele></ele><time>2017-5-18T6:32:59Z</time></trkpt>
<trkpt lat="46.146181" lon="6.187145"><ele></ele><time>2017-5-18T6:33:2Z</time></trkpt>
<trkpt lat="46.146178" lon="6.187140"><ele></ele><time>2017-5-18T6:33:5Z</time></trkpt>
<trkpt lat="46.146185" lon="6.187154"><ele></ele><time>2017-5-18T6:33:8Z</time></trkpt>
<trkpt lat="46.146184" lon="6.187160"><ele></ele><time>2017-5-18T6:33:11Z</time></trkpt>
<trkpt lat="46.146187" lon="6.187164"><ele></ele><time>2017-5-18T6:33:14Z</time></trkpt>
<trkpt lat="46.146188" lon="6.187168"><ele></ele><time>2017-5-18T6:33:17Z</time></trkpt>
<trkpt lat="46.146196" lon="6.187163"><ele></ele><time>2017-5-18T6:33:20Z</time></trkpt>
<trkpt lat="46.146189" lon="6.187153"><ele></ele><time>2017-5-18T6:33:23Z</time></trkpt>
<trkpt lat="46.146190" lon="6.187150"><ele></ele><time>2017-5-18T6:33:26Z</time></trkpt>
<trkpt lat="46.146185" lon="6.187165"><ele></ele><time>2017-5-18T6:33:29Z</time></trkpt>
<trkpt lat="46.146183" lon="6.187171"><ele></ele><time>2017-5-18T6:33:32Z</time></trkpt>
<trkpt lat="46.146183" lon="6.187175"><ele></ele><time>2017-5-18T6:33:35Z</time></trkpt>
<trkpt lat="46.146166" lon="6.187248"><ele></ele><time>2017-5-18T6:33:38Z</time></trkpt>
<trkpt lat="46.146055" lon="6.187319"><ele></ele><time>2017-5-18T6:33:41Z</time></trkpt>
<trkpt lat="46.145916" lon="6.187378"><ele></ele><time>2017-5-18T6:33:44Z</time></trkpt>
<trkpt lat="46.145781" lon="6.187417"><ele></ele><time>2017-5-18T6:33:47Z</time></trkpt>
<trkpt lat="46.145659" lon="6.187416"><ele></ele><time>2017-5-18T6:33:50Z</time></trkpt>
<trkpt lat="46.145485" lon="6.187387"><ele></ele><time>2017-5-18T6:33:53Z</time></trkpt>
<trkpt lat="46.145301" lon="6.187369"><ele></ele><time>2017-5-18T6:33:56Z</time></trkpt>
<trkpt lat="46.145093" lon="6.187285"><ele></ele><time>2017-5-18T6:33:59Z</time></trkpt>
<trkpt lat="46.145029" lon="6.187270"><ele></ele><time>2017-5-18T6:34:2Z</time></trkpt>
<trkpt lat="46.144998" lon="6.187246"><ele></ele><time>2017-5-18T6:34:5Z</time></trkpt>
<trkpt lat="46.144963" lon="6.187224"><ele></ele><time>2017-5-18T6:34:8Z</time></trkpt>
<trkpt lat="46.144926" lon="6.187203"><ele></ele><time>2017-5-18T6:34:11Z</time></trkpt>
<trkpt lat="46.144884" lon="6.187181"><ele></ele><time>2017-5-18T6:34:14Z</time></trkpt>
<trkpt lat="46.144843" lon="6.187167"><ele></ele><time>2017-5-18T6:34:17Z</time></trkpt>
<trkpt lat="46.144806" lon="6.187159"><ele></ele><time>2017-5-18T6:34:20Z</time></trkpt>
<trkpt lat="46.144773" lon="6.187154"><ele></ele><time>2017-5-18T6:34:23Z</time></trkpt>
<trkpt lat="46.144745" lon="6.187146"><ele></ele><time>2017-5-18T6:34:26Z</time></trkpt>
<trkpt lat="46.144610" lon="6.187083"><ele></ele><time>2017-5-18T6:34:29Z</time></trkpt>
<trkpt lat="46.144477" lon="6.186974"><ele></ele><time>2017-5-18T6:34:32Z</time></trkpt>
<trkpt lat="46.144440" lon="6.186947"><ele></ele><time>2017-5-18T6:34:35Z</time></trkpt>
<trkpt lat="46.144421" lon="6.186927"><ele></ele><time>2017-5-18T6:34:38Z</time></trkpt>
<trkpt lat="46.144399" lon="6.186906"><ele></ele><time>2017-5-18T6:34:41Z</time></trkpt>
<trkpt lat="46.144253" lon="6.186766"><ele></ele><time>2017-5-18T6:34:44Z</time></trkpt>
<trkpt lat="46.144135" lon="6.186640"><ele></ele><time>2017-5-18T6:34:47Z</time></trkpt>
<trkpt lat="46.144044" lon="6.186497"><ele></ele><time>2017-5-18T6:34:50Z</time></trkpt>
<trkpt lat="46.143938" lon="6.186363"><ele></ele><time>2017-5-18T6:34:53Z</time></trkpt>
<trkpt lat="46.143828" lon="6.186156"><ele></ele><time>2017-5-18T6:34:56Z</time></trkpt>
<trkpt lat="46.143726" lon="6.185999"><ele></ele><time>2017-5-18T6:34:59Z</time></trkpt>
<trkpt lat="46.143601" lon="6.185826"><ele></ele><time>2017-5-18T6:35:2Z</time></trkpt>
<trkpt lat="46.143474" lon="6.185699"><ele></ele><time>2017-5-18T6:35:5Z</time></trkpt>
<trkpt lat="46.143361" lon="6.185557"><ele></ele><time>2017-5-18T6:35:8Z</time></trkpt>
<trkpt lat="46.143213" lon="6.185420"><ele></ele><time>2017-5-18T6:35:11Z</time></trkpt>
<trkpt lat="46.143077" lon="6.185256"><ele></ele><time>2017-5-18T6:35:14Z</time></trkpt>
<trkpt lat="46.142906" lon="6.185055"><ele></ele><time>2017-5-18T6:35:17Z</time></trkpt>
<trkpt lat="46.142769" lon="6.184867"><ele></ele><time>2017-5-18T6:35:20Z</time></trkpt>
<trkpt lat="46.142632" lon="6.184766"><ele></ele><time>2017-5-18T6:35:23Z</time></trkpt>
<trkpt lat="46.142513" lon="6.184658"><ele></ele><time>2017-5-18T6:35:26Z</time></trkpt>
<trkpt lat="46.142383" lon="6.184561"><ele></ele><time>2017-5-18T6:35:29Z</time></trkpt>
<trkpt lat="46.142241" lon="6.184452"><ele></ele><time>2017-5-18T6:35:32Z</time></trkpt>
<trkpt lat="46.142222" lon="6.184450"><ele></ele><time>2017-5-18T6:35:35Z</time></trkpt>
<trkpt lat="46.142202" lon="6.184452"><ele></ele><time>2017-5-18T6:35:38Z</time></trkpt>
<trkpt lat="46.142115" lon="6.184476"><ele></ele><time>2017-5-18T6:35:41Z</time></trkpt>
<trkpt lat="46.141966" lon="6.184568"><ele></ele><time>2017-5-18T6:35:44Z</time></trkpt>
<trkpt lat="46.141931" lon="6.184580"><ele></ele><time>2017-5-18T6:35:47Z</time></trkpt>
<trkpt lat="46.141896" lon="6.184578"><ele></ele><time>2017-5-18T6:35:50Z</time></trkpt>
<trkpt lat="46.141861" lon="6.184570"><ele></ele><time>2017-5-18T6:35:53Z</time></trkpt>
<trkpt lat="46.141622" lon="6.184528"><ele></ele><time>2017-5-18T6:35:56Z</time></trkpt>
<trkpt lat="46.141330" lon="6.184532"><ele></ele><time>2017-5-18T6:35:59Z</time></trkpt>
<trkpt lat="46.141161" lon="6.184559"><ele></ele><time>2017-5-18T6:36:2Z</time></trkpt>
<trkpt lat="46.140997" lon="6.184553"><ele></ele><time>2017-5-18T6:36:5Z</time></trkpt>
<trkpt lat="46.140802" lon="6.184439"><ele></ele><time>2017-5-18T6:36:8Z</time></trkpt>
<trkpt lat="46.140662" lon="6.184238"><ele></ele><time>2017-5-18T6:36:11Z</time></trkpt>
<trkpt lat="46.140559" lon="6.184077"><ele></ele><time>2017-5-18T6:36:14Z</time></trkpt>
<trkpt lat="46.140474" lon="6.183958"><ele></ele><time>2017-5-18T6:36:17Z</time></trkpt>
<trkpt lat="46.140394" lon="6.183835"><ele></ele><time>2017-5-18T6:36:20Z</time></trkpt>
<trkpt lat="46.140385" lon="6.183820"><ele></ele><time>2017-5-18T6:36:23Z</time></trkpt>
<trkpt lat="46.140375" lon="6.183806"><ele></ele><time>2017-5-18T6:36:26Z</time></trkpt>
<trkpt lat="46.140364" lon="6.183793"><ele></ele><time>2017-5-18T6:36:29Z</time></trkpt>
<trkpt lat="46.140352" lon="6.183782"><ele></ele><time>2017-5-18T6:36:32Z</time></trkpt>
<trkpt lat="46.140341" lon="6.183770"><ele></ele><time>2017-5-18T6:36:35Z</time></trkpt>
<trkpt lat="46.140330" lon="6.183755"><ele></ele><time>2017-5-18T6:36:38Z</time></trkpt>
<trkpt lat="46.140320" lon="6.183737"><ele></ele><time>2017-5-18T6:36:41Z</time></trkpt>
<trkpt lat="46.140312" lon="6.183722"><ele></ele><time>2017-5-18T6:36:44Z</time></trkpt>
<trkpt lat="46.140241" lon="6.183597"><ele></ele><time>2017-5-18T6:36:47Z</time></trkpt>
<trkpt lat="46.140184" lon="6.183449"><ele></ele><time>2017-5-18T6:36:50Z</time></trkpt>
<trkpt lat="46.140147" lon="6.183362"><ele></ele><time>2017-5-18T6:36:53Z</time></trkpt>
<trkpt lat="46.140143" lon="6.183345"><ele></ele><time>2017-5-18T6:36:56Z</time></trkpt>
<trkpt lat="46.140127" lon="6.183276"><ele></ele><time>2017-5-18T6:36:59Z</time></trkpt>
<trkpt lat="46.140083" lon="6.183147"><ele></ele><time>2017-5-18T6:37:2Z</time></trkpt>
<trkpt lat="46.140059" lon="6.183066"><ele></ele><time>2017-5-18T6:37:5Z</time></trkpt>
<trkpt lat="46.140052" lon="6.183053"><ele></ele><time>2017-5-18T6:37:8Z</time></trkpt>
<trkpt lat="46.140046" lon="6.183038"><ele></ele><time>2017-5-18T6:37:11Z</time></trkpt>
<trkpt lat="46.140043" lon="6.183020"><ele></ele><time>2017-5-18T6:37:14Z</time></trkpt>
<trkpt lat="46.140041" lon="6.183004"><ele></ele><time>2017-5-18T6:37:17Z</time></trkpt>
<trkpt lat="46.140034" lon="6.182991"><ele></ele><time>2017-5-18T6:37:20Z</time></trkpt>
<trkpt lat="46.140030" lon="6.182977"><ele></ele><time>2017-5-18T6:37:23Z</time></trkpt>
<trkpt lat="46.139975" lon="6.182872"><ele></ele><time>2017-5-18T6:37:26Z</time></trkpt>
<trkpt lat="46.139954" lon="6.182807"><ele></ele><time>2017-5-18T6:37:29Z</time></trkpt>
<trkpt lat="46.139949" lon="6.182792"><ele></ele><time>2017-5-18T6:37:32Z</time></trkpt>
<trkpt lat="46.139918" lon="6.182658"><ele></ele><time>2017-5-18T6:37:35Z</time></trkpt>
<trkpt lat="46.139874" lon="6.182526"><ele></ele><time>2017-5-18T6:37:38Z</time></trkpt>
<trkpt lat="46.139829" lon="6.182354"><ele></ele><time>2017-5-18T6:37:41Z</time></trkpt>
<trkpt lat="46.139797" lon="6.182191"><ele></ele><time>2017-5-18T6:37:44Z</time></trkpt>
<trkpt lat="46.139773" lon="6.182044"><ele></ele><time>2017-5-18T6:37:47Z</time></trkpt>
<trkpt lat="46.139759" lon="6.181900"><ele></ele><time>2017-5-18T6:37:50Z</time></trkpt>
<trkpt lat="46.139719" lon="6.181787"><ele></ele><time>2017-5-18T6:37:53Z</time></trkpt>
<trkpt lat="46.139653" lon="6.181674"><ele></ele><time>2017-5-18T6:37:56Z</time></trkpt>
<trkpt lat="46.139605" lon="6.181563"><ele></ele><time>2017-5-18T6:37:59Z</time></trkpt>
<trkpt lat="46.139554" lon="6.181425"><ele></ele><time>2017-5-18T6:38:2Z</time></trkpt>
<trkpt lat="46.139519" lon="6.181269"><ele></ele><time>2017-5-18T6:38:5Z</time></trkpt>
<trkpt lat="46.139507" lon="6.181097"><ele></ele><time>2017-5-18T6:38:8Z</time></trkpt>
<trkpt lat="46.139491" lon="6.180957"><ele></ele><time>2017-5-18T6:38:11Z</time></trkpt>
<trkpt lat="46.139484" lon="6.180895"><ele></ele><time>2017-5-18T6:38:14Z</time></trkpt>
<trkpt lat="46.139480" lon="6.180876"><ele></ele><time>2017-5-18T6:38:17Z</time></trkpt>
<trkpt lat="46.139479" lon="6.180857"><ele></ele><time>2017-5-18T6:38:20Z</time></trkpt>
<trkpt lat="46.139481" lon="6.180654"><ele></ele><time>2017-5-18T6:38:23Z</time></trkpt>
<trkpt lat="46.139468" lon="6.180501"><ele></ele><time>2017-5-18T6:38:26Z</time></trkpt>
<trkpt lat="46.139423" lon="6.180302"><ele></ele><time>2017-5-18T6:38:29Z</time></trkpt>
<trkpt lat="46.139402" lon="6.180273"><ele></ele><time>2017-5-18T6:38:32Z</time></trkpt>
<trkpt lat="46.139394" lon="6.180245"><ele></ele><time>2017-5-18T6:38:35Z</time></trkpt>
<trkpt lat="46.139397" lon="6.180249"><ele></ele><time>2017-5-18T6:38:38Z</time></trkpt>
<trkpt lat="46.139417" lon="6.180232"><ele></ele><time>2017-5-18T6:38:41Z</time></trkpt>
<trkpt lat="46.139387" lon="6.180225"><ele></ele><time>2017-5-18T6:38:44Z</time></trkpt>
<trkpt lat="46.139397" lon="6.180238"><ele></ele><time>2017-5-18T6:38:47Z</time></trkpt>
<trkpt lat="46.139385" lon="6.180207"><ele></ele><time>2017-5-18T6:38:50Z</time></trkpt>
<trkpt lat="46.139373" lon="6.180192"><ele></ele><time>2017-5-18T6:38:53Z</time></trkpt>
<trkpt lat="46.139220" lon="6.180068"><ele></ele><time>2017-5-18T6:38:56Z</time></trkpt>
<trkpt lat="46.138974" lon="6.179910"><ele></ele><time>2017-5-18T6:38:59Z</time></trkpt>
<trkpt lat="46.138922" lon="6.179867"><ele></ele><time>2017-5-18T6:39:2Z</time></trkpt>
<trkpt lat="46.138866" lon="6.179813"><ele></ele><time>2017-5-18T6:39:5Z</time></trkpt>
<trkpt lat="46.138527" lon="6.179387"><ele></ele><time>2017-5-18T6:39:8Z</time></trkpt>
<trkpt lat="46.138418" lon="6.179213"><ele></ele><time>2017-5-18T6:39:11Z</time></trkpt>
<trkpt lat="46.138229" lon="6.178853"><ele></ele><time>2017-5-18T6:39:14Z</time></trkpt>
<trkpt lat="46.138108" lon="6.178678"><ele></ele><time>2017-5-18T6:39:17Z</time></trkpt>
<trkpt lat="46.137995" lon="6.178552"><ele></ele><time>2017-5-18T6:39:20Z</time></trkpt>
<trkpt lat="46.137876" lon="6.178415"><ele></ele><time>2017-5-18T6:39:23Z</time></trkpt>
<trkpt lat="46.137782" lon="6.178311"><ele></ele><time>2017-5-18T6:39:26Z</time></trkpt>
<trkpt lat="46.137684" lon="6.178208"><ele></ele><time>2017-5-18T6:39:29Z</time></trkpt>
<trkpt lat="46.137661" lon="6.178181"><ele></ele><time>2017-5-18T6:39:32Z</time></trkpt>
<trkpt lat="46.137651" lon="6.178168"><ele></ele><time>2017-5-18T6:39:35Z</time></trkpt>
<trkpt lat="46.137641" lon="6.178153"><ele></ele><time>2017-5-18T6:39:38Z</time></trkpt>
<trkpt lat="46.137631" lon="6.178139"><ele></ele><time>2017-5-18T6:39:41Z</time></trkpt>
<trkpt lat="46.137623" lon="6.178122"><ele></ele><time>2017-5-18T6:39:44Z</time></trkpt>
<trkpt lat="46.137614" lon="6.178104"><ele></ele><time>2017-5-18T6:39:47Z</time></trkpt>
<trkpt lat="46.137604" lon="6.178089"><ele></ele><time>2017-5-18T6:39:50Z</time></trkpt>
<trkpt lat="46.137502" lon="6.177985"><ele></ele><time>2017-5-18T6:39:53Z</time></trkpt>
<trkpt lat="46.137458" lon="6.177947"><ele></ele><time>2017-5-18T6:39:56Z</time></trkpt>
<trkpt lat="46.137448" lon="6.177935"><ele></ele><time>2017-5-18T6:39:59Z</time></trkpt>
<trkpt lat="46.137358" lon="6.177839"><ele></ele><time>2017-5-18T6:40:2Z</time></trkpt>
<trkpt lat="46.137257" lon="6.177748"><ele></ele><time>2017-5-18T6:40:5Z</time></trkpt>
<trkpt lat="46.137152" lon="6.177664"><ele></ele><time>2017-5-18T6:40:8Z</time></trkpt>
<trkpt lat="46.137058" lon="6.177584"><ele></ele><time>2017-5-18T6:40:11Z</time></trkpt>
<trkpt lat="46.136954" lon="6.177499"><ele></ele><time>2017-5-18T6:40:14Z</time></trkpt>
<trkpt lat="46.136873" lon="6.177425"><ele></ele><time>2017-5-18T6:40:17Z</time></trkpt>
<trkpt lat="46.136777" lon="6.177342"><ele></ele><time>2017-5-18T6:40:20Z</time></trkpt>
<trkpt lat="46.136700" lon="6.177266"><ele></ele><time>2017-5-18T6:40:23Z</time></trkpt>
<trkpt lat="46.136675" lon="6.177240"><ele></ele><time>2017-5-18T6:40:26Z</time></trkpt>
<trkpt lat="46.136665" lon="6.177231"><ele></ele><time>2017-5-18T6:40:29Z</time></trkpt>
<trkpt lat="46.136655" lon="6.177222"><ele></ele><time>2017-5-18T6:40:32Z</time></trkpt>
<trkpt lat="46.136643" lon="6.177215"><ele></ele><time>2017-5-18T6:40:35Z</time></trkpt>
<trkpt lat="46.136633" lon="6.177209"><ele></ele><time>2017-5-18T6:40:38Z</time></trkpt>
<trkpt lat="46.136624" lon="6.177199"><ele></ele><time>2017-5-18T6:40:41Z</time></trkpt>
<trkpt lat="46.136617" lon="6.177187"><ele></ele><time>2017-5-18T6:40:44Z</time></trkpt>
<trkpt lat="46.136608" lon="6.177174"><ele></ele><time>2017-5-18T6:40:47Z</time></trkpt>
<trkpt lat="46.136597" lon="6.177167"><ele></ele><time>2017-5-18T6:40:50Z</time></trkpt>
<trkpt lat="46.136505" lon="6.177087"><ele></ele><time>2017-5-18T6:40:53Z</time></trkpt>
<trkpt lat="46.136454" lon="6.177054"><ele></ele><time>2017-5-18T6:40:56Z</time></trkpt>
<trkpt lat="46.136444" lon="6.177045"><ele></ele><time>2017-5-18T6:40:59Z</time></trkpt>
<trkpt lat="46.136312" lon="6.176920"><ele></ele><time>2017-5-18T6:41:2Z</time></trkpt>
<trkpt lat="46.136225" lon="6.176770"><ele></ele><time>2017-5-18T6:41:5Z</time></trkpt>
<trkpt lat="46.136152" lon="6.176635"><ele></ele><time>2017-5-18T6:41:8Z</time></trkpt>
<trkpt lat="46.136074" lon="6.176498"><ele></ele><time>2017-5-18T6:41:11Z</time></trkpt>
<trkpt lat="46.135973" lon="6.176288"><ele></ele><time>2017-5-18T6:41:14Z</time></trkpt>
<trkpt lat="46.135848" lon="6.176030"><ele></ele><time>2017-5-18T6:41:17Z</time></trkpt>
<trkpt lat="46.135739" lon="6.175804"><ele></ele><time>2017-5-18T6:41:20Z</time></trkpt>
<trkpt lat="46.135729" lon="6.175780"><ele></ele><time>2017-5-18T6:41:23Z</time></trkpt>
<trkpt lat="46.135622" lon="6.175589"><ele></ele><time>2017-5-18T6:41:26Z</time></trkpt>
<trkpt lat="46.135514" lon="6.175342"><ele></ele><time>2017-5-18T6:41:29Z</time></trkpt>
<trkpt lat="46.135422" lon="6.175167"><ele></ele><time>2017-5-18T6:41:32Z</time></trkpt>
<trkpt lat="46.135409" lon="6.175161"><ele></ele><time>2017-5-18T6:41:35Z</time></trkpt>
<trkpt lat="46.135399" lon="6.175151"><ele></ele><time>2017-5-18T6:41:38Z</time></trkpt>
<trkpt lat="46.135394" lon="6.175146"><ele></ele><time>2017-5-18T6:41:41Z</time></trkpt>
<trkpt lat="46.135381" lon="6.175142"><ele></ele><time>2017-5-18T6:41:44Z</time></trkpt>
<trkpt lat="46.135374" lon="6.175150"><ele></ele><time>2017-5-18T6:41:47Z</time></trkpt>
<trkpt lat="46.135378" lon="6.175149"><ele></ele><time>2017-5-18T6:41:50Z</time></trkpt>
<trkpt lat="46.135378" lon="6.175150"><ele></ele><time>2017-5-18T6:41:53Z</time></trkpt>
<trkpt lat="46.135375" lon="6.175151"><ele></ele><time>2017-5-18T6:41:56Z</time></trkpt>
<trkpt lat="46.135376" lon="6.175152"><ele></ele><time>2017-5-18T6:41:59Z</time></trkpt>
<trkpt lat="46.135375" lon="6.175151"><ele></ele><time>2017-5-18T6:42:2Z</time></trkpt>
<trkpt lat="46.135375" lon="6.175153"><ele></ele><time>2017-5-18T6:42:5Z</time></trkpt>
<trkpt lat="46.135374" lon="6.175158"><ele></ele><time>2017-5-18T6:42:8Z</time></trkpt>
<trkpt lat="46.135374" lon="6.175153"><ele></ele><time>2017-5-18T6:42:11Z</time></trkpt>
<trkpt lat="46.135376" lon="6.175151"><ele></ele><time>2017-5-18T6:42:14Z</time></trkpt>
<trkpt lat="46.135375" lon="6.175150"><ele></ele><time>2017-5-18T6:42:17Z</time></trkpt>
<trkpt lat="46.135376" lon="6.175154"><ele></ele><time>2017-5-18T6:42:20Z</time></trkpt>
<trkpt lat="46.135377" lon="6.175151"><ele></ele><time>2017-5-18T6:42:23Z</time></trkpt>
<trkpt lat="46.135375" lon="6.175149"><ele></ele><time>2017-5-18T6:42:26Z</time></trkpt>
<trkpt lat="46.135375" lon="6.175148"><ele></ele><time>2017-5-18T6:42:29Z</time></trkpt>
<trkpt lat="46.135376" lon="6.175152"><ele></ele><time>2017-5-18T6:42:32Z</time></trkpt>
<trkpt lat="46.135374" lon="6.175151"><ele></ele><time>2017-5-18T6:42:35Z</time></trkpt>
<trkpt lat="46.135373" lon="6.175150"><ele></ele><time>2017-5-18T6:42:38Z</time></trkpt>
<trkpt lat="46.135370" lon="6.175148"><ele></ele><time>2017-5-18T6:42:41Z</time></trkpt>
<trkpt lat="46.135371" lon="6.175147"><ele></ele><time>2017-5-18T6:42:44Z</time></trkpt>
<trkpt lat="46.135371" lon="6.175143"><ele></ele><time>2017-5-18T6:42:47Z</time></trkpt>
<trkpt lat="46.135372" lon="6.175135"><ele></ele><time>2017-5-18T6:42:50Z</time></trkpt>
<trkpt lat="46.135373" lon="6.175141"><ele></ele><time>2017-5-18T6:42:53Z</time></trkpt>
<trkpt lat="46.135371" lon="6.175146"><ele></ele><time>2017-5-18T6:42:56Z</time></trkpt>
<trkpt lat="46.135368" lon="6.175143"><ele></ele><time>2017-5-18T6:42:59Z</time></trkpt>
<trkpt lat="46.135369" lon="6.175144"><ele></ele><time>2017-5-18T6:43:2Z</time></trkpt>
<trkpt lat="46.135366" lon="6.175136"><ele></ele><time>2017-5-18T6:43:5Z</time></trkpt>
<trkpt lat="46.135359" lon="6.175120"><ele></ele><time>2017-5-18T6:43:8Z</time></trkpt>
<trkpt lat="46.135348" lon="6.175106"><ele></ele><time>2017-5-18T6:43:11Z</time></trkpt>
<trkpt lat="46.135330" lon="6.175091"><ele></ele><time>2017-5-18T6:43:14Z</time></trkpt>
<trkpt lat="46.135308" lon="6.175078"><ele></ele><time>2017-5-18T6:43:17Z</time></trkpt>
<trkpt lat="46.135288" lon="6.175066"><ele></ele><time>2017-5-18T6:43:20Z</time></trkpt>
<trkpt lat="46.135113" lon="6.174995"><ele></ele><time>2017-5-18T6:43:23Z</time></trkpt>
<trkpt lat="46.134948" lon="6.174900"><ele></ele><time>2017-5-18T6:43:26Z</time></trkpt>
<trkpt lat="46.134906" lon="6.174886"><ele></ele><time>2017-5-18T6:43:29Z</time></trkpt>
<trkpt lat="46.134868" lon="6.174873"><ele></ele><time>2017-5-18T6:43:32Z</time></trkpt>
<trkpt lat="46.134545" lon="6.174732"><ele></ele><time>2017-5-18T6:43:35Z</time></trkpt>
<trkpt lat="46.134225" lon="6.174599"><ele></ele><time>2017-5-18T6:43:38Z</time></trkpt>
<trkpt lat="46.133817" lon="6.174431"><ele></ele><time>2017-5-18T6:43:41Z</time></trkpt>
<trkpt lat="46.133574" lon="6.174320"><ele></ele><time>2017-5-18T6:43:44Z</time></trkpt>
<trkpt lat="46.133334" lon="6.174215"><ele></ele><time>2017-5-18T6:43:47Z</time></trkpt>
<trkpt lat="46.133175" lon="6.174121"><ele></ele><time>2017-5-18T6:43:50Z</time></trkpt>
<trkpt lat="46.132940" lon="6.174016"><ele></ele><time>2017-5-18T6:43:53Z</time></trkpt>
<trkpt lat="46.132684" lon="6.173885"><ele></ele><time>2017-5-18T6:43:56Z</time></trkpt>
<trkpt lat="46.132398" lon="6.173744"><ele></ele><time>2017-5-18T6:43:59Z</time></trkpt>
<trkpt lat="46.132213" lon="6.173680"><ele></ele><time>2017-5-18T6:44:2Z</time></trkpt>
<trkpt lat="46.131781" lon="6.173494"><ele></ele><time>2017-5-18T6:44:5Z</time></trkpt>
<trkpt lat="46.131293" lon="6.173265"><ele></ele><time>2017-5-18T6:44:8Z</time></trkpt>
<trkpt lat="46.131183" lon="6.173194"><ele></ele><time>2017-5-18T6:44:11Z</time></trkpt>
<trkpt lat="46.131090" lon="6.173141"><ele></ele><time>2017-5-18T6:44:14Z</time></trkpt>
<trkpt lat="46.131047" lon="6.173108"><ele></ele><time>2017-5-18T6:44:17Z</time></trkpt>
<trkpt lat="46.130886" lon="6.172967"><ele></ele><time>2017-5-18T6:44:20Z</time></trkpt>
<trkpt lat="46.130686" lon="6.172842"><ele></ele><time>2017-5-18T6:44:23Z</time></trkpt>
<trkpt lat="46.130524" lon="6.172794"><ele></ele><time>2017-5-18T6:44:26Z</time></trkpt>
<trkpt lat="46.130477" lon="6.172781"><ele></ele><time>2017-5-18T6:44:29Z</time></trkpt>
<trkpt lat="46.130427" lon="6.172776"><ele></ele><time>2017-5-18T6:44:32Z</time></trkpt>
<trkpt lat="46.130364" lon="6.172774"><ele></ele><time>2017-5-18T6:44:35Z</time></trkpt>
<trkpt lat="46.130307" lon="6.172768"><ele></ele><time>2017-5-18T6:44:38Z</time></trkpt>
<trkpt lat="46.130250" lon="6.172754"><ele></ele><time>2017-5-18T6:44:41Z</time></trkpt>
<trkpt lat="46.130111" lon="6.172705"><ele></ele><time>2017-5-18T6:44:44Z</time></trkpt>
<trkpt lat="46.129636" lon="6.172694"><ele></ele><time>2017-5-18T6:44:47Z</time></trkpt>
<trkpt lat="46.129008" lon="6.172810"><ele></ele><time>2017-5-18T6:44:50Z</time></trkpt>
<trkpt lat="46.128691" lon="6.172897"><ele></ele><time>2017-5-18T6:44:53Z</time></trkpt>
<trkpt lat="46.128433" lon="6.172933"><ele></ele><time>2017-5-18T6:44:56Z</time></trkpt>
<trkpt lat="46.128256" lon="6.172892"><ele></ele><time>2017-5-18T6:44:59Z</time></trkpt>
<trkpt lat="46.128239" lon="6.172901"><ele></ele><time>2017-5-18T6:45:2Z</time></trkpt>
<trkpt lat="46.128219" lon="6.172925"><ele></ele><time>2017-5-18T6:45:5Z</time></trkpt>
<trkpt lat="46.128219" lon="6.172939"><ele></ele><time>2017-5-18T6:45:8Z</time></trkpt>
<trkpt lat="46.128219" lon="6.172930"><ele></ele><time>2017-5-18T6:45:11Z</time></trkpt>
<trkpt lat="46.128219" lon="6.172930"><ele></ele><time>2017-5-18T6:45:14Z</time></trkpt>
<trkpt lat="46.128226" lon="6.172924"><ele></ele><time>2017-5-18T6:45:17Z</time></trkpt>
<trkpt lat="46.128262" lon="6.172938"><ele></ele><time>2017-5-18T6:45:20Z</time></trkpt>
<trkpt lat="46.128265" lon="6.172948"><ele></ele><time>2017-5-18T6:45:23Z</time></trkpt>
<trkpt lat="46.128262" lon="6.172945"><ele></ele><time>2017-5-18T6:45:26Z</time></trkpt>
<trkpt lat="46.128229" lon="6.172933"><ele></ele><time>2017-5-18T6:45:29Z</time></trkpt>
<trkpt lat="46.128235" lon="6.172950"><ele></ele><time>2017-5-18T6:45:32Z</time></trkpt>
<trkpt lat="46.128239" lon="6.172940"><ele></ele><time>2017-5-18T6:45:35Z</time></trkpt>
<trkpt lat="46.128244" lon="6.172938"><ele></ele><time>2017-5-18T6:45:38Z</time></trkpt>
<trkpt lat="46.128246" lon="6.172935"><ele></ele><time>2017-5-18T6:45:41Z</time></trkpt>
<trkpt lat="46.128238" lon="6.172941"><ele></ele><time>2017-5-18T6:45:44Z</time></trkpt>
<trkpt lat="46.128237" lon="6.172939"><ele></ele><time>2017-5-18T6:45:47Z</time></trkpt>
<trkpt lat="46.128246" lon="6.172936"><ele></ele><time>2017-5-18T6:45:50Z</time></trkpt>
<trkpt lat="46.128249" lon="6.172936"><ele></ele><time>2017-5-18T6:45:53Z</time></trkpt>
<trkpt lat="46.128248" lon="6.172937"><ele></ele><time>2017-5-18T6:45:56Z</time></trkpt>
<trkpt lat="46.128245" lon="6.172936"><ele></ele><time>2017-5-18T6:45:59Z</time></trkpt>
<trkpt lat="46.128244" lon="6.172934"><ele></ele><time>2017-5-18T6:46:2Z</time></trkpt>
<trkpt lat="46.128246" lon="6.172933"><ele></ele><time>2017-5-18T6:46:5Z</time></trkpt>
<trkpt lat="46.128247" lon="6.172929"><ele></ele><time>2017-5-18T6:46:8Z</time></trkpt>
<trkpt lat="46.128248" lon="6.172929"><ele></ele><time>2017-5-18T6:46:11Z</time></trkpt>
<trkpt lat="46.128243" lon="6.172931"><ele></ele><time>2017-5-18T6:46:14Z</time></trkpt>
<trkpt lat="46.128246" lon="6.172932"><ele></ele><time>2017-5-18T6:46:17Z</time></trkpt>
<trkpt lat="46.128243" lon="6.172935"><ele></ele><time>2017-5-18T6:46:20Z</time></trkpt>
<trkpt lat="46.128246" lon="6.172932"><ele></ele><time>2017-5-18T6:46:23Z</time></trkpt>
<trkpt lat="46.128246" lon="6.172929"><ele></ele><time>2017-5-18T6:46:26Z</time></trkpt>
<trkpt lat="46.128248" lon="6.172925"><ele></ele><time>2017-5-18T6:46:29Z</time></trkpt>
<trkpt lat="46.128245" lon="6.172930"><ele></ele><time>2017-5-18T6:46:32Z</time></trkpt>
<trkpt lat="46.128246" lon="6.172930"><ele></ele><time>2017-5-18T6:46:35Z</time></trkpt>
<trkpt lat="46.128248" lon="6.172927"><ele></ele><time>2017-5-18T6:46:38Z</time></trkpt>
<trkpt lat="46.128249" lon="6.172926"><ele></ele><time>2017-5-18T6:46:41Z</time></trkpt>
<trkpt lat="46.128247" lon="6.172926"><ele></ele><time>2017-5-18T6:46:44Z</time></trkpt>
<trkpt lat="46.128245" lon="6.172924"><ele></ele><time>2017-5-18T6:46:47Z</time></trkpt>
<trkpt lat="46.128243" lon="6.172923"><ele></ele><time>2017-5-18T6:46:50Z</time></trkpt>
<trkpt lat="46.128242" lon="6.172925"><ele></ele><time>2017-5-18T6:46:53Z</time></trkpt>
<trkpt lat="46.128243" lon="6.172921"><ele></ele><time>2017-5-18T6:46:56Z</time></trkpt>
<trkpt lat="46.128243" lon="6.172927"><ele></ele><time>2017-5-18T6:46:59Z</time></trkpt>
<trkpt lat="46.128245" lon="6.172930"><ele></ele><time>2017-5-18T6:47:2Z</time></trkpt>
<trkpt lat="46.128242" lon="6.172933"><ele></ele><time>2017-5-18T6:47:5Z</time></trkpt>
<trkpt lat="46.128237" lon="6.172931"><ele></ele><time>2017-5-18T6:47:8Z</time></trkpt>
<trkpt lat="46.128236" lon="6.172930"><ele></ele><time>2017-5-18T6:47:11Z</time></trkpt>
<trkpt lat="46.128236" lon="6.172930"><ele></ele><time>2017-5-18T6:47:14Z</time></trkpt>
<trkpt lat="46.128237" lon="6.172929"><ele></ele><time>2017-5-18T6:47:17Z</time></trkpt>
<trkpt lat="46.128238" lon="6.172930"><ele></ele><time>2017-5-18T6:47:20Z</time></trkpt>
<trkpt lat="46.128237" lon="6.172930"><ele></ele><time>2017-5-18T6:47:23Z</time></trkpt>
<trkpt lat="46.128235" lon="6.172931"><ele></ele><time>2017-5-18T6:47:26Z</time></trkpt>
<trkpt lat="46.128237" lon="6.172929"><ele></ele><time>2017-5-18T6:47:29Z</time></trkpt>
<trkpt lat="46.128239" lon="6.172927"><ele></ele><time>2017-5-18T6:47:32Z</time></trkpt>
<trkpt lat="46.128241" lon="6.172926"><ele></ele><time>2017-5-18T6:47:35Z</time></trkpt>
<trkpt lat="46.128254" lon="6.172907"><ele></ele><time>2017-5-18T6:47:38Z</time></trkpt>
<trkpt lat="46.128257" lon="6.172908"><ele></ele><time>2017-5-18T6:47:41Z</time></trkpt>
<trkpt lat="46.128260" lon="6.172907"><ele></ele><time>2017-5-18T6:47:44Z</time></trkpt>
<trkpt lat="46.128380" lon="6.172912"><ele></ele><time>2017-5-18T6:47:47Z</time></trkpt>
<trkpt lat="46.128721" lon="6.172882"><ele></ele><time>2017-5-18T6:47:50Z</time></trkpt>
<trkpt lat="46.129094" lon="6.172755"><ele></ele><time>2017-5-18T6:47:53Z</time></trkpt>
<trkpt lat="46.129261" lon="6.172577"><ele></ele><time>2017-5-18T6:47:56Z</time></trkpt>
<trkpt lat="46.129253" lon="6.172362"><ele></ele><time>2017-5-18T6:47:59Z</time></trkpt>
<trkpt lat="46.129137" lon="6.172222"><ele></ele><time>2017-5-18T6:48:2Z</time></trkpt>
<trkpt lat="46.128873" lon="6.172034"><ele></ele><time>2017-5-18T6:48:5Z</time></trkpt>
<trkpt lat="46.128795" lon="6.172002"><ele></ele><time>2017-5-18T6:48:8Z</time></trkpt>
<trkpt lat="46.128580" lon="6.171955"><ele></ele><time>2017-5-18T6:48:11Z</time></trkpt>
<trkpt lat="46.128268" lon="6.171923"><ele></ele><time>2017-5-18T6:48:14Z</time></trkpt>
<trkpt lat="46.128053" lon="6.171859"><ele></ele><time>2017-5-18T6:48:17Z</time></trkpt>
<trkpt lat="46.127846" lon="6.171740"><ele></ele><time>2017-5-18T6:48:20Z</time></trkpt>
<trkpt lat="46.127618" lon="6.171625"><ele></ele><time>2017-5-18T6:48:23Z</time></trkpt>
<trkpt lat="46.127419" lon="6.171548"><ele></ele><time>2017-5-18T6:48:26Z</time></trkpt>
<trkpt lat="46.127210" lon="6.171568"><ele></ele><time>2017-5-18T6:48:29Z</time></trkpt>
<trkpt lat="46.126949" lon="6.171645"><ele></ele><time>2017-5-18T6:48:32Z</time></trkpt>
<trkpt lat="46.126717" lon="6.171731"><ele></ele><time>2017-5-18T6:48:35Z</time></trkpt>
<trkpt lat="46.126694" lon="6.171745"><ele></ele><time>2017-5-18T6:48:38Z</time></trkpt>
<trkpt lat="46.126684" lon="6.171772"><ele></ele><time>2017-5-18T6:48:41Z</time></trkpt>
<trkpt lat="46.126653" lon="6.171803"><ele></ele><time>2017-5-18T6:48:44Z</time></trkpt>
<trkpt lat="46.126564" lon="6.171856"><ele></ele><time>2017-5-18T6:48:47Z</time></trkpt>
<trkpt lat="46.126346" lon="6.172028"><ele></ele><time>2017-5-18T6:48:50Z</time></trkpt>
<trkpt lat="46.126000" lon="6.172340"><ele></ele><time>2017-5-18T6:48:53Z</time></trkpt>
<trkpt lat="46.125920" lon="6.172383"><ele></ele><time>2017-5-18T6:48:56Z</time></trkpt>
<trkpt lat="46.125842" lon="6.172403"><ele></ele><time>2017-5-18T6:48:59Z</time></trkpt>
<trkpt lat="46.125764" lon="6.172402"><ele></ele><time>2017-5-18T6:49:2Z</time></trkpt>
<trkpt lat="46.125690" lon="6.172389"><ele></ele><time>2017-5-18T6:49:5Z</time></trkpt>
<trkpt lat="46.125612" lon="6.172366"><ele></ele><time>2017-5-18T6:49:8Z</time></trkpt>
<trkpt lat="46.125538" lon="6.172337"><ele></ele><time>2017-5-18T6:49:11Z</time></trkpt>
<trkpt lat="46.125353" lon="6.172266"><ele></ele><time>2017-5-18T6:49:14Z</time></trkpt>
<trkpt lat="46.125308" lon="6.172264"><ele></ele><time>2017-5-18T6:49:17Z</time></trkpt>
<trkpt lat="46.125254" lon="6.172262"><ele></ele><time>2017-5-18T6:49:20Z</time></trkpt>
<trkpt lat="46.125192" lon="6.172250"><ele></ele><time>2017-5-18T6:49:23Z</time></trkpt>
<trkpt lat="46.125130" lon="6.172228"><ele></ele><time>2017-5-18T6:49:26Z</time></trkpt>
<trkpt lat="46.125070" lon="6.172197"><ele></ele><time>2017-5-18T6:49:29Z</time></trkpt>
<trkpt lat="46.125022" lon="6.172163"><ele></ele><time>2017-5-18T6:49:32Z</time></trkpt>
<trkpt lat="46.124980" lon="6.172119"><ele></ele><time>2017-5-18T6:49:35Z</time></trkpt>
<trkpt lat="46.124939" lon="6.172087"><ele></ele><time>2017-5-18T6:49:38Z</time></trkpt>
<trkpt lat="46.124899" lon="6.172057"><ele></ele><time>2017-5-18T6:49:41Z</time></trkpt>
<trkpt lat="46.124861" lon="6.172016"><ele></ele><time>2017-5-18T6:49:44Z</time></trkpt>
<trkpt lat="46.124830" lon="6.171976"><ele></ele><time>2017-5-18T6:49:47Z</time></trkpt>
<trkpt lat="46.124798" lon="6.171930"><ele></ele><time>2017-5-18T6:49:50Z</time></trkpt>
<trkpt lat="46.124757" lon="6.171881"><ele></ele><time>2017-5-18T6:49:53Z</time></trkpt>
<trkpt lat="46.124519" lon="6.171673"><ele></ele><time>2017-5-18T6:49:56Z</time></trkpt>
<trkpt lat="46.124219" lon="6.171543"><ele></ele><time>2017-5-18T6:49:59Z</time></trkpt>
<trkpt lat="46.123884" lon="6.171446"><ele></ele><time>2017-5-18T6:50:2Z</time></trkpt>
<trkpt lat="46.123751" lon="6.171411"><ele></ele><time>2017-5-18T6:50:5Z</time></trkpt>
<trkpt lat="46.123710" lon="6.171404"><ele></ele><time>2017-5-18T6:50:8Z</time></trkpt>
<trkpt lat="46.123452" lon="6.171335"><ele></ele><time>2017-5-18T6:50:11Z</time></trkpt>
<trkpt lat="46.123206" lon="6.171314"><ele></ele><time>2017-5-18T6:50:14Z</time></trkpt>
<trkpt lat="46.122865" lon="6.171396"><ele></ele><time>2017-5-18T6:50:17Z</time></trkpt>
<trkpt lat="46.122525" lon="6.171500"><ele></ele><time>2017-5-18T6:50:20Z</time></trkpt>
<trkpt lat="46.122482" lon="6.171512"><ele></ele><time>2017-5-18T6:50:23Z</time></trkpt>
<trkpt lat="46.122175" lon="6.171687"><ele></ele><time>2017-5-18T6:50:26Z</time></trkpt>
<trkpt lat="46.122118" lon="6.171733"><ele></ele><time>2017-5-18T6:50:29Z</time></trkpt>
<trkpt lat="46.122059" lon="6.171769"><ele></ele><time>2017-5-18T6:50:32Z</time></trkpt>
<trkpt lat="46.121875" lon="6.171865"><ele></ele><time>2017-5-18T6:50:35Z</time></trkpt>
<trkpt lat="46.121811" lon="6.171878"><ele></ele><time>2017-5-18T6:50:38Z</time></trkpt>
<trkpt lat="46.121457" lon="6.171939"><ele></ele><time>2017-5-18T6:50:41Z</time></trkpt>
<trkpt lat="46.121394" lon="6.171960"><ele></ele><time>2017-5-18T6:50:44Z</time></trkpt>
<trkpt lat="46.121206" lon="6.172042"><ele></ele><time>2017-5-18T6:50:47Z</time></trkpt>
<trkpt lat="46.120950" lon="6.172090"><ele></ele><time>2017-5-18T6:50:50Z</time></trkpt>
<trkpt lat="46.120885" lon="6.172079"><ele></ele><time>2017-5-18T6:50:53Z</time></trkpt>
<trkpt lat="46.120747" lon="6.172049"><ele></ele><time>2017-5-18T6:50:56Z</time></trkpt>
<trkpt lat="46.120671" lon="6.172053"><ele></ele><time>2017-5-18T6:50:59Z</time></trkpt>
<trkpt lat="46.120152" lon="6.172101"><ele></ele><time>2017-5-18T6:51:2Z</time></trkpt>
<trkpt lat="46.120091" lon="6.172093"><ele></ele><time>2017-5-18T6:51:5Z</time></trkpt>
<trkpt lat="46.120034" lon="6.172079"><ele></ele><time>2017-5-18T6:51:8Z</time></trkpt>
<trkpt lat="46.119980" lon="6.172056"><ele></ele><time>2017-5-18T6:51:11Z</time></trkpt>
<trkpt lat="46.119941" lon="6.172028"><ele></ele><time>2017-5-18T6:51:14Z</time></trkpt>
<trkpt lat="46.119906" lon="6.171997"><ele></ele><time>2017-5-18T6:51:17Z</time></trkpt>
<trkpt lat="46.119773" lon="6.171879"><ele></ele><time>2017-5-18T6:51:20Z</time></trkpt>
<trkpt lat="46.119608" lon="6.171923"><ele></ele><time>2017-5-18T6:51:23Z</time></trkpt>
<trkpt lat="46.119594" lon="6.171937"><ele></ele><time>2017-5-18T6:51:26Z</time></trkpt>
<trkpt lat="46.119593" lon="6.171952"><ele></ele><time>2017-5-18T6:51:29Z</time></trkpt>
<trkpt lat="46.119601" lon="6.171976"><ele></ele><time>2017-5-18T6:51:32Z</time></trkpt>
<trkpt lat="46.119595" lon="6.171982"><ele></ele><time>2017-5-18T6:51:35Z</time></trkpt>
<trkpt lat="46.119588" lon="6.171985"><ele></ele><time>2017-5-18T6:51:38Z</time></trkpt>
<trkpt lat="46.119592" lon="6.171951"><ele></ele><time>2017-5-18T6:51:41Z</time></trkpt>
<trkpt lat="46.119597" lon="6.171935"><ele></ele><time>2017-5-18T6:51:44Z</time></trkpt>
<trkpt lat="46.119596" lon="6.171913"><ele></ele><time>2017-5-18T6:51:47Z</time></trkpt>
<trkpt lat="46.119589" lon="6.171897"><ele></ele><time>2017-5-18T6:51:50Z</time></trkpt>
<trkpt lat="46.119579" lon="6.171880"><ele></ele><time>2017-5-18T6:51:53Z</time></trkpt>
<trkpt lat="46.119572" lon="6.171860"><ele></ele><time>2017-5-18T6:51:56Z</time></trkpt>
<trkpt lat="46.119568" lon="6.171845"><ele></ele><time>2017-5-18T6:51:59Z</time></trkpt>
<trkpt lat="46.119563" lon="6.171825"><ele></ele><time>2017-5-18T6:52:2Z</time></trkpt>
<trkpt lat="46.119556" lon="6.171805"><ele></ele><time>2017-5-18T6:52:5Z</time></trkpt>
<trkpt lat="46.119524" lon="6.171697"><ele></ele><time>2017-5-18T6:52:8Z</time></trkpt>
<trkpt lat="46.119511" lon="6.171681"><ele></ele><time>2017-5-18T6:52:11Z</time></trkpt>
<trkpt lat="46.119430" lon="6.171562"><ele></ele><time>2017-5-18T6:52:14Z</time></trkpt>
<trkpt lat="46.119430" lon="6.171510"><ele></ele><time>2017-5-18T6:52:17Z</time></trkpt>
<trkpt lat="46.119436" lon="6.171489"><ele></ele><time>2017-5-18T6:52:20Z</time></trkpt>
<trkpt lat="46.119470" lon="6.171240"><ele></ele><time>2017-5-18T6:52:23Z</time></trkpt>
<trkpt lat="46.119480" lon="6.171024"><ele></ele><time>2017-5-18T6:52:26Z</time></trkpt>
<trkpt lat="46.119445" lon="6.170760"><ele></ele><time>2017-5-18T6:52:29Z</time></trkpt>
<trkpt lat="46.119364" lon="6.170467"><ele></ele><time>2017-5-18T6:52:32Z</time></trkpt>
<trkpt lat="46.119277" lon="6.170188"><ele></ele><time>2017-5-18T6:52:35Z</time></trkpt>
<trkpt lat="46.119205" lon="6.169987"><ele></ele><time>2017-5-18T6:52:38Z</time></trkpt>
<trkpt lat="46.119145" lon="6.169832"><ele></ele><time>2017-5-18T6:52:41Z</time></trkpt>
<trkpt lat="46.119130" lon="6.169801"><ele></ele><time>2017-5-18T6:52:44Z</time></trkpt>
<trkpt lat="46.119121" lon="6.169791"><ele></ele><time>2017-5-18T6:52:47Z</time></trkpt>
<trkpt lat="46.119113" lon="6.169782"><ele></ele><time>2017-5-18T6:52:50Z</time></trkpt>
<trkpt lat="46.119047" lon="6.169639"><ele></ele><time>2017-5-18T6:52:53Z</time></trkpt>
<trkpt lat="46.118985" lon="6.169523"><ele></ele><time>2017-5-18T6:52:56Z</time></trkpt>
<trkpt lat="46.118904" lon="6.169430"><ele></ele><time>2017-5-18T6:52:59Z</time></trkpt>
<trkpt lat="46.118874" lon="6.169414"><ele></ele><time>2017-5-18T6:53:2Z</time></trkpt>
<trkpt lat="46.118867" lon="6.169398"><ele></ele><time>2017-5-18T6:53:5Z</time></trkpt>
<trkpt lat="46.118861" lon="6.169380"><ele></ele><time>2017-5-18T6:53:8Z</time></trkpt>
<trkpt lat="46.118852" lon="6.169367"><ele></ele><time>2017-5-18T6:53:11Z</time></trkpt>
<trkpt lat="46.118843" lon="6.169355"><ele></ele><time>2017-5-18T6:53:14Z</time></trkpt>
<trkpt lat="46.118771" lon="6.169256"><ele></ele><time>2017-5-18T6:53:17Z</time></trkpt>
<trkpt lat="46.118714" lon="6.169150"><ele></ele><time>2017-5-18T6:53:20Z</time></trkpt>
<trkpt lat="46.118660" lon="6.169071"><ele></ele><time>2017-5-18T6:53:23Z</time></trkpt>
<trkpt lat="46.118602" lon="6.169016"><ele></ele><time>2017-5-18T6:53:26Z</time></trkpt>
<trkpt lat="46.118589" lon="6.169011"><ele></ele><time>2017-5-18T6:53:29Z</time></trkpt>
<trkpt lat="46.118554" lon="6.168995"><ele></ele><time>2017-5-18T6:53:32Z</time></trkpt>
<trkpt lat="46.118543" lon="6.168996"><ele></ele><time>2017-5-18T6:53:35Z</time></trkpt>
<trkpt lat="46.118530" lon="6.168997"><ele></ele><time>2017-5-18T6:53:38Z</time></trkpt>
<trkpt lat="46.118516" lon="6.169002"><ele></ele><time>2017-5-18T6:53:41Z</time></trkpt>
<trkpt lat="46.118505" lon="6.169010"><ele></ele><time>2017-5-18T6:53:44Z</time></trkpt>
<trkpt lat="46.118495" lon="6.169017"><ele></ele><time>2017-5-18T6:53:47Z</time></trkpt>
<trkpt lat="46.118451" lon="6.169027"><ele></ele><time>2017-5-18T6:53:50Z</time></trkpt>
<trkpt lat="46.118360" lon="6.169057"><ele></ele><time>2017-5-18T6:53:53Z</time></trkpt>
<trkpt lat="46.118299" lon="6.169083"><ele></ele><time>2017-5-18T6:53:56Z</time></trkpt>
<trkpt lat="46.118187" lon="6.169139"><ele></ele><time>2017-5-18T6:53:59Z</time></trkpt>
<trkpt lat="46.118118" lon="6.169201"><ele></ele><time>2017-5-18T6:54:2Z</time></trkpt>
<trkpt lat="46.118068" lon="6.169257"><ele></ele><time>2017-5-18T6:54:5Z</time></trkpt>
<trkpt lat="46.118046" lon="6.169284"><ele></ele><time>2017-5-18T6:54:8Z</time></trkpt>
<trkpt lat="46.118027" lon="6.169293"><ele></ele><time>2017-5-18T6:54:11Z</time></trkpt>
<trkpt lat="46.118008" lon="6.169299"><ele></ele><time>2017-5-18T6:54:14Z</time></trkpt>
<trkpt lat="46.117987" lon="6.169302"><ele></ele><time>2017-5-18T6:54:17Z</time></trkpt>
<trkpt lat="46.117969" lon="6.169303"><ele></ele><time>2017-5-18T6:54:20Z</time></trkpt>
<trkpt lat="46.117940" lon="6.169311"><ele></ele><time>2017-5-18T6:54:23Z</time></trkpt>
<trkpt lat="46.117925" lon="6.169319"><ele></ele><time>2017-5-18T6:54:26Z</time></trkpt>
<trkpt lat="46.117910" lon="6.169326"><ele></ele><time>2017-5-18T6:54:29Z</time></trkpt>
<trkpt lat="46.117816" lon="6.169358"><ele></ele><time>2017-5-18T6:54:32Z</time></trkpt>
<trkpt lat="46.117805" lon="6.169367"><ele></ele><time>2017-5-18T6:54:35Z</time></trkpt>
<trkpt lat="46.117802" lon="6.169381"><ele></ele><time>2017-5-18T6:54:38Z</time></trkpt>
<trkpt lat="46.117792" lon="6.169376"><ele></ele><time>2017-5-18T6:54:41Z</time></trkpt>
<trkpt lat="46.117737" lon="6.169349"><ele></ele><time>2017-5-18T6:54:44Z</time></trkpt>
<trkpt lat="46.117719" lon="6.169349"><ele></ele><time>2017-5-18T6:54:47Z</time></trkpt>
<trkpt lat="46.117699" lon="6.169353"><ele></ele><time>2017-5-18T6:54:50Z</time></trkpt>
<trkpt lat="46.117681" lon="6.169357"><ele></ele><time>2017-5-18T6:54:53Z</time></trkpt>
<trkpt lat="46.117663" lon="6.169359"><ele></ele><time>2017-5-18T6:54:56Z</time></trkpt>
<trkpt lat="46.117647" lon="6.169359"><ele></ele><time>2017-5-18T6:54:59Z</time></trkpt>
<trkpt lat="46.117632" lon="6.169357"><ele></ele><time>2017-5-18T6:55:2Z</time></trkpt>
<trkpt lat="46.117517" lon="6.169336"><ele></ele><time>2017-5-18T6:55:5Z</time></trkpt>
<trkpt lat="46.117426" lon="6.169330"><ele></ele><time>2017-5-18T6:55:8Z</time></trkpt>
<trkpt lat="46.117352" lon="6.169318"><ele></ele><time>2017-5-18T6:55:11Z</time></trkpt>
<trkpt lat="46.117281" lon="6.169303"><ele></ele><time>2017-5-18T6:55:14Z</time></trkpt>
<trkpt lat="46.117229" lon="6.169268"><ele></ele><time>2017-5-18T6:55:17Z</time></trkpt>
<trkpt lat="46.117214" lon="6.169266"><ele></ele><time>2017-5-18T6:55:20Z</time></trkpt>
<trkpt lat="46.117201" lon="6.169263"><ele></ele><time>2017-5-18T6:55:23Z</time></trkpt>
<trkpt lat="46.117189" lon="6.169260"><ele></ele><time>2017-5-18T6:55:26Z</time></trkpt>
<trkpt lat="46.117123" lon="6.169249"><ele></ele><time>2017-5-18T6:55:29Z</time></trkpt>
<trkpt lat="46.117045" lon="6.169248"><ele></ele><time>2017-5-18T6:55:32Z</time></trkpt>
<trkpt lat="46.116982" lon="6.169267"><ele></ele><time>2017-5-18T6:55:35Z</time></trkpt>
<trkpt lat="46.116923" lon="6.169269"><ele></ele><time>2017-5-18T6:55:38Z</time></trkpt>
<trkpt lat="46.116907" lon="6.169287"><ele></ele><time>2017-5-18T6:55:41Z</time></trkpt>
<trkpt lat="46.116896" lon="6.169296"><ele></ele><time>2017-5-18T6:55:44Z</time></trkpt>
<trkpt lat="46.116883" lon="6.169298"><ele></ele><time>2017-5-18T6:55:47Z</time></trkpt>
<trkpt lat="46.116788" lon="6.169289"><ele></ele><time>2017-5-18T6:55:50Z</time></trkpt>
<trkpt lat="46.116680" lon="6.169318"><ele></ele><time>2017-5-18T6:55:53Z</time></trkpt>
<trkpt lat="46.116547" lon="6.169319"><ele></ele><time>2017-5-18T6:55:56Z</time></trkpt>
<trkpt lat="46.116442" lon="6.169310"><ele></ele><time>2017-5-18T6:55:59Z</time></trkpt>
<trkpt lat="46.116421" lon="6.169319"><ele></ele><time>2017-5-18T6:56:2Z</time></trkpt>
<trkpt lat="46.116410" lon="6.169316"><ele></ele><time>2017-5-18T6:56:5Z</time></trkpt>
<trkpt lat="46.116400" lon="6.169308"><ele></ele><time>2017-5-18T6:56:8Z</time></trkpt>
<trkpt lat="46.116391" lon="6.169292"><ele></ele><time>2017-5-18T6:56:11Z</time></trkpt>
<trkpt lat="46.116371" lon="6.169282"><ele></ele><time>2017-5-18T6:56:14Z</time></trkpt>
<trkpt lat="46.116365" lon="6.169288"><ele></ele><time>2017-5-18T6:56:17Z</time></trkpt>
<trkpt lat="46.116356" lon="6.169291"><ele></ele><time>2017-5-18T6:56:20Z</time></trkpt>
<trkpt lat="46.116367" lon="6.169276"><ele></ele><time>2017-5-18T6:56:23Z</time></trkpt>
<trkpt lat="46.116362" lon="6.169287"><ele></ele><time>2017-5-18T6:56:26Z</time></trkpt>
<trkpt lat="46.116364" lon="6.169276"><ele></ele><time>2017-5-18T6:56:29Z</time></trkpt>
<trkpt lat="46.116353" lon="6.169266"><ele></ele><time>2017-5-18T6:56:32Z</time></trkpt>
<trkpt lat="46.116339" lon="6.169238"><ele></ele><time>2017-5-18T6:56:35Z</time></trkpt>
<trkpt lat="46.116325" lon="6.169232"><ele></ele><time>2017-5-18T6:56:38Z</time></trkpt>
<trkpt lat="46.116313" lon="6.169224"><ele></ele><time>2017-5-18T6:56:41Z</time></trkpt>
<trkpt lat="46.116221" lon="6.169149"><ele></ele><time>2017-5-18T6:56:44Z</time></trkpt>
<trkpt lat="46.116136" lon="6.169059"><ele></ele><time>2017-5-18T6:56:47Z</time></trkpt>
<trkpt lat="46.116127" lon="6.169043"><ele></ele><time>2017-5-18T6:56:50Z</time></trkpt>
<trkpt lat="46.116078" lon="6.168998"><ele></ele><time>2017-5-18T6:56:53Z</time></trkpt>
<trkpt lat="46.116059" lon="6.168988"><ele></ele><time>2017-5-18T6:56:56Z</time></trkpt>
<trkpt lat="46.116047" lon="6.168978"><ele></ele><time>2017-5-18T6:56:59Z</time></trkpt>
<trkpt lat="46.115927" lon="6.168881"><ele></ele><time>2017-5-18T6:57:2Z</time></trkpt>
<trkpt lat="46.115779" lon="6.168746"><ele></ele><time>2017-5-18T6:57:5Z</time></trkpt>
<trkpt lat="46.115657" lon="6.168580"><ele></ele><time>2017-5-18T6:57:8Z</time></trkpt>
<trkpt lat="46.115566" lon="6.168425"><ele></ele><time>2017-5-18T6:57:11Z</time></trkpt>
<trkpt lat="46.115468" lon="6.168223"><ele></ele><time>2017-5-18T6:57:14Z</time></trkpt>
<trkpt lat="46.115354" lon="6.167909"><ele></ele><time>2017-5-18T6:57:17Z</time></trkpt>
<trkpt lat="46.115240" lon="6.167676"><ele></ele><time>2017-5-18T6:57:20Z</time></trkpt>
<trkpt lat="46.115091" lon="6.167552"><ele></ele><time>2017-5-18T6:57:23Z</time></trkpt>
<trkpt lat="46.114961" lon="6.167433"><ele></ele><time>2017-5-18T6:57:26Z</time></trkpt>
<trkpt lat="46.114829" lon="6.167320"><ele></ele><time>2017-5-18T6:57:29Z</time></trkpt>
<trkpt lat="46.114795" lon="6.167302"><ele></ele><time>2017-5-18T6:57:32Z</time></trkpt>
<trkpt lat="46.114760" lon="6.167287"><ele></ele><time>2017-5-18T6:57:35Z</time></trkpt>
<trkpt lat="46.114736" lon="6.167269"><ele></ele><time>2017-5-18T6:57:38Z</time></trkpt>
<trkpt lat="46.114715" lon="6.167248"><ele></ele><time>2017-5-18T6:57:41Z</time></trkpt>
<trkpt lat="46.114695" lon="6.167226"><ele></ele><time>2017-5-18T6:57:44Z</time></trkpt>
<trkpt lat="46.114555" lon="6.167032"><ele></ele><time>2017-5-18T6:57:47Z</time></trkpt>
<trkpt lat="46.114399" lon="6.166859"><ele></ele><time>2017-5-18T6:57:50Z</time></trkpt>
<trkpt lat="46.114302" lon="6.166710"><ele></ele><time>2017-5-18T6:57:53Z</time></trkpt>
<trkpt lat="46.114213" lon="6.166634"><ele></ele><time>2017-5-18T6:57:56Z</time></trkpt>
<trkpt lat="46.114196" lon="6.166620"><ele></ele><time>2017-5-18T6:57:59Z</time></trkpt>
<trkpt lat="46.114183" lon="6.166605"><ele></ele><time>2017-5-18T6:58:2Z</time></trkpt>
<trkpt lat="46.114172" lon="6.166587"><ele></ele><time>2017-5-18T6:58:5Z</time></trkpt>
<trkpt lat="46.114162" lon="6.166569"><ele></ele><time>2017-5-18T6:58:8Z</time></trkpt>
<trkpt lat="46.114153" lon="6.166550"><ele></ele><time>2017-5-18T6:58:11Z</time></trkpt>
<trkpt lat="46.114144" lon="6.166532"><ele></ele><time>2017-5-18T6:58:14Z</time></trkpt>
<trkpt lat="46.114133" lon="6.166515"><ele></ele><time>2017-5-18T6:58:17Z</time></trkpt>
<trkpt lat="46.114039" lon="6.166363"><ele></ele><time>2017-5-18T6:58:20Z</time></trkpt>
<trkpt lat="46.113986" lon="6.166310"><ele></ele><time>2017-5-18T6:58:23Z</time></trkpt>
<trkpt lat="46.113955" lon="6.166293"><ele></ele><time>2017-5-18T6:58:26Z</time></trkpt>
<trkpt lat="46.113920" lon="6.166281"><ele></ele><time>2017-5-18T6:58:29Z</time></trkpt>
<trkpt lat="46.113873" lon="6.166280"><ele></ele><time>2017-5-18T6:58:32Z</time></trkpt>
<trkpt lat="46.113852" lon="6.166274"><ele></ele><time>2017-5-18T6:58:35Z</time></trkpt>
<trkpt lat="46.113840" lon="6.166269"><ele></ele><time>2017-5-18T6:58:38Z</time></trkpt>
<trkpt lat="46.113828" lon="6.166266"><ele></ele><time>2017-5-18T6:58:41Z</time></trkpt>
<trkpt lat="46.113813" lon="6.166268"><ele></ele><time>2017-5-18T6:58:44Z</time></trkpt>
<trkpt lat="46.113797" lon="6.166271"><ele></ele><time>2017-5-18T6:58:47Z</time></trkpt>
<trkpt lat="46.113782" lon="6.166271"><ele></ele><time>2017-5-18T6:58:50Z</time></trkpt>
<trkpt lat="46.113766" lon="6.166269"><ele></ele><time>2017-5-18T6:58:53Z</time></trkpt>
<trkpt lat="46.113753" lon="6.166267"><ele></ele><time>2017-5-18T6:58:56Z</time></trkpt>
<trkpt lat="46.113741" lon="6.166272"><ele></ele><time>2017-5-18T6:58:59Z</time></trkpt>
<trkpt lat="46.113721" lon="6.166284"><ele></ele><time>2017-5-18T6:59:2Z</time></trkpt>
<trkpt lat="46.113665" lon="6.166254"><ele></ele><time>2017-5-18T6:59:5Z</time></trkpt>
<trkpt lat="46.113633" lon="6.166221"><ele></ele><time>2017-5-18T6:59:8Z</time></trkpt>
<trkpt lat="46.113600" lon="6.166170"><ele></ele><time>2017-5-18T6:59:11Z</time></trkpt>
<trkpt lat="46.113582" lon="6.166104"><ele></ele><time>2017-5-18T6:59:14Z</time></trkpt>
<trkpt lat="46.113551" lon="6.166045"><ele></ele><time>2017-5-18T6:59:17Z</time></trkpt>
<trkpt lat="46.113519" lon="6.165975"><ele></ele><time>2017-5-18T6:59:20Z</time></trkpt>
<trkpt lat="46.113476" lon="6.165925"><ele></ele><time>2017-5-18T6:59:23Z</time></trkpt>
<trkpt lat="46.113468" lon="6.165920"><ele></ele><time>2017-5-18T6:59:26Z</time></trkpt>
<trkpt lat="46.113479" lon="6.165906"><ele></ele><time>2017-5-18T6:59:29Z</time></trkpt>
<trkpt lat="46.113482" lon="6.165911"><ele></ele><time>2017-5-18T6:59:32Z</time></trkpt>
<trkpt lat="46.113486" lon="6.165890"><ele></ele><time>2017-5-18T6:59:35Z</time></trkpt>
<trkpt lat="46.113491" lon="6.165807"><ele></ele><time>2017-5-18T6:59:38Z</time></trkpt>
<trkpt lat="46.113490" lon="6.165784"><ele></ele><time>2017-5-18T6:59:41Z</time></trkpt>
<trkpt lat="46.113489" lon="6.165763"><ele></ele><time>2017-5-18T6:59:44Z</time></trkpt>
<trkpt lat="46.113488" lon="6.165741"><ele></ele><time>2017-5-18T6:59:47Z</time></trkpt>
<trkpt lat="46.113489" lon="6.165714"><ele></ele><time>2017-5-18T6:59:50Z</time></trkpt>
<trkpt lat="46.113488" lon="6.165687"><ele></ele><time>2017-5-18T6:59:53Z</time></trkpt>
<trkpt lat="46.113483" lon="6.165662"><ele></ele><time>2017-5-18T6:59:56Z</time></trkpt>
<trkpt lat="46.113481" lon="6.165639"><ele></ele><time>2017-5-18T6:59:59Z</time></trkpt>
<trkpt lat="46.113482" lon="6.165616"><ele></ele><time>2017-5-18T7:0:2Z</time></trkpt>
<trkpt lat="46.113484" lon="6.165596"><ele></ele><time>2017-5-18T7:0:5Z</time></trkpt>
<trkpt lat="46.113486" lon="6.165577"><ele></ele><time>2017-5-18T7:0:8Z</time></trkpt>
<trkpt lat="46.113487" lon="6.165559"><ele></ele><time>2017-5-18T7:0:11Z</time></trkpt>
<trkpt lat="46.113488" lon="6.165541"><ele></ele><time>2017-5-18T7:0:14Z</time></trkpt>
<trkpt lat="46.113483" lon="6.165520"><ele></ele><time>2017-5-18T7:0:17Z</time></trkpt>
<trkpt lat="46.113474" lon="6.165499"><ele></ele><time>2017-5-18T7:0:20Z</time></trkpt>
<trkpt lat="46.113464" lon="6.165484"><ele></ele><time>2017-5-18T7:0:23Z</time></trkpt>
<trkpt lat="46.113453" lon="6.165469"><ele></ele><time>2017-5-18T7:0:26Z</time></trkpt>
<trkpt lat="46.113441" lon="6.165454"><ele></ele><time>2017-5-18T7:0:29Z</time></trkpt>
<trkpt lat="46.113430" lon="6.165442"><ele></ele><time>2017-5-18T7:0:32Z</time></trkpt>
<trkpt lat="46.113420" lon="6.165426"><ele></ele><time>2017-5-18T7:0:35Z</time></trkpt>
<trkpt lat="46.113410" lon="6.165411"><ele></ele><time>2017-5-18T7:0:38Z</time></trkpt>
<trkpt lat="46.113401" lon="6.165396"><ele></ele><time>2017-5-18T7:0:41Z</time></trkpt>
<trkpt lat="46.113391" lon="6.165378"><ele></ele><time>2017-5-18T7:0:44Z</time></trkpt>
<trkpt lat="46.113348" lon="6.165249"><ele></ele><time>2017-5-18T7:0:47Z</time></trkpt>
<trkpt lat="46.113322" lon="6.165120"><ele></ele><time>2017-5-18T7:0:50Z</time></trkpt>
<trkpt lat="46.113279" lon="6.164946"><ele></ele><time>2017-5-18T7:0:53Z</time></trkpt>
<trkpt lat="46.113220" lon="6.164657"><ele></ele><time>2017-5-18T7:0:56Z</time></trkpt>
<trkpt lat="46.113153" lon="6.164390"><ele></ele><time>2017-5-18T7:0:59Z</time></trkpt>
<trkpt lat="46.113106" lon="6.164206"><ele></ele><time>2017-5-18T7:1:2Z</time></trkpt>
<trkpt lat="46.113076" lon="6.164011"><ele></ele><time>2017-5-18T7:1:5Z</time></trkpt>
<trkpt lat="46.113026" lon="6.163863"><ele></ele><time>2017-5-18T7:1:8Z</time></trkpt>
<trkpt lat="46.113013" lon="6.163823"><ele></ele><time>2017-5-18T7:1:11Z</time></trkpt>
<trkpt lat="46.113006" lon="6.163804"><ele></ele><time>2017-5-18T7:1:14Z</time></trkpt>
<trkpt lat="46.113002" lon="6.163784"><ele></ele><time>2017-5-18T7:1:17Z</time></trkpt>
<trkpt lat="46.112998" lon="6.163766"><ele></ele><time>2017-5-18T7:1:20Z</time></trkpt>
<trkpt lat="46.112990" lon="6.163745"><ele></ele><time>2017-5-18T7:1:23Z</time></trkpt>
<trkpt lat="46.112981" lon="6.163726"><ele></ele><time>2017-5-18T7:1:26Z</time></trkpt>
<trkpt lat="46.112972" lon="6.163709"><ele></ele><time>2017-5-18T7:1:29Z</time></trkpt>
<trkpt lat="46.112897" lon="6.163645"><ele></ele><time>2017-5-18T7:1:32Z</time></trkpt>
<trkpt lat="46.112892" lon="6.163630"><ele></ele><time>2017-5-18T7:1:35Z</time></trkpt>
<trkpt lat="46.112880" lon="6.163568"><ele></ele><time>2017-5-18T7:1:38Z</time></trkpt>
<trkpt lat="46.112872" lon="6.163555"><ele></ele><time>2017-5-18T7:1:41Z</time></trkpt>
<trkpt lat="46.112866" lon="6.163542"><ele></ele><time>2017-5-18T7:1:44Z</time></trkpt>
<trkpt lat="46.112857" lon="6.163528"><ele></ele><time>2017-5-18T7:1:47Z</time></trkpt>
<trkpt lat="46.112832" lon="6.163499"><ele></ele><time>2017-5-18T7:1:50Z</time></trkpt>
<trkpt lat="46.112757" lon="6.163466"><ele></ele><time>2017-5-18T7:1:53Z</time></trkpt>
<trkpt lat="46.112749" lon="6.163455"><ele></ele><time>2017-5-18T7:1:56Z</time></trkpt>
<trkpt lat="46.112739" lon="6.163445"><ele></ele><time>2017-5-18T7:1:59Z</time></trkpt>
<trkpt lat="46.112724" lon="6.163364"><ele></ele><time>2017-5-18T7:2:2Z</time></trkpt>
<trkpt lat="46.112707" lon="6.163359"><ele></ele><time>2017-5-18T7:2:5Z</time></trkpt>
<trkpt lat="46.112671" lon="6.163293"><ele></ele><time>2017-5-18T7:2:8Z</time></trkpt>
<trkpt lat="46.112665" lon="6.163283"><ele></ele><time>2017-5-18T7:2:11Z</time></trkpt>
<trkpt lat="46.112587" lon="6.163167"><ele></ele><time>2017-5-18T7:2:14Z</time></trkpt>
<trkpt lat="46.112519" lon="6.163080"><ele></ele><time>2017-5-18T7:2:17Z</time></trkpt>
<trkpt lat="46.112472" lon="6.163000"><ele></ele><time>2017-5-18T7:2:20Z</time></trkpt>
<trkpt lat="46.112462" lon="6.162989"><ele></ele><time>2017-5-18T7:2:23Z</time></trkpt>
<trkpt lat="46.112453" lon="6.162978"><ele></ele><time>2017-5-18T7:2:26Z</time></trkpt>
<trkpt lat="46.112444" lon="6.162965"><ele></ele><time>2017-5-18T7:2:29Z</time></trkpt>
<trkpt lat="46.112433" lon="6.162953"><ele></ele><time>2017-5-18T7:2:32Z</time></trkpt>
<trkpt lat="46.112391" lon="6.162915"><ele></ele><time>2017-5-18T7:2:35Z</time></trkpt>
<trkpt lat="46.112382" lon="6.162905"><ele></ele><time>2017-5-18T7:2:38Z</time></trkpt>
<trkpt lat="46.112374" lon="6.162893"><ele></ele><time>2017-5-18T7:2:41Z</time></trkpt>
<trkpt lat="46.112300" lon="6.162777"><ele></ele><time>2017-5-18T7:2:44Z</time></trkpt>
<trkpt lat="46.112239" lon="6.162719"><ele></ele><time>2017-5-18T7:2:47Z</time></trkpt>
<trkpt lat="46.112130" lon="6.162600"><ele></ele><time>2017-5-18T7:2:50Z</time></trkpt>
<trkpt lat="46.112007" lon="6.162472"><ele></ele><time>2017-5-18T7:2:53Z</time></trkpt>
<trkpt lat="46.111923" lon="6.162350"><ele></ele><time>2017-5-18T7:2:56Z</time></trkpt>
<trkpt lat="46.111858" lon="6.162222"><ele></ele><time>2017-5-18T7:2:59Z</time></trkpt>
<trkpt lat="46.111784" lon="6.162069"><ele></ele><time>2017-5-18T7:3:2Z</time></trkpt>
<trkpt lat="46.111734" lon="6.161913"><ele></ele><time>2017-5-18T7:3:5Z</time></trkpt>
<trkpt lat="46.111686" lon="6.161759"><ele></ele><time>2017-5-18T7:3:8Z</time></trkpt>
<trkpt lat="46.111639" lon="6.161685"><ele></ele><time>2017-5-18T7:3:11Z</time></trkpt>
<trkpt lat="46.111628" lon="6.161674"><ele></ele><time>2017-5-18T7:3:14Z</time></trkpt>
<trkpt lat="46.111620" lon="6.161658"><ele></ele><time>2017-5-18T7:3:17Z</time></trkpt>
<trkpt lat="46.111604" lon="6.161613"><ele></ele><time>2017-5-18T7:3:20Z</time></trkpt>
<trkpt lat="46.111592" lon="6.161600"><ele></ele><time>2017-5-18T7:3:23Z</time></trkpt>
<trkpt lat="46.111560" lon="6.161561"><ele></ele><time>2017-5-18T7:3:26Z</time></trkpt>
<trkpt lat="46.111493" lon="6.161392"><ele></ele><time>2017-5-18T7:3:29Z</time></trkpt>
<trkpt lat="46.111463" lon="6.161334"><ele></ele><time>2017-5-18T7:3:32Z</time></trkpt>
<trkpt lat="46.111459" lon="6.161325"><ele></ele><time>2017-5-18T7:3:35Z</time></trkpt>
<trkpt lat="46.111463" lon="6.161306"><ele></ele><time>2017-5-18T7:3:38Z</time></trkpt>
<trkpt lat="46.111465" lon="6.161287"><ele></ele><time>2017-5-18T7:3:41Z</time></trkpt>
<trkpt lat="46.111463" lon="6.161266"><ele></ele><time>2017-5-18T7:3:44Z</time></trkpt>
<trkpt lat="46.111456" lon="6.161249"><ele></ele><time>2017-5-18T7:3:47Z</time></trkpt>
<trkpt lat="46.111444" lon="6.161236"><ele></ele><time>2017-5-18T7:3:50Z</time></trkpt>
<trkpt lat="46.111433" lon="6.161224"><ele></ele><time>2017-5-18T7:3:53Z</time></trkpt>
<trkpt lat="46.111426" lon="6.161212"><ele></ele><time>2017-5-18T7:3:56Z</time></trkpt>
<trkpt lat="46.111421" lon="6.161197"><ele></ele><time>2017-5-18T7:3:59Z</time></trkpt>
<trkpt lat="46.111417" lon="6.161180"><ele></ele><time>2017-5-18T7:4:2Z</time></trkpt>
<trkpt lat="46.111371" lon="6.161057"><ele></ele><time>2017-5-18T7:4:5Z</time></trkpt>
<trkpt lat="46.111375" lon="6.161017"><ele></ele><time>2017-5-18T7:4:8Z</time></trkpt>
<trkpt lat="46.111374" lon="6.161015"><ele></ele><time>2017-5-18T7:4:11Z</time></trkpt>
<trkpt lat="46.111359" lon="6.161014"><ele></ele><time>2017-5-18T7:4:14Z</time></trkpt>
<trkpt lat="46.111372" lon="6.161010"><ele></ele><time>2017-5-18T7:4:17Z</time></trkpt>
<trkpt lat="46.111382" lon="6.161000"><ele></ele><time>2017-5-18T7:4:20Z</time></trkpt>
<trkpt lat="46.111357" lon="6.160991"><ele></ele><time>2017-5-18T7:4:23Z</time></trkpt>
<trkpt lat="46.111290" lon="6.160899"><ele></ele><time>2017-5-18T7:4:26Z</time></trkpt>
<trkpt lat="46.111139" lon="6.160700"><ele></ele><time>2017-5-18T7:4:29Z</time></trkpt>
<trkpt lat="46.110949" lon="6.160490"><ele></ele><time>2017-5-18T7:4:32Z</time></trkpt>
<trkpt lat="46.110763" lon="6.160328"><ele></ele><time>2017-5-18T7:4:35Z</time></trkpt>
<trkpt lat="46.110692" lon="6.160291"><ele></ele><time>2017-5-18T7:4:38Z</time></trkpt>
<trkpt lat="46.110678" lon="6.160289"><ele></ele><time>2017-5-18T7:4:41Z</time></trkpt>
<trkpt lat="46.110564" lon="6.160243"><ele></ele><time>2017-5-18T7:4:44Z</time></trkpt>
<trkpt lat="46.110417" lon="6.160159"><ele></ele><time>2017-5-18T7:4:47Z</time></trkpt>
<trkpt lat="46.110277" lon="6.160109"><ele></ele><time>2017-5-18T7:4:50Z</time></trkpt>
<trkpt lat="46.110163" lon="6.160054"><ele></ele><time>2017-5-18T7:4:53Z</time></trkpt>
<trkpt lat="46.109994" lon="6.159989"><ele></ele><time>2017-5-18T7:4:56Z</time></trkpt>
<trkpt lat="46.109850" lon="6.159905"><ele></ele><time>2017-5-18T7:4:59Z</time></trkpt>
<trkpt lat="46.109703" lon="6.159825"><ele></ele><time>2017-5-18T7:5:2Z</time></trkpt>
<trkpt lat="46.109550" lon="6.159735"><ele></ele><time>2017-5-18T7:5:5Z</time></trkpt>
<trkpt lat="46.109390" lon="6.159611"><ele></ele><time>2017-5-18T7:5:8Z</time></trkpt>
<trkpt lat="46.109253" lon="6.159500"><ele></ele><time>2017-5-18T7:5:11Z</time></trkpt>
<trkpt lat="46.109236" lon="6.159491"><ele></ele><time>2017-5-18T7:5:14Z</time></trkpt>
<trkpt lat="46.109218" lon="6.159473"><ele></ele><time>2017-5-18T7:5:17Z</time></trkpt>
<trkpt lat="46.109198" lon="6.159455"><ele></ele><time>2017-5-18T7:5:20Z</time></trkpt>
<trkpt lat="46.109178" lon="6.159441"><ele></ele><time>2017-5-18T7:5:23Z</time></trkpt>
<trkpt lat="46.109159" lon="6.159425"><ele></ele><time>2017-5-18T7:5:26Z</time></trkpt>
<trkpt lat="46.109143" lon="6.159407"><ele></ele><time>2017-5-18T7:5:29Z</time></trkpt>
<trkpt lat="46.108986" lon="6.159253"><ele></ele><time>2017-5-18T7:5:32Z</time></trkpt>
<trkpt lat="46.108879" lon="6.159161"><ele></ele><time>2017-5-18T7:5:35Z</time></trkpt>
<trkpt lat="46.108867" lon="6.159144"><ele></ele><time>2017-5-18T7:5:38Z</time></trkpt>
<trkpt lat="46.108724" lon="6.158998"><ele></ele><time>2017-5-18T7:5:41Z</time></trkpt>
<trkpt lat="46.108603" lon="6.158869"><ele></ele><time>2017-5-18T7:5:44Z</time></trkpt>
<trkpt lat="46.108502" lon="6.158754"><ele></ele><time>2017-5-18T7:5:47Z</time></trkpt>
<trkpt lat="46.108427" lon="6.158690"><ele></ele><time>2017-5-18T7:5:50Z</time></trkpt>
<trkpt lat="46.108330" lon="6.158569"><ele></ele><time>2017-5-18T7:5:53Z</time></trkpt>
<trkpt lat="46.108246" lon="6.158460"><ele></ele><time>2017-5-18T7:5:56Z</time></trkpt>
<trkpt lat="46.108140" lon="6.158338"><ele></ele><time>2017-5-18T7:5:59Z</time></trkpt>
<trkpt lat="46.108058" lon="6.158218"><ele></ele><time>2017-5-18T7:6:2Z</time></trkpt>
<trkpt lat="46.107968" lon="6.158083"><ele></ele><time>2017-5-18T7:6:5Z</time></trkpt>
<trkpt lat="46.107914" lon="6.158035"><ele></ele><time>2017-5-18T7:6:8Z</time></trkpt>
<trkpt lat="46.107863" lon="6.157950"><ele></ele><time>2017-5-18T7:6:11Z</time></trkpt>
<trkpt lat="46.107852" lon="6.157941"><ele></ele><time>2017-5-18T7:6:14Z</time></trkpt>
<trkpt lat="46.107840" lon="6.157919"><ele></ele><time>2017-5-18T7:6:17Z</time></trkpt>
<trkpt lat="46.107835" lon="6.157905"><ele></ele><time>2017-5-18T7:6:20Z</time></trkpt>
<trkpt lat="46.107830" lon="6.157891"><ele></ele><time>2017-5-18T7:6:23Z</time></trkpt>
<trkpt lat="46.107824" lon="6.157879"><ele></ele><time>2017-5-18T7:6:26Z</time></trkpt>
<trkpt lat="46.107817" lon="6.157866"><ele></ele><time>2017-5-18T7:6:29Z</time></trkpt>
<trkpt lat="46.107809" lon="6.157853"><ele></ele><time>2017-5-18T7:6:32Z</time></trkpt>
<trkpt lat="46.107800" lon="6.157840"><ele></ele><time>2017-5-18T7:6:35Z</time></trkpt>
<trkpt lat="46.107790" lon="6.157829"><ele></ele><time>2017-5-18T7:6:38Z</time></trkpt>
<trkpt lat="46.107726" lon="6.157728"><ele></ele><time>2017-5-18T7:6:41Z</time></trkpt>
<trkpt lat="46.107624" lon="6.157606"><ele></ele><time>2017-5-18T7:6:44Z</time></trkpt>
<trkpt lat="46.107620" lon="6.157589"><ele></ele><time>2017-5-18T7:6:47Z</time></trkpt>
<trkpt lat="46.107613" lon="6.157561"><ele></ele><time>2017-5-18T7:6:50Z</time></trkpt>
<trkpt lat="46.107614" lon="6.157544"><ele></ele><time>2017-5-18T7:6:53Z</time></trkpt>
<trkpt lat="46.107616" lon="6.157528"><ele></ele><time>2017-5-18T7:6:56Z</time></trkpt>
<trkpt lat="46.107616" lon="6.157520"><ele></ele><time>2017-5-18T7:6:59Z</time></trkpt>
<trkpt lat="46.107636" lon="6.157519"><ele></ele><time>2017-5-18T7:7:2Z</time></trkpt>
<trkpt lat="46.107649" lon="6.157488"><ele></ele><time>2017-5-18T7:7:5Z</time></trkpt>
<trkpt lat="46.107629" lon="6.157456"><ele></ele><time>2017-5-18T7:7:8Z</time></trkpt>
<trkpt lat="46.107593" lon="6.157445"><ele></ele><time>2017-5-18T7:7:11Z</time></trkpt>
<trkpt lat="46.107556" lon="6.157431"><ele></ele><time>2017-5-18T7:7:14Z</time></trkpt>
<trkpt lat="46.107534" lon="6.157383"><ele></ele><time>2017-5-18T7:7:17Z</time></trkpt>
<trkpt lat="46.107501" lon="6.157363"><ele></ele><time>2017-5-18T7:7:20Z</time></trkpt>
<trkpt lat="46.107444" lon="6.157331"><ele></ele><time>2017-5-18T7:7:23Z</time></trkpt>
<trkpt lat="46.107412" lon="6.157299"><ele></ele><time>2017-5-18T7:7:26Z</time></trkpt>
<trkpt lat="46.107393" lon="6.157260"><ele></ele><time>2017-5-18T7:7:29Z</time></trkpt>
<trkpt lat="46.107359" lon="6.157251"><ele></ele><time>2017-5-18T7:7:32Z</time></trkpt>
<trkpt lat="46.107323" lon="6.157234"><ele></ele><time>2017-5-18T7:7:35Z</time></trkpt>
<trkpt lat="46.107313" lon="6.157234"><ele></ele><time>2017-5-18T7:7:38Z</time></trkpt>
<trkpt lat="46.107296" lon="6.157198"><ele></ele><time>2017-5-18T7:7:41Z</time></trkpt>
<trkpt lat="46.107249" lon="6.157174"><ele></ele><time>2017-5-18T7:7:44Z</time></trkpt>
<trkpt lat="46.107225" lon="6.157152"><ele></ele><time>2017-5-18T7:7:47Z</time></trkpt>
<trkpt lat="46.107190" lon="6.157120"><ele></ele><time>2017-5-18T7:7:50Z</time></trkpt>
<trkpt lat="46.107182" lon="6.157115"><ele></ele><time>2017-5-18T7:7:53Z</time></trkpt>
<trkpt lat="46.107167" lon="6.157109"><ele></ele><time>2017-5-18T7:7:56Z</time></trkpt>
<trkpt lat="46.107156" lon="6.157102"><ele></ele><time>2017-5-18T7:7:59Z</time></trkpt>
<trkpt lat="46.107146" lon="6.157092"><ele></ele><time>2017-5-18T7:8:2Z</time></trkpt>
<trkpt lat="46.107026" lon="6.156955"><ele></ele><time>2017-5-18T7:8:5Z</time></trkpt>
<trkpt lat="46.106795" lon="6.156742"><ele></ele><time>2017-5-18T7:8:8Z</time></trkpt>
<trkpt lat="46.106587" lon="6.156614"><ele></ele><time>2017-5-18T7:8:11Z</time></trkpt>
<trkpt lat="46.106387" lon="6.156550"><ele></ele><time>2017-5-18T7:8:14Z</time></trkpt>
<trkpt lat="46.106242" lon="6.156494"><ele></ele><time>2017-5-18T7:8:17Z</time></trkpt>
<trkpt lat="46.106070" lon="6.156431"><ele></ele><time>2017-5-18T7:8:20Z</time></trkpt>
<trkpt lat="46.105830" lon="6.156296"><ele></ele><time>2017-5-18T7:8:23Z</time></trkpt>
<trkpt lat="46.105797" lon="6.156256"><ele></ele><time>2017-5-18T7:8:26Z</time></trkpt>
<trkpt lat="46.105768" lon="6.156210"><ele></ele><time>2017-5-18T7:8:29Z</time></trkpt>
<trkpt lat="46.105739" lon="6.156160"><ele></ele><time>2017-5-18T7:8:32Z</time></trkpt>
<trkpt lat="46.105527" lon="6.155834"><ele></ele><time>2017-5-18T7:8:35Z</time></trkpt>
<trkpt lat="46.105406" lon="6.155791"><ele></ele><time>2017-5-18T7:8:38Z</time></trkpt>
<trkpt lat="46.105221" lon="6.155869"><ele></ele><time>2017-5-18T7:8:41Z</time></trkpt>
<trkpt lat="46.105073" lon="6.155903"><ele></ele><time>2017-5-18T7:8:44Z</time></trkpt>
<trkpt lat="46.104958" lon="6.155961"><ele></ele><time>2017-5-18T7:8:47Z</time></trkpt>
<trkpt lat="46.104852" lon="6.156011"><ele></ele><time>2017-5-18T7:8:50Z</time></trkpt>
<trkpt lat="46.104711" lon="6.156130"><ele></ele><time>2017-5-18T7:8:53Z</time></trkpt>
<trkpt lat="46.104573" lon="6.156263"><ele></ele><time>2017-5-18T7:8:56Z</time></trkpt>
<trkpt lat="46.104431" lon="6.156341"><ele></ele><time>2017-5-18T7:8:59Z</time></trkpt>
<trkpt lat="46.104380" lon="6.156347"><ele></ele><time>2017-5-18T7:9:2Z</time></trkpt>
<trkpt lat="46.104256" lon="6.156345"><ele></ele><time>2017-5-18T7:9:5Z</time></trkpt>
<trkpt lat="46.103963" lon="6.156259"><ele></ele><time>2017-5-18T7:9:8Z</time></trkpt>
<trkpt lat="46.103892" lon="6.156215"><ele></ele><time>2017-5-18T7:9:11Z</time></trkpt>
<trkpt lat="46.103826" lon="6.156165"><ele></ele><time>2017-5-18T7:9:14Z</time></trkpt>
<trkpt lat="46.103779" lon="6.156117"><ele></ele><time>2017-5-18T7:9:17Z</time></trkpt>
<trkpt lat="46.103744" lon="6.156069"><ele></ele><time>2017-5-18T7:9:20Z</time></trkpt>
<trkpt lat="46.103722" lon="6.156025"><ele></ele><time>2017-5-18T7:9:23Z</time></trkpt>
<trkpt lat="46.103709" lon="6.155984"><ele></ele><time>2017-5-18T7:9:26Z</time></trkpt>
<trkpt lat="46.103701" lon="6.155946"><ele></ele><time>2017-5-18T7:9:29Z</time></trkpt>
<trkpt lat="46.103696" lon="6.155912"><ele></ele><time>2017-5-18T7:9:32Z</time></trkpt>
<trkpt lat="46.103585" lon="6.155748"><ele></ele><time>2017-5-18T7:9:35Z</time></trkpt>
<trkpt lat="46.103395" lon="6.155709"><ele></ele><time>2017-5-18T7:9:38Z</time></trkpt>
<trkpt lat="46.103146" lon="6.155670"><ele></ele><time>2017-5-18T7:9:41Z</time></trkpt>
<trkpt lat="46.102870" lon="6.155606"><ele></ele><time>2017-5-18T7:9:44Z</time></trkpt>
<trkpt lat="46.102791" lon="6.155605"><ele></ele><time>2017-5-18T7:9:47Z</time></trkpt>
<trkpt lat="46.102594" lon="6.155529"><ele></ele><time>2017-5-18T7:9:50Z</time></trkpt>
<trkpt lat="46.102360" lon="6.155476"><ele></ele><time>2017-5-18T7:9:53Z</time></trkpt>
<trkpt lat="46.102136" lon="6.155393"><ele></ele><time>2017-5-18T7:9:56Z</time></trkpt>
<trkpt lat="46.101892" lon="6.155260"><ele></ele><time>2017-5-18T7:9:59Z</time></trkpt>
<trkpt lat="46.101716" lon="6.155141"><ele></ele><time>2017-5-18T7:10:2Z</time></trkpt>
<trkpt lat="46.101577" lon="6.155063"><ele></ele><time>2017-5-18T7:10:5Z</time></trkpt>
<trkpt lat="46.101521" lon="6.155057"><ele></ele><time>2017-5-18T7:10:8Z</time></trkpt>
<trkpt lat="46.101414" lon="6.155023"><ele></ele><time>2017-5-18T7:10:11Z</time></trkpt>
<trkpt lat="46.101195" lon="6.154909"><ele></ele><time>2017-5-18T7:10:14Z</time></trkpt>
<trkpt lat="46.101047" lon="6.154728"><ele></ele><time>2017-5-18T7:10:17Z</time></trkpt>
<trkpt lat="46.100956" lon="6.154485"><ele></ele><time>2017-5-18T7:10:20Z</time></trkpt>
<trkpt lat="46.100980" lon="6.154346"><ele></ele><time>2017-5-18T7:10:23Z</time></trkpt>
<trkpt lat="46.100988" lon="6.154304"><ele></ele><time>2017-5-18T7:10:26Z</time></trkpt>
<trkpt lat="46.101015" lon="6.154257"><ele></ele><time>2017-5-18T7:10:29Z</time></trkpt>
<trkpt lat="46.101039" lon="6.154203"><ele></ele><time>2017-5-18T7:10:32Z</time></trkpt>
<trkpt lat="46.101051" lon="6.154158"><ele></ele><time>2017-5-18T7:10:35Z</time></trkpt>
<trkpt lat="46.101044" lon="6.154122"><ele></ele><time>2017-5-18T7:10:38Z</time></trkpt>
<trkpt lat="46.101060" lon="6.154037"><ele></ele><time>2017-5-18T7:10:41Z</time></trkpt>
<trkpt lat="46.101124" lon="6.153816"><ele></ele><time>2017-5-18T7:10:44Z</time></trkpt>
<trkpt lat="46.101178" lon="6.153540"><ele></ele><time>2017-5-18T7:10:47Z</time></trkpt>
<trkpt lat="46.101211" lon="6.153252"><ele></ele><time>2017-5-18T7:10:50Z</time></trkpt>
<trkpt lat="46.101257" lon="6.152999"><ele></ele><time>2017-5-18T7:10:53Z</time></trkpt>
<trkpt lat="46.101286" lon="6.152743"><ele></ele><time>2017-5-18T7:10:56Z</time></trkpt>
<trkpt lat="46.101333" lon="6.152461"><ele></ele><time>2017-5-18T7:10:59Z</time></trkpt>
<trkpt lat="46.101334" lon="6.152429"><ele></ele><time>2017-5-18T7:11:2Z</time></trkpt>
<trkpt lat="46.101274" lon="6.152194"><ele></ele><time>2017-5-18T7:11:5Z</time></trkpt>
<trkpt lat="46.101163" lon="6.151933"><ele></ele><time>2017-5-18T7:11:8Z</time></trkpt>
<trkpt lat="46.101045" lon="6.151717"><ele></ele><time>2017-5-18T7:11:11Z</time></trkpt>
<trkpt lat="46.100913" lon="6.151439"><ele></ele><time>2017-5-18T7:11:14Z</time></trkpt>
<trkpt lat="46.100803" lon="6.151144"><ele></ele><time>2017-5-18T7:11:17Z</time></trkpt>
<trkpt lat="46.100698" lon="6.150854"><ele></ele><time>2017-5-18T7:11:20Z</time></trkpt>
<trkpt lat="46.100651" lon="6.150713"><ele></ele><time>2017-5-18T7:11:23Z</time></trkpt>
<trkpt lat="46.100570" lon="6.150479"><ele></ele><time>2017-5-18T7:11:26Z</time></trkpt>
<trkpt lat="46.100466" lon="6.150174"><ele></ele><time>2017-5-18T7:11:29Z</time></trkpt>
<trkpt lat="46.100352" lon="6.149901"><ele></ele><time>2017-5-18T7:11:32Z</time></trkpt>
<trkpt lat="46.100192" lon="6.149650"><ele></ele><time>2017-5-18T7:11:35Z</time></trkpt>
<trkpt lat="46.100107" lon="6.149409"><ele></ele><time>2017-5-18T7:11:38Z</time></trkpt>
<trkpt lat="46.100050" lon="6.149232"><ele></ele><time>2017-5-18T7:11:41Z</time></trkpt>
<trkpt lat="46.099974" lon="6.149021"><ele></ele><time>2017-5-18T7:11:44Z</time></trkpt>
<trkpt lat="46.099930" lon="6.148819"><ele></ele><time>2017-5-18T7:11:47Z</time></trkpt>
<trkpt lat="46.099912" lon="6.148802"><ele></ele><time>2017-5-18T7:11:50Z</time></trkpt>
<trkpt lat="46.099890" lon="6.148785"><ele></ele><time>2017-5-18T7:11:53Z</time></trkpt>
<trkpt lat="46.099871" lon="6.148774"><ele></ele><time>2017-5-18T7:11:56Z</time></trkpt>
<trkpt lat="46.099850" lon="6.148762"><ele></ele><time>2017-5-18T7:11:59Z</time></trkpt>
<trkpt lat="46.099826" lon="6.148747"><ele></ele><time>2017-5-18T7:12:2Z</time></trkpt>
<trkpt lat="46.099567" lon="6.148566"><ele></ele><time>2017-5-18T7:12:5Z</time></trkpt>
<trkpt lat="46.099357" lon="6.148399"><ele></ele><time>2017-5-18T7:12:8Z</time></trkpt>
<trkpt lat="46.099122" lon="6.148219"><ele></ele><time>2017-5-18T7:12:11Z</time></trkpt>
<trkpt lat="46.098948" lon="6.148018"><ele></ele><time>2017-5-18T7:12:14Z</time></trkpt>
<trkpt lat="46.098812" lon="6.147751"><ele></ele><time>2017-5-18T7:12:17Z</time></trkpt>
<trkpt lat="46.098721" lon="6.147541"><ele></ele><time>2017-5-18T7:12:20Z</time></trkpt>
<trkpt lat="46.098594" lon="6.147257"><ele></ele><time>2017-5-18T7:12:23Z</time></trkpt>
<trkpt lat="46.098515" lon="6.147119"><ele></ele><time>2017-5-18T7:12:26Z</time></trkpt>
<trkpt lat="46.098393" lon="6.146943"><ele></ele><time>2017-5-18T7:12:29Z</time></trkpt>
<trkpt lat="46.098273" lon="6.146788"><ele></ele><time>2017-5-18T7:12:32Z</time></trkpt>
<trkpt lat="46.098101" lon="6.146559"><ele></ele><time>2017-5-18T7:12:35Z</time></trkpt>
<trkpt lat="46.097966" lon="6.146389"><ele></ele><time>2017-5-18T7:12:38Z</time></trkpt>
<trkpt lat="46.097842" lon="6.146268"><ele></ele><time>2017-5-18T7:12:41Z</time></trkpt>
<trkpt lat="46.097719" lon="6.146207"><ele></ele><time>2017-5-18T7:12:44Z</time></trkpt>
<trkpt lat="46.097515" lon="6.146145"><ele></ele><time>2017-5-18T7:12:47Z</time></trkpt>
<trkpt lat="46.097362" lon="6.146221"><ele></ele><time>2017-5-18T7:12:50Z</time></trkpt>
<trkpt lat="46.097197" lon="6.146360"><ele></ele><time>2017-5-18T7:12:53Z</time></trkpt>
<trkpt lat="46.097027" lon="6.146506"><ele></ele><time>2017-5-18T7:12:56Z</time></trkpt>
<trkpt lat="46.096861" lon="6.146641"><ele></ele><time>2017-5-18T7:12:59Z</time></trkpt>
<trkpt lat="46.096694" lon="6.146770"><ele></ele><time>2017-5-18T7:13:2Z</time></trkpt>
<trkpt lat="46.096547" lon="6.146842"><ele></ele><time>2017-5-18T7:13:5Z</time></trkpt>
<trkpt lat="46.096397" lon="6.146860"><ele></ele><time>2017-5-18T7:13:8Z</time></trkpt>
<trkpt lat="46.096122" lon="6.146887"><ele></ele><time>2017-5-18T7:13:11Z</time></trkpt>
<trkpt lat="46.095869" lon="6.146965"><ele></ele><time>2017-5-18T7:13:14Z</time></trkpt>
<trkpt lat="46.095660" lon="6.146925"><ele></ele><time>2017-5-18T7:13:17Z</time></trkpt>
<trkpt lat="46.095438" lon="6.146707"><ele></ele><time>2017-5-18T7:13:20Z</time></trkpt>
<trkpt lat="46.095341" lon="6.146437"><ele></ele><time>2017-5-18T7:13:23Z</time></trkpt>
<trkpt lat="46.095293" lon="6.146114"><ele></ele><time>2017-5-18T7:13:26Z</time></trkpt>
<trkpt lat="46.095233" lon="6.145872"><ele></ele><time>2017-5-18T7:13:29Z</time></trkpt>
<trkpt lat="46.095117" lon="6.145554"><ele></ele><time>2017-5-18T7:13:32Z</time></trkpt>
<trkpt lat="46.094975" lon="6.145188"><ele></ele><time>2017-5-18T7:13:35Z</time></trkpt>
<trkpt lat="46.094936" lon="6.145135"><ele></ele><time>2017-5-18T7:13:38Z</time></trkpt>
<trkpt lat="46.094926" lon="6.145134"><ele></ele><time>2017-5-18T7:13:41Z</time></trkpt>
<trkpt lat="46.094914" lon="6.145133"><ele></ele><time>2017-5-18T7:13:44Z</time></trkpt>
<trkpt lat="46.094891" lon="6.145136"><ele></ele><time>2017-5-18T7:13:47Z</time></trkpt>
<trkpt lat="46.094863" lon="6.145127"><ele></ele><time>2017-5-18T7:13:50Z</time></trkpt>
<trkpt lat="46.094789" lon="6.145116"><ele></ele><time>2017-5-18T7:13:53Z</time></trkpt>
<trkpt lat="46.094769" lon="6.145102"><ele></ele><time>2017-5-18T7:13:56Z</time></trkpt>
<trkpt lat="46.094771" lon="6.145090"><ele></ele><time>2017-5-18T7:13:59Z</time></trkpt>
<trkpt lat="46.094782" lon="6.145081"><ele></ele><time>2017-5-18T7:14:2Z</time></trkpt>
<trkpt lat="46.094764" lon="6.145094"><ele></ele><time>2017-5-18T7:14:5Z</time></trkpt>
<trkpt lat="46.094767" lon="6.145095"><ele></ele><time>2017-5-18T7:14:8Z</time></trkpt>
<trkpt lat="46.094767" lon="6.145085"><ele></ele><time>2017-5-18T7:14:11Z</time></trkpt>
<trkpt lat="46.094732" lon="6.145018"><ele></ele><time>2017-5-18T7:14:14Z</time></trkpt>
<trkpt lat="46.094722" lon="6.145006"><ele></ele><time>2017-5-18T7:14:17Z</time></trkpt>
<trkpt lat="46.094620" lon="6.144800"><ele></ele><time>2017-5-18T7:14:20Z</time></trkpt>
<trkpt lat="46.094490" lon="6.144537"><ele></ele><time>2017-5-18T7:14:23Z</time></trkpt>
<trkpt lat="46.094329" lon="6.144295"><ele></ele><time>2017-5-18T7:14:26Z</time></trkpt>
<trkpt lat="46.094210" lon="6.144170"><ele></ele><time>2017-5-18T7:14:29Z</time></trkpt>
<trkpt lat="46.094073" lon="6.144075"><ele></ele><time>2017-5-18T7:14:32Z</time></trkpt>
<trkpt lat="46.093929" lon="6.143987"><ele></ele><time>2017-5-18T7:14:35Z</time></trkpt>
<trkpt lat="46.093917" lon="6.143967"><ele></ele><time>2017-5-18T7:14:38Z</time></trkpt>
<trkpt lat="46.093912" lon="6.143950"><ele></ele><time>2017-5-18T7:14:41Z</time></trkpt>
<trkpt lat="46.093898" lon="6.143940"><ele></ele><time>2017-5-18T7:14:44Z</time></trkpt>
<trkpt lat="46.093889" lon="6.143929"><ele></ele><time>2017-5-18T7:14:47Z</time></trkpt>
<trkpt lat="46.093878" lon="6.143918"><ele></ele><time>2017-5-18T7:14:50Z</time></trkpt>
<trkpt lat="46.093867" lon="6.143901"><ele></ele><time>2017-5-18T7:14:53Z</time></trkpt>
<trkpt lat="46.093853" lon="6.143880"><ele></ele><time>2017-5-18T7:14:56Z</time></trkpt>
<trkpt lat="46.093688" lon="6.143711"><ele></ele><time>2017-5-18T7:14:59Z</time></trkpt>
<trkpt lat="46.093567" lon="6.143579"><ele></ele><time>2017-5-18T7:15:2Z</time></trkpt>
<trkpt lat="46.093446" lon="6.143359"><ele></ele><time>2017-5-18T7:15:5Z</time></trkpt>
<trkpt lat="46.093364" lon="6.143209"><ele></ele><time>2017-5-18T7:15:8Z</time></trkpt>
<trkpt lat="46.093267" lon="6.143080"><ele></ele><time>2017-5-18T7:15:11Z</time></trkpt>
<trkpt lat="46.093115" lon="6.142915"><ele></ele><time>2017-5-18T7:15:14Z</time></trkpt>
<trkpt lat="46.092912" lon="6.142706"><ele></ele><time>2017-5-18T7:15:17Z</time></trkpt>
<trkpt lat="46.092826" lon="6.142523"><ele></ele><time>2017-5-18T7:15:20Z</time></trkpt>
<trkpt lat="46.092821" lon="6.142491"><ele></ele><time>2017-5-18T7:15:23Z</time></trkpt>
<trkpt lat="46.092810" lon="6.142480"><ele></ele><time>2017-5-18T7:15:26Z</time></trkpt>
<trkpt lat="46.092819" lon="6.142465"><ele></ele><time>2017-5-18T7:15:29Z</time></trkpt>
<trkpt lat="46.092839" lon="6.142451"><ele></ele><time>2017-5-18T7:15:32Z</time></trkpt>
<trkpt lat="46.092818" lon="6.142461"><ele></ele><time>2017-5-18T7:15:35Z</time></trkpt>
<trkpt lat="46.092821" lon="6.142477"><ele></ele><time>2017-5-18T7:15:38Z</time></trkpt>
<trkpt lat="46.092805" lon="6.142463"><ele></ele><time>2017-5-18T7:15:41Z</time></trkpt>
<trkpt lat="46.092808" lon="6.142459"><ele></ele><time>2017-5-18T7:15:44Z</time></trkpt>
<trkpt lat="46.092792" lon="6.142447"><ele></ele><time>2017-5-18T7:15:47Z</time></trkpt>
<trkpt lat="46.092772" lon="6.142437"><ele></ele><time>2017-5-18T7:15:50Z</time></trkpt>
<trkpt lat="46.092760" lon="6.142429"><ele></ele><time>2017-5-18T7:15:53Z</time></trkpt>
<trkpt lat="46.092749" lon="6.142415"><ele></ele><time>2017-5-18T7:15:56Z</time></trkpt>
<trkpt lat="46.092691" lon="6.142270"><ele></ele><time>2017-5-18T7:15:59Z</time></trkpt>
<trkpt lat="46.092640" lon="6.142175"><ele></ele><time>2017-5-18T7:16:2Z</time></trkpt>
<trkpt lat="46.092574" lon="6.141983"><ele></ele><time>2017-5-18T7:16:5Z</time></trkpt>
<trkpt lat="46.092486" lon="6.141813"><ele></ele><time>2017-5-18T7:16:8Z</time></trkpt>
<trkpt lat="46.092327" lon="6.141565"><ele></ele><time>2017-5-18T7:16:11Z</time></trkpt>
<trkpt lat="46.092075" lon="6.141201"><ele></ele><time>2017-5-18T7:16:14Z</time></trkpt>
<trkpt lat="46.092027" lon="6.141115"><ele></ele><time>2017-5-18T7:16:17Z</time></trkpt>
<trkpt lat="46.091998" lon="6.141048"><ele></ele><time>2017-5-18T7:16:20Z</time></trkpt>
<trkpt lat="46.091953" lon="6.140949"><ele></ele><time>2017-5-18T7:16:23Z</time></trkpt>
<trkpt lat="46.091910" lon="6.140850"><ele></ele><time>2017-5-18T7:16:26Z</time></trkpt>
<trkpt lat="46.091872" lon="6.140763"><ele></ele><time>2017-5-18T7:16:29Z</time></trkpt>
<trkpt lat="46.091821" lon="6.140648"><ele></ele><time>2017-5-18T7:16:32Z</time></trkpt>
<trkpt lat="46.091772" lon="6.140552"><ele></ele><time>2017-5-18T7:16:35Z</time></trkpt>
<trkpt lat="46.091728" lon="6.140485"><ele></ele><time>2017-5-18T7:16:38Z</time></trkpt>
<trkpt lat="46.091678" lon="6.140430"><ele></ele><time>2017-5-18T7:16:41Z</time></trkpt>
<trkpt lat="46.091642" lon="6.140400"><ele></ele><time>2017-5-18T7:16:44Z</time></trkpt>
<trkpt lat="46.091597" lon="6.140364"><ele></ele><time>2017-5-18T7:16:47Z</time></trkpt>
<trkpt lat="46.091566" lon="6.140334"><ele></ele><time>2017-5-18T7:16:50Z</time></trkpt>
<trkpt lat="46.091532" lon="6.140300"><ele></ele><time>2017-5-18T7:16:53Z</time></trkpt>
<trkpt lat="46.091340" lon="6.140132"><ele></ele><time>2017-5-18T7:16:56Z</time></trkpt>
<trkpt lat="46.091187" lon="6.140069"><ele></ele><time>2017-5-18T7:16:59Z</time></trkpt>
<trkpt lat="46.091045" lon="6.140012"><ele></ele><time>2017-5-18T7:17:2Z</time></trkpt>
<trkpt lat="46.090847" lon="6.139898"><ele></ele><time>2017-5-18T7:17:5Z</time></trkpt>
<trkpt lat="46.090655" lon="6.139810"><ele></ele><time>2017-5-18T7:17:8Z</time></trkpt>
<trkpt lat="46.090599" lon="6.139749"><ele></ele><time>2017-5-18T7:17:11Z</time></trkpt>
<trkpt lat="46.090566" lon="6.139607"><ele></ele><time>2017-5-18T7:17:14Z</time></trkpt>
<trkpt lat="46.090553" lon="6.139378"><ele></ele><time>2017-5-18T7:17:17Z</time></trkpt>
<trkpt lat="46.090526" lon="6.139186"><ele></ele><time>2017-5-18T7:17:20Z</time></trkpt>
<trkpt lat="46.090505" lon="6.139128"><ele></ele><time>2017-5-18T7:17:23Z</time></trkpt>
<trkpt lat="46.090452" lon="6.138950"><ele></ele><time>2017-5-18T7:17:26Z</time></trkpt>
<trkpt lat="46.090438" lon="6.138906"><ele></ele><time>2017-5-18T7:17:29Z</time></trkpt>
<trkpt lat="46.090328" lon="6.138735"><ele></ele><time>2017-5-18T7:17:32Z</time></trkpt>
<trkpt lat="46.090201" lon="6.138567"><ele></ele><time>2017-5-18T7:17:35Z</time></trkpt>
<trkpt lat="46.090049" lon="6.138406"><ele></ele><time>2017-5-18T7:17:38Z</time></trkpt>
<trkpt lat="46.089948" lon="6.138287"><ele></ele><time>2017-5-18T7:17:41Z</time></trkpt>
<trkpt lat="46.089810" lon="6.138106"><ele></ele><time>2017-5-18T7:17:44Z</time></trkpt>
<trkpt lat="46.089529" lon="6.138001"><ele></ele><time>2017-5-18T7:17:47Z</time></trkpt>
<trkpt lat="46.089488" lon="6.137977"><ele></ele><time>2017-5-18T7:17:50Z</time></trkpt>
<trkpt lat="46.089281" lon="6.137828"><ele></ele><time>2017-5-18T7:17:53Z</time></trkpt>
<trkpt lat="46.089120" lon="6.137661"><ele></ele><time>2017-5-18T7:17:56Z</time></trkpt>
<trkpt lat="46.089055" lon="6.137592"><ele></ele><time>2017-5-18T7:17:59Z</time></trkpt>
<trkpt lat="46.089019" lon="6.137544"><ele></ele><time>2017-5-18T7:18:2Z</time></trkpt>
<trkpt lat="46.088990" lon="6.137542"><ele></ele><time>2017-5-18T7:18:5Z</time></trkpt>
<trkpt lat="46.088973" lon="6.137529"><ele></ele><time>2017-5-18T7:18:8Z</time></trkpt>
<trkpt lat="46.088981" lon="6.137495"><ele></ele><time>2017-5-18T7:18:11Z</time></trkpt>
<trkpt lat="46.088994" lon="6.137474"><ele></ele><time>2017-5-18T7:18:14Z</time></trkpt>
<trkpt lat="46.088967" lon="6.137474"><ele></ele><time>2017-5-18T7:18:17Z</time></trkpt>
<trkpt lat="46.088969" lon="6.137507"><ele></ele><time>2017-5-18T7:18:20Z</time></trkpt>
<trkpt lat="46.088982" lon="6.137523"><ele></ele><time>2017-5-18T7:18:23Z</time></trkpt>
<trkpt lat="46.088954" lon="6.137513"><ele></ele><time>2017-5-18T7:18:26Z</time></trkpt>
<trkpt lat="46.088919" lon="6.137497"><ele></ele><time>2017-5-18T7:18:29Z</time></trkpt>
<trkpt lat="46.088791" lon="6.137416"><ele></ele><time>2017-5-18T7:18:32Z</time></trkpt>
<trkpt lat="46.088624" lon="6.137325"><ele></ele><time>2017-5-18T7:18:35Z</time></trkpt>
<trkpt lat="46.088460" lon="6.137165"><ele></ele><time>2017-5-18T7:18:38Z</time></trkpt>
<trkpt lat="46.088359" lon="6.136940"><ele></ele><time>2017-5-18T7:18:41Z</time></trkpt>
<trkpt lat="46.088331" lon="6.136794"><ele></ele><time>2017-5-18T7:18:44Z</time></trkpt>
<trkpt lat="46.088324" lon="6.136763"><ele></ele><time>2017-5-18T7:18:47Z</time></trkpt>
<trkpt lat="46.088317" lon="6.136737"><ele></ele><time>2017-5-18T7:18:50Z</time></trkpt>
<trkpt lat="46.088273" lon="6.136498"><ele></ele><time>2017-5-18T7:18:53Z</time></trkpt>
<trkpt lat="46.088253" lon="6.136295"><ele></ele><time>2017-5-18T7:18:56Z</time></trkpt>
<trkpt lat="46.088257" lon="6.136251"><ele></ele><time>2017-5-18T7:18:59Z</time></trkpt>
<trkpt lat="46.088286" lon="6.136016"><ele></ele><time>2017-5-18T7:19:2Z</time></trkpt>
<trkpt lat="46.088380" lon="6.135734"><ele></ele><time>2017-5-18T7:19:5Z</time></trkpt>
<trkpt lat="46.088500" lon="6.135556"><ele></ele><time>2017-5-18T7:19:8Z</time></trkpt>
<trkpt lat="46.088652" lon="6.135378"><ele></ele><time>2017-5-18T7:19:11Z</time></trkpt>
<trkpt lat="46.088813" lon="6.135230"><ele></ele><time>2017-5-18T7:19:14Z</time></trkpt>
<trkpt lat="46.088976" lon="6.135080"><ele></ele><time>2017-5-18T7:19:17Z</time></trkpt>
<trkpt lat="46.089003" lon="6.135042"><ele></ele><time>2017-5-18T7:19:20Z</time></trkpt>
<trkpt lat="46.089003" lon="6.135021"><ele></ele><time>2017-5-18T7:19:23Z</time></trkpt>
<trkpt lat="46.088998" lon="6.135017"><ele></ele><time>2017-5-18T7:19:26Z</time></trkpt>
<trkpt lat="46.089009" lon="6.134986"><ele></ele><time>2017-5-18T7:19:29Z</time></trkpt>
<trkpt lat="46.089007" lon="6.134736"><ele></ele><time>2017-5-18T7:19:32Z</time></trkpt>
<trkpt lat="46.088916" lon="6.134427"><ele></ele><time>2017-5-18T7:19:35Z</time></trkpt>
<trkpt lat="46.088882" lon="6.134366"><ele></ele><time>2017-5-18T7:19:38Z</time></trkpt>
<trkpt lat="46.088801" lon="6.134243"><ele></ele><time>2017-5-18T7:19:41Z</time></trkpt>
<trkpt lat="46.088560" lon="6.133945"><ele></ele><time>2017-5-18T7:19:44Z</time></trkpt>
<trkpt lat="46.088521" lon="6.133865"><ele></ele><time>2017-5-18T7:19:47Z</time></trkpt>
<trkpt lat="46.088461" lon="6.133697"><ele></ele><time>2017-5-18T7:19:50Z</time></trkpt>
<trkpt lat="46.088340" lon="6.133333"><ele></ele><time>2017-5-18T7:19:53Z</time></trkpt>
<trkpt lat="46.088300" lon="6.133245"><ele></ele><time>2017-5-18T7:19:56Z</time></trkpt>
<trkpt lat="46.088255" lon="6.133167"><ele></ele><time>2017-5-18T7:19:59Z</time></trkpt>
<trkpt lat="46.088200" lon="6.133093"><ele></ele><time>2017-5-18T7:20:2Z</time></trkpt>
<trkpt lat="46.088140" lon="6.133030"><ele></ele><time>2017-5-18T7:20:5Z</time></trkpt>
<trkpt lat="46.088075" lon="6.132975"><ele></ele><time>2017-5-18T7:20:8Z</time></trkpt>
<trkpt lat="46.088004" lon="6.132923"><ele></ele><time>2017-5-18T7:20:11Z</time></trkpt>
<trkpt lat="46.087453" lon="6.132549"><ele></ele><time>2017-5-18T7:20:14Z</time></trkpt>
<trkpt lat="46.086735" lon="6.132053"><ele></ele><time>2017-5-18T7:20:17Z</time></trkpt>
<trkpt lat="46.086351" lon="6.131792"><ele></ele><time>2017-5-18T7:20:20Z</time></trkpt>
<trkpt lat="46.086062" lon="6.131604"><ele></ele><time>2017-5-18T7:20:23Z</time></trkpt>
<trkpt lat="46.085705" lon="6.131474"><ele></ele><time>2017-5-18T7:20:26Z</time></trkpt>
<trkpt lat="46.085658" lon="6.131465"><ele></ele><time>2017-5-18T7:20:29Z</time></trkpt>
<trkpt lat="46.085608" lon="6.131450"><ele></ele><time>2017-5-18T7:20:32Z</time></trkpt>
<trkpt lat="46.085561" lon="6.131426"><ele></ele><time>2017-5-18T7:20:35Z</time></trkpt>
<trkpt lat="46.085517" lon="6.131399"><ele></ele><time>2017-5-18T7:20:38Z</time></trkpt>
<trkpt lat="46.085471" lon="6.131365"><ele></ele><time>2017-5-18T7:20:41Z</time></trkpt>
<trkpt lat="46.085137" lon="6.131022"><ele></ele><time>2017-5-18T7:20:44Z</time></trkpt>
<trkpt lat="46.085099" lon="6.130990"><ele></ele><time>2017-5-18T7:20:47Z</time></trkpt>
<trkpt lat="46.085058" lon="6.130964"><ele></ele><time>2017-5-18T7:20:50Z</time></trkpt>
<trkpt lat="46.085009" lon="6.130945"><ele></ele><time>2017-5-18T7:20:53Z</time></trkpt>
<trkpt lat="46.084964" lon="6.130935"><ele></ele><time>2017-5-18T7:20:56Z</time></trkpt>
<trkpt lat="46.084919" lon="6.130934"><ele></ele><time>2017-5-18T7:20:59Z</time></trkpt>
<trkpt lat="46.084876" lon="6.130943"><ele></ele><time>2017-5-18T7:21:2Z</time></trkpt>
<trkpt lat="46.084837" lon="6.130961"><ele></ele><time>2017-5-18T7:21:5Z</time></trkpt>
<trkpt lat="46.084797" lon="6.130983"><ele></ele><time>2017-5-18T7:21:8Z</time></trkpt>
<trkpt lat="46.084758" lon="6.130997"><ele></ele><time>2017-5-18T7:21:11Z</time></trkpt>
<trkpt lat="46.084559" lon="6.131012"><ele></ele><time>2017-5-18T7:21:14Z</time></trkpt>
<trkpt lat="46.084256" lon="6.130983"><ele></ele><time>2017-5-18T7:21:17Z</time></trkpt>
<trkpt lat="46.084058" lon="6.130893"><ele></ele><time>2017-5-18T7:21:20Z</time></trkpt>
<trkpt lat="46.083795" lon="6.130810"><ele></ele><time>2017-5-18T7:21:23Z</time></trkpt>
<trkpt lat="46.083408" lon="6.130702"><ele></ele><time>2017-5-18T7:21:26Z</time></trkpt>
<trkpt lat="46.083150" lon="6.130679"><ele></ele><time>2017-5-18T7:21:29Z</time></trkpt>
<trkpt lat="46.083003" lon="6.130694"><ele></ele><time>2017-5-18T7:21:32Z</time></trkpt>
<trkpt lat="46.082962" lon="6.130683"><ele></ele><time>2017-5-18T7:21:35Z</time></trkpt>
<trkpt lat="46.082924" lon="6.130661"><ele></ele><time>2017-5-18T7:21:38Z</time></trkpt>
<trkpt lat="46.082886" lon="6.130623"><ele></ele><time>2017-5-18T7:21:41Z</time></trkpt>
<trkpt lat="46.082861" lon="6.130588"><ele></ele><time>2017-5-18T7:21:44Z</time></trkpt>
<trkpt lat="46.082829" lon="6.130546"><ele></ele><time>2017-5-18T7:21:47Z</time></trkpt>
<trkpt lat="46.082733" lon="6.130409"><ele></ele><time>2017-5-18T7:21:50Z</time></trkpt>
<trkpt lat="46.082701" lon="6.130357"><ele></ele><time>2017-5-18T7:21:53Z</time></trkpt>
<trkpt lat="46.082669" lon="6.130303"><ele></ele><time>2017-5-18T7:21:56Z</time></trkpt>
<trkpt lat="46.082607" lon="6.130193"><ele></ele><time>2017-5-18T7:21:59Z</time></trkpt>
<trkpt lat="46.082570" lon="6.130144"><ele></ele><time>2017-5-18T7:22:2Z</time></trkpt>
<trkpt lat="46.082530" lon="6.130100"><ele></ele><time>2017-5-18T7:22:5Z</time></trkpt>
<trkpt lat="46.082311" lon="6.129856"><ele></ele><time>2017-5-18T7:22:8Z</time></trkpt>
<trkpt lat="46.082262" lon="6.129806"><ele></ele><time>2017-5-18T7:22:11Z</time></trkpt>
<trkpt lat="46.082169" lon="6.129719"><ele></ele><time>2017-5-18T7:22:14Z</time></trkpt>
<trkpt lat="46.081880" lon="6.129545"><ele></ele><time>2017-5-18T7:22:17Z</time></trkpt>
<trkpt lat="46.081745" lon="6.129478"><ele></ele><time>2017-5-18T7:22:20Z</time></trkpt>
<trkpt lat="46.081680" lon="6.129430"><ele></ele><time>2017-5-18T7:22:23Z</time></trkpt>
<trkpt lat="46.081210" lon="6.128994"><ele></ele><time>2017-5-18T7:22:26Z</time></trkpt>
<trkpt lat="46.081152" lon="6.128933"><ele></ele><time>2017-5-18T7:22:29Z</time></trkpt>
<trkpt lat="46.081100" lon="6.128875"><ele></ele><time>2017-5-18T7:22:32Z</time></trkpt>
<trkpt lat="46.081054" lon="6.128823"><ele></ele><time>2017-5-18T7:22:35Z</time></trkpt>
<trkpt lat="46.081018" lon="6.128770"><ele></ele><time>2017-5-18T7:22:38Z</time></trkpt>
<trkpt lat="46.080989" lon="6.128718"><ele></ele><time>2017-5-18T7:22:41Z</time></trkpt>
<trkpt lat="46.080803" lon="6.128392"><ele></ele><time>2017-5-18T7:22:44Z</time></trkpt>
<trkpt lat="46.080713" lon="6.128198"><ele></ele><time>2017-5-18T7:22:47Z</time></trkpt>
<trkpt lat="46.080700" lon="6.128135"><ele></ele><time>2017-5-18T7:22:50Z</time></trkpt>
<trkpt lat="46.080695" lon="6.128066"><ele></ele><time>2017-5-18T7:22:53Z</time></trkpt>
<trkpt lat="46.080692" lon="6.127996"><ele></ele><time>2017-5-18T7:22:56Z</time></trkpt>
<trkpt lat="46.080689" lon="6.127928"><ele></ele><time>2017-5-18T7:22:59Z</time></trkpt>
<trkpt lat="46.080684" lon="6.127863"><ele></ele><time>2017-5-18T7:23:2Z</time></trkpt>
<trkpt lat="46.080677" lon="6.127798"><ele></ele><time>2017-5-18T7:23:5Z</time></trkpt>
<trkpt lat="46.080668" lon="6.127740"><ele></ele><time>2017-5-18T7:23:8Z</time></trkpt>
<trkpt lat="46.080655" lon="6.127692"><ele></ele><time>2017-5-18T7:23:11Z</time></trkpt>
<trkpt lat="46.080639" lon="6.127648"><ele></ele><time>2017-5-18T7:23:14Z</time></trkpt>
<trkpt lat="46.080619" lon="6.127607"><ele></ele><time>2017-5-18T7:23:17Z</time></trkpt>
<trkpt lat="46.080592" lon="6.127564"><ele></ele><time>2017-5-18T7:23:20Z</time></trkpt>
<trkpt lat="46.080563" lon="6.127519"><ele></ele><time>2017-5-18T7:23:23Z</time></trkpt>
<trkpt lat="46.080450" lon="6.127375"><ele></ele><time>2017-5-18T7:23:26Z</time></trkpt>
<trkpt lat="46.080409" lon="6.127337"><ele></ele><time>2017-5-18T7:23:29Z</time></trkpt>
<trkpt lat="46.080372" lon="6.127294"><ele></ele><time>2017-5-18T7:23:32Z</time></trkpt>
<trkpt lat="46.080223" lon="6.127086"><ele></ele><time>2017-5-18T7:23:35Z</time></trkpt>
<trkpt lat="46.080130" lon="6.126876"><ele></ele><time>2017-5-18T7:23:38Z</time></trkpt>
<trkpt lat="46.080005" lon="6.126689"><ele></ele><time>2017-5-18T7:23:41Z</time></trkpt>
<trkpt lat="46.079893" lon="6.126419"><ele></ele><time>2017-5-18T7:23:44Z</time></trkpt>
<trkpt lat="46.079820" lon="6.126231"><ele></ele><time>2017-5-18T7:23:47Z</time></trkpt>
<trkpt lat="46.079817" lon="6.126161"><ele></ele><time>2017-5-18T7:23:50Z</time></trkpt>
<trkpt lat="46.079831" lon="6.126135"><ele></ele><time>2017-5-18T7:23:53Z</time></trkpt>
<trkpt lat="46.079848" lon="6.126117"><ele></ele><time>2017-5-18T7:23:56Z</time></trkpt>
<trkpt lat="46.079867" lon="6.126098"><ele></ele><time>2017-5-18T7:23:59Z</time></trkpt>
<trkpt lat="46.079885" lon="6.126076"><ele></ele><time>2017-5-18T7:24:2Z</time></trkpt>
<trkpt lat="46.079976" lon="6.125996"><ele></ele><time>2017-5-18T7:24:5Z</time></trkpt>
<trkpt lat="46.079946" lon="6.125971"><ele></ele><time>2017-5-18T7:24:8Z</time></trkpt>
<trkpt lat="46.079913" lon="6.125987"><ele></ele><time>2017-5-18T7:24:11Z</time></trkpt>
<trkpt lat="46.079891" lon="6.125993"><ele></ele><time>2017-5-18T7:24:14Z</time></trkpt>
<trkpt lat="46.079873" lon="6.125999"><ele></ele><time>2017-5-18T7:24:17Z</time></trkpt>
<trkpt lat="46.079853" lon="6.126007"><ele></ele><time>2017-5-18T7:24:20Z</time></trkpt>
<trkpt lat="46.079835" lon="6.126013"><ele></ele><time>2017-5-18T7:24:23Z</time></trkpt>
<trkpt lat="46.079767" lon="6.126039"><ele></ele><time>2017-5-18T7:24:26Z</time></trkpt>
<trkpt lat="46.079784" lon="6.126057"><ele></ele><time>2017-5-18T7:24:29Z</time></trkpt>
<trkpt lat="46.079807" lon="6.126066"><ele></ele><time>2017-5-18T7:24:32Z</time></trkpt>
<trkpt lat="46.079825" lon="6.126065"><ele></ele><time>2017-5-18T7:24:35Z</time></trkpt>
<trkpt lat="46.079846" lon="6.126060"><ele></ele><time>2017-5-18T7:24:38Z</time></trkpt>
<trkpt lat="46.080038" lon="6.125972"><ele></ele><time>2017-5-18T7:24:41Z</time></trkpt>
<trkpt lat="46.080166" lon="6.125830"><ele></ele><time>2017-5-18T7:24:44Z</time></trkpt>
<trkpt lat="46.080380" lon="6.125521"><ele></ele><time>2017-5-18T7:24:47Z</time></trkpt>
<trkpt lat="46.080414" lon="6.125460"><ele></ele><time>2017-5-18T7:24:50Z</time></trkpt>
<trkpt lat="46.080473" lon="6.125325"><ele></ele><time>2017-5-18T7:24:53Z</time></trkpt>
<trkpt lat="46.080498" lon="6.125250"><ele></ele><time>2017-5-18T7:24:56Z</time></trkpt>
<trkpt lat="46.080576" lon="6.124997"><ele></ele><time>2017-5-18T7:24:59Z</time></trkpt>
<trkpt lat="46.080618" lon="6.124914"><ele></ele><time>2017-5-18T7:25:2Z</time></trkpt>
<trkpt lat="46.080674" lon="6.124861"><ele></ele><time>2017-5-18T7:25:5Z</time></trkpt>
<trkpt lat="46.080743" lon="6.124837"><ele></ele><time>2017-5-18T7:25:8Z</time></trkpt>
<trkpt lat="46.080816" lon="6.124842"><ele></ele><time>2017-5-18T7:25:11Z</time></trkpt>
<trkpt lat="46.080887" lon="6.124864"><ele></ele><time>2017-5-18T7:25:14Z</time></trkpt>
<trkpt lat="46.080957" lon="6.124894"><ele></ele><time>2017-5-18T7:25:17Z</time></trkpt>
<trkpt lat="46.081028" lon="6.124938"><ele></ele><time>2017-5-18T7:25:20Z</time></trkpt>
<trkpt lat="46.081097" lon="6.124988"><ele></ele><time>2017-5-18T7:25:23Z</time></trkpt>
<trkpt lat="46.081493" lon="6.125263"><ele></ele><time>2017-5-18T7:25:26Z</time></trkpt>
<trkpt lat="46.081547" lon="6.125283"><ele></ele><time>2017-5-18T7:25:29Z</time></trkpt>
<trkpt lat="46.081598" lon="6.125282"><ele></ele><time>2017-5-18T7:25:32Z</time></trkpt>
<trkpt lat="46.081645" lon="6.125247"><ele></ele><time>2017-5-18T7:25:35Z</time></trkpt>
<trkpt lat="46.081682" lon="6.125190"><ele></ele><time>2017-5-18T7:25:38Z</time></trkpt>
<trkpt lat="46.081712" lon="6.125121"><ele></ele><time>2017-5-18T7:25:41Z</time></trkpt>
<trkpt lat="46.081742" lon="6.125040"><ele></ele><time>2017-5-18T7:25:44Z</time></trkpt>
<trkpt lat="46.081845" lon="6.124661"><ele></ele><time>2017-5-18T7:25:47Z</time></trkpt>
<trkpt lat="46.081848" lon="6.124559"><ele></ele><time>2017-5-18T7:25:50Z</time></trkpt>
<trkpt lat="46.081842" lon="6.124452"><ele></ele><time>2017-5-18T7:25:53Z</time></trkpt>
<trkpt lat="46.081830" lon="6.124361"><ele></ele><time>2017-5-18T7:25:56Z</time></trkpt>
<trkpt lat="46.081816" lon="6.124270"><ele></ele><time>2017-5-18T7:25:59Z</time></trkpt>
<trkpt lat="46.081806" lon="6.124181"><ele></ele><time>2017-5-18T7:26:2Z</time></trkpt>
<trkpt lat="46.081800" lon="6.124088"><ele></ele><time>2017-5-18T7:26:5Z</time></trkpt>
<trkpt lat="46.081767" lon="6.123670"><ele></ele><time>2017-5-18T7:26:8Z</time></trkpt>
<trkpt lat="46.081756" lon="6.123590"><ele></ele><time>2017-5-18T7:26:11Z</time></trkpt>
<trkpt lat="46.081690" lon="6.123188"><ele></ele><time>2017-5-18T7:26:14Z</time></trkpt>
<trkpt lat="46.081687" lon="6.123098"><ele></ele><time>2017-5-18T7:26:17Z</time></trkpt>
<trkpt lat="46.081696" lon="6.123005"><ele></ele><time>2017-5-18T7:26:20Z</time></trkpt>
<trkpt lat="46.081742" lon="6.122805"><ele></ele><time>2017-5-18T7:26:23Z</time></trkpt>
<trkpt lat="46.081791" lon="6.122598"><ele></ele><time>2017-5-18T7:26:26Z</time></trkpt>
<trkpt lat="46.081803" lon="6.122483"><ele></ele><time>2017-5-18T7:26:29Z</time></trkpt>
<trkpt lat="46.081813" lon="6.122370"><ele></ele><time>2017-5-18T7:26:32Z</time></trkpt>
<trkpt lat="46.081828" lon="6.122264"><ele></ele><time>2017-5-18T7:26:35Z</time></trkpt>
<trkpt lat="46.081855" lon="6.122166"><ele></ele><time>2017-5-18T7:26:38Z</time></trkpt>
<trkpt lat="46.081896" lon="6.122076"><ele></ele><time>2017-5-18T7:26:41Z</time></trkpt>
<trkpt lat="46.081947" lon="6.121999"><ele></ele><time>2017-5-18T7:26:44Z</time></trkpt>
<trkpt lat="46.082005" lon="6.121938"><ele></ele><time>2017-5-18T7:26:47Z</time></trkpt>
<trkpt lat="46.082068" lon="6.121885"><ele></ele><time>2017-5-18T7:26:50Z</time></trkpt>
<trkpt lat="46.082141" lon="6.121832"><ele></ele><time>2017-5-18T7:26:53Z</time></trkpt>
<trkpt lat="46.082211" lon="6.121785"><ele></ele><time>2017-5-18T7:26:56Z</time></trkpt>
<trkpt lat="46.082290" lon="6.121742"><ele></ele><time>2017-5-18T7:26:59Z</time></trkpt>
<trkpt lat="46.082370" lon="6.121701"><ele></ele><time>2017-5-18T7:27:2Z</time></trkpt>
<trkpt lat="46.082442" lon="6.121656"><ele></ele><time>2017-5-18T7:27:5Z</time></trkpt>
<trkpt lat="46.082502" lon="6.121601"><ele></ele><time>2017-5-18T7:27:8Z</time></trkpt>
<trkpt lat="46.082551" lon="6.121531"><ele></ele><time>2017-5-18T7:27:11Z</time></trkpt>
<trkpt lat="46.082580" lon="6.121444"><ele></ele><time>2017-5-18T7:27:14Z</time></trkpt>
<trkpt lat="46.082586" lon="6.121361"><ele></ele><time>2017-5-18T7:27:17Z</time></trkpt>
<trkpt lat="46.082575" lon="6.121283"><ele></ele><time>2017-5-18T7:27:20Z</time></trkpt>
<trkpt lat="46.082556" lon="6.121200"><ele></ele><time>2017-5-18T7:27:23Z</time></trkpt>
<trkpt lat="46.082530" lon="6.121113"><ele></ele><time>2017-5-18T7:27:26Z</time></trkpt>
<trkpt lat="46.082492" lon="6.121023"><ele></ele><time>2017-5-18T7:27:29Z</time></trkpt>
<trkpt lat="46.082458" lon="6.120958"><ele></ele><time>2017-5-18T7:27:32Z</time></trkpt>
<trkpt lat="46.082415" lon="6.120887"><ele></ele><time>2017-5-18T7:27:35Z</time></trkpt>
<trkpt lat="46.082315" lon="6.120750"><ele></ele><time>2017-5-18T7:27:38Z</time></trkpt>
<trkpt lat="46.082259" lon="6.120691"><ele></ele><time>2017-5-18T7:27:41Z</time></trkpt>
<trkpt lat="46.082087" lon="6.120556"><ele></ele><time>2017-5-18T7:27:44Z</time></trkpt>
<trkpt lat="46.082028" lon="6.120539"><ele></ele><time>2017-5-18T7:27:47Z</time></trkpt>
<trkpt lat="46.081966" lon="6.120554"><ele></ele><time>2017-5-18T7:27:50Z</time></trkpt>
<trkpt lat="46.081906" lon="6.120594"><ele></ele><time>2017-5-18T7:27:53Z</time></trkpt>
<trkpt lat="46.081847" lon="6.120649"><ele></ele><time>2017-5-18T7:27:56Z</time></trkpt>
<trkpt lat="46.081789" lon="6.120715"><ele></ele><time>2017-5-18T7:27:59Z</time></trkpt>
<trkpt lat="46.081411" lon="6.121129"><ele></ele><time>2017-5-18T7:28:2Z</time></trkpt>
<trkpt lat="46.080938" lon="6.121625"><ele></ele><time>2017-5-18T7:28:5Z</time></trkpt>
<trkpt lat="46.080496" lon="6.122044"><ele></ele><time>2017-5-18T7:28:8Z</time></trkpt>
<trkpt lat="46.080193" lon="6.122473"><ele></ele><time>2017-5-18T7:28:11Z</time></trkpt>
<trkpt lat="46.080037" lon="6.122829"><ele></ele><time>2017-5-18T7:28:14Z</time></trkpt>
<trkpt lat="46.079991" lon="6.122884"><ele></ele><time>2017-5-18T7:28:17Z</time></trkpt>
<trkpt lat="46.079936" lon="6.122917"><ele></ele><time>2017-5-18T7:28:20Z</time></trkpt>
<trkpt lat="46.079874" lon="6.122934"><ele></ele><time>2017-5-18T7:28:23Z</time></trkpt>
<trkpt lat="46.079824" lon="6.122944"><ele></ele><time>2017-5-18T7:28:26Z</time></trkpt>
<trkpt lat="46.079715" lon="6.122918"><ele></ele><time>2017-5-18T7:28:29Z</time></trkpt>
<trkpt lat="46.079702" lon="6.122898"><ele></ele><time>2017-5-18T7:28:32Z</time></trkpt>
<trkpt lat="46.079690" lon="6.122874"><ele></ele><time>2017-5-18T7:28:35Z</time></trkpt>
<trkpt lat="46.079610" lon="6.122671"><ele></ele><time>2017-5-18T7:28:38Z</time></trkpt>
<trkpt lat="46.079522" lon="6.122421"><ele></ele><time>2017-5-18T7:28:41Z</time></trkpt>
<trkpt lat="46.079447" lon="6.122226"><ele></ele><time>2017-5-18T7:28:44Z</time></trkpt>
<trkpt lat="46.079325" lon="6.121994"><ele></ele><time>2017-5-18T7:28:47Z</time></trkpt>
<trkpt lat="46.079160" lon="6.121736"><ele></ele><time>2017-5-18T7:28:50Z</time></trkpt>
<trkpt lat="46.078961" lon="6.121481"><ele></ele><time>2017-5-18T7:28:53Z</time></trkpt>
<trkpt lat="46.078773" lon="6.121283"><ele></ele><time>2017-5-18T7:28:56Z</time></trkpt>
<trkpt lat="46.078554" lon="6.121029"><ele></ele><time>2017-5-18T7:28:59Z</time></trkpt>
<trkpt lat="46.078426" lon="6.120795"><ele></ele><time>2017-5-18T7:29:2Z</time></trkpt>
<trkpt lat="46.078348" lon="6.120528"><ele></ele><time>2017-5-18T7:29:5Z</time></trkpt>
<trkpt lat="46.078218" lon="6.120100"><ele></ele><time>2017-5-18T7:29:8Z</time></trkpt>
<trkpt lat="46.078186" lon="6.120060"><ele></ele><time>2017-5-18T7:29:11Z</time></trkpt>
<trkpt lat="46.078149" lon="6.120026"><ele></ele><time>2017-5-18T7:29:14Z</time></trkpt>
<trkpt lat="46.078107" lon="6.120006"><ele></ele><time>2017-5-18T7:29:17Z</time></trkpt>
<trkpt lat="46.078068" lon="6.120001"><ele></ele><time>2017-5-18T7:29:20Z</time></trkpt>
<trkpt lat="46.078033" lon="6.119995"><ele></ele><time>2017-5-18T7:29:23Z</time></trkpt>
<trkpt lat="46.078007" lon="6.119975"><ele></ele><time>2017-5-18T7:29:26Z</time></trkpt>
<trkpt lat="46.077989" lon="6.119940"><ele></ele><time>2017-5-18T7:29:29Z</time></trkpt>
<trkpt lat="46.077981" lon="6.119888"><ele></ele><time>2017-5-18T7:29:32Z</time></trkpt>
<trkpt lat="46.077976" lon="6.119834"><ele></ele><time>2017-5-18T7:29:35Z</time></trkpt>
<trkpt lat="46.077964" lon="6.119788"><ele></ele><time>2017-5-18T7:29:38Z</time></trkpt>
<trkpt lat="46.077945" lon="6.119759"><ele></ele><time>2017-5-18T7:29:41Z</time></trkpt>
<trkpt lat="46.077927" lon="6.119735"><ele></ele><time>2017-5-18T7:29:44Z</time></trkpt>
<trkpt lat="46.077796" lon="6.119494"><ele></ele><time>2017-5-18T7:29:47Z</time></trkpt>
<trkpt lat="46.077690" lon="6.119278"><ele></ele><time>2017-5-18T7:29:50Z</time></trkpt>
<trkpt lat="46.077562" lon="6.118991"><ele></ele><time>2017-5-18T7:29:53Z</time></trkpt>
<trkpt lat="46.077444" lon="6.118573"><ele></ele><time>2017-5-18T7:29:56Z</time></trkpt>
<trkpt lat="46.077396" lon="6.118429"><ele></ele><time>2017-5-18T7:29:59Z</time></trkpt>
<trkpt lat="46.077374" lon="6.118382"><ele></ele><time>2017-5-18T7:30:2Z</time></trkpt>
<trkpt lat="46.077345" lon="6.118342"><ele></ele><time>2017-5-18T7:30:5Z</time></trkpt>
<trkpt lat="46.077177" lon="6.118193"><ele></ele><time>2017-5-18T7:30:8Z</time></trkpt>
<trkpt lat="46.077124" lon="6.118162"><ele></ele><time>2017-5-18T7:30:11Z</time></trkpt>
<trkpt lat="46.077044" lon="6.118158"><ele></ele><time>2017-5-18T7:30:14Z</time></trkpt>
<trkpt lat="46.077029" lon="6.118164"><ele></ele><time>2017-5-18T7:30:17Z</time></trkpt>
<trkpt lat="46.077015" lon="6.118171"><ele></ele><time>2017-5-18T7:30:20Z</time></trkpt>
<trkpt lat="46.077000" lon="6.118178"><ele></ele><time>2017-5-18T7:30:23Z</time></trkpt>
<trkpt lat="46.076983" lon="6.118184"><ele></ele><time>2017-5-18T7:30:26Z</time></trkpt>
<trkpt lat="46.076852" lon="6.118225"><ele></ele><time>2017-5-18T7:30:29Z</time></trkpt>
<trkpt lat="46.076762" lon="6.118245"><ele></ele><time>2017-5-18T7:30:32Z</time></trkpt>
<trkpt lat="46.076640" lon="6.118250"><ele></ele><time>2017-5-18T7:30:35Z</time></trkpt>
<trkpt lat="46.076542" lon="6.118268"><ele></ele><time>2017-5-18T7:30:38Z</time></trkpt>
<trkpt lat="46.076444" lon="6.118314"><ele></ele><time>2017-5-18T7:30:41Z</time></trkpt>
<trkpt lat="46.076363" lon="6.118316"><ele></ele><time>2017-5-18T7:30:44Z</time></trkpt>
<trkpt lat="46.076350" lon="6.118313"><ele></ele><time>2017-5-18T7:30:47Z</time></trkpt>
<trkpt lat="46.076217" lon="6.118325"><ele></ele><time>2017-5-18T7:30:50Z</time></trkpt>
<trkpt lat="46.076190" lon="6.118331"><ele></ele><time>2017-5-18T7:30:53Z</time></trkpt>
<trkpt lat="46.076177" lon="6.118336"><ele></ele><time>2017-5-18T7:30:56Z</time></trkpt>
<trkpt lat="46.076130" lon="6.118346"><ele></ele><time>2017-5-18T7:30:59Z</time></trkpt>
<trkpt lat="46.076119" lon="6.118354"><ele></ele><time>2017-5-18T7:31:2Z</time></trkpt>
<trkpt lat="46.076013" lon="6.118391"><ele></ele><time>2017-5-18T7:31:5Z</time></trkpt>
<trkpt lat="46.075952" lon="6.118412"><ele></ele><time>2017-5-18T7:31:8Z</time></trkpt>
<trkpt lat="46.075903" lon="6.118407"><ele></ele><time>2017-5-18T7:31:11Z</time></trkpt>
<trkpt lat="46.075805" lon="6.118265"><ele></ele><time>2017-5-18T7:31:14Z</time></trkpt>
<trkpt lat="46.075726" lon="6.118108"><ele></ele><time>2017-5-18T7:31:17Z</time></trkpt>
<trkpt lat="46.075497" lon="6.117753"><ele></ele><time>2017-5-18T7:31:20Z</time></trkpt>
<trkpt lat="46.075364" lon="6.117622"><ele></ele><time>2017-5-18T7:31:23Z</time></trkpt>
<trkpt lat="46.075241" lon="6.117509"><ele></ele><time>2017-5-18T7:31:26Z</time></trkpt>
<trkpt lat="46.075163" lon="6.117402"><ele></ele><time>2017-5-18T7:31:29Z</time></trkpt>
<trkpt lat="46.075160" lon="6.117362"><ele></ele><time>2017-5-18T7:31:32Z</time></trkpt>
<trkpt lat="46.075149" lon="6.117353"><ele></ele><time>2017-5-18T7:31:35Z</time></trkpt>
<trkpt lat="46.075129" lon="6.117320"><ele></ele><time>2017-5-18T7:31:38Z</time></trkpt>
<trkpt lat="46.075104" lon="6.117323"><ele></ele><time>2017-5-18T7:31:41Z</time></trkpt>
<trkpt lat="46.075087" lon="6.117301"><ele></ele><time>2017-5-18T7:31:44Z</time></trkpt>
<trkpt lat="46.075080" lon="6.117292"><ele></ele><time>2017-5-18T7:31:47Z</time></trkpt>
<trkpt lat="46.075067" lon="6.117301"><ele></ele><time>2017-5-18T7:31:50Z</time></trkpt>
<trkpt lat="46.075063" lon="6.117311"><ele></ele><time>2017-5-18T7:31:53Z</time></trkpt>
<trkpt lat="46.075078" lon="6.117306"><ele></ele><time>2017-5-18T7:31:56Z</time></trkpt>
<trkpt lat="46.075065" lon="6.117341"><ele></ele><time>2017-5-18T7:31:59Z</time></trkpt>
<trkpt lat="46.075074" lon="6.117349"><ele></ele><time>2017-5-18T7:32:2Z</time></trkpt>
<trkpt lat="46.075049" lon="6.117355"><ele></ele><time>2017-5-18T7:32:5Z</time></trkpt>
<trkpt lat="46.075033" lon="6.117336"><ele></ele><time>2017-5-18T7:32:8Z</time></trkpt>
<trkpt lat="46.075021" lon="6.117324"><ele></ele><time>2017-5-18T7:32:11Z</time></trkpt>
<trkpt lat="46.074838" lon="6.117144"><ele></ele><time>2017-5-18T7:32:14Z</time></trkpt>
<trkpt lat="46.074662" lon="6.117013"><ele></ele><time>2017-5-18T7:32:17Z</time></trkpt>
<trkpt lat="46.074471" lon="6.116941"><ele></ele><time>2017-5-18T7:32:20Z</time></trkpt>
<trkpt lat="46.074260" lon="6.116824"><ele></ele><time>2017-5-18T7:32:23Z</time></trkpt>
<trkpt lat="46.074083" lon="6.116759"><ele></ele><time>2017-5-18T7:32:26Z</time></trkpt>
<trkpt lat="46.073799" lon="6.116702"><ele></ele><time>2017-5-18T7:32:29Z</time></trkpt>
<trkpt lat="46.073757" lon="6.116686"><ele></ele><time>2017-5-18T7:32:32Z</time></trkpt>
<trkpt lat="46.073674" lon="6.116646"><ele></ele><time>2017-5-18T7:32:35Z</time></trkpt>
<trkpt lat="46.073634" lon="6.116623"><ele></ele><time>2017-5-18T7:32:38Z</time></trkpt>
<trkpt lat="46.073420" lon="6.116552"><ele></ele><time>2017-5-18T7:32:41Z</time></trkpt>
<trkpt lat="46.073185" lon="6.116442"><ele></ele><time>2017-5-18T7:32:44Z</time></trkpt>
<trkpt lat="46.073047" lon="6.116364"><ele></ele><time>2017-5-18T7:32:47Z</time></trkpt>
<trkpt lat="46.072823" lon="6.116322"><ele></ele><time>2017-5-18T7:32:50Z</time></trkpt>
<trkpt lat="46.072601" lon="6.116272"><ele></ele><time>2017-5-18T7:32:53Z</time></trkpt>
<trkpt lat="46.072425" lon="6.116267"><ele></ele><time>2017-5-18T7:32:56Z</time></trkpt>
<trkpt lat="46.072216" lon="6.116278"><ele></ele><time>2017-5-18T7:32:59Z</time></trkpt>
<trkpt lat="46.072018" lon="6.116322"><ele></ele><time>2017-5-18T7:33:2Z</time></trkpt>
<trkpt lat="46.071801" lon="6.116184"><ele></ele><time>2017-5-18T7:33:5Z</time></trkpt>
<trkpt lat="46.071711" lon="6.116059"><ele></ele><time>2017-5-18T7:33:8Z</time></trkpt>
<trkpt lat="46.071660" lon="6.116010"><ele></ele><time>2017-5-18T7:33:11Z</time></trkpt>
<trkpt lat="46.071478" lon="6.115868"><ele></ele><time>2017-5-18T7:33:14Z</time></trkpt>
<trkpt lat="46.071334" lon="6.115775"><ele></ele><time>2017-5-18T7:33:17Z</time></trkpt>
<trkpt lat="46.071173" lon="6.115575"><ele></ele><time>2017-5-18T7:33:20Z</time></trkpt>
<trkpt lat="46.071150" lon="6.115489"><ele></ele><time>2017-5-18T7:33:23Z</time></trkpt>
<trkpt lat="46.071138" lon="6.115394"><ele></ele><time>2017-5-18T7:33:26Z</time></trkpt>
<trkpt lat="46.071120" lon="6.115306"><ele></ele><time>2017-5-18T7:33:29Z</time></trkpt>
<trkpt lat="46.071085" lon="6.115232"><ele></ele><time>2017-5-18T7:33:32Z</time></trkpt>
<trkpt lat="46.071049" lon="6.115172"><ele></ele><time>2017-5-18T7:33:35Z</time></trkpt>
<trkpt lat="46.071015" lon="6.115109"><ele></ele><time>2017-5-18T7:33:38Z</time></trkpt>
<trkpt lat="46.070869" lon="6.114769"><ele></ele><time>2017-5-18T7:33:41Z</time></trkpt>
<trkpt lat="46.070833" lon="6.114640"><ele></ele><time>2017-5-18T7:33:44Z</time></trkpt>
<trkpt lat="46.070708" lon="6.114461"><ele></ele><time>2017-5-18T7:33:47Z</time></trkpt>
<trkpt lat="46.070589" lon="6.114284"><ele></ele><time>2017-5-18T7:33:50Z</time></trkpt>
<trkpt lat="46.070374" lon="6.114072"><ele></ele><time>2017-5-18T7:33:53Z</time></trkpt>
<trkpt lat="46.070165" lon="6.114064"><ele></ele><time>2017-5-18T7:33:56Z</time></trkpt>
<trkpt lat="46.070048" lon="6.114083"><ele></ele><time>2017-5-18T7:33:59Z</time></trkpt>
<trkpt lat="46.070031" lon="6.114071"><ele></ele><time>2017-5-18T7:34:2Z</time></trkpt>
<trkpt lat="46.070020" lon="6.114053"><ele></ele><time>2017-5-18T7:34:5Z</time></trkpt>
<trkpt lat="46.070012" lon="6.114026"><ele></ele><time>2017-5-18T7:34:8Z</time></trkpt>
<trkpt lat="46.070007" lon="6.113998"><ele></ele><time>2017-5-18T7:34:11Z</time></trkpt>
<trkpt lat="46.069912" lon="6.113863"><ele></ele><time>2017-5-18T7:34:14Z</time></trkpt>
<trkpt lat="46.069712" lon="6.113726"><ele></ele><time>2017-5-18T7:34:17Z</time></trkpt>
<trkpt lat="46.069617" lon="6.113598"><ele></ele><time>2017-5-18T7:34:20Z</time></trkpt>
<trkpt lat="46.069506" lon="6.113480"><ele></ele><time>2017-5-18T7:34:23Z</time></trkpt>
<trkpt lat="46.069307" lon="6.113416"><ele></ele><time>2017-5-18T7:34:26Z</time></trkpt>
<trkpt lat="46.069168" lon="6.113405"><ele></ele><time>2017-5-18T7:34:29Z</time></trkpt>
<trkpt lat="46.069007" lon="6.113403"><ele></ele><time>2017-5-18T7:34:32Z</time></trkpt>
<trkpt lat="46.068865" lon="6.113362"><ele></ele><time>2017-5-18T7:34:35Z</time></trkpt>
<trkpt lat="46.068715" lon="6.113366"><ele></ele><time>2017-5-18T7:34:38Z</time></trkpt>
<trkpt lat="46.068553" lon="6.113334"><ele></ele><time>2017-5-18T7:34:41Z</time></trkpt>
<trkpt lat="46.068414" lon="6.113268"><ele></ele><time>2017-5-18T7:34:44Z</time></trkpt>
<trkpt lat="46.068256" lon="6.113095"><ele></ele><time>2017-5-18T7:34:47Z</time></trkpt>
<trkpt lat="46.068149" lon="6.112984"><ele></ele><time>2017-5-18T7:34:50Z</time></trkpt>
<trkpt lat="46.067957" lon="6.112867"><ele></ele><time>2017-5-18T7:34:53Z</time></trkpt>
<trkpt lat="46.067809" lon="6.112777"><ele></ele><time>2017-5-18T7:34:56Z</time></trkpt>
<trkpt lat="46.067802" lon="6.112747"><ele></ele><time>2017-5-18T7:34:59Z</time></trkpt>
<trkpt lat="46.067777" lon="6.112495"><ele></ele><time>2017-5-18T7:35:2Z</time></trkpt>
<trkpt lat="46.067734" lon="6.112224"><ele></ele><time>2017-5-18T7:35:5Z</time></trkpt>
<trkpt lat="46.067661" lon="6.111917"><ele></ele><time>2017-5-18T7:35:8Z</time></trkpt>
<trkpt lat="46.067569" lon="6.111688"><ele></ele><time>2017-5-18T7:35:11Z</time></trkpt>
<trkpt lat="46.067499" lon="6.111451"><ele></ele><time>2017-5-18T7:35:14Z</time></trkpt>
<trkpt lat="46.067455" lon="6.111238"><ele></ele><time>2017-5-18T7:35:17Z</time></trkpt>
<trkpt lat="46.067454" lon="6.110925"><ele></ele><time>2017-5-18T7:35:20Z</time></trkpt>
<trkpt lat="46.067457" lon="6.110863"><ele></ele><time>2017-5-18T7:35:23Z</time></trkpt>
<trkpt lat="46.067458" lon="6.110796"><ele></ele><time>2017-5-18T7:35:26Z</time></trkpt>
<trkpt lat="46.067464" lon="6.110723"><ele></ele><time>2017-5-18T7:35:29Z</time></trkpt>
<trkpt lat="46.067503" lon="6.110276"><ele></ele><time>2017-5-18T7:35:32Z</time></trkpt>
<trkpt lat="46.067521" lon="6.109825"><ele></ele><time>2017-5-18T7:35:35Z</time></trkpt>
<trkpt lat="46.067558" lon="6.109354"><ele></ele><time>2017-5-18T7:35:38Z</time></trkpt>
<trkpt lat="46.067632" lon="6.108776"><ele></ele><time>2017-5-18T7:35:41Z</time></trkpt>
<trkpt lat="46.067687" lon="6.108176"><ele></ele><time>2017-5-18T7:35:44Z</time></trkpt>
<trkpt lat="46.067682" lon="6.108055"><ele></ele><time>2017-5-18T7:35:47Z</time></trkpt>
<trkpt lat="46.067669" lon="6.107951"><ele></ele><time>2017-5-18T7:35:50Z</time></trkpt>
<trkpt lat="46.067605" lon="6.107567"><ele></ele><time>2017-5-18T7:35:53Z</time></trkpt>
<trkpt lat="46.067583" lon="6.107478"><ele></ele><time>2017-5-18T7:35:56Z</time></trkpt>
<trkpt lat="46.067521" lon="6.107295"><ele></ele><time>2017-5-18T7:35:59Z</time></trkpt>
<trkpt lat="46.067480" lon="6.107223"><ele></ele><time>2017-5-18T7:36:2Z</time></trkpt>
<trkpt lat="46.067446" lon="6.107164"><ele></ele><time>2017-5-18T7:36:5Z</time></trkpt>
<trkpt lat="46.067418" lon="6.107100"><ele></ele><time>2017-5-18T7:36:8Z</time></trkpt>
<trkpt lat="46.067398" lon="6.107032"><ele></ele><time>2017-5-18T7:36:11Z</time></trkpt>
<trkpt lat="46.067389" lon="6.106965"><ele></ele><time>2017-5-18T7:36:14Z</time></trkpt>
<trkpt lat="46.067386" lon="6.106912"><ele></ele><time>2017-5-18T7:36:17Z</time></trkpt>
<trkpt lat="46.067355" lon="6.106630"><ele></ele><time>2017-5-18T7:36:20Z</time></trkpt>
<trkpt lat="46.067339" lon="6.106540"><ele></ele><time>2017-5-18T7:36:23Z</time></trkpt>
<trkpt lat="46.067317" lon="6.106465"><ele></ele><time>2017-5-18T7:36:26Z</time></trkpt>
<trkpt lat="46.067291" lon="6.106399"><ele></ele><time>2017-5-18T7:36:29Z</time></trkpt>
<trkpt lat="46.067260" lon="6.106340"><ele></ele><time>2017-5-18T7:36:32Z</time></trkpt>
<trkpt lat="46.067221" lon="6.106286"><ele></ele><time>2017-5-18T7:36:35Z</time></trkpt>
<trkpt lat="46.067181" lon="6.106244"><ele></ele><time>2017-5-18T7:36:38Z</time></trkpt>
<trkpt lat="46.067139" lon="6.106209"><ele></ele><time>2017-5-18T7:36:41Z</time></trkpt>
<trkpt lat="46.067092" lon="6.106178"><ele></ele><time>2017-5-18T7:36:44Z</time></trkpt>
<trkpt lat="46.067041" lon="6.106149"><ele></ele><time>2017-5-18T7:36:47Z</time></trkpt>
<trkpt lat="46.066769" lon="6.105963"><ele></ele><time>2017-5-18T7:36:50Z</time></trkpt>
<trkpt lat="46.066594" lon="6.105758"><ele></ele><time>2017-5-18T7:36:53Z</time></trkpt>
<trkpt lat="46.066557" lon="6.105683"><ele></ele><time>2017-5-18T7:36:56Z</time></trkpt>
<trkpt lat="46.066526" lon="6.105602"><ele></ele><time>2017-5-18T7:36:59Z</time></trkpt>
<trkpt lat="46.066502" lon="6.105521"><ele></ele><time>2017-5-18T7:37:2Z</time></trkpt>
<trkpt lat="46.066481" lon="6.105436"><ele></ele><time>2017-5-18T7:37:5Z</time></trkpt>
<trkpt lat="46.066459" lon="6.105284"><ele></ele><time>2017-5-18T7:37:8Z</time></trkpt>
<trkpt lat="46.066463" lon="6.105205"><ele></ele><time>2017-5-18T7:37:11Z</time></trkpt>
<trkpt lat="46.066487" lon="6.104943"><ele></ele><time>2017-5-18T7:37:14Z</time></trkpt>
<trkpt lat="46.066479" lon="6.104843"><ele></ele><time>2017-5-18T7:37:17Z</time></trkpt>
<trkpt lat="46.066458" lon="6.104730"><ele></ele><time>2017-5-18T7:37:20Z</time></trkpt>
<trkpt lat="46.066414" lon="6.104526"><ele></ele><time>2017-5-18T7:37:23Z</time></trkpt>
<trkpt lat="46.066368" lon="6.104322"><ele></ele><time>2017-5-18T7:37:26Z</time></trkpt>
<trkpt lat="46.066338" lon="6.104253"><ele></ele><time>2017-5-18T7:37:29Z</time></trkpt>
<trkpt lat="46.066250" lon="6.104047"><ele></ele><time>2017-5-18T7:37:32Z</time></trkpt>
<trkpt lat="46.066242" lon="6.104013"><ele></ele><time>2017-5-18T7:37:35Z</time></trkpt>
<trkpt lat="46.066231" lon="6.103975"><ele></ele><time>2017-5-18T7:37:38Z</time></trkpt>
<trkpt lat="46.066186" lon="6.103739"><ele></ele><time>2017-5-18T7:37:41Z</time></trkpt>
<trkpt lat="46.066117" lon="6.103564"><ele></ele><time>2017-5-18T7:37:44Z</time></trkpt>
<trkpt lat="46.065992" lon="6.103398"><ele></ele><time>2017-5-18T7:37:47Z</time></trkpt>
<trkpt lat="46.065837" lon="6.103207"><ele></ele><time>2017-5-18T7:37:50Z</time></trkpt>
<trkpt lat="46.065675" lon="6.102992"><ele></ele><time>2017-5-18T7:37:53Z</time></trkpt>
<trkpt lat="46.065570" lon="6.102853"><ele></ele><time>2017-5-18T7:37:56Z</time></trkpt>
<trkpt lat="46.065531" lon="6.102816"><ele></ele><time>2017-5-18T7:37:59Z</time></trkpt>
<trkpt lat="46.065493" lon="6.102795"><ele></ele><time>2017-5-18T7:38:2Z</time></trkpt>
<trkpt lat="46.065449" lon="6.102785"><ele></ele><time>2017-5-18T7:38:5Z</time></trkpt>
<trkpt lat="46.065409" lon="6.102785"><ele></ele><time>2017-5-18T7:38:8Z</time></trkpt>
<trkpt lat="46.065378" lon="6.102788"><ele></ele><time>2017-5-18T7:38:11Z</time></trkpt>
<trkpt lat="46.065358" lon="6.102785"><ele></ele><time>2017-5-18T7:38:14Z</time></trkpt>
<trkpt lat="46.065340" lon="6.102781"><ele></ele><time>2017-5-18T7:38:17Z</time></trkpt>
<trkpt lat="46.065324" lon="6.102778"><ele></ele><time>2017-5-18T7:38:20Z</time></trkpt>
<trkpt lat="46.065310" lon="6.102770"><ele></ele><time>2017-5-18T7:38:23Z</time></trkpt>
<trkpt lat="46.065298" lon="6.102762"><ele></ele><time>2017-5-18T7:38:26Z</time></trkpt>
<trkpt lat="46.065235" lon="6.102684"><ele></ele><time>2017-5-18T7:38:29Z</time></trkpt>
<trkpt lat="46.065073" lon="6.102611"><ele></ele><time>2017-5-18T7:38:32Z</time></trkpt>
<trkpt lat="46.064864" lon="6.102574"><ele></ele><time>2017-5-18T7:38:35Z</time></trkpt>
<trkpt lat="46.064755" lon="6.102544"><ele></ele><time>2017-5-18T7:38:38Z</time></trkpt>
<trkpt lat="46.064644" lon="6.102530"><ele></ele><time>2017-5-18T7:38:41Z</time></trkpt>
<trkpt lat="46.064597" lon="6.102513"><ele></ele><time>2017-5-18T7:38:44Z</time></trkpt>
<trkpt lat="46.064501" lon="6.102471"><ele></ele><time>2017-5-18T7:38:47Z</time></trkpt>
<trkpt lat="46.064451" lon="6.102468"><ele></ele><time>2017-5-18T7:38:50Z</time></trkpt>
<trkpt lat="46.064321" lon="6.102460"><ele></ele><time>2017-5-18T7:38:53Z</time></trkpt>
<trkpt lat="46.064277" lon="6.102457"><ele></ele><time>2017-5-18T7:38:56Z</time></trkpt>
<trkpt lat="46.064233" lon="6.102462"><ele></ele><time>2017-5-18T7:38:59Z</time></trkpt>
<trkpt lat="46.064025" lon="6.102603"><ele></ele><time>2017-5-18T7:39:2Z</time></trkpt>
<trkpt lat="46.063954" lon="6.102652"><ele></ele><time>2017-5-18T7:39:5Z</time></trkpt>
<trkpt lat="46.063912" lon="6.102691"><ele></ele><time>2017-5-18T7:39:8Z</time></trkpt>
<trkpt lat="46.063753" lon="6.102813"><ele></ele><time>2017-5-18T7:39:11Z</time></trkpt>
<trkpt lat="46.063644" lon="6.102858"><ele></ele><time>2017-5-18T7:39:14Z</time></trkpt>
<trkpt lat="46.063588" lon="6.102867"><ele></ele><time>2017-5-18T7:39:17Z</time></trkpt>
<trkpt lat="46.063539" lon="6.102875"><ele></ele><time>2017-5-18T7:39:20Z</time></trkpt>
<trkpt lat="46.063498" lon="6.102892"><ele></ele><time>2017-5-18T7:39:23Z</time></trkpt>
<trkpt lat="46.063457" lon="6.102911"><ele></ele><time>2017-5-18T7:39:26Z</time></trkpt>
<trkpt lat="46.063411" lon="6.102921"><ele></ele><time>2017-5-18T7:39:29Z</time></trkpt>
<trkpt lat="46.063365" lon="6.102926"><ele></ele><time>2017-5-18T7:39:32Z</time></trkpt>
<trkpt lat="46.063171" lon="6.103028"><ele></ele><time>2017-5-18T7:39:35Z</time></trkpt>
<trkpt lat="46.063058" lon="6.103093"><ele></ele><time>2017-5-18T7:39:38Z</time></trkpt>
<trkpt lat="46.062929" lon="6.103141"><ele></ele><time>2017-5-18T7:39:41Z</time></trkpt>
<trkpt lat="46.062862" lon="6.103140"><ele></ele><time>2017-5-18T7:39:44Z</time></trkpt>
<trkpt lat="46.062796" lon="6.103124"><ele></ele><time>2017-5-18T7:39:47Z</time></trkpt>
<trkpt lat="46.062730" lon="6.103095"><ele></ele><time>2017-5-18T7:39:50Z</time></trkpt>
<trkpt lat="46.062673" lon="6.103066"><ele></ele><time>2017-5-18T7:39:53Z</time></trkpt>
<trkpt lat="46.062616" lon="6.103041"><ele></ele><time>2017-5-18T7:39:56Z</time></trkpt>
<trkpt lat="46.062553" lon="6.103024"><ele></ele><time>2017-5-18T7:39:59Z</time></trkpt>
<trkpt lat="46.062489" lon="6.103030"><ele></ele><time>2017-5-18T7:40:2Z</time></trkpt>
<trkpt lat="46.062426" lon="6.103052"><ele></ele><time>2017-5-18T7:40:5Z</time></trkpt>
<trkpt lat="46.062360" lon="6.103074"><ele></ele><time>2017-5-18T7:40:8Z</time></trkpt>
<trkpt lat="46.062299" lon="6.103096"><ele></ele><time>2017-5-18T7:40:11Z</time></trkpt>
<trkpt lat="46.062240" lon="6.103112"><ele></ele><time>2017-5-18T7:40:14Z</time></trkpt>
<trkpt lat="46.062178" lon="6.103130"><ele></ele><time>2017-5-18T7:40:17Z</time></trkpt>
<trkpt lat="46.062110" lon="6.103157"><ele></ele><time>2017-5-18T7:40:20Z</time></trkpt>
<trkpt lat="46.061980" lon="6.103187"><ele></ele><time>2017-5-18T7:40:23Z</time></trkpt>
<trkpt lat="46.061846" lon="6.103185"><ele></ele><time>2017-5-18T7:40:26Z</time></trkpt>
<trkpt lat="46.061787" lon="6.103163"><ele></ele><time>2017-5-18T7:40:29Z</time></trkpt>
<trkpt lat="46.061449" lon="6.102928"><ele></ele><time>2017-5-18T7:40:32Z</time></trkpt>
<trkpt lat="46.061403" lon="6.102900"><ele></ele><time>2017-5-18T7:40:35Z</time></trkpt>
<trkpt lat="46.061352" lon="6.102867"><ele></ele><time>2017-5-18T7:40:38Z</time></trkpt>
<trkpt lat="46.061240" lon="6.102771"><ele></ele><time>2017-5-18T7:40:41Z</time></trkpt>
<trkpt lat="46.061236" lon="6.102752"><ele></ele><time>2017-5-18T7:40:44Z</time></trkpt>
<trkpt lat="46.061218" lon="6.102730"><ele></ele><time>2017-5-18T7:40:47Z</time></trkpt>
<trkpt lat="46.061231" lon="6.102741"><ele></ele><time>2017-5-18T7:40:50Z</time></trkpt>
<trkpt lat="46.061233" lon="6.102753"><ele></ele><time>2017-5-18T7:40:53Z</time></trkpt>
<trkpt lat="46.061232" lon="6.102758"><ele></ele><time>2017-5-18T7:40:56Z</time></trkpt>
<trkpt lat="46.061226" lon="6.102759"><ele></ele><time>2017-5-18T7:40:59Z</time></trkpt>
<trkpt lat="46.061221" lon="6.102769"><ele></ele><time>2017-5-18T7:41:2Z</time></trkpt>
<trkpt lat="46.061190" lon="6.102774"><ele></ele><time>2017-5-18T7:41:5Z</time></trkpt>
<trkpt lat="46.061167" lon="6.102770"><ele></ele><time>2017-5-18T7:41:8Z</time></trkpt>
<trkpt lat="46.060998" lon="6.102739"><ele></ele><time>2017-5-18T7:41:11Z</time></trkpt>
<trkpt lat="46.060807" lon="6.102682"><ele></ele><time>2017-5-18T7:41:14Z</time></trkpt>
<trkpt lat="46.060640" lon="6.102602"><ele></ele><time>2017-5-18T7:41:17Z</time></trkpt>
<trkpt lat="46.060601" lon="6.102571"><ele></ele><time>2017-5-18T7:41:20Z</time></trkpt>
<trkpt lat="46.060556" lon="6.102532"><ele></ele><time>2017-5-18T7:41:23Z</time></trkpt>
<trkpt lat="46.060517" lon="6.102511"><ele></ele><time>2017-5-18T7:41:26Z</time></trkpt>
<trkpt lat="46.060467" lon="6.102498"><ele></ele><time>2017-5-18T7:41:29Z</time></trkpt>
<trkpt lat="46.060408" lon="6.102496"><ele></ele><time>2017-5-18T7:41:32Z</time></trkpt>
<trkpt lat="46.060359" lon="6.102497"><ele></ele><time>2017-5-18T7:41:35Z</time></trkpt>
<trkpt lat="46.060146" lon="6.102484"><ele></ele><time>2017-5-18T7:41:38Z</time></trkpt>
<trkpt lat="46.059736" lon="6.102389"><ele></ele><time>2017-5-18T7:41:41Z</time></trkpt>
<trkpt lat="46.059679" lon="6.102383"><ele></ele><time>2017-5-18T7:41:44Z</time></trkpt>
<trkpt lat="46.059628" lon="6.102384"><ele></ele><time>2017-5-18T7:41:47Z</time></trkpt>
<trkpt lat="46.059406" lon="6.102418"><ele></ele><time>2017-5-18T7:41:50Z</time></trkpt>
<trkpt lat="46.059386" lon="6.102446"><ele></ele><time>2017-5-18T7:41:53Z</time></trkpt>
<trkpt lat="46.059379" lon="6.102480"><ele></ele><time>2017-5-18T7:41:56Z</time></trkpt>
<trkpt lat="46.059384" lon="6.102682"><ele></ele><time>2017-5-18T7:41:59Z</time></trkpt>
<trkpt lat="46.059403" lon="6.102903"><ele></ele><time>2017-5-18T7:42:2Z</time></trkpt>
<trkpt lat="46.059427" lon="6.103137"><ele></ele><time>2017-5-18T7:42:5Z</time></trkpt>
<trkpt lat="46.059441" lon="6.103383"><ele></ele><time>2017-5-18T7:42:8Z</time></trkpt>
<trkpt lat="46.059472" lon="6.103590"><ele></ele><time>2017-5-18T7:42:11Z</time></trkpt>
<trkpt lat="46.059494" lon="6.103727"><ele></ele><time>2017-5-18T7:42:14Z</time></trkpt>
<trkpt lat="46.059498" lon="6.103751"><ele></ele><time>2017-5-18T7:42:17Z</time></trkpt>
<trkpt lat="46.059507" lon="6.103775"><ele></ele><time>2017-5-18T7:42:20Z</time></trkpt>
<trkpt lat="46.059515" lon="6.103805"><ele></ele><time>2017-5-18T7:42:23Z</time></trkpt>
<trkpt lat="46.059523" lon="6.103834"><ele></ele><time>2017-5-18T7:42:26Z</time></trkpt>
<trkpt lat="46.059529" lon="6.103862"><ele></ele><time>2017-5-18T7:42:29Z</time></trkpt>
<trkpt lat="46.059535" lon="6.103888"><ele></ele><time>2017-5-18T7:42:32Z</time></trkpt>
<trkpt lat="46.059608" lon="6.104124"><ele></ele><time>2017-5-18T7:42:35Z</time></trkpt>
<trkpt lat="46.059651" lon="6.104396"><ele></ele><time>2017-5-18T7:42:38Z</time></trkpt>
<trkpt lat="46.059716" lon="6.104828"><ele></ele><time>2017-5-18T7:42:41Z</time></trkpt>
<trkpt lat="46.059835" lon="6.105190"><ele></ele><time>2017-5-18T7:42:44Z</time></trkpt>
<trkpt lat="46.059912" lon="6.105432"><ele></ele><time>2017-5-18T7:42:47Z</time></trkpt>
<trkpt lat="46.059921" lon="6.105830"><ele></ele><time>2017-5-18T7:42:50Z</time></trkpt>
<trkpt lat="46.059938" lon="6.106184"><ele></ele><time>2017-5-18T7:42:53Z</time></trkpt>
<trkpt lat="46.059926" lon="6.106397"><ele></ele><time>2017-5-18T7:42:56Z</time></trkpt>
<trkpt lat="46.059935" lon="6.106421"><ele></ele><time>2017-5-18T7:42:59Z</time></trkpt>
<trkpt lat="46.059947" lon="6.106459"><ele></ele><time>2017-5-18T7:43:2Z</time></trkpt>
<trkpt lat="46.059954" lon="6.106502"><ele></ele><time>2017-5-18T7:43:5Z</time></trkpt>
<trkpt lat="46.059959" lon="6.106539"><ele></ele><time>2017-5-18T7:43:8Z</time></trkpt>
<trkpt lat="46.059965" lon="6.106587"><ele></ele><time>2017-5-18T7:43:11Z</time></trkpt>
<trkpt lat="46.059972" lon="6.106631"><ele></ele><time>2017-5-18T7:43:14Z</time></trkpt>
<trkpt lat="46.060020" lon="6.106862"><ele></ele><time>2017-5-18T7:43:17Z</time></trkpt>
<trkpt lat="46.060047" lon="6.107091"><ele></ele><time>2017-5-18T7:43:20Z</time></trkpt>
<trkpt lat="46.060052" lon="6.107169"><ele></ele><time>2017-5-18T7:43:23Z</time></trkpt>
<trkpt lat="46.060062" lon="6.107250"><ele></ele><time>2017-5-18T7:43:26Z</time></trkpt>
<trkpt lat="46.060076" lon="6.107326"><ele></ele><time>2017-5-18T7:43:29Z</time></trkpt>
<trkpt lat="46.060096" lon="6.107404"><ele></ele><time>2017-5-18T7:43:32Z</time></trkpt>
<trkpt lat="46.060116" lon="6.107473"><ele></ele><time>2017-5-18T7:43:35Z</time></trkpt>
<trkpt lat="46.060142" lon="6.107542"><ele></ele><time>2017-5-18T7:43:38Z</time></trkpt>
<trkpt lat="46.060193" lon="6.107674"><ele></ele><time>2017-5-18T7:43:41Z</time></trkpt>
<trkpt lat="46.060218" lon="6.107731"><ele></ele><time>2017-5-18T7:43:44Z</time></trkpt>
<trkpt lat="46.060245" lon="6.107783"><ele></ele><time>2017-5-18T7:43:47Z</time></trkpt>
<trkpt lat="46.060275" lon="6.107825"><ele></ele><time>2017-5-18T7:43:50Z</time></trkpt>
<trkpt lat="46.060310" lon="6.107862"><ele></ele><time>2017-5-18T7:43:53Z</time></trkpt>
<trkpt lat="46.060345" lon="6.107899"><ele></ele><time>2017-5-18T7:43:56Z</time></trkpt>
<trkpt lat="46.060378" lon="6.107940"><ele></ele><time>2017-5-18T7:43:59Z</time></trkpt>
<trkpt lat="46.060501" lon="6.108236"><ele></ele><time>2017-5-18T7:44:2Z</time></trkpt>
<trkpt lat="46.060531" lon="6.108642"><ele></ele><time>2017-5-18T7:44:5Z</time></trkpt>
<trkpt lat="46.060525" lon="6.108858"><ele></ele><time>2017-5-18T7:44:8Z</time></trkpt>
<trkpt lat="46.060539" lon="6.109054"><ele></ele><time>2017-5-18T7:44:11Z</time></trkpt>
<trkpt lat="46.060550" lon="6.109126"><ele></ele><time>2017-5-18T7:44:14Z</time></trkpt>
<trkpt lat="46.060558" lon="6.109182"><ele></ele><time>2017-5-18T7:44:17Z</time></trkpt>
<trkpt lat="46.060615" lon="6.109452"><ele></ele><time>2017-5-18T7:44:20Z</time></trkpt>
<trkpt lat="46.060634" lon="6.109526"><ele></ele><time>2017-5-18T7:44:23Z</time></trkpt>
<trkpt lat="46.060777" lon="6.110037"><ele></ele><time>2017-5-18T7:44:26Z</time></trkpt>
<trkpt lat="46.060811" lon="6.110115"><ele></ele><time>2017-5-18T7:44:29Z</time></trkpt>
<trkpt lat="46.060871" lon="6.110254"><ele></ele><time>2017-5-18T7:44:32Z</time></trkpt>
<trkpt lat="46.060892" lon="6.110328"><ele></ele><time>2017-5-18T7:44:35Z</time></trkpt>
<trkpt lat="46.060908" lon="6.110407"><ele></ele><time>2017-5-18T7:44:38Z</time></trkpt>
<trkpt lat="46.060919" lon="6.110490"><ele></ele><time>2017-5-18T7:44:41Z</time></trkpt>
<trkpt lat="46.060926" lon="6.110574"><ele></ele><time>2017-5-18T7:44:44Z</time></trkpt>
<trkpt lat="46.060937" lon="6.110663"><ele></ele><time>2017-5-18T7:44:47Z</time></trkpt>
<trkpt lat="46.060954" lon="6.110753"><ele></ele><time>2017-5-18T7:44:50Z</time></trkpt>
<trkpt lat="46.060972" lon="6.110846"><ele></ele><time>2017-5-18T7:44:53Z</time></trkpt>
<trkpt lat="46.060993" lon="6.111024"><ele></ele><time>2017-5-18T7:44:56Z</time></trkpt>
<trkpt lat="46.060997" lon="6.111197"><ele></ele><time>2017-5-18T7:44:59Z</time></trkpt>
<trkpt lat="46.060994" lon="6.111274"><ele></ele><time>2017-5-18T7:45:2Z</time></trkpt>
<trkpt lat="46.060985" lon="6.111342"><ele></ele><time>2017-5-18T7:45:5Z</time></trkpt>
<trkpt lat="46.060966" lon="6.111391"><ele></ele><time>2017-5-18T7:45:8Z</time></trkpt>
<trkpt lat="46.060927" lon="6.111417"><ele></ele><time>2017-5-18T7:45:11Z</time></trkpt>
<trkpt lat="46.060894" lon="6.111425"><ele></ele><time>2017-5-18T7:45:14Z</time></trkpt>
<trkpt lat="46.060853" lon="6.111430"><ele></ele><time>2017-5-18T7:45:17Z</time></trkpt>
<trkpt lat="46.060770" lon="6.111436"><ele></ele><time>2017-5-18T7:45:20Z</time></trkpt>
<trkpt lat="46.060731" lon="6.111434"><ele></ele><time>2017-5-18T7:45:23Z</time></trkpt>
<trkpt lat="46.060591" lon="6.111349"><ele></ele><time>2017-5-18T7:45:26Z</time></trkpt>
<trkpt lat="46.060520" lon="6.111276"><ele></ele><time>2017-5-18T7:45:29Z</time></trkpt>
<trkpt lat="46.060434" lon="6.111226"><ele></ele><time>2017-5-18T7:45:32Z</time></trkpt>
<trkpt lat="46.060190" lon="6.111107"><ele></ele><time>2017-5-18T7:45:35Z</time></trkpt>
<trkpt lat="46.059945" lon="6.110865"><ele></ele><time>2017-5-18T7:45:38Z</time></trkpt>
<trkpt lat="46.059920" lon="6.110815"><ele></ele><time>2017-5-18T7:45:41Z</time></trkpt>
<trkpt lat="46.059900" lon="6.110764"><ele></ele><time>2017-5-18T7:45:44Z</time></trkpt>
<trkpt lat="46.059888" lon="6.110712"><ele></ele><time>2017-5-18T7:45:47Z</time></trkpt>
<trkpt lat="46.059877" lon="6.110666"><ele></ele><time>2017-5-18T7:45:50Z</time></trkpt>
<trkpt lat="46.059833" lon="6.110429"><ele></ele><time>2017-5-18T7:45:53Z</time></trkpt>
<trkpt lat="46.059815" lon="6.110356"><ele></ele><time>2017-5-18T7:45:56Z</time></trkpt>
<trkpt lat="46.059795" lon="6.110287"><ele></ele><time>2017-5-18T7:45:59Z</time></trkpt>
<trkpt lat="46.059708" lon="6.110062"><ele></ele><time>2017-5-18T7:46:2Z</time></trkpt>
<trkpt lat="46.059669" lon="6.109994"><ele></ele><time>2017-5-18T7:46:5Z</time></trkpt>
<trkpt lat="46.059624" lon="6.109937"><ele></ele><time>2017-5-18T7:46:8Z</time></trkpt>
<trkpt lat="46.059574" lon="6.109887"><ele></ele><time>2017-5-18T7:46:11Z</time></trkpt>
<trkpt lat="46.059515" lon="6.109844"><ele></ele><time>2017-5-18T7:46:14Z</time></trkpt>
<trkpt lat="46.059454" lon="6.109803"><ele></ele><time>2017-5-18T7:46:17Z</time></trkpt>
<trkpt lat="46.059397" lon="6.109754"><ele></ele><time>2017-5-18T7:46:20Z</time></trkpt>
<trkpt lat="46.059128" lon="6.109516"><ele></ele><time>2017-5-18T7:46:23Z</time></trkpt>
<trkpt lat="46.059098" lon="6.109457"><ele></ele><time>2017-5-18T7:46:26Z</time></trkpt>
<trkpt lat="46.059036" lon="6.109295"><ele></ele><time>2017-5-18T7:46:29Z</time></trkpt>
<trkpt lat="46.058820" lon="6.108921"><ele></ele><time>2017-5-18T7:46:32Z</time></trkpt>
<trkpt lat="46.058661" lon="6.108766"><ele></ele><time>2017-5-18T7:46:35Z</time></trkpt>
<trkpt lat="46.058622" lon="6.108720"><ele></ele><time>2017-5-18T7:46:38Z</time></trkpt>
<trkpt lat="46.058579" lon="6.108668"><ele></ele><time>2017-5-18T7:46:41Z</time></trkpt>
<trkpt lat="46.058450" lon="6.108506"><ele></ele><time>2017-5-18T7:46:44Z</time></trkpt>
<trkpt lat="46.058409" lon="6.108454"><ele></ele><time>2017-5-18T7:46:47Z</time></trkpt>
<trkpt lat="46.058221" lon="6.108238"><ele></ele><time>2017-5-18T7:46:50Z</time></trkpt>
<trkpt lat="46.058178" lon="6.108169"><ele></ele><time>2017-5-18T7:46:53Z</time></trkpt>
<trkpt lat="46.058133" lon="6.108094"><ele></ele><time>2017-5-18T7:46:56Z</time></trkpt>
<trkpt lat="46.057994" lon="6.107866"><ele></ele><time>2017-5-18T7:46:59Z</time></trkpt>
<trkpt lat="46.057964" lon="6.107781"><ele></ele><time>2017-5-18T7:47:2Z</time></trkpt>
<trkpt lat="46.057856" lon="6.107407"><ele></ele><time>2017-5-18T7:47:5Z</time></trkpt>
<trkpt lat="46.057816" lon="6.107334"><ele></ele><time>2017-5-18T7:47:8Z</time></trkpt>
<trkpt lat="46.057765" lon="6.107271"><ele></ele><time>2017-5-18T7:47:11Z</time></trkpt>
<trkpt lat="46.057666" lon="6.107165"><ele></ele><time>2017-5-18T7:47:14Z</time></trkpt>
<trkpt lat="46.057624" lon="6.107106"><ele></ele><time>2017-5-18T7:47:17Z</time></trkpt>
<trkpt lat="46.057591" lon="6.107048"><ele></ele><time>2017-5-18T7:47:20Z</time></trkpt>
<trkpt lat="46.057539" lon="6.106933"><ele></ele><time>2017-5-18T7:47:23Z</time></trkpt>
<trkpt lat="46.057528" lon="6.106870"><ele></ele><time>2017-5-18T7:47:26Z</time></trkpt>
<trkpt lat="46.057506" lon="6.106691"><ele></ele><time>2017-5-18T7:47:29Z</time></trkpt>
<trkpt lat="46.057484" lon="6.106626"><ele></ele><time>2017-5-18T7:47:32Z</time></trkpt>
<trkpt lat="46.057462" lon="6.106564"><ele></ele><time>2017-5-18T7:47:35Z</time></trkpt>
<trkpt lat="46.057441" lon="6.106507"><ele></ele><time>2017-5-18T7:47:38Z</time></trkpt>
<trkpt lat="46.057418" lon="6.106459"><ele></ele><time>2017-5-18T7:47:41Z</time></trkpt>
<trkpt lat="46.057395" lon="6.106415"><ele></ele><time>2017-5-18T7:47:44Z</time></trkpt>
<trkpt lat="46.057370" lon="6.106375"><ele></ele><time>2017-5-18T7:47:47Z</time></trkpt>
<trkpt lat="46.057346" lon="6.106332"><ele></ele><time>2017-5-18T7:47:50Z</time></trkpt>
<trkpt lat="46.057320" lon="6.106281"><ele></ele><time>2017-5-18T7:47:53Z</time></trkpt>
<trkpt lat="46.057299" lon="6.106242"><ele></ele><time>2017-5-18T7:47:56Z</time></trkpt>
<trkpt lat="46.057285" lon="6.106202"><ele></ele><time>2017-5-18T7:47:59Z</time></trkpt>
<trkpt lat="46.057275" lon="6.106164"><ele></ele><time>2017-5-18T7:48:2Z</time></trkpt>
<trkpt lat="46.057267" lon="6.106127"><ele></ele><time>2017-5-18T7:48:5Z</time></trkpt>
<trkpt lat="46.057172" lon="6.105972"><ele></ele><time>2017-5-18T7:48:8Z</time></trkpt>
<trkpt lat="46.057038" lon="6.105787"><ele></ele><time>2017-5-18T7:48:11Z</time></trkpt>
<trkpt lat="46.056884" lon="6.105638"><ele></ele><time>2017-5-18T7:48:14Z</time></trkpt>
<trkpt lat="46.056845" lon="6.105598"><ele></ele><time>2017-5-18T7:48:17Z</time></trkpt>
<trkpt lat="46.056715" lon="6.105438"><ele></ele><time>2017-5-18T7:48:20Z</time></trkpt>
<trkpt lat="46.056591" lon="6.105349"><ele></ele><time>2017-5-18T7:48:23Z</time></trkpt>
<trkpt lat="46.056527" lon="6.105311"><ele></ele><time>2017-5-18T7:48:26Z</time></trkpt>
<trkpt lat="46.056476" lon="6.105269"><ele></ele><time>2017-5-18T7:48:29Z</time></trkpt>
<trkpt lat="46.056438" lon="6.105214"><ele></ele><time>2017-5-18T7:48:32Z</time></trkpt>
<trkpt lat="46.056419" lon="6.105150"><ele></ele><time>2017-5-18T7:48:35Z</time></trkpt>
<trkpt lat="46.056409" lon="6.105086"><ele></ele><time>2017-5-18T7:48:38Z</time></trkpt>
<trkpt lat="46.056402" lon="6.105016"><ele></ele><time>2017-5-18T7:48:41Z</time></trkpt>
<trkpt lat="46.056367" lon="6.104672"><ele></ele><time>2017-5-18T7:48:44Z</time></trkpt>
<trkpt lat="46.056369" lon="6.104603"><ele></ele><time>2017-5-18T7:48:47Z</time></trkpt>
<trkpt lat="46.056370" lon="6.104533"><ele></ele><time>2017-5-18T7:48:50Z</time></trkpt>
<trkpt lat="46.056367" lon="6.104463"><ele></ele><time>2017-5-18T7:48:53Z</time></trkpt>
<trkpt lat="46.056360" lon="6.104394"><ele></ele><time>2017-5-18T7:48:56Z</time></trkpt>
<trkpt lat="46.056345" lon="6.104324"><ele></ele><time>2017-5-18T7:48:59Z</time></trkpt>
<trkpt lat="46.056321" lon="6.104259"><ele></ele><time>2017-5-18T7:49:2Z</time></trkpt>
<trkpt lat="46.056294" lon="6.104200"><ele></ele><time>2017-5-18T7:49:5Z</time></trkpt>
<trkpt lat="46.056265" lon="6.104142"><ele></ele><time>2017-5-18T7:49:8Z</time></trkpt>
<trkpt lat="46.056231" lon="6.104075"><ele></ele><time>2017-5-18T7:49:11Z</time></trkpt>
<trkpt lat="46.056200" lon="6.104001"><ele></ele><time>2017-5-18T7:49:14Z</time></trkpt>
<trkpt lat="46.056145" lon="6.103851"><ele></ele><time>2017-5-18T7:49:17Z</time></trkpt>
<trkpt lat="46.056115" lon="6.103799"><ele></ele><time>2017-5-18T7:49:20Z</time></trkpt>
<trkpt lat="46.056082" lon="6.103769"><ele></ele><time>2017-5-18T7:49:23Z</time></trkpt>
<trkpt lat="46.056047" lon="6.103763"><ele></ele><time>2017-5-18T7:49:26Z</time></trkpt>
<trkpt lat="46.056001" lon="6.103772"><ele></ele><time>2017-5-18T7:49:29Z</time></trkpt>
<trkpt lat="46.055978" lon="6.103784"><ele></ele><time>2017-5-18T7:49:32Z</time></trkpt>
<trkpt lat="46.055938" lon="6.103813"><ele></ele><time>2017-5-18T7:49:35Z</time></trkpt>
<trkpt lat="46.055888" lon="6.103824"><ele></ele><time>2017-5-18T7:49:38Z</time></trkpt>
<trkpt lat="46.055839" lon="6.103833"><ele></ele><time>2017-5-18T7:49:41Z</time></trkpt>
<trkpt lat="46.055788" lon="6.103842"><ele></ele><time>2017-5-18T7:49:44Z</time></trkpt>
<trkpt lat="46.055735" lon="6.103862"><ele></ele><time>2017-5-18T7:49:47Z</time></trkpt>
<trkpt lat="46.055682" lon="6.103892"><ele></ele><time>2017-5-18T7:49:50Z</time></trkpt>
<trkpt lat="46.055634" lon="6.103933"><ele></ele><time>2017-5-18T7:49:53Z</time></trkpt>
<trkpt lat="46.055590" lon="6.103983"><ele></ele><time>2017-5-18T7:49:56Z</time></trkpt>
<trkpt lat="46.055550" lon="6.104040"><ele></ele><time>2017-5-18T7:49:59Z</time></trkpt>
<trkpt lat="46.055515" lon="6.104103"><ele></ele><time>2017-5-18T7:50:2Z</time></trkpt>
<trkpt lat="46.055485" lon="6.104163"><ele></ele><time>2017-5-18T7:50:5Z</time></trkpt>
<trkpt lat="46.055446" lon="6.104217"><ele></ele><time>2017-5-18T7:50:8Z</time></trkpt>
<trkpt lat="46.055405" lon="6.104263"><ele></ele><time>2017-5-18T7:50:11Z</time></trkpt>
<trkpt lat="46.055368" lon="6.104305"><ele></ele><time>2017-5-18T7:50:14Z</time></trkpt>
<trkpt lat="46.055232" lon="6.104373"><ele></ele><time>2017-5-18T7:50:17Z</time></trkpt>
<trkpt lat="46.055116" lon="6.104439"><ele></ele><time>2017-5-18T7:50:20Z</time></trkpt>
<trkpt lat="46.055036" lon="6.104517"><ele></ele><time>2017-5-18T7:50:23Z</time></trkpt>
<trkpt lat="46.054867" lon="6.104616"><ele></ele><time>2017-5-18T7:50:26Z</time></trkpt>
<trkpt lat="46.054827" lon="6.104598"><ele></ele><time>2017-5-18T7:50:29Z</time></trkpt>
<trkpt lat="46.054749" lon="6.104520"><ele></ele><time>2017-5-18T7:50:32Z</time></trkpt>
<trkpt lat="46.054395" lon="6.104278"><ele></ele><time>2017-5-18T7:50:35Z</time></trkpt>
<trkpt lat="46.054364" lon="6.104246"><ele></ele><time>2017-5-18T7:50:38Z</time></trkpt>
<trkpt lat="46.054334" lon="6.104195"><ele></ele><time>2017-5-18T7:50:41Z</time></trkpt>
<trkpt lat="46.054117" lon="6.103747"><ele></ele><time>2017-5-18T7:50:44Z</time></trkpt>
<trkpt lat="46.054074" lon="6.103693"><ele></ele><time>2017-5-18T7:50:47Z</time></trkpt>
<trkpt lat="46.053825" lon="6.103376"><ele></ele><time>2017-5-18T7:50:50Z</time></trkpt>
<trkpt lat="46.053558" lon="6.102958"><ele></ele><time>2017-5-18T7:50:53Z</time></trkpt>
<trkpt lat="46.053513" lon="6.102897"><ele></ele><time>2017-5-18T7:50:56Z</time></trkpt>
<trkpt lat="46.053467" lon="6.102850"><ele></ele><time>2017-5-18T7:50:59Z</time></trkpt>
<trkpt lat="46.053420" lon="6.102817"><ele></ele><time>2017-5-18T7:51:2Z</time></trkpt>
<trkpt lat="46.053369" lon="6.102791"><ele></ele><time>2017-5-18T7:51:5Z</time></trkpt>
<trkpt lat="46.053319" lon="6.102778"><ele></ele><time>2017-5-18T7:51:8Z</time></trkpt>
<trkpt lat="46.053274" lon="6.102782"><ele></ele><time>2017-5-18T7:51:11Z</time></trkpt>
<trkpt lat="46.053234" lon="6.102788"><ele></ele><time>2017-5-18T7:51:14Z</time></trkpt>
<trkpt lat="46.053199" lon="6.102790"><ele></ele><time>2017-5-18T7:51:17Z</time></trkpt>
<trkpt lat="46.052980" lon="6.102814"><ele></ele><time>2017-5-18T7:51:20Z</time></trkpt>
<trkpt lat="46.052822" lon="6.102802"><ele></ele><time>2017-5-18T7:51:23Z</time></trkpt>
<trkpt lat="46.052723" lon="6.102796"><ele></ele><time>2017-5-18T7:51:26Z</time></trkpt>
<trkpt lat="46.052698" lon="6.102771"><ele></ele><time>2017-5-18T7:51:29Z</time></trkpt>
<trkpt lat="46.052660" lon="6.102772"><ele></ele><time>2017-5-18T7:51:32Z</time></trkpt>
<trkpt lat="46.052648" lon="6.102771"><ele></ele><time>2017-5-18T7:51:35Z</time></trkpt>
<trkpt lat="46.052630" lon="6.102773"><ele></ele><time>2017-5-18T7:51:38Z</time></trkpt>
<trkpt lat="46.052617" lon="6.102785"><ele></ele><time>2017-5-18T7:51:41Z</time></trkpt>
<trkpt lat="46.052611" lon="6.102789"><ele></ele><time>2017-5-18T7:51:44Z</time></trkpt>
<trkpt lat="46.052647" lon="6.102799"><ele></ele><time>2017-5-18T7:51:47Z</time></trkpt>
<trkpt lat="46.052641" lon="6.102801"><ele></ele><time>2017-5-18T7:51:50Z</time></trkpt>
<trkpt lat="46.052630" lon="6.102826"><ele></ele><time>2017-5-18T7:51:53Z</time></trkpt>
<trkpt lat="46.052614" lon="6.102838"><ele></ele><time>2017-5-18T7:51:56Z</time></trkpt>
<trkpt lat="46.052505" lon="6.102900"><ele></ele><time>2017-5-18T7:51:59Z</time></trkpt>
<trkpt lat="46.052382" lon="6.102959"><ele></ele><time>2017-5-18T7:52:2Z</time></trkpt>
<trkpt lat="46.052200" lon="6.102902"><ele></ele><time>2017-5-18T7:52:5Z</time></trkpt>
<trkpt lat="46.052029" lon="6.102935"><ele></ele><time>2017-5-18T7:52:8Z</time></trkpt>
<trkpt lat="46.051833" lon="6.103017"><ele></ele><time>2017-5-18T7:52:11Z</time></trkpt>
<trkpt lat="46.051680" lon="6.102990"><ele></ele><time>2017-5-18T7:52:14Z</time></trkpt>
<trkpt lat="46.051656" lon="6.102990"><ele></ele><time>2017-5-18T7:52:17Z</time></trkpt>
<trkpt lat="46.051632" lon="6.102992"><ele></ele><time>2017-5-18T7:52:20Z</time></trkpt>
<trkpt lat="46.051609" lon="6.102993"><ele></ele><time>2017-5-18T7:52:23Z</time></trkpt>
<trkpt lat="46.051586" lon="6.102994"><ele></ele><time>2017-5-18T7:52:26Z</time></trkpt>
<trkpt lat="46.051565" lon="6.103002"><ele></ele><time>2017-5-18T7:52:29Z</time></trkpt>
<trkpt lat="46.051544" lon="6.103010"><ele></ele><time>2017-5-18T7:52:32Z</time></trkpt>
<trkpt lat="46.051520" lon="6.103020"><ele></ele><time>2017-5-18T7:52:35Z</time></trkpt>
<trkpt lat="46.051497" lon="6.103035"><ele></ele><time>2017-5-18T7:52:38Z</time></trkpt>
<trkpt lat="46.051477" lon="6.103050"><ele></ele><time>2017-5-18T7:52:41Z</time></trkpt>
<trkpt lat="46.051417" lon="6.103079"><ele></ele><time>2017-5-18T7:52:44Z</time></trkpt>
<trkpt lat="46.051327" lon="6.103069"><ele></ele><time>2017-5-18T7:52:47Z</time></trkpt>
<trkpt lat="46.051288" lon="6.103078"><ele></ele><time>2017-5-18T7:52:50Z</time></trkpt>
<trkpt lat="46.051141" lon="6.103036"><ele></ele><time>2017-5-18T7:52:53Z</time></trkpt>
<trkpt lat="46.051109" lon="6.103029"><ele></ele><time>2017-5-18T7:52:56Z</time></trkpt>
<trkpt lat="46.051071" lon="6.103037"><ele></ele><time>2017-5-18T7:52:59Z</time></trkpt>
<trkpt lat="46.050989" lon="6.103073"><ele></ele><time>2017-5-18T7:53:2Z</time></trkpt>
<trkpt lat="46.050941" lon="6.103091"><ele></ele><time>2017-5-18T7:53:5Z</time></trkpt>
<trkpt lat="46.050897" lon="6.103116"><ele></ele><time>2017-5-18T7:53:8Z</time></trkpt>
<trkpt lat="46.050861" lon="6.103144"><ele></ele><time>2017-5-18T7:53:11Z</time></trkpt>
<trkpt lat="46.050832" lon="6.103179"><ele></ele><time>2017-5-18T7:53:14Z</time></trkpt>
<trkpt lat="46.050807" lon="6.103220"><ele></ele><time>2017-5-18T7:53:17Z</time></trkpt>
<trkpt lat="46.050785" lon="6.103264"><ele></ele><time>2017-5-18T7:53:20Z</time></trkpt>
<trkpt lat="46.050765" lon="6.103310"><ele></ele><time>2017-5-18T7:53:23Z</time></trkpt>
<trkpt lat="46.050746" lon="6.103360"><ele></ele><time>2017-5-18T7:53:26Z</time></trkpt>
<trkpt lat="46.050736" lon="6.103404"><ele></ele><time>2017-5-18T7:53:29Z</time></trkpt>
<trkpt lat="46.050726" lon="6.103445"><ele></ele><time>2017-5-18T7:53:32Z</time></trkpt>
<trkpt lat="46.050716" lon="6.103489"><ele></ele><time>2017-5-18T7:53:35Z</time></trkpt>
<trkpt lat="46.050713" lon="6.103529"><ele></ele><time>2017-5-18T7:53:38Z</time></trkpt>
<trkpt lat="46.050713" lon="6.103559"><ele></ele><time>2017-5-18T7:53:41Z</time></trkpt>
<trkpt lat="46.050712" lon="6.103589"><ele></ele><time>2017-5-18T7:53:44Z</time></trkpt>
<trkpt lat="46.050711" lon="6.103626"><ele></ele><time>2017-5-18T7:53:47Z</time></trkpt>
<trkpt lat="46.050623" lon="6.103844"><ele></ele><time>2017-5-18T7:53:50Z</time></trkpt>
<trkpt lat="46.050528" lon="6.103954"><ele></ele><time>2017-5-18T7:53:53Z</time></trkpt>
<trkpt lat="46.050373" lon="6.104050"><ele></ele><time>2017-5-18T7:53:56Z</time></trkpt>
<trkpt lat="46.050353" lon="6.104068"><ele></ele><time>2017-5-18T7:53:59Z</time></trkpt>
<trkpt lat="46.050317" lon="6.104095"><ele></ele><time>2017-5-18T7:54:2Z</time></trkpt>
<trkpt lat="46.050274" lon="6.104115"><ele></ele><time>2017-5-18T7:54:5Z</time></trkpt>
<trkpt lat="46.050256" lon="6.104127"><ele></ele><time>2017-5-18T7:54:8Z</time></trkpt>
<trkpt lat="46.050147" lon="6.104193"><ele></ele><time>2017-5-18T7:54:11Z</time></trkpt>
<trkpt lat="46.050132" lon="6.104205"><ele></ele><time>2017-5-18T7:54:14Z</time></trkpt>
<trkpt lat="46.050074" lon="6.104255"><ele></ele><time>2017-5-18T7:54:17Z</time></trkpt>
<trkpt lat="46.050002" lon="6.104365"><ele></ele><time>2017-5-18T7:54:20Z</time></trkpt>
<trkpt lat="46.049992" lon="6.104414"><ele></ele><time>2017-5-18T7:54:23Z</time></trkpt>
<trkpt lat="46.050013" lon="6.104410"><ele></ele><time>2017-5-18T7:54:26Z</time></trkpt>
<trkpt lat="46.050021" lon="6.104374"><ele></ele><time>2017-5-18T7:54:29Z</time></trkpt>
<trkpt lat="46.050020" lon="6.104378"><ele></ele><time>2017-5-18T7:54:32Z</time></trkpt>
<trkpt lat="46.050010" lon="6.104435"><ele></ele><time>2017-5-18T7:54:35Z</time></trkpt>
<trkpt lat="46.049980" lon="6.104427"><ele></ele><time>2017-5-18T7:54:38Z</time></trkpt>
<trkpt lat="46.049966" lon="6.104455"><ele></ele><time>2017-5-18T7:54:41Z</time></trkpt>
<trkpt lat="46.049895" lon="6.104485"><ele></ele><time>2017-5-18T7:54:44Z</time></trkpt>
<trkpt lat="46.049876" lon="6.104527"><ele></ele><time>2017-5-18T7:54:47Z</time></trkpt>
<trkpt lat="46.049895" lon="6.104509"><ele></ele><time>2017-5-18T7:54:50Z</time></trkpt>
<trkpt lat="46.049910" lon="6.104496"><ele></ele><time>2017-5-18T7:54:53Z</time></trkpt>
<trkpt lat="46.049925" lon="6.104483"><ele></ele><time>2017-5-18T7:54:56Z</time></trkpt>
<trkpt lat="46.049951" lon="6.104470"><ele></ele><time>2017-5-18T7:54:59Z</time></trkpt>
<trkpt lat="46.049911" lon="6.104500"><ele></ele><time>2017-5-18T7:55:2Z</time></trkpt>
<trkpt lat="46.049812" lon="6.104563"><ele></ele><time>2017-5-18T7:55:5Z</time></trkpt>
<trkpt lat="46.049716" lon="6.104620"><ele></ele><time>2017-5-18T7:55:8Z</time></trkpt>
<trkpt lat="46.049587" lon="6.104792"><ele></ele><time>2017-5-18T7:55:11Z</time></trkpt>
<trkpt lat="46.049514" lon="6.104987"><ele></ele><time>2017-5-18T7:55:14Z</time></trkpt>
<trkpt lat="46.049476" lon="6.105045"><ele></ele><time>2017-5-18T7:55:17Z</time></trkpt>
<trkpt lat="46.049451" lon="6.105095"><ele></ele><time>2017-5-18T7:55:20Z</time></trkpt>
<trkpt lat="46.049430" lon="6.105112"><ele></ele><time>2017-5-18T7:55:23Z</time></trkpt>
<trkpt lat="46.049435" lon="6.105113"><ele></ele><time>2017-5-18T7:55:26Z</time></trkpt>
<trkpt lat="46.049421" lon="6.105126"><ele></ele><time>2017-5-18T7:55:29Z</time></trkpt>
<trkpt lat="46.049414" lon="6.105154"><ele></ele><time>2017-5-18T7:55:32Z</time></trkpt>
<trkpt lat="46.049399" lon="6.105133"><ele></ele><time>2017-5-18T7:55:35Z</time></trkpt>
<trkpt lat="46.049388" lon="6.105119"><ele></ele><time>2017-5-18T7:55:38Z</time></trkpt>
<trkpt lat="46.049378" lon="6.105106"><ele></ele><time>2017-5-18T7:55:41Z</time></trkpt>
<trkpt lat="46.049364" lon="6.105094"><ele></ele><time>2017-5-18T7:55:44Z</time></trkpt>
<trkpt lat="46.049346" lon="6.105078"><ele></ele><time>2017-5-18T7:55:47Z</time></trkpt>
<trkpt lat="46.049327" lon="6.105068"><ele></ele><time>2017-5-18T7:55:50Z</time></trkpt>
<trkpt lat="46.049310" lon="6.105066"><ele></ele><time>2017-5-18T7:55:53Z</time></trkpt>
<trkpt lat="46.049150" lon="6.105014"><ele></ele><time>2017-5-18T7:55:56Z</time></trkpt>
<trkpt lat="46.049136" lon="6.105001"><ele></ele><time>2017-5-18T7:55:59Z</time></trkpt>
<trkpt lat="46.049128" lon="6.104983"><ele></ele><time>2017-5-18T7:56:2Z</time></trkpt>
<trkpt lat="46.049119" lon="6.104962"><ele></ele><time>2017-5-18T7:56:5Z</time></trkpt>
<trkpt lat="46.049106" lon="6.104940"><ele></ele><time>2017-5-18T7:56:8Z</time></trkpt>
<trkpt lat="46.049085" lon="6.104916"><ele></ele><time>2017-5-18T7:56:11Z</time></trkpt>
<trkpt lat="46.049054" lon="6.104896"><ele></ele><time>2017-5-18T7:56:14Z</time></trkpt>
<trkpt lat="46.049027" lon="6.104889"><ele></ele><time>2017-5-18T7:56:17Z</time></trkpt>
<trkpt lat="46.048995" lon="6.104879"><ele></ele><time>2017-5-18T7:56:20Z</time></trkpt>
<trkpt lat="46.048959" lon="6.104873"><ele></ele><time>2017-5-18T7:56:23Z</time></trkpt>
<trkpt lat="46.048917" lon="6.104868"><ele></ele><time>2017-5-18T7:56:26Z</time></trkpt>
<trkpt lat="46.048876" lon="6.104856"><ele></ele><time>2017-5-18T7:56:29Z</time></trkpt>
<trkpt lat="46.048840" lon="6.104844"><ele></ele><time>2017-5-18T7:56:32Z</time></trkpt>
<trkpt lat="46.048804" lon="6.104836"><ele></ele><time>2017-5-18T7:56:35Z</time></trkpt>
<trkpt lat="46.048767" lon="6.104829"><ele></ele><time>2017-5-18T7:56:38Z</time></trkpt>
<trkpt lat="46.048556" lon="6.104779"><ele></ele><time>2017-5-18T7:56:41Z</time></trkpt>
<trkpt lat="46.048444" lon="6.104761"><ele></ele><time>2017-5-18T7:56:44Z</time></trkpt>
<trkpt lat="46.048440" lon="6.104760"><ele></ele><time>2017-5-18T7:56:47Z</time></trkpt>
<trkpt lat="46.048442" lon="6.104751"><ele></ele><time>2017-5-18T7:56:50Z</time></trkpt>
<trkpt lat="46.048420" lon="6.104752"><ele></ele><time>2017-5-18T7:56:53Z</time></trkpt>
<trkpt lat="46.048406" lon="6.104778"><ele></ele><time>2017-5-18T7:56:56Z</time></trkpt>
<trkpt lat="46.048392" lon="6.104790"><ele></ele><time>2017-5-18T7:56:59Z</time></trkpt>
<trkpt lat="46.048377" lon="6.104808"><ele></ele><time>2017-5-18T7:57:2Z</time></trkpt>
<trkpt lat="46.048363" lon="6.104831"><ele></ele><time>2017-5-18T7:57:5Z</time></trkpt>
<trkpt lat="46.048350" lon="6.104853"><ele></ele><time>2017-5-18T7:57:8Z</time></trkpt>
<trkpt lat="46.048275" lon="6.105028"><ele></ele><time>2017-5-18T7:57:11Z</time></trkpt>
<trkpt lat="46.048144" lon="6.105328"><ele></ele><time>2017-5-18T7:57:14Z</time></trkpt>
<trkpt lat="46.047988" lon="6.105710"><ele></ele><time>2017-5-18T7:57:17Z</time></trkpt>
<trkpt lat="46.047951" lon="6.105771"><ele></ele><time>2017-5-18T7:57:20Z</time></trkpt>
<trkpt lat="46.047866" lon="6.105888"><ele></ele><time>2017-5-18T7:57:23Z</time></trkpt>
<trkpt lat="46.047580" lon="6.106213"><ele></ele><time>2017-5-18T7:57:26Z</time></trkpt>
<trkpt lat="46.047304" lon="6.106611"><ele></ele><time>2017-5-18T7:57:29Z</time></trkpt>
<trkpt lat="46.047155" lon="6.106813"><ele></ele><time>2017-5-18T7:57:32Z</time></trkpt>
<trkpt lat="46.047101" lon="6.106868"><ele></ele><time>2017-5-18T7:57:35Z</time></trkpt>
<trkpt lat="46.047043" lon="6.106909"><ele></ele><time>2017-5-18T7:57:38Z</time></trkpt>
<trkpt lat="46.046983" lon="6.106936"><ele></ele><time>2017-5-18T7:57:41Z</time></trkpt>
<trkpt lat="46.046923" lon="6.106954"><ele></ele><time>2017-5-18T7:57:44Z</time></trkpt>
<trkpt lat="46.046869" lon="6.106966"><ele></ele><time>2017-5-18T7:57:47Z</time></trkpt>
<trkpt lat="46.046819" lon="6.106982"><ele></ele><time>2017-5-18T7:57:50Z</time></trkpt>
<trkpt lat="46.046774" lon="6.107006"><ele></ele><time>2017-5-18T7:57:53Z</time></trkpt>
<trkpt lat="46.046737" lon="6.107035"><ele></ele><time>2017-5-18T7:57:56Z</time></trkpt>
<trkpt lat="46.046704" lon="6.107067"><ele></ele><time>2017-5-18T7:57:59Z</time></trkpt>
<trkpt lat="46.046674" lon="6.107108"><ele></ele><time>2017-5-18T7:58:2Z</time></trkpt>
<trkpt lat="46.046651" lon="6.107156"><ele></ele><time>2017-5-18T7:58:5Z</time></trkpt>
<trkpt lat="46.046635" lon="6.107207"><ele></ele><time>2017-5-18T7:58:8Z</time></trkpt>
<trkpt lat="46.046620" lon="6.107252"><ele></ele><time>2017-5-18T7:58:11Z</time></trkpt>
<trkpt lat="46.046601" lon="6.107289"><ele></ele><time>2017-5-18T7:58:14Z</time></trkpt>
<trkpt lat="46.046580" lon="6.107304"><ele></ele><time>2017-5-18T7:58:17Z</time></trkpt>
<trkpt lat="46.046566" lon="6.107294"><ele></ele><time>2017-5-18T7:58:20Z</time></trkpt>
<trkpt lat="46.046560" lon="6.107270"><ele></ele><time>2017-5-18T7:58:23Z</time></trkpt>
<trkpt lat="46.046560" lon="6.107239"><ele></ele><time>2017-5-18T7:58:26Z</time></trkpt>
<trkpt lat="46.046566" lon="6.107200"><ele></ele><time>2017-5-18T7:58:29Z</time></trkpt>
<trkpt lat="46.046574" lon="6.107152"><ele></ele><time>2017-5-18T7:58:32Z</time></trkpt>
<trkpt lat="46.046626" lon="6.106801"><ele></ele><time>2017-5-18T7:58:35Z</time></trkpt>
<trkpt lat="46.046663" lon="6.106494"><ele></ele><time>2017-5-18T7:58:38Z</time></trkpt>
<trkpt lat="46.046665" lon="6.106366"><ele></ele><time>2017-5-18T7:58:41Z</time></trkpt>
<trkpt lat="46.046659" lon="6.106228"><ele></ele><time>2017-5-18T7:58:44Z</time></trkpt>
<trkpt lat="46.046645" lon="6.106088"><ele></ele><time>2017-5-18T7:58:47Z</time></trkpt>
<trkpt lat="46.046620" lon="6.105949"><ele></ele><time>2017-5-18T7:58:50Z</time></trkpt>
<trkpt lat="46.046590" lon="6.105807"><ele></ele><time>2017-5-18T7:58:53Z</time></trkpt>
<trkpt lat="46.046431" lon="6.104966"><ele></ele><time>2017-5-18T7:58:56Z</time></trkpt>
<trkpt lat="46.046428" lon="6.104833"><ele></ele><time>2017-5-18T7:58:59Z</time></trkpt>
<trkpt lat="46.046440" lon="6.104702"><ele></ele><time>2017-5-18T7:59:2Z</time></trkpt>
<trkpt lat="46.046485" lon="6.104319"><ele></ele><time>2017-5-18T7:59:5Z</time></trkpt>
<trkpt lat="46.046485" lon="6.104193"><ele></ele><time>2017-5-18T7:59:8Z</time></trkpt>
<trkpt lat="46.046479" lon="6.104061"><ele></ele><time>2017-5-18T7:59:11Z</time></trkpt>
<trkpt lat="46.046464" lon="6.103932"><ele></ele><time>2017-5-18T7:59:14Z</time></trkpt>
<trkpt lat="46.046441" lon="6.103807"><ele></ele><time>2017-5-18T7:59:17Z</time></trkpt>
<trkpt lat="46.046412" lon="6.103686"><ele></ele><time>2017-5-18T7:59:20Z</time></trkpt>
<trkpt lat="46.046291" lon="6.102920"><ele></ele><time>2017-5-18T7:59:23Z</time></trkpt>
<trkpt lat="46.046327" lon="6.102134"><ele></ele><time>2017-5-18T7:59:26Z</time></trkpt>
<trkpt lat="46.046508" lon="6.101310"><ele></ele><time>2017-5-18T7:59:29Z</time></trkpt>
<trkpt lat="46.046671" lon="6.100687"><ele></ele><time>2017-5-18T7:59:32Z</time></trkpt>
<trkpt lat="46.046786" lon="6.100303"><ele></ele><time>2017-5-18T7:59:35Z</time></trkpt>
<trkpt lat="46.046801" lon="6.100212"><ele></ele><time>2017-5-18T7:59:38Z</time></trkpt>
<trkpt lat="46.046805" lon="6.100124"><ele></ele><time>2017-5-18T7:59:41Z</time></trkpt>
<trkpt lat="46.046803" lon="6.099961"><ele></ele><time>2017-5-18T7:59:44Z</time></trkpt>
<trkpt lat="46.046812" lon="6.099881"><ele></ele><time>2017-5-18T7:59:47Z</time></trkpt>
<trkpt lat="46.046823" lon="6.099803"><ele></ele><time>2017-5-18T7:59:50Z</time></trkpt>
<trkpt lat="46.046856" lon="6.099561"><ele></ele><time>2017-5-18T7:59:53Z</time></trkpt>
<trkpt lat="46.046876" lon="6.099477"><ele></ele><time>2017-5-18T7:59:56Z</time></trkpt>
<trkpt lat="46.047028" lon="6.098945"><ele></ele><time>2017-5-18T7:59:59Z</time></trkpt>
<trkpt lat="46.047079" lon="6.098781"><ele></ele><time>2017-5-18T8:0:2Z</time></trkpt>
<trkpt lat="46.047120" lon="6.098704"><ele></ele><time>2017-5-18T8:0:5Z</time></trkpt>
<trkpt lat="46.047203" lon="6.098560"><ele></ele><time>2017-5-18T8:0:8Z</time></trkpt>
<trkpt lat="46.047237" lon="6.098479"><ele></ele><time>2017-5-18T8:0:11Z</time></trkpt>
<trkpt lat="46.047264" lon="6.098398"><ele></ele><time>2017-5-18T8:0:14Z</time></trkpt>
<trkpt lat="46.047288" lon="6.098307"><ele></ele><time>2017-5-18T8:0:17Z</time></trkpt>
<trkpt lat="46.047309" lon="6.098219"><ele></ele><time>2017-5-18T8:0:20Z</time></trkpt>
<trkpt lat="46.047338" lon="6.098130"><ele></ele><time>2017-5-18T8:0:23Z</time></trkpt>
<trkpt lat="46.047375" lon="6.098046"><ele></ele><time>2017-5-18T8:0:26Z</time></trkpt>
<trkpt lat="46.047417" lon="6.097966"><ele></ele><time>2017-5-18T8:0:29Z</time></trkpt>
<trkpt lat="46.047548" lon="6.097717"><ele></ele><time>2017-5-18T8:0:32Z</time></trkpt>
<trkpt lat="46.047600" lon="6.097649"><ele></ele><time>2017-5-18T8:0:35Z</time></trkpt>
<trkpt lat="46.047867" lon="6.097282"><ele></ele><time>2017-5-18T8:0:38Z</time></trkpt>
<trkpt lat="46.047974" lon="6.097136"><ele></ele><time>2017-5-18T8:0:41Z</time></trkpt>
<trkpt lat="46.048095" lon="6.096913"><ele></ele><time>2017-5-18T8:0:44Z</time></trkpt>
<trkpt lat="46.048122" lon="6.096833"><ele></ele><time>2017-5-18T8:0:47Z</time></trkpt>
<trkpt lat="46.048257" lon="6.096406"><ele></ele><time>2017-5-18T8:0:50Z</time></trkpt>
<trkpt lat="46.048300" lon="6.096330"><ele></ele><time>2017-5-18T8:0:53Z</time></trkpt>
<trkpt lat="46.048343" lon="6.096276"><ele></ele><time>2017-5-18T8:0:56Z</time></trkpt>
<trkpt lat="46.048391" lon="6.096235"><ele></ele><time>2017-5-18T8:0:59Z</time></trkpt>
<trkpt lat="46.048447" lon="6.096195"><ele></ele><time>2017-5-18T8:1:2Z</time></trkpt>
<trkpt lat="46.048502" lon="6.096165"><ele></ele><time>2017-5-18T8:1:5Z</time></trkpt>
<trkpt lat="46.048561" lon="6.096146"><ele></ele><time>2017-5-18T8:1:8Z</time></trkpt>
<trkpt lat="46.048793" lon="6.096060"><ele></ele><time>2017-5-18T8:1:11Z</time></trkpt>
<trkpt lat="46.048845" lon="6.096015"><ele></ele><time>2017-5-18T8:1:14Z</time></trkpt>
<trkpt lat="46.048884" lon="6.095957"><ele></ele><time>2017-5-18T8:1:17Z</time></trkpt>
<trkpt lat="46.048913" lon="6.095892"><ele></ele><time>2017-5-18T8:1:20Z</time></trkpt>
<trkpt lat="46.048930" lon="6.095821"><ele></ele><time>2017-5-18T8:1:23Z</time></trkpt>
<trkpt lat="46.048939" lon="6.095755"><ele></ele><time>2017-5-18T8:1:26Z</time></trkpt>
<trkpt lat="46.048986" lon="6.095477"><ele></ele><time>2017-5-18T8:1:29Z</time></trkpt>
<trkpt lat="46.049023" lon="6.095222"><ele></ele><time>2017-5-18T8:1:32Z</time></trkpt>
<trkpt lat="46.049095" lon="6.094860"><ele></ele><time>2017-5-18T8:1:35Z</time></trkpt>
<trkpt lat="46.049149" lon="6.094717"><ele></ele><time>2017-5-18T8:1:38Z</time></trkpt>
<trkpt lat="46.049185" lon="6.094659"><ele></ele><time>2017-5-18T8:1:41Z</time></trkpt>
<trkpt lat="46.049220" lon="6.094608"><ele></ele><time>2017-5-18T8:1:44Z</time></trkpt>
<trkpt lat="46.049252" lon="6.094564"><ele></ele><time>2017-5-18T8:1:47Z</time></trkpt>
<trkpt lat="46.049279" lon="6.094532"><ele></ele><time>2017-5-18T8:1:50Z</time></trkpt>
<trkpt lat="46.049431" lon="6.094322"><ele></ele><time>2017-5-18T8:1:53Z</time></trkpt>
<trkpt lat="46.049573" lon="6.094114"><ele></ele><time>2017-5-18T8:1:56Z</time></trkpt>
<trkpt lat="46.049661" lon="6.093954"><ele></ele><time>2017-5-18T8:1:59Z</time></trkpt>
<trkpt lat="46.049778" lon="6.093806"><ele></ele><time>2017-5-18T8:2:2Z</time></trkpt>
<trkpt lat="46.049918" lon="6.093704"><ele></ele><time>2017-5-18T8:2:5Z</time></trkpt>
<trkpt lat="46.050078" lon="6.093577"><ele></ele><time>2017-5-18T8:2:8Z</time></trkpt>
<trkpt lat="46.050219" lon="6.093482"><ele></ele><time>2017-5-18T8:2:11Z</time></trkpt>
<trkpt lat="46.050353" lon="6.093384"><ele></ele><time>2017-5-18T8:2:14Z</time></trkpt>
<trkpt lat="46.050388" lon="6.093362"><ele></ele><time>2017-5-18T8:2:17Z</time></trkpt>
<trkpt lat="46.050405" lon="6.093353"><ele></ele><time>2017-5-18T8:2:20Z</time></trkpt>
<trkpt lat="46.050588" lon="6.093295"><ele></ele><time>2017-5-18T8:2:23Z</time></trkpt>
<trkpt lat="46.050809" lon="6.093170"><ele></ele><time>2017-5-18T8:2:26Z</time></trkpt>
<trkpt lat="46.051037" lon="6.093043"><ele></ele><time>2017-5-18T8:2:29Z</time></trkpt>
<trkpt lat="46.051062" lon="6.093024"><ele></ele><time>2017-5-18T8:2:32Z</time></trkpt>
<trkpt lat="46.051083" lon="6.093007"><ele></ele><time>2017-5-18T8:2:35Z</time></trkpt>
<trkpt lat="46.051099" lon="6.092995"><ele></ele><time>2017-5-18T8:2:38Z</time></trkpt>
<trkpt lat="46.051163" lon="6.092961"><ele></ele><time>2017-5-18T8:2:41Z</time></trkpt>
<trkpt lat="46.051179" lon="6.092948"><ele></ele><time>2017-5-18T8:2:44Z</time></trkpt>
<trkpt lat="46.051196" lon="6.092939"><ele></ele><time>2017-5-18T8:2:47Z</time></trkpt>
<trkpt lat="46.051210" lon="6.092933"><ele></ele><time>2017-5-18T8:2:50Z</time></trkpt>
<trkpt lat="46.051223" lon="6.092924"><ele></ele><time>2017-5-18T8:2:53Z</time></trkpt>
<trkpt lat="46.051234" lon="6.092913"><ele></ele><time>2017-5-18T8:2:56Z</time></trkpt>
<trkpt lat="46.051335" lon="6.092852"><ele></ele><time>2017-5-18T8:2:59Z</time></trkpt>
<trkpt lat="46.051438" lon="6.092768"><ele></ele><time>2017-5-18T8:3:2Z</time></trkpt>
<trkpt lat="46.051537" lon="6.092702"><ele></ele><time>2017-5-18T8:3:5Z</time></trkpt>
<trkpt lat="46.051573" lon="6.092669"><ele></ele><time>2017-5-18T8:3:8Z</time></trkpt>
<trkpt lat="46.051599" lon="6.092653"><ele></ele><time>2017-5-18T8:3:11Z</time></trkpt>
<trkpt lat="46.051713" lon="6.092581"><ele></ele><time>2017-5-18T8:3:14Z</time></trkpt>
<trkpt lat="46.051846" lon="6.092439"><ele></ele><time>2017-5-18T8:3:17Z</time></trkpt>
<trkpt lat="46.051955" lon="6.092308"><ele></ele><time>2017-5-18T8:3:20Z</time></trkpt>
<trkpt lat="46.052050" lon="6.092170"><ele></ele><time>2017-5-18T8:3:23Z</time></trkpt>
<trkpt lat="46.052189" lon="6.092001"><ele></ele><time>2017-5-18T8:3:26Z</time></trkpt>
<trkpt lat="46.052351" lon="6.091813"><ele></ele><time>2017-5-18T8:3:29Z</time></trkpt>
<trkpt lat="46.052490" lon="6.091695"><ele></ele><time>2017-5-18T8:3:32Z</time></trkpt>
<trkpt lat="46.052673" lon="6.091562"><ele></ele><time>2017-5-18T8:3:35Z</time></trkpt>
<trkpt lat="46.052828" lon="6.091482"><ele></ele><time>2017-5-18T8:3:38Z</time></trkpt>
<trkpt lat="46.053005" lon="6.091422"><ele></ele><time>2017-5-18T8:3:41Z</time></trkpt>
<trkpt lat="46.053216" lon="6.091391"><ele></ele><time>2017-5-18T8:3:44Z</time></trkpt>
<trkpt lat="46.053341" lon="6.091411"><ele></ele><time>2017-5-18T8:3:47Z</time></trkpt>
<trkpt lat="46.053470" lon="6.091418"><ele></ele><time>2017-5-18T8:3:50Z</time></trkpt>
<trkpt lat="46.053615" lon="6.091412"><ele></ele><time>2017-5-18T8:3:53Z</time></trkpt>
<trkpt lat="46.053660" lon="6.091401"><ele></ele><time>2017-5-18T8:3:56Z</time></trkpt>
<trkpt lat="46.053821" lon="6.091361"><ele></ele><time>2017-5-18T8:3:59Z</time></trkpt>
<trkpt lat="46.054003" lon="6.091262"><ele></ele><time>2017-5-18T8:4:2Z</time></trkpt>
<trkpt lat="46.054185" lon="6.091190"><ele></ele><time>2017-5-18T8:4:5Z</time></trkpt>
<trkpt lat="46.054401" lon="6.091134"><ele></ele><time>2017-5-18T8:4:8Z</time></trkpt>
<trkpt lat="46.054635" lon="6.091101"><ele></ele><time>2017-5-18T8:4:11Z</time></trkpt>
<trkpt lat="46.054813" lon="6.091047"><ele></ele><time>2017-5-18T8:4:14Z</time></trkpt>
<trkpt lat="46.054901" lon="6.090903"><ele></ele><time>2017-5-18T8:4:17Z</time></trkpt>
<trkpt lat="46.054911" lon="6.090806"><ele></ele><time>2017-5-18T8:4:20Z</time></trkpt>
<trkpt lat="46.054906" lon="6.090760"><ele></ele><time>2017-5-18T8:4:23Z</time></trkpt>
<trkpt lat="46.054889" lon="6.090719"><ele></ele><time>2017-5-18T8:4:26Z</time></trkpt>
<trkpt lat="46.054867" lon="6.090679"><ele></ele><time>2017-5-18T8:4:29Z</time></trkpt>
<trkpt lat="46.054847" lon="6.090629"><ele></ele><time>2017-5-18T8:4:32Z</time></trkpt>
<trkpt lat="46.054835" lon="6.090572"><ele></ele><time>2017-5-18T8:4:35Z</time></trkpt>
<trkpt lat="46.054760" lon="6.090170"><ele></ele><time>2017-5-18T8:4:38Z</time></trkpt>
<trkpt lat="46.054712" lon="6.089771"><ele></ele><time>2017-5-18T8:4:41Z</time></trkpt>
<trkpt lat="46.054713" lon="6.089633"><ele></ele><time>2017-5-18T8:4:44Z</time></trkpt>
<trkpt lat="46.054720" lon="6.089578"><ele></ele><time>2017-5-18T8:4:47Z</time></trkpt>
<trkpt lat="46.054729" lon="6.089535"><ele></ele><time>2017-5-18T8:4:50Z</time></trkpt>
<trkpt lat="46.054739" lon="6.089491"><ele></ele><time>2017-5-18T8:4:53Z</time></trkpt>
<trkpt lat="46.054760" lon="6.089452"><ele></ele><time>2017-5-18T8:4:56Z</time></trkpt>
<trkpt lat="46.054784" lon="6.089414"><ele></ele><time>2017-5-18T8:4:59Z</time></trkpt>
<trkpt lat="46.054810" lon="6.089385"><ele></ele><time>2017-5-18T8:5:2Z</time></trkpt>
<trkpt lat="46.054841" lon="6.089379"><ele></ele><time>2017-5-18T8:5:5Z</time></trkpt>
<trkpt lat="46.054864" lon="6.089376"><ele></ele><time>2017-5-18T8:5:8Z</time></trkpt>
<trkpt lat="46.054889" lon="6.089370"><ele></ele><time>2017-5-18T8:5:11Z</time></trkpt>
<trkpt lat="46.054914" lon="6.089365"><ele></ele><time>2017-5-18T8:5:14Z</time></trkpt>
<trkpt lat="46.054941" lon="6.089359"><ele></ele><time>2017-5-18T8:5:17Z</time></trkpt>
<trkpt lat="46.055198" lon="6.089320"><ele></ele><time>2017-5-18T8:5:20Z</time></trkpt>
<trkpt lat="46.055348" lon="6.089339"><ele></ele><time>2017-5-18T8:5:23Z</time></trkpt>
<trkpt lat="46.055513" lon="6.089405"><ele></ele><time>2017-5-18T8:5:26Z</time></trkpt>
<trkpt lat="46.055660" lon="6.089454"><ele></ele><time>2017-5-18T8:5:29Z</time></trkpt>
<trkpt lat="46.055851" lon="6.089525"><ele></ele><time>2017-5-18T8:5:32Z</time></trkpt>
<trkpt lat="46.055990" lon="6.089550"><ele></ele><time>2017-5-18T8:5:35Z</time></trkpt>
<trkpt lat="46.056115" lon="6.089507"><ele></ele><time>2017-5-18T8:5:38Z</time></trkpt>
<trkpt lat="46.056239" lon="6.089405"><ele></ele><time>2017-5-18T8:5:41Z</time></trkpt>
<trkpt lat="46.056375" lon="6.089273"><ele></ele><time>2017-5-18T8:5:44Z</time></trkpt>
<trkpt lat="46.056503" lon="6.089151"><ele></ele><time>2017-5-18T8:5:47Z</time></trkpt>
<trkpt lat="46.056622" lon="6.089032"><ele></ele><time>2017-5-18T8:5:50Z</time></trkpt>
<trkpt lat="46.056758" lon="6.088888"><ele></ele><time>2017-5-18T8:5:53Z</time></trkpt>
<trkpt lat="46.056875" lon="6.088802"><ele></ele><time>2017-5-18T8:5:56Z</time></trkpt>
<trkpt lat="46.056984" lon="6.088732"><ele></ele><time>2017-5-18T8:5:59Z</time></trkpt>
<trkpt lat="46.057084" lon="6.088771"><ele></ele><time>2017-5-18T8:6:2Z</time></trkpt>
<trkpt lat="46.057192" lon="6.088830"><ele></ele><time>2017-5-18T8:6:5Z</time></trkpt>
<trkpt lat="46.057298" lon="6.088921"><ele></ele><time>2017-5-18T8:6:8Z</time></trkpt>
<trkpt lat="46.057408" lon="6.089011"><ele></ele><time>2017-5-18T8:6:11Z</time></trkpt>
<trkpt lat="46.057451" lon="6.089048"><ele></ele><time>2017-5-18T8:6:14Z</time></trkpt>
<trkpt lat="46.057463" lon="6.089055"><ele></ele><time>2017-5-18T8:6:17Z</time></trkpt>
<trkpt lat="46.057475" lon="6.089061"><ele></ele><time>2017-5-18T8:6:20Z</time></trkpt>
<trkpt lat="46.057486" lon="6.089069"><ele></ele><time>2017-5-18T8:6:23Z</time></trkpt>
<trkpt lat="46.057496" lon="6.089083"><ele></ele><time>2017-5-18T8:6:26Z</time></trkpt>
<trkpt lat="46.057595" lon="6.089158"><ele></ele><time>2017-5-18T8:6:29Z</time></trkpt>
<trkpt lat="46.057690" lon="6.089196"><ele></ele><time>2017-5-18T8:6:32Z</time></trkpt>
<trkpt lat="46.057799" lon="6.089218"><ele></ele><time>2017-5-18T8:6:35Z</time></trkpt>
<trkpt lat="46.057894" lon="6.089235"><ele></ele><time>2017-5-18T8:6:38Z</time></trkpt>
<trkpt lat="46.057933" lon="6.089201"><ele></ele><time>2017-5-18T8:6:41Z</time></trkpt>
<trkpt lat="46.057953" lon="6.089165"><ele></ele><time>2017-5-18T8:6:44Z</time></trkpt>
<trkpt lat="46.057963" lon="6.089156"><ele></ele><time>2017-5-18T8:6:47Z</time></trkpt>
<trkpt lat="46.057973" lon="6.089146"><ele></ele><time>2017-5-18T8:6:50Z</time></trkpt>
<trkpt lat="46.057984" lon="6.089135"><ele></ele><time>2017-5-18T8:6:53Z</time></trkpt>
<trkpt lat="46.057996" lon="6.089126"><ele></ele><time>2017-5-18T8:6:56Z</time></trkpt>
<trkpt lat="46.058006" lon="6.089115"><ele></ele><time>2017-5-18T8:6:59Z</time></trkpt>
<trkpt lat="46.058017" lon="6.089100"><ele></ele><time>2017-5-18T8:7:2Z</time></trkpt>
<trkpt lat="46.058026" lon="6.089084"><ele></ele><time>2017-5-18T8:7:5Z</time></trkpt>
<trkpt lat="46.058031" lon="6.089066"><ele></ele><time>2017-5-18T8:7:8Z</time></trkpt>
<trkpt lat="46.058037" lon="6.089048"><ele></ele><time>2017-5-18T8:7:11Z</time></trkpt>
<trkpt lat="46.058045" lon="6.089034"><ele></ele><time>2017-5-18T8:7:14Z</time></trkpt>
<trkpt lat="46.058073" lon="6.088990"><ele></ele><time>2017-5-18T8:7:17Z</time></trkpt>
<trkpt lat="46.058081" lon="6.088975"><ele></ele><time>2017-5-18T8:7:20Z</time></trkpt>
<trkpt lat="46.058093" lon="6.088959"><ele></ele><time>2017-5-18T8:7:23Z</time></trkpt>
<trkpt lat="46.058108" lon="6.088947"><ele></ele><time>2017-5-18T8:7:26Z</time></trkpt>
<trkpt lat="46.058125" lon="6.088934"><ele></ele><time>2017-5-18T8:7:29Z</time></trkpt>
<trkpt lat="46.058138" lon="6.088917"><ele></ele><time>2017-5-18T8:7:32Z</time></trkpt>
<trkpt lat="46.058152" lon="6.088899"><ele></ele><time>2017-5-18T8:7:35Z</time></trkpt>
<trkpt lat="46.058253" lon="6.088773"><ele></ele><time>2017-5-18T8:7:38Z</time></trkpt>
<trkpt lat="46.058331" lon="6.088701"><ele></ele><time>2017-5-18T8:7:41Z</time></trkpt>
<trkpt lat="46.058365" lon="6.088690"><ele></ele><time>2017-5-18T8:7:44Z</time></trkpt>
<trkpt lat="46.058382" lon="6.088687"><ele></ele><time>2017-5-18T8:7:47Z</time></trkpt>
<trkpt lat="46.058397" lon="6.088682"><ele></ele><time>2017-5-18T8:7:50Z</time></trkpt>
<trkpt lat="46.058411" lon="6.088675"><ele></ele><time>2017-5-18T8:7:53Z</time></trkpt>
<trkpt lat="46.058425" lon="6.088666"><ele></ele><time>2017-5-18T8:7:56Z</time></trkpt>
<trkpt lat="46.058437" lon="6.088654"><ele></ele><time>2017-5-18T8:7:59Z</time></trkpt>
<trkpt lat="46.058452" lon="6.088639"><ele></ele><time>2017-5-18T8:8:2Z</time></trkpt>
<trkpt lat="46.058574" lon="6.088564"><ele></ele><time>2017-5-18T8:8:5Z</time></trkpt>
<trkpt lat="46.058715" lon="6.088532"><ele></ele><time>2017-5-18T8:8:8Z</time></trkpt>
<trkpt lat="46.058876" lon="6.088469"><ele></ele><time>2017-5-18T8:8:11Z</time></trkpt>
<trkpt lat="46.059030" lon="6.088415"><ele></ele><time>2017-5-18T8:8:14Z</time></trkpt>
<trkpt lat="46.059029" lon="6.088412"><ele></ele><time>2017-5-18T8:8:17Z</time></trkpt>
<trkpt lat="46.059039" lon="6.088417"><ele></ele><time>2017-5-18T8:8:20Z</time></trkpt>
<trkpt lat="46.059038" lon="6.088417"><ele></ele><time>2017-5-18T8:8:23Z</time></trkpt>
<trkpt lat="46.059043" lon="6.088411"><ele></ele><time>2017-5-18T8:8:26Z</time></trkpt>
<trkpt lat="46.059060" lon="6.088415"><ele></ele><time>2017-5-18T8:8:29Z</time></trkpt>
<trkpt lat="46.059080" lon="6.088394"><ele></ele><time>2017-5-18T8:8:32Z</time></trkpt>
<trkpt lat="46.059087" lon="6.088383"><ele></ele><time>2017-5-18T8:8:35Z</time></trkpt>
<trkpt lat="46.059100" lon="6.088371"><ele></ele><time>2017-5-18T8:8:38Z</time></trkpt>
<trkpt lat="46.059115" lon="6.088362"><ele></ele><time>2017-5-18T8:8:41Z</time></trkpt>
<trkpt lat="46.059135" lon="6.088355"><ele></ele><time>2017-5-18T8:8:44Z</time></trkpt>
<trkpt lat="46.059155" lon="6.088348"><ele></ele><time>2017-5-18T8:8:47Z</time></trkpt>
<trkpt lat="46.059346" lon="6.088266"><ele></ele><time>2017-5-18T8:8:50Z</time></trkpt>
<trkpt lat="46.059473" lon="6.088219"><ele></ele><time>2017-5-18T8:8:53Z</time></trkpt>
<trkpt lat="46.059627" lon="6.088179"><ele></ele><time>2017-5-18T8:8:56Z</time></trkpt>
<trkpt lat="46.059840" lon="6.088163"><ele></ele><time>2017-5-18T8:8:59Z</time></trkpt>
<trkpt lat="46.060086" lon="6.088154"><ele></ele><time>2017-5-18T8:9:2Z</time></trkpt>
<trkpt lat="46.060338" lon="6.088149"><ele></ele><time>2017-5-18T8:9:5Z</time></trkpt>
<trkpt lat="46.060592" lon="6.088123"><ele></ele><time>2017-5-18T8:9:8Z</time></trkpt>
<trkpt lat="46.060723" lon="6.088073"><ele></ele><time>2017-5-18T8:9:11Z</time></trkpt>
<trkpt lat="46.060889" lon="6.088007"><ele></ele><time>2017-5-18T8:9:14Z</time></trkpt>
<trkpt lat="46.061084" lon="6.087947"><ele></ele><time>2017-5-18T8:9:17Z</time></trkpt>
<trkpt lat="46.061244" lon="6.088018"><ele></ele><time>2017-5-18T8:9:20Z</time></trkpt>
<trkpt lat="46.061371" lon="6.088174"><ele></ele><time>2017-5-18T8:9:23Z</time></trkpt>
<trkpt lat="46.061445" lon="6.088359"><ele></ele><time>2017-5-18T8:9:26Z</time></trkpt>
<trkpt lat="46.061528" lon="6.088606"><ele></ele><time>2017-5-18T8:9:29Z</time></trkpt>
<trkpt lat="46.061620" lon="6.088809"><ele></ele><time>2017-5-18T8:9:32Z</time></trkpt>
<trkpt lat="46.061769" lon="6.089014"><ele></ele><time>2017-5-18T8:9:35Z</time></trkpt>
<trkpt lat="46.061924" lon="6.089100"><ele></ele><time>2017-5-18T8:9:38Z</time></trkpt>
<trkpt lat="46.062175" lon="6.089045"><ele></ele><time>2017-5-18T8:9:41Z</time></trkpt>
<trkpt lat="46.062349" lon="6.088879"><ele></ele><time>2017-5-18T8:9:44Z</time></trkpt>
<trkpt lat="46.062470" lon="6.088684"><ele></ele><time>2017-5-18T8:9:47Z</time></trkpt>
<trkpt lat="46.062611" lon="6.088462"><ele></ele><time>2017-5-18T8:9:50Z</time></trkpt>
<trkpt lat="46.062781" lon="6.088349"><ele></ele><time>2017-5-18T8:9:53Z</time></trkpt>
<trkpt lat="46.062822" lon="6.088326"><ele></ele><time>2017-5-18T8:9:56Z</time></trkpt>
<trkpt lat="46.062836" lon="6.088326"><ele></ele><time>2017-5-18T8:9:59Z</time></trkpt>
<trkpt lat="46.062848" lon="6.088328"><ele></ele><time>2017-5-18T8:10:2Z</time></trkpt>
<trkpt lat="46.062925" lon="6.088374"><ele></ele><time>2017-5-18T8:10:5Z</time></trkpt>
<trkpt lat="46.063079" lon="6.088410"><ele></ele><time>2017-5-18T8:10:8Z</time></trkpt>
<trkpt lat="46.063266" lon="6.088459"><ele></ele><time>2017-5-18T8:10:11Z</time></trkpt>
<trkpt lat="46.063570" lon="6.088520"><ele></ele><time>2017-5-18T8:10:14Z</time></trkpt>
<trkpt lat="46.063746" lon="6.088559"><ele></ele><time>2017-5-18T8:10:17Z</time></trkpt>
<trkpt lat="46.063963" lon="6.088604"><ele></ele><time>2017-5-18T8:10:20Z</time></trkpt>
<trkpt lat="46.064006" lon="6.088621"><ele></ele><time>2017-5-18T8:10:23Z</time></trkpt>
<trkpt lat="46.064174" lon="6.088653"><ele></ele><time>2017-5-18T8:10:26Z</time></trkpt>
<trkpt lat="46.064303" lon="6.088673"><ele></ele><time>2017-5-18T8:10:29Z</time></trkpt>
<trkpt lat="46.064468" lon="6.088665"><ele></ele><time>2017-5-18T8:10:32Z</time></trkpt>
<trkpt lat="46.064685" lon="6.088646"><ele></ele><time>2017-5-18T8:10:35Z</time></trkpt>
<trkpt lat="46.064721" lon="6.088637"><ele></ele><time>2017-5-18T8:10:38Z</time></trkpt>
<trkpt lat="46.064740" lon="6.088637"><ele></ele><time>2017-5-18T8:10:41Z</time></trkpt>
<trkpt lat="46.064947" lon="6.088607"><ele></ele><time>2017-5-18T8:10:44Z</time></trkpt>
<trkpt lat="46.065085" lon="6.088665"><ele></ele><time>2017-5-18T8:10:47Z</time></trkpt>
<trkpt lat="46.065172" lon="6.088706"><ele></ele><time>2017-5-18T8:10:50Z</time></trkpt>
<trkpt lat="46.065187" lon="6.088703"><ele></ele><time>2017-5-18T8:10:53Z</time></trkpt>
<trkpt lat="46.065189" lon="6.088719"><ele></ele><time>2017-5-18T8:10:56Z</time></trkpt>
<trkpt lat="46.065192" lon="6.088717"><ele></ele><time>2017-5-18T8:10:59Z</time></trkpt>
<trkpt lat="46.065195" lon="6.088710"><ele></ele><time>2017-5-18T8:11:2Z</time></trkpt>
<trkpt lat="46.065185" lon="6.088715"><ele></ele><time>2017-5-18T8:11:5Z</time></trkpt>
<trkpt lat="46.065184" lon="6.088714"><ele></ele><time>2017-5-18T8:11:8Z</time></trkpt>
<trkpt lat="46.065196" lon="6.088726"><ele></ele><time>2017-5-18T8:11:11Z</time></trkpt>
<trkpt lat="46.065202" lon="6.088723"><ele></ele><time>2017-5-18T8:11:14Z</time></trkpt>
<trkpt lat="46.065217" lon="6.088708"><ele></ele><time>2017-5-18T8:11:17Z</time></trkpt>
<trkpt lat="46.065206" lon="6.088716"><ele></ele><time>2017-5-18T8:11:20Z</time></trkpt>
<trkpt lat="46.065193" lon="6.088729"><ele></ele><time>2017-5-18T8:11:23Z</time></trkpt>
<trkpt lat="46.065199" lon="6.088717"><ele></ele><time>2017-5-18T8:11:26Z</time></trkpt>
<trkpt lat="46.065216" lon="6.088712"><ele></ele><time>2017-5-18T8:11:29Z</time></trkpt>
<trkpt lat="46.065210" lon="6.088702"><ele></ele><time>2017-5-18T8:11:32Z</time></trkpt>
<trkpt lat="46.065187" lon="6.088710"><ele></ele><time>2017-5-18T8:11:35Z</time></trkpt>
<trkpt lat="46.065189" lon="6.088703"><ele></ele><time>2017-5-18T8:11:38Z</time></trkpt>
<trkpt lat="46.065196" lon="6.088690"><ele></ele><time>2017-5-18T8:11:41Z</time></trkpt>
<trkpt lat="46.065210" lon="6.088683"><ele></ele><time>2017-5-18T8:11:44Z</time></trkpt>
<trkpt lat="46.065324" lon="6.088587"><ele></ele><time>2017-5-18T8:11:47Z</time></trkpt>
<trkpt lat="46.065509" lon="6.088577"><ele></ele><time>2017-5-18T8:11:50Z</time></trkpt>
<trkpt lat="46.065695" lon="6.088559"><ele></ele><time>2017-5-18T8:11:53Z</time></trkpt>
<trkpt lat="46.065861" lon="6.088543"><ele></ele><time>2017-5-18T8:11:56Z</time></trkpt>
<trkpt lat="46.066065" lon="6.088529"><ele></ele><time>2017-5-18T8:11:59Z</time></trkpt>
<trkpt lat="46.066244" lon="6.088473"><ele></ele><time>2017-5-18T8:12:2Z</time></trkpt>
<trkpt lat="46.066401" lon="6.088439"><ele></ele><time>2017-5-18T8:12:5Z</time></trkpt>
<trkpt lat="46.066585" lon="6.088306"><ele></ele><time>2017-5-18T8:12:8Z</time></trkpt>
<trkpt lat="46.066693" lon="6.088159"><ele></ele><time>2017-5-18T8:12:11Z</time></trkpt>
<trkpt lat="46.066834" lon="6.087863"><ele></ele><time>2017-5-18T8:12:14Z</time></trkpt>
<trkpt lat="46.066936" lon="6.087619"><ele></ele><time>2017-5-18T8:12:17Z</time></trkpt>
<trkpt lat="46.067022" lon="6.087407"><ele></ele><time>2017-5-18T8:12:20Z</time></trkpt>
<trkpt lat="46.067098" lon="6.087159"><ele></ele><time>2017-5-18T8:12:23Z</time></trkpt>
<trkpt lat="46.067141" lon="6.087047"><ele></ele><time>2017-5-18T8:12:26Z</time></trkpt>
<trkpt lat="46.067158" lon="6.087038"><ele></ele><time>2017-5-18T8:12:29Z</time></trkpt>
<trkpt lat="46.067171" lon="6.087037"><ele></ele><time>2017-5-18T8:12:32Z</time></trkpt>
<trkpt lat="46.067181" lon="6.087046"><ele></ele><time>2017-5-18T8:12:35Z</time></trkpt>
<trkpt lat="46.067189" lon="6.087060"><ele></ele><time>2017-5-18T8:12:38Z</time></trkpt>
<trkpt lat="46.067198" lon="6.087075"><ele></ele><time>2017-5-18T8:12:41Z</time></trkpt>
<trkpt lat="46.067259" lon="6.087186"><ele></ele><time>2017-5-18T8:12:44Z</time></trkpt>
<trkpt lat="46.067341" lon="6.087304"><ele></ele><time>2017-5-18T8:12:47Z</time></trkpt>
<trkpt lat="46.067348" lon="6.087323"><ele></ele><time>2017-5-18T8:12:50Z</time></trkpt>
<trkpt lat="46.067436" lon="6.087433"><ele></ele><time>2017-5-18T8:12:53Z</time></trkpt>
<trkpt lat="46.067516" lon="6.087558"><ele></ele><time>2017-5-18T8:12:56Z</time></trkpt>
<trkpt lat="46.067564" lon="6.087637"><ele></ele><time>2017-5-18T8:12:59Z</time></trkpt>
<trkpt lat="46.067573" lon="6.087649"><ele></ele><time>2017-5-18T8:13:2Z</time></trkpt>
<trkpt lat="46.067649" lon="6.087770"><ele></ele><time>2017-5-18T8:13:5Z</time></trkpt>
<trkpt lat="46.067671" lon="6.087840"><ele></ele><time>2017-5-18T8:13:8Z</time></trkpt>
<trkpt lat="46.067681" lon="6.087850"><ele></ele><time>2017-5-18T8:13:11Z</time></trkpt>
<trkpt lat="46.067689" lon="6.087858"><ele></ele><time>2017-5-18T8:13:14Z</time></trkpt>
<trkpt lat="46.067698" lon="6.087870"><ele></ele><time>2017-5-18T8:13:17Z</time></trkpt>
<trkpt lat="46.067706" lon="6.087886"><ele></ele><time>2017-5-18T8:13:20Z</time></trkpt>
<trkpt lat="46.067802" lon="6.088028"><ele></ele><time>2017-5-18T8:13:23Z</time></trkpt>
<trkpt lat="46.067898" lon="6.088165"><ele></ele><time>2017-5-18T8:13:26Z</time></trkpt>
<trkpt lat="46.068002" lon="6.088324"><ele></ele><time>2017-5-18T8:13:29Z</time></trkpt>
<trkpt lat="46.068097" lon="6.088484"><ele></ele><time>2017-5-18T8:13:32Z</time></trkpt>
<trkpt lat="46.068195" lon="6.088626"><ele></ele><time>2017-5-18T8:13:35Z</time></trkpt>
<trkpt lat="46.068292" lon="6.088786"><ele></ele><time>2017-5-18T8:13:38Z</time></trkpt>
<trkpt lat="46.068361" lon="6.088906"><ele></ele><time>2017-5-18T8:13:41Z</time></trkpt>
<trkpt lat="46.068375" lon="6.088923"><ele></ele><time>2017-5-18T8:13:44Z</time></trkpt>
<trkpt lat="46.068386" lon="6.088944"><ele></ele><time>2017-5-18T8:13:47Z</time></trkpt>
<trkpt lat="46.068398" lon="6.088963"><ele></ele><time>2017-5-18T8:13:50Z</time></trkpt>
<trkpt lat="46.068411" lon="6.088983"><ele></ele><time>2017-5-18T8:13:53Z</time></trkpt>
<trkpt lat="46.068420" lon="6.089001"><ele></ele><time>2017-5-18T8:13:56Z</time></trkpt>
<trkpt lat="46.068546" lon="6.089206"><ele></ele><time>2017-5-18T8:13:59Z</time></trkpt>
<trkpt lat="46.068617" lon="6.089327"><ele></ele><time>2017-5-18T8:14:2Z</time></trkpt>
<trkpt lat="46.068714" lon="6.089486"><ele></ele><time>2017-5-18T8:14:5Z</time></trkpt>
<trkpt lat="46.068817" lon="6.089674"><ele></ele><time>2017-5-18T8:14:8Z</time></trkpt>
<trkpt lat="46.068924" lon="6.089875"><ele></ele><time>2017-5-18T8:14:11Z</time></trkpt>
<trkpt lat="46.069053" lon="6.090143"><ele></ele><time>2017-5-18T8:14:14Z</time></trkpt>
<trkpt lat="46.069179" lon="6.090389"><ele></ele><time>2017-5-18T8:14:17Z</time></trkpt>
<trkpt lat="46.069242" lon="6.090520"><ele></ele><time>2017-5-18T8:14:20Z</time></trkpt>
<trkpt lat="46.069249" lon="6.090551"><ele></ele><time>2017-5-18T8:14:23Z</time></trkpt>
<trkpt lat="46.069261" lon="6.090580"><ele></ele><time>2017-5-18T8:14:26Z</time></trkpt>
<trkpt lat="46.069272" lon="6.090606"><ele></ele><time>2017-5-18T8:14:29Z</time></trkpt>
<trkpt lat="46.069281" lon="6.090629"><ele></ele><time>2017-5-18T8:14:32Z</time></trkpt>
<trkpt lat="46.069352" lon="6.090791"><ele></ele><time>2017-5-18T8:14:35Z</time></trkpt>
<trkpt lat="46.069374" lon="6.091039"><ele></ele><time>2017-5-18T8:14:38Z</time></trkpt>
<trkpt lat="46.069334" lon="6.091342"><ele></ele><time>2017-5-18T8:14:41Z</time></trkpt>
<trkpt lat="46.069272" lon="6.091669"><ele></ele><time>2017-5-18T8:14:44Z</time></trkpt>
<trkpt lat="46.069181" lon="6.092100"><ele></ele><time>2017-5-18T8:14:47Z</time></trkpt>
<trkpt lat="46.069060" lon="6.092534"><ele></ele><time>2017-5-18T8:14:50Z</time></trkpt>
<trkpt lat="46.068949" lon="6.092803"><ele></ele><time>2017-5-18T8:14:53Z</time></trkpt>
<trkpt lat="46.068803" lon="6.093082"><ele></ele><time>2017-5-18T8:14:56Z</time></trkpt>
<trkpt lat="46.068832" lon="6.093306"><ele></ele><time>2017-5-18T8:14:59Z</time></trkpt>
<trkpt lat="46.068921" lon="6.093700"><ele></ele><time>2017-5-18T8:15:2Z</time></trkpt>
<trkpt lat="46.069000" lon="6.094180"><ele></ele><time>2017-5-18T8:15:5Z</time></trkpt>
<trkpt lat="46.069023" lon="6.094274"><ele></ele><time>2017-5-18T8:15:8Z</time></trkpt>
<trkpt lat="46.069114" lon="6.094543"><ele></ele><time>2017-5-18T8:15:11Z</time></trkpt>
<trkpt lat="46.069148" lon="6.094622"><ele></ele><time>2017-5-18T8:15:14Z</time></trkpt>
<trkpt lat="46.069181" lon="6.094710"><ele></ele><time>2017-5-18T8:15:17Z</time></trkpt>
<trkpt lat="46.069212" lon="6.094809"><ele></ele><time>2017-5-18T8:15:20Z</time></trkpt>
<trkpt lat="46.069235" lon="6.094908"><ele></ele><time>2017-5-18T8:15:23Z</time></trkpt>
<trkpt lat="46.069254" lon="6.095011"><ele></ele><time>2017-5-18T8:15:26Z</time></trkpt>
<trkpt lat="46.069277" lon="6.095116"><ele></ele><time>2017-5-18T8:15:29Z</time></trkpt>
<trkpt lat="46.069308" lon="6.095207"><ele></ele><time>2017-5-18T8:15:32Z</time></trkpt>
<trkpt lat="46.069349" lon="6.095295"><ele></ele><time>2017-5-18T8:15:35Z</time></trkpt>
<trkpt lat="46.069383" lon="6.095373"><ele></ele><time>2017-5-18T8:15:38Z</time></trkpt>
<trkpt lat="46.069413" lon="6.095453"><ele></ele><time>2017-5-18T8:15:41Z</time></trkpt>
<trkpt lat="46.069462" lon="6.095600"><ele></ele><time>2017-5-18T8:15:44Z</time></trkpt>
<trkpt lat="46.069477" lon="6.095669"><ele></ele><time>2017-5-18T8:15:47Z</time></trkpt>
<trkpt lat="46.069546" lon="6.096068"><ele></ele><time>2017-5-18T8:15:50Z</time></trkpt>
<trkpt lat="46.069577" lon="6.096165"><ele></ele><time>2017-5-18T8:15:53Z</time></trkpt>
<trkpt lat="46.069619" lon="6.096244"><ele></ele><time>2017-5-18T8:15:56Z</time></trkpt>
<trkpt lat="46.069665" lon="6.096304"><ele></ele><time>2017-5-18T8:15:59Z</time></trkpt>
<trkpt lat="46.069709" lon="6.096363"><ele></ele><time>2017-5-18T8:16:2Z</time></trkpt>
<trkpt lat="46.069751" lon="6.096406"><ele></ele><time>2017-5-18T8:16:5Z</time></trkpt>
<trkpt lat="46.069944" lon="6.096559"><ele></ele><time>2017-5-18T8:16:8Z</time></trkpt>
<trkpt lat="46.069988" lon="6.096607"><ele></ele><time>2017-5-18T8:16:11Z</time></trkpt>
<trkpt lat="46.070025" lon="6.096675"><ele></ele><time>2017-5-18T8:16:14Z</time></trkpt>
<trkpt lat="46.070051" lon="6.096755"><ele></ele><time>2017-5-18T8:16:17Z</time></trkpt>
<trkpt lat="46.070078" lon="6.096840"><ele></ele><time>2017-5-18T8:16:20Z</time></trkpt>
<trkpt lat="46.070106" lon="6.096909"><ele></ele><time>2017-5-18T8:16:23Z</time></trkpt>
<trkpt lat="46.070141" lon="6.096971"><ele></ele><time>2017-5-18T8:16:26Z</time></trkpt>
<trkpt lat="46.070378" lon="6.097406"><ele></ele><time>2017-5-18T8:16:29Z</time></trkpt>
<trkpt lat="46.070451" lon="6.097557"><ele></ele><time>2017-5-18T8:16:32Z</time></trkpt>
<trkpt lat="46.070497" lon="6.097624"><ele></ele><time>2017-5-18T8:16:35Z</time></trkpt>
<trkpt lat="46.070590" lon="6.097736"><ele></ele><time>2017-5-18T8:16:38Z</time></trkpt>
<trkpt lat="46.070639" lon="6.097779"><ele></ele><time>2017-5-18T8:16:41Z</time></trkpt>
<trkpt lat="46.070685" lon="6.097825"><ele></ele><time>2017-5-18T8:16:44Z</time></trkpt>
<trkpt lat="46.070730" lon="6.097872"><ele></ele><time>2017-5-18T8:16:47Z</time></trkpt>
<trkpt lat="46.070770" lon="6.097904"><ele></ele><time>2017-5-18T8:16:50Z</time></trkpt>
<trkpt lat="46.070812" lon="6.097932"><ele></ele><time>2017-5-18T8:16:53Z</time></trkpt>
<trkpt lat="46.070927" lon="6.098019"><ele></ele><time>2017-5-18T8:16:56Z</time></trkpt>
<trkpt lat="46.070964" lon="6.098053"><ele></ele><time>2017-5-18T8:16:59Z</time></trkpt>
<trkpt lat="46.071002" lon="6.098093"><ele></ele><time>2017-5-18T8:17:2Z</time></trkpt>
<trkpt lat="46.071214" lon="6.098307"><ele></ele><time>2017-5-18T8:17:5Z</time></trkpt>
<trkpt lat="46.071394" lon="6.098473"><ele></ele><time>2017-5-18T8:17:8Z</time></trkpt>
<trkpt lat="46.071510" lon="6.098657"><ele></ele><time>2017-5-18T8:17:11Z</time></trkpt>
<trkpt lat="46.071532" lon="6.098720"><ele></ele><time>2017-5-18T8:17:14Z</time></trkpt>
<trkpt lat="46.071554" lon="6.098781"><ele></ele><time>2017-5-18T8:17:17Z</time></trkpt>
<trkpt lat="46.071579" lon="6.098839"><ele></ele><time>2017-5-18T8:17:20Z</time></trkpt>
<trkpt lat="46.071605" lon="6.098896"><ele></ele><time>2017-5-18T8:17:23Z</time></trkpt>
<trkpt lat="46.071649" lon="6.099015"><ele></ele><time>2017-5-18T8:17:26Z</time></trkpt>
<trkpt lat="46.071665" lon="6.099078"><ele></ele><time>2017-5-18T8:17:29Z</time></trkpt>
<trkpt lat="46.071676" lon="6.099133"><ele></ele><time>2017-5-18T8:17:32Z</time></trkpt>
<trkpt lat="46.071685" lon="6.099187"><ele></ele><time>2017-5-18T8:17:35Z</time></trkpt>
<trkpt lat="46.071697" lon="6.099245"><ele></ele><time>2017-5-18T8:17:38Z</time></trkpt>
<trkpt lat="46.071711" lon="6.099309"><ele></ele><time>2017-5-18T8:17:41Z</time></trkpt>
<trkpt lat="46.071782" lon="6.099595"><ele></ele><time>2017-5-18T8:17:44Z</time></trkpt>
<trkpt lat="46.071801" lon="6.099667"><ele></ele><time>2017-5-18T8:17:47Z</time></trkpt>
<trkpt lat="46.071825" lon="6.099735"><ele></ele><time>2017-5-18T8:17:50Z</time></trkpt>
<trkpt lat="46.071892" lon="6.099915"><ele></ele><time>2017-5-18T8:17:53Z</time></trkpt>
<trkpt lat="46.071910" lon="6.099979"><ele></ele><time>2017-5-18T8:17:56Z</time></trkpt>
<trkpt lat="46.071929" lon="6.100046"><ele></ele><time>2017-5-18T8:17:59Z</time></trkpt>
<trkpt lat="46.071946" lon="6.100108"><ele></ele><time>2017-5-18T8:18:2Z</time></trkpt>
<trkpt lat="46.071960" lon="6.100175"><ele></ele><time>2017-5-18T8:18:5Z</time></trkpt>
<trkpt lat="46.071970" lon="6.100239"><ele></ele><time>2017-5-18T8:18:8Z</time></trkpt>
<trkpt lat="46.072009" lon="6.100424"><ele></ele><time>2017-5-18T8:18:11Z</time></trkpt>
<trkpt lat="46.072177" lon="6.100592"><ele></ele><time>2017-5-18T8:18:14Z</time></trkpt>
<trkpt lat="46.072385" lon="6.100687"><ele></ele><time>2017-5-18T8:18:17Z</time></trkpt>
<trkpt lat="46.072534" lon="6.100767"><ele></ele><time>2017-5-18T8:18:20Z</time></trkpt>
<trkpt lat="46.072680" lon="6.100900"><ele></ele><time>2017-5-18T8:18:23Z</time></trkpt>
<trkpt lat="46.073021" lon="6.101240"><ele></ele><time>2017-5-18T8:18:26Z</time></trkpt>
<trkpt lat="46.073292" lon="6.101505"><ele></ele><time>2017-5-18T8:18:29Z</time></trkpt>
<trkpt lat="46.073372" lon="6.101582"><ele></ele><time>2017-5-18T8:18:32Z</time></trkpt>
<trkpt lat="46.073482" lon="6.101703"><ele></ele><time>2017-5-18T8:18:35Z</time></trkpt>
<trkpt lat="46.073526" lon="6.101737"><ele></ele><time>2017-5-18T8:18:38Z</time></trkpt>
<trkpt lat="46.073579" lon="6.101777"><ele></ele><time>2017-5-18T8:18:41Z</time></trkpt>
<trkpt lat="46.073823" lon="6.101988"><ele></ele><time>2017-5-18T8:18:44Z</time></trkpt>
<trkpt lat="46.073872" lon="6.102050"><ele></ele><time>2017-5-18T8:18:47Z</time></trkpt>
<trkpt lat="46.073998" lon="6.102212"><ele></ele><time>2017-5-18T8:18:50Z</time></trkpt>
<trkpt lat="46.074163" lon="6.102445"><ele></ele><time>2017-5-18T8:18:53Z</time></trkpt>
<trkpt lat="46.074319" lon="6.102731"><ele></ele><time>2017-5-18T8:18:56Z</time></trkpt>
<trkpt lat="46.074450" lon="6.102954"><ele></ele><time>2017-5-18T8:18:59Z</time></trkpt>
<trkpt lat="46.074614" lon="6.103243"><ele></ele><time>2017-5-18T8:19:2Z</time></trkpt>
<trkpt lat="46.074739" lon="6.103437"><ele></ele><time>2017-5-18T8:19:5Z</time></trkpt>
<trkpt lat="46.074905" lon="6.103641"><ele></ele><time>2017-5-18T8:19:8Z</time></trkpt>
<trkpt lat="46.075012" lon="6.103771"><ele></ele><time>2017-5-18T8:19:11Z</time></trkpt>
<trkpt lat="46.075075" lon="6.103826"><ele></ele><time>2017-5-18T8:19:14Z</time></trkpt>
<trkpt lat="46.075203" lon="6.103936"><ele></ele><time>2017-5-18T8:19:17Z</time></trkpt>
<trkpt lat="46.075268" lon="6.104001"><ele></ele><time>2017-5-18T8:19:20Z</time></trkpt>
<trkpt lat="46.075343" lon="6.104061"><ele></ele><time>2017-5-18T8:19:23Z</time></trkpt>
<trkpt lat="46.075424" lon="6.104094"><ele></ele><time>2017-5-18T8:19:26Z</time></trkpt>
<trkpt lat="46.075509" lon="6.104105"><ele></ele><time>2017-5-18T8:19:29Z</time></trkpt>
<trkpt lat="46.075589" lon="6.104098"><ele></ele><time>2017-5-18T8:19:32Z</time></trkpt>
<trkpt lat="46.075672" lon="6.104086"><ele></ele><time>2017-5-18T8:19:35Z</time></trkpt>
<trkpt lat="46.076184" lon="6.104057"><ele></ele><time>2017-5-18T8:19:38Z</time></trkpt>
<trkpt lat="46.076621" lon="6.104132"><ele></ele><time>2017-5-18T8:19:41Z</time></trkpt>
<trkpt lat="46.076914" lon="6.104158"><ele></ele><time>2017-5-18T8:19:44Z</time></trkpt>
<trkpt lat="46.076988" lon="6.104180"><ele></ele><time>2017-5-18T8:19:47Z</time></trkpt>
<trkpt lat="46.077063" lon="6.104220"><ele></ele><time>2017-5-18T8:19:50Z</time></trkpt>
<trkpt lat="46.077135" lon="6.104275"><ele></ele><time>2017-5-18T8:19:53Z</time></trkpt>
<trkpt lat="46.077208" lon="6.104330"><ele></ele><time>2017-5-18T8:19:56Z</time></trkpt>
<trkpt lat="46.077281" lon="6.104380"><ele></ele><time>2017-5-18T8:19:59Z</time></trkpt>
<trkpt lat="46.077679" lon="6.104590"><ele></ele><time>2017-5-18T8:20:2Z</time></trkpt>
<trkpt lat="46.078094" lon="6.104879"><ele></ele><time>2017-5-18T8:20:5Z</time></trkpt>
<trkpt lat="46.078364" lon="6.105094"><ele></ele><time>2017-5-18T8:20:8Z</time></trkpt>
<trkpt lat="46.078550" lon="6.105268"><ele></ele><time>2017-5-18T8:20:11Z</time></trkpt>
<trkpt lat="46.078787" lon="6.105536"><ele></ele><time>2017-5-18T8:20:14Z</time></trkpt>
<trkpt lat="46.079025" lon="6.105839"><ele></ele><time>2017-5-18T8:20:17Z</time></trkpt>
<trkpt lat="46.079094" lon="6.105906"><ele></ele><time>2017-5-18T8:20:20Z</time></trkpt>
<trkpt lat="46.079128" lon="6.105943"><ele></ele><time>2017-5-18T8:20:23Z</time></trkpt>
<trkpt lat="46.079162" lon="6.105975"><ele></ele><time>2017-5-18T8:20:26Z</time></trkpt>
<trkpt lat="46.079353" lon="6.106098"><ele></ele><time>2017-5-18T8:20:29Z</time></trkpt>
<trkpt lat="46.079543" lon="6.106148"><ele></ele><time>2017-5-18T8:20:32Z</time></trkpt>
<trkpt lat="46.079581" lon="6.106154"><ele></ele><time>2017-5-18T8:20:35Z</time></trkpt>
<trkpt lat="46.079622" lon="6.106166"><ele></ele><time>2017-5-18T8:20:38Z</time></trkpt>
<trkpt lat="46.079850" lon="6.106259"><ele></ele><time>2017-5-18T8:20:41Z</time></trkpt>
<trkpt lat="46.080122" lon="6.106310"><ele></ele><time>2017-5-18T8:20:44Z</time></trkpt>
<trkpt lat="46.080183" lon="6.106300"><ele></ele><time>2017-5-18T8:20:47Z</time></trkpt>
<trkpt lat="46.080700" lon="6.106120"><ele></ele><time>2017-5-18T8:20:50Z</time></trkpt>
<trkpt lat="46.081245" lon="6.106000"><ele></ele><time>2017-5-18T8:20:53Z</time></trkpt>
<trkpt lat="46.081436" lon="6.106027"><ele></ele><time>2017-5-18T8:20:56Z</time></trkpt>
<trkpt lat="46.081495" lon="6.106021"><ele></ele><time>2017-5-18T8:20:59Z</time></trkpt>
<trkpt lat="46.081551" lon="6.106001"><ele></ele><time>2017-5-18T8:21:2Z</time></trkpt>
<trkpt lat="46.081599" lon="6.105960"><ele></ele><time>2017-5-18T8:21:5Z</time></trkpt>
<trkpt lat="46.081637" lon="6.105893"><ele></ele><time>2017-5-18T8:21:8Z</time></trkpt>
<trkpt lat="46.081662" lon="6.105806"><ele></ele><time>2017-5-18T8:21:11Z</time></trkpt>
<trkpt lat="46.081672" lon="6.105740"><ele></ele><time>2017-5-18T8:21:14Z</time></trkpt>
<trkpt lat="46.081678" lon="6.105658"><ele></ele><time>2017-5-18T8:21:17Z</time></trkpt>
<trkpt lat="46.081675" lon="6.105575"><ele></ele><time>2017-5-18T8:21:20Z</time></trkpt>
<trkpt lat="46.081665" lon="6.105496"><ele></ele><time>2017-5-18T8:21:23Z</time></trkpt>
<trkpt lat="46.081652" lon="6.105429"><ele></ele><time>2017-5-18T8:21:26Z</time></trkpt>
<trkpt lat="46.081645" lon="6.105387"><ele></ele><time>2017-5-18T8:21:29Z</time></trkpt>
<trkpt lat="46.081646" lon="6.105356"><ele></ele><time>2017-5-18T8:21:32Z</time></trkpt>
<trkpt lat="46.081645" lon="6.105330"><ele></ele><time>2017-5-18T8:21:35Z</time></trkpt>
<trkpt lat="46.081636" lon="6.105295"><ele></ele><time>2017-5-18T8:21:38Z</time></trkpt>
<trkpt lat="46.081638" lon="6.105286"><ele></ele><time>2017-5-18T8:21:41Z</time></trkpt>
<trkpt lat="46.081642" lon="6.105278"><ele></ele><time>2017-5-18T8:21:44Z</time></trkpt>
<trkpt lat="46.081639" lon="6.105259"><ele></ele><time>2017-5-18T8:21:47Z</time></trkpt>
<trkpt lat="46.081623" lon="6.105256"><ele></ele><time>2017-5-18T8:21:50Z</time></trkpt>
<trkpt lat="46.081605" lon="6.105265"><ele></ele><time>2017-5-18T8:21:53Z</time></trkpt>
<trkpt lat="46.081591" lon="6.105249"><ele></ele><time>2017-5-18T8:21:56Z</time></trkpt>
<trkpt lat="46.081570" lon="6.105226"><ele></ele><time>2017-5-18T8:21:59Z</time></trkpt>
<trkpt lat="46.081462" lon="6.105120"><ele></ele><time>2017-5-18T8:22:2Z</time></trkpt>
<trkpt lat="46.081237" lon="6.104886"><ele></ele><time>2017-5-18T8:22:5Z</time></trkpt>
<trkpt lat="46.080770" lon="6.104447"><ele></ele><time>2017-5-18T8:22:8Z</time></trkpt>
<trkpt lat="46.080719" lon="6.104381"><ele></ele><time>2017-5-18T8:22:11Z</time></trkpt>
<trkpt lat="46.080691" lon="6.104307"><ele></ele><time>2017-5-18T8:22:14Z</time></trkpt>
<trkpt lat="46.080697" lon="6.104236"><ele></ele><time>2017-5-18T8:22:17Z</time></trkpt>
<trkpt lat="46.080733" lon="6.104172"><ele></ele><time>2017-5-18T8:22:20Z</time></trkpt>
<trkpt lat="46.080785" lon="6.104120"><ele></ele><time>2017-5-18T8:22:23Z</time></trkpt>
<trkpt lat="46.080855" lon="6.104071"><ele></ele><time>2017-5-18T8:22:26Z</time></trkpt>
<trkpt lat="46.080932" lon="6.104025"><ele></ele><time>2017-5-18T8:22:29Z</time></trkpt>
<trkpt lat="46.081586" lon="6.103688"><ele></ele><time>2017-5-18T8:22:32Z</time></trkpt>
<trkpt lat="46.082264" lon="6.103330"><ele></ele><time>2017-5-18T8:22:35Z</time></trkpt>
<trkpt lat="46.082575" lon="6.103173"><ele></ele><time>2017-5-18T8:22:38Z</time></trkpt>
<trkpt lat="46.082624" lon="6.103096"><ele></ele><time>2017-5-18T8:22:41Z</time></trkpt>
<trkpt lat="46.082646" lon="6.102997"><ele></ele><time>2017-5-18T8:22:44Z</time></trkpt>
<trkpt lat="46.082655" lon="6.102876"><ele></ele><time>2017-5-18T8:22:47Z</time></trkpt>
<trkpt lat="46.082655" lon="6.102759"><ele></ele><time>2017-5-18T8:22:50Z</time></trkpt>
<trkpt lat="46.082645" lon="6.102645"><ele></ele><time>2017-5-18T8:22:53Z</time></trkpt>
<trkpt lat="46.082618" lon="6.102551"><ele></ele><time>2017-5-18T8:22:56Z</time></trkpt>
<trkpt lat="46.082571" lon="6.102483"><ele></ele><time>2017-5-18T8:22:59Z</time></trkpt>
<trkpt lat="46.082508" lon="6.102441"><ele></ele><time>2017-5-18T8:23:2Z</time></trkpt>
<trkpt lat="46.082434" lon="6.102416"><ele></ele><time>2017-5-18T8:23:5Z</time></trkpt>
<trkpt lat="46.082366" lon="6.102405"><ele></ele><time>2017-5-18T8:23:8Z</time></trkpt>
<trkpt lat="46.082296" lon="6.102397"><ele></ele><time>2017-5-18T8:23:11Z</time></trkpt>
<trkpt lat="46.082243" lon="6.102385"><ele></ele><time>2017-5-18T8:23:14Z</time></trkpt>
<trkpt lat="46.082201" lon="6.102367"><ele></ele><time>2017-5-18T8:23:17Z</time></trkpt>
<trkpt lat="46.082170" lon="6.102348"><ele></ele><time>2017-5-18T8:23:20Z</time></trkpt>
<trkpt lat="46.082154" lon="6.102337"><ele></ele><time>2017-5-18T8:23:23Z</time></trkpt>
<trkpt lat="46.082139" lon="6.102331"><ele></ele><time>2017-5-18T8:23:26Z</time></trkpt>
<trkpt lat="46.082116" lon="6.102319"><ele></ele><time>2017-5-18T8:23:29Z</time></trkpt>
<trkpt lat="46.082107" lon="6.102312"><ele></ele><time>2017-5-18T8:23:32Z</time></trkpt>
<trkpt lat="46.082111" lon="6.102271"><ele></ele><time>2017-5-18T8:23:35Z</time></trkpt>
<trkpt lat="46.082128" lon="6.102244"><ele></ele><time>2017-5-18T8:23:38Z</time></trkpt>
<trkpt lat="46.082150" lon="6.102207"><ele></ele><time>2017-5-18T8:23:41Z</time></trkpt>
<trkpt lat="46.082316" lon="6.101946"><ele></ele><time>2017-5-18T8:23:44Z</time></trkpt>
<trkpt lat="46.082664" lon="6.101509"><ele></ele><time>2017-5-18T8:23:47Z</time></trkpt>
<trkpt lat="46.083204" lon="6.100833"><ele></ele><time>2017-5-18T8:23:50Z</time></trkpt>
<trkpt lat="46.083297" lon="6.100764"><ele></ele><time>2017-5-18T8:23:53Z</time></trkpt>
<trkpt lat="46.083400" lon="6.100722"><ele></ele><time>2017-5-18T8:23:56Z</time></trkpt>
<trkpt lat="46.083505" lon="6.100707"><ele></ele><time>2017-5-18T8:23:59Z</time></trkpt>
<trkpt lat="46.083609" lon="6.100719"><ele></ele><time>2017-5-18T8:24:2Z</time></trkpt>
<trkpt lat="46.083713" lon="6.100756"><ele></ele><time>2017-5-18T8:24:5Z</time></trkpt>
<trkpt lat="46.083818" lon="6.100807"><ele></ele><time>2017-5-18T8:24:8Z</time></trkpt>
<trkpt lat="46.084477" lon="6.101142"><ele></ele><time>2017-5-18T8:24:11Z</time></trkpt>
<trkpt lat="46.084565" lon="6.101220"><ele></ele><time>2017-5-18T8:24:14Z</time></trkpt>
<trkpt lat="46.084647" lon="6.101314"><ele></ele><time>2017-5-18T8:24:17Z</time></trkpt>
<trkpt lat="46.084724" lon="6.101415"><ele></ele><time>2017-5-18T8:24:20Z</time></trkpt>
<trkpt lat="46.084798" lon="6.101521"><ele></ele><time>2017-5-18T8:24:23Z</time></trkpt>
<trkpt lat="46.085008" lon="6.101797"><ele></ele><time>2017-5-18T8:24:26Z</time></trkpt>
<trkpt lat="46.085077" lon="6.101845"><ele></ele><time>2017-5-18T8:24:29Z</time></trkpt>
<trkpt lat="46.085144" lon="6.101859"><ele></ele><time>2017-5-18T8:24:32Z</time></trkpt>
<trkpt lat="46.085206" lon="6.101840"><ele></ele><time>2017-5-18T8:24:35Z</time></trkpt>
<trkpt lat="46.085254" lon="6.101804"><ele></ele><time>2017-5-18T8:24:38Z</time></trkpt>
<trkpt lat="46.085298" lon="6.101769"><ele></ele><time>2017-5-18T8:24:41Z</time></trkpt>
<trkpt lat="46.085342" lon="6.101748"><ele></ele><time>2017-5-18T8:24:44Z</time></trkpt>
<trkpt lat="46.085387" lon="6.101736"><ele></ele><time>2017-5-18T8:24:47Z</time></trkpt>
<trkpt lat="46.085436" lon="6.101717"><ele></ele><time>2017-5-18T8:24:50Z</time></trkpt>
<trkpt lat="46.085489" lon="6.101692"><ele></ele><time>2017-5-18T8:24:53Z</time></trkpt>
<trkpt lat="46.085539" lon="6.101646"><ele></ele><time>2017-5-18T8:24:56Z</time></trkpt>
<trkpt lat="46.085576" lon="6.101574"><ele></ele><time>2017-5-18T8:24:59Z</time></trkpt>
<trkpt lat="46.085598" lon="6.101492"><ele></ele><time>2017-5-18T8:25:2Z</time></trkpt>
<trkpt lat="46.085602" lon="6.101403"><ele></ele><time>2017-5-18T8:25:5Z</time></trkpt>
<trkpt lat="46.085593" lon="6.101317"><ele></ele><time>2017-5-18T8:25:8Z</time></trkpt>
<trkpt lat="46.085578" lon="6.101245"><ele></ele><time>2017-5-18T8:25:11Z</time></trkpt>
<trkpt lat="46.085567" lon="6.101173"><ele></ele><time>2017-5-18T8:25:14Z</time></trkpt>
<trkpt lat="46.085561" lon="6.101107"><ele></ele><time>2017-5-18T8:25:17Z</time></trkpt>
<trkpt lat="46.085555" lon="6.101040"><ele></ele><time>2017-5-18T8:25:20Z</time></trkpt>
<trkpt lat="46.085540" lon="6.100977"><ele></ele><time>2017-5-18T8:25:23Z</time></trkpt>
<trkpt lat="46.085515" lon="6.100917"><ele></ele><time>2017-5-18T8:25:26Z</time></trkpt>
<trkpt lat="46.085480" lon="6.100863"><ele></ele><time>2017-5-18T8:25:29Z</time></trkpt>
<trkpt lat="46.085438" lon="6.100821"><ele></ele><time>2017-5-18T8:25:32Z</time></trkpt>
<trkpt lat="46.085386" lon="6.100788"><ele></ele><time>2017-5-18T8:25:35Z</time></trkpt>
<trkpt lat="46.085329" lon="6.100756"><ele></ele><time>2017-5-18T8:25:38Z</time></trkpt>
<trkpt lat="46.084899" lon="6.100438"><ele></ele><time>2017-5-18T8:25:41Z</time></trkpt>
<trkpt lat="46.084549" lon="6.100196"><ele></ele><time>2017-5-18T8:25:44Z</time></trkpt>
<trkpt lat="46.084452" lon="6.100125"><ele></ele><time>2017-5-18T8:25:47Z</time></trkpt>
<trkpt lat="46.084067" lon="6.099709"><ele></ele><time>2017-5-18T8:25:50Z</time></trkpt>
<trkpt lat="46.083667" lon="6.099172"><ele></ele><time>2017-5-18T8:25:53Z</time></trkpt>
<trkpt lat="46.083304" lon="6.098749"><ele></ele><time>2017-5-18T8:25:56Z</time></trkpt>
<trkpt lat="46.082932" lon="6.098203"><ele></ele><time>2017-5-18T8:25:59Z</time></trkpt>
<trkpt lat="46.082563" lon="6.097649"><ele></ele><time>2017-5-18T8:26:2Z</time></trkpt>
<trkpt lat="46.082290" lon="6.097015"><ele></ele><time>2017-5-18T8:26:5Z</time></trkpt>
<trkpt lat="46.082104" lon="6.096194"><ele></ele><time>2017-5-18T8:26:8Z</time></trkpt>
<trkpt lat="46.081966" lon="6.095474"><ele></ele><time>2017-5-18T8:26:11Z</time></trkpt>
<trkpt lat="46.081885" lon="6.095000"><ele></ele><time>2017-5-18T8:26:14Z</time></trkpt>
<trkpt lat="46.081879" lon="6.094904"><ele></ele><time>2017-5-18T8:26:17Z</time></trkpt>
<trkpt lat="46.081880" lon="6.094791"><ele></ele><time>2017-5-18T8:26:20Z</time></trkpt>
<trkpt lat="46.081888" lon="6.094692"><ele></ele><time>2017-5-18T8:26:23Z</time></trkpt>
<trkpt lat="46.081910" lon="6.094569"><ele></ele><time>2017-5-18T8:26:26Z</time></trkpt>
<trkpt lat="46.081932" lon="6.094475"><ele></ele><time>2017-5-18T8:26:29Z</time></trkpt>
<trkpt lat="46.081967" lon="6.094361"><ele></ele><time>2017-5-18T8:26:32Z</time></trkpt>
<trkpt lat="46.082009" lon="6.094261"><ele></ele><time>2017-5-18T8:26:35Z</time></trkpt>
<trkpt lat="46.082064" lon="6.094162"><ele></ele><time>2017-5-18T8:26:38Z</time></trkpt>
<trkpt lat="46.082125" lon="6.094078"><ele></ele><time>2017-5-18T8:26:41Z</time></trkpt>
<trkpt lat="46.082207" lon="6.093993"><ele></ele><time>2017-5-18T8:26:44Z</time></trkpt>
<trkpt lat="46.082291" lon="6.093924"><ele></ele><time>2017-5-18T8:26:47Z</time></trkpt>
<trkpt lat="46.082362" lon="6.093879"><ele></ele><time>2017-5-18T8:26:50Z</time></trkpt>
<trkpt lat="46.082446" lon="6.093829"><ele></ele><time>2017-5-18T8:26:53Z</time></trkpt>
<trkpt lat="46.082711" lon="6.093612"><ele></ele><time>2017-5-18T8:26:56Z</time></trkpt>
<trkpt lat="46.082778" lon="6.093532"><ele></ele><time>2017-5-18T8:26:59Z</time></trkpt>
<trkpt lat="46.083338" lon="6.092762"><ele></ele><time>2017-5-18T8:27:2Z</time></trkpt>
<trkpt lat="46.083803" lon="6.092054"><ele></ele><time>2017-5-18T8:27:5Z</time></trkpt>
<trkpt lat="46.084112" lon="6.091305"><ele></ele><time>2017-5-18T8:27:8Z</time></trkpt>
<trkpt lat="46.084485" lon="6.090351"><ele></ele><time>2017-5-18T8:27:11Z</time></trkpt>
<trkpt lat="46.084514" lon="6.090261"><ele></ele><time>2017-5-18T8:27:14Z</time></trkpt>
<trkpt lat="46.084628" lon="6.089725"><ele></ele><time>2017-5-18T8:27:17Z</time></trkpt>
<trkpt lat="46.084667" lon="6.089290"><ele></ele><time>2017-5-18T8:27:20Z</time></trkpt>
<trkpt lat="46.084688" lon="6.088816"><ele></ele><time>2017-5-18T8:27:23Z</time></trkpt>
<trkpt lat="46.084714" lon="6.088238"><ele></ele><time>2017-5-18T8:27:26Z</time></trkpt>
<trkpt lat="46.084735" lon="6.087823"><ele></ele><time>2017-5-18T8:27:29Z</time></trkpt>
<trkpt lat="46.084752" lon="6.087409"><ele></ele><time>2017-5-18T8:27:32Z</time></trkpt>
<trkpt lat="46.084789" lon="6.087148"><ele></ele><time>2017-5-18T8:27:35Z</time></trkpt>
<trkpt lat="46.084872" lon="6.086920"><ele></ele><time>2017-5-18T8:27:38Z</time></trkpt>
<trkpt lat="46.085052" lon="6.086689"><ele></ele><time>2017-5-18T8:27:41Z</time></trkpt>
<trkpt lat="46.085350" lon="6.086475"><ele></ele><time>2017-5-18T8:27:44Z</time></trkpt>
<trkpt lat="46.085862" lon="6.086143"><ele></ele><time>2017-5-18T8:27:47Z</time></trkpt>
<trkpt lat="46.086248" lon="6.085866"><ele></ele><time>2017-5-18T8:27:50Z</time></trkpt>
<trkpt lat="46.086293" lon="6.085807"><ele></ele><time>2017-5-18T8:27:53Z</time></trkpt>
<trkpt lat="46.086333" lon="6.085743"><ele></ele><time>2017-5-18T8:27:56Z</time></trkpt>
<trkpt lat="46.086366" lon="6.085680"><ele></ele><time>2017-5-18T8:27:59Z</time></trkpt>
<trkpt lat="46.086398" lon="6.085615"><ele></ele><time>2017-5-18T8:28:2Z</time></trkpt>
<trkpt lat="46.086637" lon="6.085169"><ele></ele><time>2017-5-18T8:28:5Z</time></trkpt>
<trkpt lat="46.086883" lon="6.084871"><ele></ele><time>2017-5-18T8:28:8Z</time></trkpt>
<trkpt lat="46.087016" lon="6.084711"><ele></ele><time>2017-5-18T8:28:11Z</time></trkpt>
<trkpt lat="46.087175" lon="6.084528"><ele></ele><time>2017-5-18T8:28:14Z</time></trkpt>
<trkpt lat="46.087311" lon="6.084372"><ele></ele><time>2017-5-18T8:28:17Z</time></trkpt>
<trkpt lat="46.087467" lon="6.084186"><ele></ele><time>2017-5-18T8:28:20Z</time></trkpt>
<trkpt lat="46.087652" lon="6.083965"><ele></ele><time>2017-5-18T8:28:23Z</time></trkpt>
<trkpt lat="46.087800" lon="6.083793"><ele></ele><time>2017-5-18T8:28:26Z</time></trkpt>
<trkpt lat="46.087984" lon="6.083578"><ele></ele><time>2017-5-18T8:28:29Z</time></trkpt>
<trkpt lat="46.088175" lon="6.083363"><ele></ele><time>2017-5-18T8:28:32Z</time></trkpt>
<trkpt lat="46.088413" lon="6.083113"><ele></ele><time>2017-5-18T8:28:35Z</time></trkpt>
<trkpt lat="46.088611" lon="6.082919"><ele></ele><time>2017-5-18T8:28:38Z</time></trkpt>
<trkpt lat="46.088800" lon="6.082714"><ele></ele><time>2017-5-18T8:28:41Z</time></trkpt>
<trkpt lat="46.089080" lon="6.082437"><ele></ele><time>2017-5-18T8:28:44Z</time></trkpt>
<trkpt lat="46.089425" lon="6.082163"><ele></ele><time>2017-5-18T8:28:47Z</time></trkpt>
<trkpt lat="46.089719" lon="6.081901"><ele></ele><time>2017-5-18T8:28:50Z</time></trkpt>
<trkpt lat="46.089930" lon="6.081694"><ele></ele><time>2017-5-18T8:28:53Z</time></trkpt>
<trkpt lat="46.090098" lon="6.081480"><ele></ele><time>2017-5-18T8:28:56Z</time></trkpt>
<trkpt lat="46.090265" lon="6.081255"><ele></ele><time>2017-5-18T8:28:59Z</time></trkpt>
<trkpt lat="46.090502" lon="6.080967"><ele></ele><time>2017-5-18T8:29:2Z</time></trkpt>
<trkpt lat="46.090741" lon="6.080677"><ele></ele><time>2017-5-18T8:29:5Z</time></trkpt>
<trkpt lat="46.090973" lon="6.080393"><ele></ele><time>2017-5-18T8:29:8Z</time></trkpt>
<trkpt lat="46.091133" lon="6.080194"><ele></ele><time>2017-5-18T8:29:11Z</time></trkpt>
<trkpt lat="46.091327" lon="6.079981"><ele></ele><time>2017-5-18T8:29:14Z</time></trkpt>
<trkpt lat="46.091539" lon="6.079690"><ele></ele><time>2017-5-18T8:29:17Z</time></trkpt>
<trkpt lat="46.091727" lon="6.079420"><ele></ele><time>2017-5-18T8:29:20Z</time></trkpt>
<trkpt lat="46.091877" lon="6.079247"><ele></ele><time>2017-5-18T8:29:23Z</time></trkpt>
<trkpt lat="46.091981" lon="6.079055"><ele></ele><time>2017-5-18T8:29:26Z</time></trkpt>
<trkpt lat="46.091999" lon="6.079035"><ele></ele><time>2017-5-18T8:29:29Z</time></trkpt>
<trkpt lat="46.092148" lon="6.078852"><ele></ele><time>2017-5-18T8:29:32Z</time></trkpt>
<trkpt lat="46.092385" lon="6.078630"><ele></ele><time>2017-5-18T8:29:35Z</time></trkpt>
<trkpt lat="46.092581" lon="6.078478"><ele></ele><time>2017-5-18T8:29:38Z</time></trkpt>
<trkpt lat="46.092702" lon="6.078307"><ele></ele><time>2017-5-18T8:29:41Z</time></trkpt>
<trkpt lat="46.092839" lon="6.078142"><ele></ele><time>2017-5-18T8:29:44Z</time></trkpt>
<trkpt lat="46.092995" lon="6.077954"><ele></ele><time>2017-5-18T8:29:47Z</time></trkpt>
<trkpt lat="46.093202" lon="6.077630"><ele></ele><time>2017-5-18T8:29:50Z</time></trkpt>
<trkpt lat="46.093343" lon="6.077276"><ele></ele><time>2017-5-18T8:29:53Z</time></trkpt>
<trkpt lat="46.093486" lon="6.076963"><ele></ele><time>2017-5-18T8:29:56Z</time></trkpt>
<trkpt lat="46.093608" lon="6.076761"><ele></ele><time>2017-5-18T8:29:59Z</time></trkpt>
<trkpt lat="46.093634" lon="6.076734"><ele></ele><time>2017-5-18T8:30:2Z</time></trkpt>
<trkpt lat="46.093673" lon="6.076702"><ele></ele><time>2017-5-18T8:30:5Z</time></trkpt>
<trkpt lat="46.093711" lon="6.076663"><ele></ele><time>2017-5-18T8:30:8Z</time></trkpt>
<trkpt lat="46.093750" lon="6.076614"><ele></ele><time>2017-5-18T8:30:11Z</time></trkpt>
<trkpt lat="46.093789" lon="6.076556"><ele></ele><time>2017-5-18T8:30:14Z</time></trkpt>
<trkpt lat="46.093825" lon="6.076485"><ele></ele><time>2017-5-18T8:30:17Z</time></trkpt>
<trkpt lat="46.093858" lon="6.076403"><ele></ele><time>2017-5-18T8:30:20Z</time></trkpt>
<trkpt lat="46.093892" lon="6.076307"><ele></ele><time>2017-5-18T8:30:23Z</time></trkpt>
<trkpt lat="46.093959" lon="6.076138"><ele></ele><time>2017-5-18T8:30:26Z</time></trkpt>
<trkpt lat="46.093998" lon="6.076077"><ele></ele><time>2017-5-18T8:30:29Z</time></trkpt>
<trkpt lat="46.094040" lon="6.076025"><ele></ele><time>2017-5-18T8:30:32Z</time></trkpt>
<trkpt lat="46.094091" lon="6.075998"><ele></ele><time>2017-5-18T8:30:35Z</time></trkpt>
<trkpt lat="46.094150" lon="6.076001"><ele></ele><time>2017-5-18T8:30:38Z</time></trkpt>
<trkpt lat="46.094215" lon="6.076030"><ele></ele><time>2017-5-18T8:30:41Z</time></trkpt>
<trkpt lat="46.094282" lon="6.076082"><ele></ele><time>2017-5-18T8:30:44Z</time></trkpt>
<trkpt lat="46.094343" lon="6.076148"><ele></ele><time>2017-5-18T8:30:47Z</time></trkpt>
<trkpt lat="46.094404" lon="6.076220"><ele></ele><time>2017-5-18T8:30:50Z</time></trkpt>
<trkpt lat="46.094638" lon="6.076492"><ele></ele><time>2017-5-18T8:30:53Z</time></trkpt>
<trkpt lat="46.094690" lon="6.076498"><ele></ele><time>2017-5-18T8:30:56Z</time></trkpt>
<trkpt lat="46.094740" lon="6.076460"><ele></ele><time>2017-5-18T8:30:59Z</time></trkpt>
<trkpt lat="46.094778" lon="6.076398"><ele></ele><time>2017-5-18T8:31:2Z</time></trkpt>
<trkpt lat="46.094813" lon="6.076324"><ele></ele><time>2017-5-18T8:31:5Z</time></trkpt>
<trkpt lat="46.095022" lon="6.075785"><ele></ele><time>2017-5-18T8:31:8Z</time></trkpt>
<trkpt lat="46.095220" lon="6.075063"><ele></ele><time>2017-5-18T8:31:11Z</time></trkpt>
<trkpt lat="46.095236" lon="6.074924"><ele></ele><time>2017-5-18T8:31:14Z</time></trkpt>
<trkpt lat="46.095237" lon="6.074792"><ele></ele><time>2017-5-18T8:31:17Z</time></trkpt>
<trkpt lat="46.095235" lon="6.074559"><ele></ele><time>2017-5-18T8:31:20Z</time></trkpt>
<trkpt lat="46.095253" lon="6.074475"><ele></ele><time>2017-5-18T8:31:23Z</time></trkpt>
<trkpt lat="46.095290" lon="6.074411"><ele></ele><time>2017-5-18T8:31:26Z</time></trkpt>
<trkpt lat="46.095345" lon="6.074375"><ele></ele><time>2017-5-18T8:31:29Z</time></trkpt>
<trkpt lat="46.095415" lon="6.074361"><ele></ele><time>2017-5-18T8:31:32Z</time></trkpt>
<trkpt lat="46.095490" lon="6.074367"><ele></ele><time>2017-5-18T8:31:35Z</time></trkpt>
<trkpt lat="46.095577" lon="6.074378"><ele></ele><time>2017-5-18T8:31:38Z</time></trkpt>
<trkpt lat="46.095920" lon="6.074399"><ele></ele><time>2017-5-18T8:31:41Z</time></trkpt>
<trkpt lat="46.096004" lon="6.074379"><ele></ele><time>2017-5-18T8:31:44Z</time></trkpt>
<trkpt lat="46.096092" lon="6.074343"><ele></ele><time>2017-5-18T8:31:47Z</time></trkpt>
<trkpt lat="46.096177" lon="6.074295"><ele></ele><time>2017-5-18T8:31:50Z</time></trkpt>
<trkpt lat="46.096263" lon="6.074235"><ele></ele><time>2017-5-18T8:31:53Z</time></trkpt>
<trkpt lat="46.096528" lon="6.074061"><ele></ele><time>2017-5-18T8:31:56Z</time></trkpt>
<trkpt lat="46.096611" lon="6.074030"><ele></ele><time>2017-5-18T8:31:59Z</time></trkpt>
<trkpt lat="46.096701" lon="6.074012"><ele></ele><time>2017-5-18T8:32:2Z</time></trkpt>
<trkpt lat="46.096798" lon="6.074005"><ele></ele><time>2017-5-18T8:32:5Z</time></trkpt>
<trkpt lat="46.096897" lon="6.074006"><ele></ele><time>2017-5-18T8:32:8Z</time></trkpt>
<trkpt lat="46.097589" lon="6.074048"><ele></ele><time>2017-5-18T8:32:11Z</time></trkpt>
<trkpt lat="46.097716" lon="6.074051"><ele></ele><time>2017-5-18T8:32:14Z</time></trkpt>
<trkpt lat="46.097834" lon="6.074036"><ele></ele><time>2017-5-18T8:32:17Z</time></trkpt>
<trkpt lat="46.098191" lon="6.073968"><ele></ele><time>2017-5-18T8:32:20Z</time></trkpt>
<trkpt lat="46.098567" lon="6.073948"><ele></ele><time>2017-5-18T8:32:23Z</time></trkpt>
<trkpt lat="46.098689" lon="6.073919"><ele></ele><time>2017-5-18T8:32:26Z</time></trkpt>
<trkpt lat="46.099253" lon="6.073718"><ele></ele><time>2017-5-18T8:32:29Z</time></trkpt>
<trkpt lat="46.099326" lon="6.073669"><ele></ele><time>2017-5-18T8:32:32Z</time></trkpt>
<trkpt lat="46.099423" lon="6.073569"><ele></ele><time>2017-5-18T8:32:35Z</time></trkpt>
<trkpt lat="46.099428" lon="6.073533"><ele></ele><time>2017-5-18T8:32:38Z</time></trkpt>
<trkpt lat="46.099438" lon="6.073382"><ele></ele><time>2017-5-18T8:32:41Z</time></trkpt>
<trkpt lat="46.099432" lon="6.073321"><ele></ele><time>2017-5-18T8:32:44Z</time></trkpt>
<trkpt lat="46.099420" lon="6.073258"><ele></ele><time>2017-5-18T8:32:47Z</time></trkpt>
<trkpt lat="46.099288" lon="6.072802"><ele></ele><time>2017-5-18T8:32:50Z</time></trkpt>
<trkpt lat="46.099214" lon="6.072611"><ele></ele><time>2017-5-18T8:32:53Z</time></trkpt>
<trkpt lat="46.099210" lon="6.072617"><ele></ele><time>2017-5-18T8:32:56Z</time></trkpt>
<trkpt lat="46.099212" lon="6.072616"><ele></ele><time>2017-5-18T8:32:59Z</time></trkpt>
<trkpt lat="46.099204" lon="6.072628"><ele></ele><time>2017-5-18T8:33:2Z</time></trkpt>
<trkpt lat="46.099189" lon="6.072621"><ele></ele><time>2017-5-18T8:33:5Z</time></trkpt>
<trkpt lat="46.099177" lon="6.072621"><ele></ele><time>2017-5-18T8:33:8Z</time></trkpt>
<trkpt lat="46.099186" lon="6.072623"><ele></ele><time>2017-5-18T8:33:11Z</time></trkpt>
<trkpt lat="46.099212" lon="6.072627"><ele></ele><time>2017-5-18T8:33:14Z</time></trkpt>
<trkpt lat="46.099218" lon="6.072628"><ele></ele><time>2017-5-18T8:33:17Z</time></trkpt>
<trkpt lat="46.099222" lon="6.072625"><ele></ele><time>2017-5-18T8:33:20Z</time></trkpt>
<trkpt lat="46.099225" lon="6.072618"><ele></ele><time>2017-5-18T8:33:23Z</time></trkpt>
<trkpt lat="46.099224" lon="6.072612"><ele></ele><time>2017-5-18T8:33:26Z</time></trkpt>
<trkpt lat="46.099229" lon="6.072587"><ele></ele><time>2017-5-18T8:33:29Z</time></trkpt>
<trkpt lat="46.099230" lon="6.072552"><ele></ele><time>2017-5-18T8:33:32Z</time></trkpt>
<trkpt lat="46.099227" lon="6.072532"><ele></ele><time>2017-5-18T8:33:35Z</time></trkpt>
<trkpt lat="46.099187" lon="6.072392"><ele></ele><time>2017-5-18T8:33:38Z</time></trkpt>
<trkpt lat="46.099155" lon="6.072182"><ele></ele><time>2017-5-18T8:33:41Z</time></trkpt>
<trkpt lat="46.099145" lon="6.072125"><ele></ele><time>2017-5-18T8:33:44Z</time></trkpt>
<trkpt lat="46.099066" lon="6.071564"><ele></ele><time>2017-5-18T8:33:47Z</time></trkpt>
<trkpt lat="46.098981" lon="6.071232"><ele></ele><time>2017-5-18T8:33:50Z</time></trkpt>
<trkpt lat="46.098806" lon="6.070740"><ele></ele><time>2017-5-18T8:33:53Z</time></trkpt>
<trkpt lat="46.098801" lon="6.070658"><ele></ele><time>2017-5-18T8:33:56Z</time></trkpt>
<trkpt lat="46.098811" lon="6.070575"><ele></ele><time>2017-5-18T8:33:59Z</time></trkpt>
<trkpt lat="46.098834" lon="6.070491"><ele></ele><time>2017-5-18T8:34:2Z</time></trkpt>
<trkpt lat="46.098871" lon="6.070398"><ele></ele><time>2017-5-18T8:34:5Z</time></trkpt>
<trkpt lat="46.098908" lon="6.070311"><ele></ele><time>2017-5-18T8:34:8Z</time></trkpt>
<trkpt lat="46.099152" lon="6.069646"><ele></ele><time>2017-5-18T8:34:11Z</time></trkpt>
<trkpt lat="46.099206" lon="6.069548"><ele></ele><time>2017-5-18T8:34:14Z</time></trkpt>
<trkpt lat="46.099273" lon="6.069463"><ele></ele><time>2017-5-18T8:34:17Z</time></trkpt>
<trkpt lat="46.099333" lon="6.069405"><ele></ele><time>2017-5-18T8:34:20Z</time></trkpt>
<trkpt lat="46.099395" lon="6.069355"><ele></ele><time>2017-5-18T8:34:23Z</time></trkpt>
<trkpt lat="46.099455" lon="6.069306"><ele></ele><time>2017-5-18T8:34:26Z</time></trkpt>
<trkpt lat="46.099507" lon="6.069258"><ele></ele><time>2017-5-18T8:34:29Z</time></trkpt>
<trkpt lat="46.099840" lon="6.069063"><ele></ele><time>2017-5-18T8:34:32Z</time></trkpt>
<trkpt lat="46.100198" lon="6.068950"><ele></ele><time>2017-5-18T8:34:35Z</time></trkpt>
<trkpt lat="46.100249" lon="6.068916"><ele></ele><time>2017-5-18T8:34:38Z</time></trkpt>
<trkpt lat="46.100302" lon="6.068883"><ele></ele><time>2017-5-18T8:34:41Z</time></trkpt>
<trkpt lat="46.100342" lon="6.068867"><ele></ele><time>2017-5-18T8:34:44Z</time></trkpt>
<trkpt lat="46.100389" lon="6.068853"><ele></ele><time>2017-5-18T8:34:47Z</time></trkpt>
<trkpt lat="46.100678" lon="6.068758"><ele></ele><time>2017-5-18T8:34:50Z</time></trkpt>
<trkpt lat="46.100796" lon="6.068684"><ele></ele><time>2017-5-18T8:34:53Z</time></trkpt>
<trkpt lat="46.100808" lon="6.068645"><ele></ele><time>2017-5-18T8:34:56Z</time></trkpt>
<trkpt lat="46.100821" lon="6.068353"><ele></ele><time>2017-5-18T8:34:59Z</time></trkpt>
<trkpt lat="46.100883" lon="6.067955"><ele></ele><time>2017-5-18T8:35:2Z</time></trkpt>
<trkpt lat="46.101029" lon="6.067592"><ele></ele><time>2017-5-18T8:35:5Z</time></trkpt>
<trkpt lat="46.101205" lon="6.067177"><ele></ele><time>2017-5-18T8:35:8Z</time></trkpt>
<trkpt lat="46.101307" lon="6.066916"><ele></ele><time>2017-5-18T8:35:11Z</time></trkpt>
<trkpt lat="46.101519" lon="6.066438"><ele></ele><time>2017-5-18T8:35:14Z</time></trkpt>
<trkpt lat="46.101552" lon="6.066369"><ele></ele><time>2017-5-18T8:35:17Z</time></trkpt>
<trkpt lat="46.101861" lon="6.065645"><ele></ele><time>2017-5-18T8:35:20Z</time></trkpt>
<trkpt lat="46.101881" lon="6.065584"><ele></ele><time>2017-5-18T8:35:23Z</time></trkpt>
<trkpt lat="46.101896" lon="6.065519"><ele></ele><time>2017-5-18T8:35:26Z</time></trkpt>
<trkpt lat="46.101930" lon="6.065335"><ele></ele><time>2017-5-18T8:35:29Z</time></trkpt>
<trkpt lat="46.101949" lon="6.065271"><ele></ele><time>2017-5-18T8:35:32Z</time></trkpt>
<trkpt lat="46.101968" lon="6.065216"><ele></ele><time>2017-5-18T8:35:35Z</time></trkpt>
<trkpt lat="46.101990" lon="6.065161"><ele></ele><time>2017-5-18T8:35:38Z</time></trkpt>
<trkpt lat="46.102014" lon="6.065115"><ele></ele><time>2017-5-18T8:35:41Z</time></trkpt>
<trkpt lat="46.102042" lon="6.065071"><ele></ele><time>2017-5-18T8:35:44Z</time></trkpt>
<trkpt lat="46.102069" lon="6.065034"><ele></ele><time>2017-5-18T8:35:47Z</time></trkpt>
<trkpt lat="46.102098" lon="6.064998"><ele></ele><time>2017-5-18T8:35:50Z</time></trkpt>
<trkpt lat="46.102188" lon="6.064877"><ele></ele><time>2017-5-18T8:35:53Z</time></trkpt>
<trkpt lat="46.102407" lon="6.064427"><ele></ele><time>2017-5-18T8:35:56Z</time></trkpt>
<trkpt lat="46.102493" lon="6.064266"><ele></ele><time>2017-5-18T8:35:59Z</time></trkpt>
<trkpt lat="46.102533" lon="6.064226"><ele></ele><time>2017-5-18T8:36:2Z</time></trkpt>
<trkpt lat="46.102572" lon="6.064213"><ele></ele><time>2017-5-18T8:36:5Z</time></trkpt>
<trkpt lat="46.102614" lon="6.064214"><ele></ele><time>2017-5-18T8:36:8Z</time></trkpt>
<trkpt lat="46.102659" lon="6.064215"><ele></ele><time>2017-5-18T8:36:11Z</time></trkpt>
<trkpt lat="46.102709" lon="6.064213"><ele></ele><time>2017-5-18T8:36:14Z</time></trkpt>
<trkpt lat="46.103089" lon="6.064247"><ele></ele><time>2017-5-18T8:36:17Z</time></trkpt>
<trkpt lat="46.103663" lon="6.064356"><ele></ele><time>2017-5-18T8:36:20Z</time></trkpt>
<trkpt lat="46.104175" lon="6.064340"><ele></ele><time>2017-5-18T8:36:23Z</time></trkpt>
<trkpt lat="46.104731" lon="6.064213"><ele></ele><time>2017-5-18T8:36:26Z</time></trkpt>
<trkpt lat="46.105147" lon="6.064137"><ele></ele><time>2017-5-18T8:36:29Z</time></trkpt>
<trkpt lat="46.105695" lon="6.064114"><ele></ele><time>2017-5-18T8:36:32Z</time></trkpt>
<trkpt lat="46.106037" lon="6.064059"><ele></ele><time>2017-5-18T8:36:35Z</time></trkpt>
<trkpt lat="46.106535" lon="6.063906"><ele></ele><time>2017-5-18T8:36:38Z</time></trkpt>
<trkpt lat="46.106787" lon="6.063904"><ele></ele><time>2017-5-18T8:36:41Z</time></trkpt>
<trkpt lat="46.106863" lon="6.063891"><ele></ele><time>2017-5-18T8:36:44Z</time></trkpt>
<trkpt lat="46.106948" lon="6.063867"><ele></ele><time>2017-5-18T8:36:47Z</time></trkpt>
<trkpt lat="46.107461" lon="6.063720"><ele></ele><time>2017-5-18T8:36:50Z</time></trkpt>
<trkpt lat="46.107930" lon="6.063533"><ele></ele><time>2017-5-18T8:36:53Z</time></trkpt>
<trkpt lat="46.108460" lon="6.063269"><ele></ele><time>2017-5-18T8:36:56Z</time></trkpt>
<trkpt lat="46.108946" lon="6.063031"><ele></ele><time>2017-5-18T8:36:59Z</time></trkpt>
<trkpt lat="46.109013" lon="6.063018"><ele></ele><time>2017-5-18T8:37:2Z</time></trkpt>
<trkpt lat="46.109076" lon="6.063012"><ele></ele><time>2017-5-18T8:37:5Z</time></trkpt>
<trkpt lat="46.109578" lon="6.063017"><ele></ele><time>2017-5-18T8:37:8Z</time></trkpt>
<trkpt lat="46.110143" lon="6.062949"><ele></ele><time>2017-5-18T8:37:11Z</time></trkpt>
<trkpt lat="46.110756" lon="6.062797"><ele></ele><time>2017-5-18T8:37:14Z</time></trkpt>
<trkpt lat="46.111140" lon="6.062636"><ele></ele><time>2017-5-18T8:37:17Z</time></trkpt>
<trkpt lat="46.111567" lon="6.062581"><ele></ele><time>2017-5-18T8:37:20Z</time></trkpt>
<trkpt lat="46.112004" lon="6.062594"><ele></ele><time>2017-5-18T8:37:23Z</time></trkpt>
<trkpt lat="46.112343" lon="6.062611"><ele></ele><time>2017-5-18T8:37:26Z</time></trkpt>
<trkpt lat="46.112985" lon="6.062628"><ele></ele><time>2017-5-18T8:37:29Z</time></trkpt>
<trkpt lat="46.113598" lon="6.062654"><ele></ele><time>2017-5-18T8:37:32Z</time></trkpt>
<trkpt lat="46.114175" lon="6.062677"><ele></ele><time>2017-5-18T8:37:35Z</time></trkpt>
<trkpt lat="46.114622" lon="6.062696"><ele></ele><time>2017-5-18T8:37:38Z</time></trkpt>
<trkpt lat="46.115315" lon="6.062721"><ele></ele><time>2017-5-18T8:37:41Z</time></trkpt>
<trkpt lat="46.115376" lon="6.062711"><ele></ele><time>2017-5-18T8:37:44Z</time></trkpt>
<trkpt lat="46.115426" lon="6.062689"><ele></ele><time>2017-5-18T8:37:47Z</time></trkpt>
<trkpt lat="46.115470" lon="6.062652"><ele></ele><time>2017-5-18T8:37:50Z</time></trkpt>
<trkpt lat="46.115507" lon="6.062601"><ele></ele><time>2017-5-18T8:37:53Z</time></trkpt>
<trkpt lat="46.115536" lon="6.062540"><ele></ele><time>2017-5-18T8:37:56Z</time></trkpt>
<trkpt lat="46.115558" lon="6.062462"><ele></ele><time>2017-5-18T8:37:59Z</time></trkpt>
<trkpt lat="46.115569" lon="6.062403"><ele></ele><time>2017-5-18T8:38:2Z</time></trkpt>
<trkpt lat="46.115582" lon="6.062325"><ele></ele><time>2017-5-18T8:38:5Z</time></trkpt>
<trkpt lat="46.115595" lon="6.062199"><ele></ele><time>2017-5-18T8:38:8Z</time></trkpt>
<trkpt lat="46.115601" lon="6.062131"><ele></ele><time>2017-5-18T8:38:11Z</time></trkpt>
<trkpt lat="46.115648" lon="6.061645"><ele></ele><time>2017-5-18T8:38:14Z</time></trkpt>
<trkpt lat="46.115667" lon="6.061211"><ele></ele><time>2017-5-18T8:38:17Z</time></trkpt>
<trkpt lat="46.115680" lon="6.061052"><ele></ele><time>2017-5-18T8:38:20Z</time></trkpt>
<trkpt lat="46.115702" lon="6.060987"><ele></ele><time>2017-5-18T8:38:23Z</time></trkpt>
<trkpt lat="46.115739" lon="6.060947"><ele></ele><time>2017-5-18T8:38:26Z</time></trkpt>
<trkpt lat="46.115785" lon="6.060935"><ele></ele><time>2017-5-18T8:38:29Z</time></trkpt>
<trkpt lat="46.115833" lon="6.060941"><ele></ele><time>2017-5-18T8:38:32Z</time></trkpt>
<trkpt lat="46.115879" lon="6.060956"><ele></ele><time>2017-5-18T8:38:35Z</time></trkpt>
<trkpt lat="46.115928" lon="6.060973"><ele></ele><time>2017-5-18T8:38:38Z</time></trkpt>
<trkpt lat="46.115972" lon="6.060985"><ele></ele><time>2017-5-18T8:38:41Z</time></trkpt>
<trkpt lat="46.116349" lon="6.061089"><ele></ele><time>2017-5-18T8:38:44Z</time></trkpt>
<trkpt lat="46.116375" lon="6.061088"><ele></ele><time>2017-5-18T8:38:47Z</time></trkpt>
<trkpt lat="46.116389" lon="6.061077"><ele></ele><time>2017-5-18T8:38:50Z</time></trkpt>
<trkpt lat="46.116395" lon="6.061068"><ele></ele><time>2017-5-18T8:38:53Z</time></trkpt>
<trkpt lat="46.116413" lon="6.061069"><ele></ele><time>2017-5-18T8:38:56Z</time></trkpt>
<trkpt lat="46.116421" lon="6.061065"><ele></ele><time>2017-5-18T8:38:59Z</time></trkpt>
<trkpt lat="46.116423" lon="6.061072"><ele></ele><time>2017-5-18T8:39:2Z</time></trkpt>
<trkpt lat="46.116435" lon="6.061078"><ele></ele><time>2017-5-18T8:39:5Z</time></trkpt>
<trkpt lat="46.116447" lon="6.061083"><ele></ele><time>2017-5-18T8:39:8Z</time></trkpt>
<trkpt lat="46.116463" lon="6.061088"><ele></ele><time>2017-5-18T8:39:11Z</time></trkpt>
<trkpt lat="46.116662" lon="6.061170"><ele></ele><time>2017-5-18T8:39:14Z</time></trkpt>
<trkpt lat="46.116983" lon="6.061373"><ele></ele><time>2017-5-18T8:39:17Z</time></trkpt>
<trkpt lat="46.117283" lon="6.061541"><ele></ele><time>2017-5-18T8:39:20Z</time></trkpt>
<trkpt lat="46.117665" lon="6.061841"><ele></ele><time>2017-5-18T8:39:23Z</time></trkpt>
<trkpt lat="46.117804" lon="6.061991"><ele></ele><time>2017-5-18T8:39:26Z</time></trkpt>
<trkpt lat="46.117844" lon="6.062020"><ele></ele><time>2017-5-18T8:39:29Z</time></trkpt>
<trkpt lat="46.117883" lon="6.062041"><ele></ele><time>2017-5-18T8:39:32Z</time></trkpt>
<trkpt lat="46.117929" lon="6.062059"><ele></ele><time>2017-5-18T8:39:35Z</time></trkpt>
<trkpt lat="46.117975" lon="6.062069"><ele></ele><time>2017-5-18T8:39:38Z</time></trkpt>
<trkpt lat="46.118028" lon="6.062074"><ele></ele><time>2017-5-18T8:39:41Z</time></trkpt>
<trkpt lat="46.118078" lon="6.062075"><ele></ele><time>2017-5-18T8:39:44Z</time></trkpt>
<trkpt lat="46.118181" lon="6.062071"><ele></ele><time>2017-5-18T8:39:47Z</time></trkpt>
<trkpt lat="46.118542" lon="6.061983"><ele></ele><time>2017-5-18T8:39:50Z</time></trkpt>
<trkpt lat="46.118640" lon="6.061948"><ele></ele><time>2017-5-18T8:39:53Z</time></trkpt>
<trkpt lat="46.118688" lon="6.061920"><ele></ele><time>2017-5-18T8:39:56Z</time></trkpt>
<trkpt lat="46.118837" lon="6.061809"><ele></ele><time>2017-5-18T8:39:59Z</time></trkpt>
<trkpt lat="46.119124" lon="6.061580"><ele></ele><time>2017-5-18T8:40:2Z</time></trkpt>
<trkpt lat="46.119538" lon="6.061277"><ele></ele><time>2017-5-18T8:40:5Z</time></trkpt>
<trkpt lat="46.120023" lon="6.060984"><ele></ele><time>2017-5-18T8:40:8Z</time></trkpt>
<trkpt lat="46.120121" lon="6.060909"><ele></ele><time>2017-5-18T8:40:11Z</time></trkpt>
<trkpt lat="46.120168" lon="6.060864"><ele></ele><time>2017-5-18T8:40:14Z</time></trkpt>
<trkpt lat="46.120204" lon="6.060820"><ele></ele><time>2017-5-18T8:40:17Z</time></trkpt>
<trkpt lat="46.120234" lon="6.060768"><ele></ele><time>2017-5-18T8:40:20Z</time></trkpt>
<trkpt lat="46.120259" lon="6.060715"><ele></ele><time>2017-5-18T8:40:23Z</time></trkpt>
<trkpt lat="46.120430" lon="6.060311"><ele></ele><time>2017-5-18T8:40:26Z</time></trkpt>
<trkpt lat="46.120574" lon="6.059960"><ele></ele><time>2017-5-18T8:40:29Z</time></trkpt>
<trkpt lat="46.120670" lon="6.059774"><ele></ele><time>2017-5-18T8:40:32Z</time></trkpt>
<trkpt lat="46.120675" lon="6.059759"><ele></ele><time>2017-5-18T8:40:35Z</time></trkpt>
<trkpt lat="46.120736" lon="6.059772"><ele></ele><time>2017-5-18T8:40:38Z</time></trkpt>
<trkpt lat="46.120925" lon="6.059917"><ele></ele><time>2017-5-18T8:40:41Z</time></trkpt>
<trkpt lat="46.120973" lon="6.059945"><ele></ele><time>2017-5-18T8:40:44Z</time></trkpt>
<trkpt lat="46.121023" lon="6.059955"><ele></ele><time>2017-5-18T8:40:47Z</time></trkpt>
<trkpt lat="46.121078" lon="6.059931"><ele></ele><time>2017-5-18T8:40:50Z</time></trkpt>
<trkpt lat="46.121107" lon="6.059884"><ele></ele><time>2017-5-18T8:40:53Z</time></trkpt>
<trkpt lat="46.121124" lon="6.059817"><ele></ele><time>2017-5-18T8:40:56Z</time></trkpt>
<trkpt lat="46.121130" lon="6.059753"><ele></ele><time>2017-5-18T8:40:59Z</time></trkpt>
<trkpt lat="46.121133" lon="6.059691"><ele></ele><time>2017-5-18T8:41:2Z</time></trkpt>
<trkpt lat="46.121137" lon="6.059636"><ele></ele><time>2017-5-18T8:41:5Z</time></trkpt>
<trkpt lat="46.121226" lon="6.059282"><ele></ele><time>2017-5-18T8:41:8Z</time></trkpt>
<trkpt lat="46.121446" lon="6.058964"><ele></ele><time>2017-5-18T8:41:11Z</time></trkpt>
<trkpt lat="46.121731" lon="6.058655"><ele></ele><time>2017-5-18T8:41:14Z</time></trkpt>
<trkpt lat="46.121763" lon="6.058610"><ele></ele><time>2017-5-18T8:41:17Z</time></trkpt>
<trkpt lat="46.121969" lon="6.058192"><ele></ele><time>2017-5-18T8:41:20Z</time></trkpt>
<trkpt lat="46.122148" lon="6.057753"><ele></ele><time>2017-5-18T8:41:23Z</time></trkpt>
<trkpt lat="46.122168" lon="6.057701"><ele></ele><time>2017-5-18T8:41:26Z</time></trkpt>
<trkpt lat="46.122183" lon="6.057650"><ele></ele><time>2017-5-18T8:41:29Z</time></trkpt>
<trkpt lat="46.122199" lon="6.057601"><ele></ele><time>2017-5-18T8:41:32Z</time></trkpt>
<trkpt lat="46.122218" lon="6.057555"><ele></ele><time>2017-5-18T8:41:35Z</time></trkpt>
<trkpt lat="46.122235" lon="6.057512"><ele></ele><time>2017-5-18T8:41:38Z</time></trkpt>
<trkpt lat="46.122251" lon="6.057467"><ele></ele><time>2017-5-18T8:41:41Z</time></trkpt>
<trkpt lat="46.122269" lon="6.057424"><ele></ele><time>2017-5-18T8:41:44Z</time></trkpt>
<trkpt lat="46.122289" lon="6.057380"><ele></ele><time>2017-5-18T8:41:47Z</time></trkpt>
<trkpt lat="46.122484" lon="6.056895"><ele></ele><time>2017-5-18T8:41:50Z</time></trkpt>
<trkpt lat="46.122704" lon="6.056350"><ele></ele><time>2017-5-18T8:41:53Z</time></trkpt>
<trkpt lat="46.122857" lon="6.055969"><ele></ele><time>2017-5-18T8:41:56Z</time></trkpt>
<trkpt lat="46.122996" lon="6.055633"><ele></ele><time>2017-5-18T8:41:59Z</time></trkpt>
<trkpt lat="46.123181" lon="6.055168"><ele></ele><time>2017-5-18T8:42:2Z</time></trkpt>
<trkpt lat="46.123339" lon="6.054775"><ele></ele><time>2017-5-18T8:42:5Z</time></trkpt>
<trkpt lat="46.123481" lon="6.054416"><ele></ele><time>2017-5-18T8:42:8Z</time></trkpt>
<trkpt lat="46.123616" lon="6.054061"><ele></ele><time>2017-5-18T8:42:11Z</time></trkpt>
<trkpt lat="46.123732" lon="6.053763"><ele></ele><time>2017-5-18T8:42:14Z</time></trkpt>
<trkpt lat="46.123902" lon="6.053451"><ele></ele><time>2017-5-18T8:42:17Z</time></trkpt>
<trkpt lat="46.124130" lon="6.053193"><ele></ele><time>2017-5-18T8:42:20Z</time></trkpt>
<trkpt lat="46.124271" lon="6.053046"><ele></ele><time>2017-5-18T8:42:23Z</time></trkpt>
<trkpt lat="46.124451" lon="6.052875"><ele></ele><time>2017-5-18T8:42:26Z</time></trkpt>
<trkpt lat="46.124572" lon="6.052822"><ele></ele><time>2017-5-18T8:42:29Z</time></trkpt>
<trkpt lat="46.124811" lon="6.052824"><ele></ele><time>2017-5-18T8:42:32Z</time></trkpt>
<trkpt lat="46.124984" lon="6.052727"><ele></ele><time>2017-5-18T8:42:35Z</time></trkpt>
<trkpt lat="46.125049" lon="6.052654"><ele></ele><time>2017-5-18T8:42:38Z</time></trkpt>
<trkpt lat="46.125164" lon="6.052480"><ele></ele><time>2017-5-18T8:42:41Z</time></trkpt>
<trkpt lat="46.125206" lon="6.052422"><ele></ele><time>2017-5-18T8:42:44Z</time></trkpt>
<trkpt lat="46.125213" lon="6.052420"><ele></ele><time>2017-5-18T8:42:47Z</time></trkpt>
<trkpt lat="46.125231" lon="6.052417"><ele></ele><time>2017-5-18T8:42:50Z</time></trkpt>
<trkpt lat="46.125332" lon="6.052325"><ele></ele><time>2017-5-18T8:42:53Z</time></trkpt>
<trkpt lat="46.125488" lon="6.052136"><ele></ele><time>2017-5-18T8:42:56Z</time></trkpt>
<trkpt lat="46.125680" lon="6.052056"><ele></ele><time>2017-5-18T8:42:59Z</time></trkpt>
<trkpt lat="46.125954" lon="6.051980"><ele></ele><time>2017-5-18T8:43:2Z</time></trkpt>
<trkpt lat="46.126161" lon="6.051872"><ele></ele><time>2017-5-18T8:43:5Z</time></trkpt>
<trkpt lat="46.126197" lon="6.051886"><ele></ele><time>2017-5-18T8:43:8Z</time></trkpt>
<trkpt lat="46.126222" lon="6.051904"><ele></ele><time>2017-5-18T8:43:11Z</time></trkpt>
<trkpt lat="46.126237" lon="6.051918"><ele></ele><time>2017-5-18T8:43:14Z</time></trkpt>
<trkpt lat="46.126260" lon="6.051941"><ele></ele><time>2017-5-18T8:43:17Z</time></trkpt>
<trkpt lat="46.126526" lon="6.052203"><ele></ele><time>2017-5-18T8:43:20Z</time></trkpt>
<trkpt lat="46.126730" lon="6.052370"><ele></ele><time>2017-5-18T8:43:23Z</time></trkpt>
<trkpt lat="46.126817" lon="6.052420"><ele></ele><time>2017-5-18T8:43:26Z</time></trkpt>
<trkpt lat="46.127229" lon="6.052702"><ele></ele><time>2017-5-18T8:43:29Z</time></trkpt>
<trkpt lat="46.127487" lon="6.052916"><ele></ele><time>2017-5-18T8:43:32Z</time></trkpt>
<trkpt lat="46.127549" lon="6.053004"><ele></ele><time>2017-5-18T8:43:35Z</time></trkpt>
<trkpt lat="46.127826" lon="6.053497"><ele></ele><time>2017-5-18T8:43:38Z</time></trkpt>
<trkpt lat="46.128325" lon="6.054427"><ele></ele><time>2017-5-18T8:43:41Z</time></trkpt>
<trkpt lat="46.128465" lon="6.054660"><ele></ele><time>2017-5-18T8:43:44Z</time></trkpt>
<trkpt lat="46.128522" lon="6.054715"><ele></ele><time>2017-5-18T8:43:47Z</time></trkpt>
<trkpt lat="46.128588" lon="6.054748"><ele></ele><time>2017-5-18T8:43:50Z</time></trkpt>
<trkpt lat="46.128663" lon="6.054760"><ele></ele><time>2017-5-18T8:43:53Z</time></trkpt>
<trkpt lat="46.128741" lon="6.054754"><ele></ele><time>2017-5-18T8:43:56Z</time></trkpt>
<trkpt lat="46.128818" lon="6.054735"><ele></ele><time>2017-5-18T8:43:59Z</time></trkpt>
<trkpt lat="46.128892" lon="6.054708"><ele></ele><time>2017-5-18T8:44:2Z</time></trkpt>
<trkpt lat="46.128965" lon="6.054665"><ele></ele><time>2017-5-18T8:44:5Z</time></trkpt>
<trkpt lat="46.129024" lon="6.054608"><ele></ele><time>2017-5-18T8:44:8Z</time></trkpt>
<trkpt lat="46.129076" lon="6.054533"><ele></ele><time>2017-5-18T8:44:11Z</time></trkpt>
<trkpt lat="46.129122" lon="6.054436"><ele></ele><time>2017-5-18T8:44:14Z</time></trkpt>
<trkpt lat="46.129160" lon="6.054335"><ele></ele><time>2017-5-18T8:44:17Z</time></trkpt>
<trkpt lat="46.129441" lon="6.053782"><ele></ele><time>2017-5-18T8:44:20Z</time></trkpt>
<trkpt lat="46.129569" lon="6.053536"><ele></ele><time>2017-5-18T8:44:23Z</time></trkpt>
<trkpt lat="46.129615" lon="6.053408"><ele></ele><time>2017-5-18T8:44:26Z</time></trkpt>
<trkpt lat="46.129651" lon="6.053254"><ele></ele><time>2017-5-18T8:44:29Z</time></trkpt>
<trkpt lat="46.129676" lon="6.053113"><ele></ele><time>2017-5-18T8:44:32Z</time></trkpt>
<trkpt lat="46.129699" lon="6.052964"><ele></ele><time>2017-5-18T8:44:35Z</time></trkpt>
<trkpt lat="46.129810" lon="6.051996"><ele></ele><time>2017-5-18T8:44:38Z</time></trkpt>
<trkpt lat="46.129932" lon="6.051128"><ele></ele><time>2017-5-18T8:44:41Z</time></trkpt>
<trkpt lat="46.129962" lon="6.051031"><ele></ele><time>2017-5-18T8:44:44Z</time></trkpt>
<trkpt lat="46.129999" lon="6.050939"><ele></ele><time>2017-5-18T8:44:47Z</time></trkpt>
<trkpt lat="46.130041" lon="6.050851"><ele></ele><time>2017-5-18T8:44:50Z</time></trkpt>
<trkpt lat="46.130421" lon="6.050291"><ele></ele><time>2017-5-18T8:44:53Z</time></trkpt>
<trkpt lat="46.130967" lon="6.049620"><ele></ele><time>2017-5-18T8:44:56Z</time></trkpt>
<trkpt lat="46.131014" lon="6.049595"><ele></ele><time>2017-5-18T8:44:59Z</time></trkpt>
<trkpt lat="46.131052" lon="6.049591"><ele></ele><time>2017-5-18T8:45:2Z</time></trkpt>
<trkpt lat="46.131077" lon="6.049598"><ele></ele><time>2017-5-18T8:45:5Z</time></trkpt>
<trkpt lat="46.131098" lon="6.049612"><ele></ele><time>2017-5-18T8:45:8Z</time></trkpt>
<trkpt lat="46.131129" lon="6.049647"><ele></ele><time>2017-5-18T8:45:11Z</time></trkpt>
<trkpt lat="46.131219" lon="6.049872"><ele></ele><time>2017-5-18T8:45:14Z</time></trkpt>
<trkpt lat="46.131267" lon="6.049988"><ele></ele><time>2017-5-18T8:45:17Z</time></trkpt>
<trkpt lat="46.131297" lon="6.050038"><ele></ele><time>2017-5-18T8:45:20Z</time></trkpt>
<trkpt lat="46.131501" lon="6.050438"><ele></ele><time>2017-5-18T8:45:23Z</time></trkpt>
<trkpt lat="46.131931" lon="6.051444"><ele></ele><time>2017-5-18T8:45:26Z</time></trkpt>
<trkpt lat="46.131978" lon="6.051472"><ele></ele><time>2017-5-18T8:45:29Z</time></trkpt>
<trkpt lat="46.132084" lon="6.051334"><ele></ele><time>2017-5-18T8:45:32Z</time></trkpt>
<trkpt lat="46.132060" lon="6.051042"><ele></ele><time>2017-5-18T8:45:35Z</time></trkpt>
<trkpt lat="46.132042" lon="6.050974"><ele></ele><time>2017-5-18T8:45:38Z</time></trkpt>
<trkpt lat="46.131942" lon="6.050659"><ele></ele><time>2017-5-18T8:45:41Z</time></trkpt>
<trkpt lat="46.131796" lon="6.049978"><ele></ele><time>2017-5-18T8:45:44Z</time></trkpt>
<trkpt lat="46.131777" lon="6.049789"><ele></ele><time>2017-5-18T8:45:47Z</time></trkpt>
<trkpt lat="46.131739" lon="6.049247"><ele></ele><time>2017-5-18T8:45:50Z</time></trkpt>
<trkpt lat="46.131752" lon="6.048904"><ele></ele><time>2017-5-18T8:45:53Z</time></trkpt>
<trkpt lat="46.131873" lon="6.048621"><ele></ele><time>2017-5-18T8:45:56Z</time></trkpt>
<trkpt lat="46.131945" lon="6.048537"><ele></ele><time>2017-5-18T8:45:59Z</time></trkpt>
<trkpt lat="46.132265" lon="6.048176"><ele></ele><time>2017-5-18T8:46:2Z</time></trkpt>
<trkpt lat="46.132572" lon="6.047773"><ele></ele><time>2017-5-18T8:46:5Z</time></trkpt>
<trkpt lat="46.132793" lon="6.047466"><ele></ele><time>2017-5-18T8:46:8Z</time></trkpt>
<trkpt lat="46.133115" lon="6.047047"><ele></ele><time>2017-5-18T8:46:11Z</time></trkpt>
<trkpt lat="46.133465" lon="6.046646"><ele></ele><time>2017-5-18T8:46:14Z</time></trkpt>
<trkpt lat="46.133583" lon="6.046547"><ele></ele><time>2017-5-18T8:46:17Z</time></trkpt>
<trkpt lat="46.133720" lon="6.046456"><ele></ele><time>2017-5-18T8:46:20Z</time></trkpt>
<trkpt lat="46.133987" lon="6.046302"><ele></ele><time>2017-5-18T8:46:23Z</time></trkpt>
<trkpt lat="46.134026" lon="6.046281"><ele></ele><time>2017-5-18T8:46:26Z</time></trkpt>
<trkpt lat="46.134144" lon="6.046224"><ele></ele><time>2017-5-18T8:46:29Z</time></trkpt>
<trkpt lat="46.134612" lon="6.045889"><ele></ele><time>2017-5-18T8:46:32Z</time></trkpt>
<trkpt lat="46.134911" lon="6.045630"><ele></ele><time>2017-5-18T8:46:35Z</time></trkpt>
<trkpt lat="46.135075" lon="6.045481"><ele></ele><time>2017-5-18T8:46:38Z</time></trkpt>
<trkpt lat="46.135412" lon="6.045230"><ele></ele><time>2017-5-18T8:46:41Z</time></trkpt>
<trkpt lat="46.135819" lon="6.044970"><ele></ele><time>2017-5-18T8:46:44Z</time></trkpt>
<trkpt lat="46.135988" lon="6.044892"><ele></ele><time>2017-5-18T8:46:47Z</time></trkpt>
<trkpt lat="46.136030" lon="6.044888"><ele></ele><time>2017-5-18T8:46:50Z</time></trkpt>
<trkpt lat="46.136239" lon="6.044914"><ele></ele><time>2017-5-18T8:46:53Z</time></trkpt>
<trkpt lat="46.136466" lon="6.044890"><ele></ele><time>2017-5-18T8:46:56Z</time></trkpt>
<trkpt lat="46.136832" lon="6.044885"><ele></ele><time>2017-5-18T8:46:59Z</time></trkpt>
<trkpt lat="46.137327" lon="6.044845"><ele></ele><time>2017-5-18T8:47:2Z</time></trkpt>
<trkpt lat="46.137830" lon="6.044827"><ele></ele><time>2017-5-18T8:47:5Z</time></trkpt>
<trkpt lat="46.138468" lon="6.044742"><ele></ele><time>2017-5-18T8:47:8Z</time></trkpt>
<trkpt lat="46.138519" lon="6.044743"><ele></ele><time>2017-5-18T8:47:11Z</time></trkpt>
<trkpt lat="46.138567" lon="6.044753"><ele></ele><time>2017-5-18T8:47:14Z</time></trkpt>
<trkpt lat="46.138750" lon="6.044813"><ele></ele><time>2017-5-18T8:47:17Z</time></trkpt>
<trkpt lat="46.138925" lon="6.044904"><ele></ele><time>2017-5-18T8:47:20Z</time></trkpt>
<trkpt lat="46.138971" lon="6.044907"><ele></ele><time>2017-5-18T8:47:23Z</time></trkpt>
<trkpt lat="46.139013" lon="6.044891"><ele></ele><time>2017-5-18T8:47:26Z</time></trkpt>
<trkpt lat="46.139054" lon="6.044854"><ele></ele><time>2017-5-18T8:47:29Z</time></trkpt>
<trkpt lat="46.139088" lon="6.044809"><ele></ele><time>2017-5-18T8:47:32Z</time></trkpt>
<trkpt lat="46.139123" lon="6.044760"><ele></ele><time>2017-5-18T8:47:35Z</time></trkpt>
<trkpt lat="46.139421" lon="6.044313"><ele></ele><time>2017-5-18T8:47:38Z</time></trkpt>
<trkpt lat="46.139719" lon="6.043868"><ele></ele><time>2017-5-18T8:47:41Z</time></trkpt>
<trkpt lat="46.140103" lon="6.043244"><ele></ele><time>2017-5-18T8:47:44Z</time></trkpt>
<trkpt lat="46.140397" lon="6.042749"><ele></ele><time>2017-5-18T8:47:47Z</time></trkpt>
<trkpt lat="46.140560" lon="6.042503"><ele></ele><time>2017-5-18T8:47:50Z</time></trkpt>
<trkpt lat="46.140713" lon="6.042241"><ele></ele><time>2017-5-18T8:47:53Z</time></trkpt>
<trkpt lat="46.140761" lon="6.042184"><ele></ele><time>2017-5-18T8:47:56Z</time></trkpt>
<trkpt lat="46.140820" lon="6.042111"><ele></ele><time>2017-5-18T8:47:59Z</time></trkpt>
<trkpt lat="46.140847" lon="6.042057"><ele></ele><time>2017-5-18T8:48:2Z</time></trkpt>
<trkpt lat="46.140856" lon="6.042002"><ele></ele><time>2017-5-18T8:48:5Z</time></trkpt>
<trkpt lat="46.140843" lon="6.041928"><ele></ele><time>2017-5-18T8:48:8Z</time></trkpt>
<trkpt lat="46.140819" lon="6.041879"><ele></ele><time>2017-5-18T8:48:11Z</time></trkpt>
<trkpt lat="46.140803" lon="6.041850"><ele></ele><time>2017-5-18T8:48:14Z</time></trkpt>
<trkpt lat="46.140639" lon="6.041648"><ele></ele><time>2017-5-18T8:48:17Z</time></trkpt>
<trkpt lat="46.140387" lon="6.041356"><ele></ele><time>2017-5-18T8:48:20Z</time></trkpt>
<trkpt lat="46.140190" lon="6.041115"><ele></ele><time>2017-5-18T8:48:23Z</time></trkpt>
<trkpt lat="46.140025" lon="6.040795"><ele></ele><time>2017-5-18T8:48:26Z</time></trkpt>
<trkpt lat="46.140036" lon="6.040559"><ele></ele><time>2017-5-18T8:48:29Z</time></trkpt>
<trkpt lat="46.140063" lon="6.040536"><ele></ele><time>2017-5-18T8:48:32Z</time></trkpt>
<trkpt lat="46.140238" lon="6.040424"><ele></ele><time>2017-5-18T8:48:35Z</time></trkpt>
<trkpt lat="46.140409" lon="6.040296"><ele></ele><time>2017-5-18T8:48:38Z</time></trkpt>
<trkpt lat="46.140698" lon="6.040132"><ele></ele><time>2017-5-18T8:48:41Z</time></trkpt>
<trkpt lat="46.141106" lon="6.039895"><ele></ele><time>2017-5-18T8:48:44Z</time></trkpt>
<trkpt lat="46.141404" lon="6.039714"><ele></ele><time>2017-5-18T8:48:47Z</time></trkpt>
<trkpt lat="46.141773" lon="6.039520"><ele></ele><time>2017-5-18T8:48:50Z</time></trkpt>
<trkpt lat="46.142240" lon="6.039255"><ele></ele><time>2017-5-18T8:48:53Z</time></trkpt>
<trkpt lat="46.142637" lon="6.039035"><ele></ele><time>2017-5-18T8:48:56Z</time></trkpt>
<trkpt lat="46.142680" lon="6.039023"><ele></ele><time>2017-5-18T8:48:59Z</time></trkpt>
<trkpt lat="46.142851" lon="6.038962"><ele></ele><time>2017-5-18T8:49:2Z</time></trkpt>
<trkpt lat="46.142894" lon="6.038925"><ele></ele><time>2017-5-18T8:49:5Z</time></trkpt>
<trkpt lat="46.143316" lon="6.038447"><ele></ele><time>2017-5-18T8:49:8Z</time></trkpt>
<trkpt lat="46.143400" lon="6.038363"><ele></ele><time>2017-5-18T8:49:11Z</time></trkpt>
<trkpt lat="46.143443" lon="6.038334"><ele></ele><time>2017-5-18T8:49:14Z</time></trkpt>
<trkpt lat="46.143490" lon="6.038320"><ele></ele><time>2017-5-18T8:49:17Z</time></trkpt>
<trkpt lat="46.143533" lon="6.038325"><ele></ele><time>2017-5-18T8:49:20Z</time></trkpt>
<trkpt lat="46.143576" lon="6.038350"><ele></ele><time>2017-5-18T8:49:23Z</time></trkpt>
<trkpt lat="46.143612" lon="6.038387"><ele></ele><time>2017-5-18T8:49:26Z</time></trkpt>
<trkpt lat="46.143642" lon="6.038430"><ele></ele><time>2017-5-18T8:49:29Z</time></trkpt>
<trkpt lat="46.143668" lon="6.038479"><ele></ele><time>2017-5-18T8:49:32Z</time></trkpt>
<trkpt lat="46.143850" lon="6.038801"><ele></ele><time>2017-5-18T8:49:35Z</time></trkpt>
<trkpt lat="46.144088" lon="6.039202"><ele></ele><time>2017-5-18T8:49:38Z</time></trkpt>
<trkpt lat="46.144268" lon="6.039481"><ele></ele><time>2017-5-18T8:49:41Z</time></trkpt>
<trkpt lat="46.144476" lon="6.039819"><ele></ele><time>2017-5-18T8:49:44Z</time></trkpt>
<trkpt lat="46.144690" lon="6.040151"><ele></ele><time>2017-5-18T8:49:47Z</time></trkpt>
<trkpt lat="46.144937" lon="6.040562"><ele></ele><time>2017-5-18T8:49:50Z</time></trkpt>
<trkpt lat="46.145127" lon="6.040902"><ele></ele><time>2017-5-18T8:49:53Z</time></trkpt>
<trkpt lat="46.145329" lon="6.041209"><ele></ele><time>2017-5-18T8:49:56Z</time></trkpt>
<trkpt lat="46.145525" lon="6.041517"><ele></ele><time>2017-5-18T8:49:59Z</time></trkpt>
<trkpt lat="46.145580" lon="6.041667"><ele></ele><time>2017-5-18T8:50:2Z</time></trkpt>
<trkpt lat="46.145576" lon="6.041700"><ele></ele><time>2017-5-18T8:50:5Z</time></trkpt>
<trkpt lat="46.145569" lon="6.041735"><ele></ele><time>2017-5-18T8:50:8Z</time></trkpt>
<trkpt lat="46.145557" lon="6.041783"><ele></ele><time>2017-5-18T8:50:11Z</time></trkpt>
<trkpt lat="46.145553" lon="6.041836"><ele></ele><time>2017-5-18T8:50:14Z</time></trkpt>
<trkpt lat="46.145570" lon="6.041871"><ele></ele><time>2017-5-18T8:50:17Z</time></trkpt>
<trkpt lat="46.145591" lon="6.041869"><ele></ele><time>2017-5-18T8:50:20Z</time></trkpt>
<trkpt lat="46.145609" lon="6.041843"><ele></ele><time>2017-5-18T8:50:23Z</time></trkpt>
<trkpt lat="46.145621" lon="6.041817"><ele></ele><time>2017-5-18T8:50:26Z</time></trkpt>
<trkpt lat="46.145635" lon="6.041787"><ele></ele><time>2017-5-18T8:50:29Z</time></trkpt>
<trkpt lat="46.145654" lon="6.041757"><ele></ele><time>2017-5-18T8:50:32Z</time></trkpt>
<trkpt lat="46.145675" lon="6.041723"><ele></ele><time>2017-5-18T8:50:35Z</time></trkpt>
<trkpt lat="46.145922" lon="6.041300"><ele></ele><time>2017-5-18T8:50:38Z</time></trkpt>
<trkpt lat="46.146167" lon="6.040913"><ele></ele><time>2017-5-18T8:50:41Z</time></trkpt>
<trkpt lat="46.146241" lon="6.040846"><ele></ele><time>2017-5-18T8:50:44Z</time></trkpt>
<trkpt lat="46.146289" lon="6.040835"><ele></ele><time>2017-5-18T8:50:47Z</time></trkpt>
<trkpt lat="46.146335" lon="6.040836"><ele></ele><time>2017-5-18T8:50:50Z</time></trkpt>
<trkpt lat="46.146379" lon="6.040847"><ele></ele><time>2017-5-18T8:50:53Z</time></trkpt>
<trkpt lat="46.146423" lon="6.040871"><ele></ele><time>2017-5-18T8:50:56Z</time></trkpt>
<trkpt lat="46.146459" lon="6.040916"><ele></ele><time>2017-5-18T8:50:59Z</time></trkpt>
<trkpt lat="46.146488" lon="6.040973"><ele></ele><time>2017-5-18T8:51:2Z</time></trkpt>
<trkpt lat="46.146520" lon="6.041027"><ele></ele><time>2017-5-18T8:51:5Z</time></trkpt>
<trkpt lat="46.146840" lon="6.041474"><ele></ele><time>2017-5-18T8:51:8Z</time></trkpt>
<trkpt lat="46.146895" lon="6.041493"><ele></ele><time>2017-5-18T8:51:11Z</time></trkpt>
<trkpt lat="46.146952" lon="6.041502"><ele></ele><time>2017-5-18T8:51:14Z</time></trkpt>
<trkpt lat="46.147069" lon="6.041521"><ele></ele><time>2017-5-18T8:51:17Z</time></trkpt>
<trkpt lat="46.147126" lon="6.041495"><ele></ele><time>2017-5-18T8:51:20Z</time></trkpt>
<trkpt lat="46.147177" lon="6.041445"><ele></ele><time>2017-5-18T8:51:23Z</time></trkpt>
<trkpt lat="46.147225" lon="6.041390"><ele></ele><time>2017-5-18T8:51:26Z</time></trkpt>
<trkpt lat="46.147273" lon="6.041339"><ele></ele><time>2017-5-18T8:51:29Z</time></trkpt>
<trkpt lat="46.147466" lon="6.041153"><ele></ele><time>2017-5-18T8:51:32Z</time></trkpt>
<trkpt lat="46.147519" lon="6.041122"><ele></ele><time>2017-5-18T8:51:35Z</time></trkpt>
<trkpt lat="46.147572" lon="6.041099"><ele></ele><time>2017-5-18T8:51:38Z</time></trkpt>
<trkpt lat="46.147628" lon="6.041084"><ele></ele><time>2017-5-18T8:51:41Z</time></trkpt>
<trkpt lat="46.147682" lon="6.041074"><ele></ele><time>2017-5-18T8:51:44Z</time></trkpt>
<trkpt lat="46.148141" lon="6.040996"><ele></ele><time>2017-5-18T8:51:47Z</time></trkpt>
<trkpt lat="46.148274" lon="6.040949"><ele></ele><time>2017-5-18T8:51:50Z</time></trkpt>
<trkpt lat="46.148688" lon="6.040761"><ele></ele><time>2017-5-18T8:51:53Z</time></trkpt>
<trkpt lat="46.149029" lon="6.040629"><ele></ele><time>2017-5-18T8:51:56Z</time></trkpt>
<trkpt lat="46.149249" lon="6.040446"><ele></ele><time>2017-5-18T8:51:59Z</time></trkpt>
<trkpt lat="46.149444" lon="6.040139"><ele></ele><time>2017-5-18T8:52:2Z</time></trkpt>
<trkpt lat="46.149555" lon="6.039963"><ele></ele><time>2017-5-18T8:52:5Z</time></trkpt>
<trkpt lat="46.149819" lon="6.039604"><ele></ele><time>2017-5-18T8:52:8Z</time></trkpt>
<trkpt lat="46.150097" lon="6.039277"><ele></ele><time>2017-5-18T8:52:11Z</time></trkpt>
<trkpt lat="46.150416" lon="6.038979"><ele></ele><time>2017-5-18T8:52:14Z</time></trkpt>
<trkpt lat="46.150509" lon="6.038904"><ele></ele><time>2017-5-18T8:52:17Z</time></trkpt>
<trkpt lat="46.150561" lon="6.038881"><ele></ele><time>2017-5-18T8:52:20Z</time></trkpt>
<trkpt lat="46.150624" lon="6.038870"><ele></ele><time>2017-5-18T8:52:23Z</time></trkpt>
<trkpt lat="46.150685" lon="6.038885"><ele></ele><time>2017-5-18T8:52:26Z</time></trkpt>
<trkpt lat="46.150748" lon="6.038928"><ele></ele><time>2017-5-18T8:52:29Z</time></trkpt>
<trkpt lat="46.150802" lon="6.038982"><ele></ele><time>2017-5-18T8:52:32Z</time></trkpt>
<trkpt lat="46.150855" lon="6.039051"><ele></ele><time>2017-5-18T8:52:35Z</time></trkpt>
<trkpt lat="46.150903" lon="6.039122"><ele></ele><time>2017-5-18T8:52:38Z</time></trkpt>
<trkpt lat="46.150950" lon="6.039204"><ele></ele><time>2017-5-18T8:52:41Z</time></trkpt>
<trkpt lat="46.150991" lon="6.039287"><ele></ele><time>2017-5-18T8:52:44Z</time></trkpt>
<trkpt lat="46.151266" lon="6.039749"><ele></ele><time>2017-5-18T8:52:47Z</time></trkpt>
<trkpt lat="46.151504" lon="6.040170"><ele></ele><time>2017-5-18T8:52:50Z</time></trkpt>
<trkpt lat="46.151674" lon="6.040549"><ele></ele><time>2017-5-18T8:52:53Z</time></trkpt>
<trkpt lat="46.151839" lon="6.040857"><ele></ele><time>2017-5-18T8:52:56Z</time></trkpt>
<trkpt lat="46.152017" lon="6.041095"><ele></ele><time>2017-5-18T8:52:59Z</time></trkpt>
<trkpt lat="46.152145" lon="6.041255"><ele></ele><time>2017-5-18T8:53:2Z</time></trkpt>
<trkpt lat="46.152157" lon="6.041262"><ele></ele><time>2017-5-18T8:53:5Z</time></trkpt>
<trkpt lat="46.152153" lon="6.041280"><ele></ele><time>2017-5-18T8:53:8Z</time></trkpt>
<trkpt lat="46.152149" lon="6.041291"><ele></ele><time>2017-5-18T8:53:11Z</time></trkpt>
<trkpt lat="46.152155" lon="6.041283"><ele></ele><time>2017-5-18T8:53:14Z</time></trkpt>
<trkpt lat="46.152138" lon="6.041282"><ele></ele><time>2017-5-18T8:53:17Z</time></trkpt>
<trkpt lat="46.152138" lon="6.041281"><ele></ele><time>2017-5-18T8:53:20Z</time></trkpt>
<trkpt lat="46.152139" lon="6.041272"><ele></ele><time>2017-5-18T8:53:23Z</time></trkpt>
<trkpt lat="46.152140" lon="6.041273"><ele></ele><time>2017-5-18T8:53:26Z</time></trkpt>
<trkpt lat="46.152136" lon="6.041266"><ele></ele><time>2017-5-18T8:53:29Z</time></trkpt>
<trkpt lat="46.152137" lon="6.041262"><ele></ele><time>2017-5-18T8:53:32Z</time></trkpt>
<trkpt lat="46.152138" lon="6.041271"><ele></ele><time>2017-5-18T8:53:35Z</time></trkpt>
<trkpt lat="46.152133" lon="6.041273"><ele></ele><time>2017-5-18T8:53:38Z</time></trkpt>
<trkpt lat="46.152140" lon="6.041268"><ele></ele><time>2017-5-18T8:53:41Z</time></trkpt>
<trkpt lat="46.152167" lon="6.041271"><ele></ele><time>2017-5-18T8:53:44Z</time></trkpt>
<trkpt lat="46.152179" lon="6.041283"><ele></ele><time>2017-5-18T8:53:47Z</time></trkpt>
<trkpt lat="46.152194" lon="6.041306"><ele></ele><time>2017-5-18T8:53:50Z</time></trkpt>
<trkpt lat="46.152200" lon="6.041323"><ele></ele><time>2017-5-18T8:53:53Z</time></trkpt>
<trkpt lat="46.152209" lon="6.041342"><ele></ele><time>2017-5-18T8:53:56Z</time></trkpt>
<trkpt lat="46.152223" lon="6.041363"><ele></ele><time>2017-5-18T8:53:59Z</time></trkpt>
<trkpt lat="46.152239" lon="6.041382"><ele></ele><time>2017-5-18T8:54:2Z</time></trkpt>
<trkpt lat="46.152377" lon="6.041584"><ele></ele><time>2017-5-18T8:54:5Z</time></trkpt>
<trkpt lat="46.152481" lon="6.041698"><ele></ele><time>2017-5-18T8:54:8Z</time></trkpt>
<trkpt lat="46.152598" lon="6.041829"><ele></ele><time>2017-5-18T8:54:11Z</time></trkpt>
<trkpt lat="46.152717" lon="6.041953"><ele></ele><time>2017-5-18T8:54:14Z</time></trkpt>
<trkpt lat="46.152847" lon="6.042102"><ele></ele><time>2017-5-18T8:54:17Z</time></trkpt>
<trkpt lat="46.152899" lon="6.042160"><ele></ele><time>2017-5-18T8:54:20Z</time></trkpt>
<trkpt lat="46.152918" lon="6.042220"><ele></ele><time>2017-5-18T8:54:23Z</time></trkpt>
<trkpt lat="46.152928" lon="6.042237"><ele></ele><time>2017-5-18T8:54:26Z</time></trkpt>
<trkpt lat="46.152935" lon="6.042254"><ele></ele><time>2017-5-18T8:54:29Z</time></trkpt>
<trkpt lat="46.152944" lon="6.042278"><ele></ele><time>2017-5-18T8:54:32Z</time></trkpt>
<trkpt lat="46.152953" lon="6.042298"><ele></ele><time>2017-5-18T8:54:35Z</time></trkpt>
<trkpt lat="46.152966" lon="6.042318"><ele></ele><time>2017-5-18T8:54:38Z</time></trkpt>
<trkpt lat="46.152986" lon="6.042336"><ele></ele><time>2017-5-18T8:54:41Z</time></trkpt>
<trkpt lat="46.153000" lon="6.042346"><ele></ele><time>2017-5-18T8:54:44Z</time></trkpt>
<trkpt lat="46.153157" lon="6.042465"><ele></ele><time>2017-5-18T8:54:47Z</time></trkpt>
<trkpt lat="46.153309" lon="6.042574"><ele></ele><time>2017-5-18T8:54:50Z</time></trkpt>
<trkpt lat="46.153368" lon="6.042618"><ele></ele><time>2017-5-18T8:54:53Z</time></trkpt>
<trkpt lat="46.153386" lon="6.042636"><ele></ele><time>2017-5-18T8:54:56Z</time></trkpt>
<trkpt lat="46.153406" lon="6.042647"><ele></ele><time>2017-5-18T8:54:59Z</time></trkpt>
<trkpt lat="46.153567" lon="6.042773"><ele></ele><time>2017-5-18T8:55:2Z</time></trkpt>
<trkpt lat="46.153701" lon="6.042873"><ele></ele><time>2017-5-18T8:55:5Z</time></trkpt>
<trkpt lat="46.153868" lon="6.043002"><ele></ele><time>2017-5-18T8:55:8Z</time></trkpt>
<trkpt lat="46.154049" lon="6.043144"><ele></ele><time>2017-5-18T8:55:11Z</time></trkpt>
<trkpt lat="46.154211" lon="6.043317"><ele></ele><time>2017-5-18T8:55:14Z</time></trkpt>
<trkpt lat="46.154334" lon="6.043496"><ele></ele><time>2017-5-18T8:55:17Z</time></trkpt>
<trkpt lat="46.154459" lon="6.043709"><ele></ele><time>2017-5-18T8:55:20Z</time></trkpt>
<trkpt lat="46.154606" lon="6.043937"><ele></ele><time>2017-5-18T8:55:23Z</time></trkpt>
<trkpt lat="46.154766" lon="6.044155"><ele></ele><time>2017-5-18T8:55:26Z</time></trkpt>
<trkpt lat="46.154960" lon="6.044343"><ele></ele><time>2017-5-18T8:55:29Z</time></trkpt>
<trkpt lat="46.155066" lon="6.044394"><ele></ele><time>2017-5-18T8:55:32Z</time></trkpt>
<trkpt lat="46.155188" lon="6.044324"><ele></ele><time>2017-5-18T8:55:35Z</time></trkpt>
<trkpt lat="46.155348" lon="6.044181"><ele></ele><time>2017-5-18T8:55:38Z</time></trkpt>
<trkpt lat="46.155540" lon="6.044024"><ele></ele><time>2017-5-18T8:55:41Z</time></trkpt>
<trkpt lat="46.155766" lon="6.043888"><ele></ele><time>2017-5-18T8:55:44Z</time></trkpt>
<trkpt lat="46.155974" lon="6.043785"><ele></ele><time>2017-5-18T8:55:47Z</time></trkpt>
<trkpt lat="46.156176" lon="6.043664"><ele></ele><time>2017-5-18T8:55:50Z</time></trkpt>
<trkpt lat="46.156195" lon="6.043638"><ele></ele><time>2017-5-18T8:55:53Z</time></trkpt>
<trkpt lat="46.156210" lon="6.043611"><ele></ele><time>2017-5-18T8:55:56Z</time></trkpt>
<trkpt lat="46.156234" lon="6.043590"><ele></ele><time>2017-5-18T8:55:59Z</time></trkpt>
<trkpt lat="46.156271" lon="6.043574"><ele></ele><time>2017-5-18T8:56:2Z</time></trkpt>
<trkpt lat="46.156291" lon="6.043567"><ele></ele><time>2017-5-18T8:56:5Z</time></trkpt>
<trkpt lat="46.156536" lon="6.043448"><ele></ele><time>2017-5-18T8:56:8Z</time></trkpt>
<trkpt lat="46.156852" lon="6.043245"><ele></ele><time>2017-5-18T8:56:11Z</time></trkpt>
<trkpt lat="46.157133" lon="6.042955"><ele></ele><time>2017-5-18T8:56:14Z</time></trkpt>
<trkpt lat="46.157328" lon="6.042675"><ele></ele><time>2017-5-18T8:56:17Z</time></trkpt>
<trkpt lat="46.157505" lon="6.042505"><ele></ele><time>2017-5-18T8:56:20Z</time></trkpt>
<trkpt lat="46.157546" lon="6.042537"><ele></ele><time>2017-5-18T8:56:23Z</time></trkpt>
<trkpt lat="46.157656" lon="6.042757"><ele></ele><time>2017-5-18T8:56:26Z</time></trkpt>
<trkpt lat="46.157789" lon="6.042969"><ele></ele><time>2017-5-18T8:56:29Z</time></trkpt>
<trkpt lat="46.157969" lon="6.043290"><ele></ele><time>2017-5-18T8:56:32Z</time></trkpt>
<trkpt lat="46.158186" lon="6.043657"><ele></ele><time>2017-5-18T8:56:35Z</time></trkpt>
<trkpt lat="46.158371" lon="6.044016"><ele></ele><time>2017-5-18T8:56:38Z</time></trkpt>
<trkpt lat="46.158411" lon="6.044341"><ele></ele><time>2017-5-18T8:56:41Z</time></trkpt>
<trkpt lat="46.158379" lon="6.044982"><ele></ele><time>2017-5-18T8:56:44Z</time></trkpt>
<trkpt lat="46.158345" lon="6.045400"><ele></ele><time>2017-5-18T8:56:47Z</time></trkpt>
<trkpt lat="46.158308" lon="6.045862"><ele></ele><time>2017-5-18T8:56:50Z</time></trkpt>
<trkpt lat="46.158269" lon="6.046290"><ele></ele><time>2017-5-18T8:56:53Z</time></trkpt>
<trkpt lat="46.158278" lon="6.046699"><ele></ele><time>2017-5-18T8:56:56Z</time></trkpt>
<trkpt lat="46.158406" lon="6.046887"><ele></ele><time>2017-5-18T8:56:59Z</time></trkpt>
<trkpt lat="46.158666" lon="6.047146"><ele></ele><time>2017-5-18T8:57:2Z</time></trkpt>
<trkpt lat="46.158821" lon="6.047388"><ele></ele><time>2017-5-18T8:57:5Z</time></trkpt>
<trkpt lat="46.158823" lon="6.047409"><ele></ele><time>2017-5-18T8:57:8Z</time></trkpt>
<trkpt lat="46.158817" lon="6.047433"><ele></ele><time>2017-5-18T8:57:11Z</time></trkpt>
<trkpt lat="46.158810" lon="6.047448"><ele></ele><time>2017-5-18T8:57:14Z</time></trkpt>
<trkpt lat="46.158797" lon="6.047471"><ele></ele><time>2017-5-18T8:57:17Z</time></trkpt>
<trkpt lat="46.158784" lon="6.047495"><ele></ele><time>2017-5-18T8:57:20Z</time></trkpt>
<trkpt lat="46.158770" lon="6.047520"><ele></ele><time>2017-5-18T8:57:23Z</time></trkpt>
<trkpt lat="46.158754" lon="6.047547"><ele></ele><time>2017-5-18T8:57:26Z</time></trkpt>
<trkpt lat="46.158737" lon="6.047570"><ele></ele><time>2017-5-18T8:57:29Z</time></trkpt>
<trkpt lat="46.158720" lon="6.047592"><ele></ele><time>2017-5-18T8:57:32Z</time></trkpt>
<trkpt lat="46.158703" lon="6.047617"><ele></ele><time>2017-5-18T8:57:35Z</time></trkpt>
<trkpt lat="46.158538" lon="6.047842"><ele></ele><time>2017-5-18T8:57:38Z</time></trkpt>
<trkpt lat="46.158402" lon="6.048026"><ele></ele><time>2017-5-18T8:57:41Z</time></trkpt>
<trkpt lat="46.158287" lon="6.048183"><ele></ele><time>2017-5-18T8:57:44Z</time></trkpt>
<trkpt lat="46.158277" lon="6.048206"><ele></ele><time>2017-5-18T8:57:47Z</time></trkpt>
<trkpt lat="46.158270" lon="6.048227"><ele></ele><time>2017-5-18T8:57:50Z</time></trkpt>
<trkpt lat="46.158266" lon="6.048252"><ele></ele><time>2017-5-18T8:57:53Z</time></trkpt>
<trkpt lat="46.158270" lon="6.048275"><ele></ele><time>2017-5-18T8:57:56Z</time></trkpt>
<trkpt lat="46.158282" lon="6.048300"><ele></ele><time>2017-5-18T8:57:59Z</time></trkpt>
<trkpt lat="46.158294" lon="6.048320"><ele></ele><time>2017-5-18T8:58:2Z</time></trkpt>
<trkpt lat="46.158314" lon="6.048345"><ele></ele><time>2017-5-18T8:58:5Z</time></trkpt>
<trkpt lat="46.158337" lon="6.048368"><ele></ele><time>2017-5-18T8:58:8Z</time></trkpt>
<trkpt lat="46.158508" lon="6.048540"><ele></ele><time>2017-5-18T8:58:11Z</time></trkpt>
<trkpt lat="46.158690" lon="6.048723"><ele></ele><time>2017-5-18T8:58:14Z</time></trkpt>
<trkpt lat="46.158852" lon="6.048983"><ele></ele><time>2017-5-18T8:58:17Z</time></trkpt>
<trkpt lat="46.158979" lon="6.049224"><ele></ele><time>2017-5-18T8:58:20Z</time></trkpt>
<trkpt lat="46.159071" lon="6.049474"><ele></ele><time>2017-5-18T8:58:23Z</time></trkpt>
<trkpt lat="46.159193" lon="6.049821"><ele></ele><time>2017-5-18T8:58:26Z</time></trkpt>
<trkpt lat="46.159285" lon="6.050053"><ele></ele><time>2017-5-18T8:58:29Z</time></trkpt>
<trkpt lat="46.159411" lon="6.050360"><ele></ele><time>2017-5-18T8:58:32Z</time></trkpt>
<trkpt lat="46.159540" lon="6.050676"><ele></ele><time>2017-5-18T8:58:35Z</time></trkpt>
<trkpt lat="46.159701" lon="6.050996"><ele></ele><time>2017-5-18T8:58:38Z</time></trkpt>
<trkpt lat="46.159859" lon="6.051259"><ele></ele><time>2017-5-18T8:58:41Z</time></trkpt>
<trkpt lat="46.160047" lon="6.051540"><ele></ele><time>2017-5-18T8:58:44Z</time></trkpt>
<trkpt lat="46.160304" lon="6.052037"><ele></ele><time>2017-5-18T8:58:47Z</time></trkpt>
<trkpt lat="46.160377" lon="6.052182"><ele></ele><time>2017-5-18T8:58:50Z</time></trkpt>
<trkpt lat="46.160549" lon="6.052554"><ele></ele><time>2017-5-18T8:58:53Z</time></trkpt>
<trkpt lat="46.160638" lon="6.052887"><ele></ele><time>2017-5-18T8:58:56Z</time></trkpt>
<trkpt lat="46.160755" lon="6.053096"><ele></ele><time>2017-5-18T8:58:59Z</time></trkpt>
<trkpt lat="46.160893" lon="6.053250"><ele></ele><time>2017-5-18T8:59:2Z</time></trkpt>
<trkpt lat="46.161076" lon="6.053456"><ele></ele><time>2017-5-18T8:59:5Z</time></trkpt>
<trkpt lat="46.161253" lon="6.053650"><ele></ele><time>2017-5-18T8:59:8Z</time></trkpt>
<trkpt lat="46.161497" lon="6.053849"><ele></ele><time>2017-5-18T8:59:11Z</time></trkpt>
<trkpt lat="46.161644" lon="6.053937"><ele></ele><time>2017-5-18T8:59:14Z</time></trkpt>
<trkpt lat="46.161851" lon="6.054013"><ele></ele><time>2017-5-18T8:59:17Z</time></trkpt>
<trkpt lat="46.162039" lon="6.054189"><ele></ele><time>2017-5-18T8:59:20Z</time></trkpt>
<trkpt lat="46.162239" lon="6.054383"><ele></ele><time>2017-5-18T8:59:23Z</time></trkpt>
<trkpt lat="46.162419" lon="6.054596"><ele></ele><time>2017-5-18T8:59:26Z</time></trkpt>
<trkpt lat="46.162520" lon="6.054782"><ele></ele><time>2017-5-18T8:59:29Z</time></trkpt>
<trkpt lat="46.162660" lon="6.055010"><ele></ele><time>2017-5-18T8:59:32Z</time></trkpt>
<trkpt lat="46.162777" lon="6.055235"><ele></ele><time>2017-5-18T8:59:35Z</time></trkpt>
<trkpt lat="46.162899" lon="6.055439"><ele></ele><time>2017-5-18T8:59:38Z</time></trkpt>
<trkpt lat="46.163033" lon="6.055716"><ele></ele><time>2017-5-18T8:59:41Z</time></trkpt>
<trkpt lat="46.163185" lon="6.056005"><ele></ele><time>2017-5-18T8:59:44Z</time></trkpt>
<trkpt lat="46.163294" lon="6.056218"><ele></ele><time>2017-5-18T8:59:47Z</time></trkpt>
<trkpt lat="46.163458" lon="6.056512"><ele></ele><time>2017-5-18T8:59:50Z</time></trkpt>
<trkpt lat="46.163594" lon="6.056772"><ele></ele><time>2017-5-18T8:59:53Z</time></trkpt>
<trkpt lat="46.163765" lon="6.057078"><ele></ele><time>2017-5-18T8:59:56Z</time></trkpt>
<trkpt lat="46.163831" lon="6.057116"><ele></ele><time>2017-5-18T8:59:59Z</time></trkpt>
<trkpt lat="46.163847" lon="6.057114"><ele></ele><time>2017-5-18T9:0:2Z</time></trkpt>
<trkpt lat="46.163867" lon="6.057105"><ele></ele><time>2017-5-18T9:0:5Z</time></trkpt>
<trkpt lat="46.163892" lon="6.057090"><ele></ele><time>2017-5-18T9:0:8Z</time></trkpt>
<trkpt lat="46.163916" lon="6.057073"><ele></ele><time>2017-5-18T9:0:11Z</time></trkpt>
<trkpt lat="46.164118" lon="6.056981"><ele></ele><time>2017-5-18T9:0:14Z</time></trkpt>
<trkpt lat="46.164220" lon="6.057119"><ele></ele><time>2017-5-18T9:0:17Z</time></trkpt>
<trkpt lat="46.164377" lon="6.057419"><ele></ele><time>2017-5-18T9:0:20Z</time></trkpt>
<trkpt lat="46.164514" lon="6.057644"><ele></ele><time>2017-5-18T9:0:23Z</time></trkpt>
<trkpt lat="46.164626" lon="6.057827"><ele></ele><time>2017-5-18T9:0:26Z</time></trkpt>
<trkpt lat="46.164775" lon="6.058072"><ele></ele><time>2017-5-18T9:0:29Z</time></trkpt>
<trkpt lat="46.164906" lon="6.058258"><ele></ele><time>2017-5-18T9:0:32Z</time></trkpt>
<trkpt lat="46.165080" lon="6.058483"><ele></ele><time>2017-5-18T9:0:35Z</time></trkpt>
<trkpt lat="46.165252" lon="6.058630"><ele></ele><time>2017-5-18T9:0:38Z</time></trkpt>
<trkpt lat="46.165263" lon="6.058630"><ele></ele><time>2017-5-18T9:0:41Z</time></trkpt>
<trkpt lat="46.165273" lon="6.058627"><ele></ele><time>2017-5-18T9:0:44Z</time></trkpt>
<trkpt lat="46.165285" lon="6.058630"><ele></ele><time>2017-5-18T9:0:47Z</time></trkpt>
<trkpt lat="46.165409" lon="6.058754"><ele></ele><time>2017-5-18T9:0:50Z</time></trkpt>
<trkpt lat="46.165557" lon="6.058884"><ele></ele><time>2017-5-18T9:0:53Z</time></trkpt>
<trkpt lat="46.165706" lon="6.059042"><ele></ele><time>2017-5-18T9:0:56Z</time></trkpt>
<trkpt lat="46.165876" lon="6.059207"><ele></ele><time>2017-5-18T9:0:59Z</time></trkpt>
<trkpt lat="46.166021" lon="6.059436"><ele></ele><time>2017-5-18T9:1:2Z</time></trkpt>
<trkpt lat="46.166057" lon="6.059555"><ele></ele><time>2017-5-18T9:1:5Z</time></trkpt>
<trkpt lat="46.166054" lon="6.059567"><ele></ele><time>2017-5-18T9:1:8Z</time></trkpt>
<trkpt lat="46.166058" lon="6.059571"><ele></ele><time>2017-5-18T9:1:11Z</time></trkpt>
<trkpt lat="46.166082" lon="6.059603"><ele></ele><time>2017-5-18T9:1:14Z</time></trkpt>
<trkpt lat="46.166094" lon="6.059619"><ele></ele><time>2017-5-18T9:1:17Z</time></trkpt>
<trkpt lat="46.166105" lon="6.059644"><ele></ele><time>2017-5-18T9:1:20Z</time></trkpt>
<trkpt lat="46.166115" lon="6.059672"><ele></ele><time>2017-5-18T9:1:23Z</time></trkpt>
<trkpt lat="46.166125" lon="6.059700"><ele></ele><time>2017-5-18T9:1:26Z</time></trkpt>
<trkpt lat="46.166134" lon="6.059732"><ele></ele><time>2017-5-18T9:1:29Z</time></trkpt>
<trkpt lat="46.166201" lon="6.059976"><ele></ele><time>2017-5-18T9:1:32Z</time></trkpt>
<trkpt lat="46.166296" lon="6.060272"><ele></ele><time>2017-5-18T9:1:35Z</time></trkpt>
<trkpt lat="46.166422" lon="6.060527"><ele></ele><time>2017-5-18T9:1:38Z</time></trkpt>
<trkpt lat="46.166576" lon="6.060696"><ele></ele><time>2017-5-18T9:1:41Z</time></trkpt>
<trkpt lat="46.166767" lon="6.060777"><ele></ele><time>2017-5-18T9:1:44Z</time></trkpt>
<trkpt lat="46.166953" lon="6.060777"><ele></ele><time>2017-5-18T9:1:47Z</time></trkpt>
<trkpt lat="46.167200" lon="6.060782"><ele></ele><time>2017-5-18T9:1:50Z</time></trkpt>
<trkpt lat="46.167432" lon="6.060855"><ele></ele><time>2017-5-18T9:1:53Z</time></trkpt>
<trkpt lat="46.167560" lon="6.061005"><ele></ele><time>2017-5-18T9:1:56Z</time></trkpt>
<trkpt lat="46.167693" lon="6.061217"><ele></ele><time>2017-5-18T9:1:59Z</time></trkpt>
<trkpt lat="46.167790" lon="6.061413"><ele></ele><time>2017-5-18T9:2:2Z</time></trkpt>
<trkpt lat="46.167813" lon="6.061491"><ele></ele><time>2017-5-18T9:2:5Z</time></trkpt>
<trkpt lat="46.167828" lon="6.061509"><ele></ele><time>2017-5-18T9:2:8Z</time></trkpt>
<trkpt lat="46.167841" lon="6.061528"><ele></ele><time>2017-5-18T9:2:11Z</time></trkpt>
<trkpt lat="46.167862" lon="6.061572"><ele></ele><time>2017-5-18T9:2:14Z</time></trkpt>
<trkpt lat="46.167931" lon="6.061730"><ele></ele><time>2017-5-18T9:2:17Z</time></trkpt>
<trkpt lat="46.167976" lon="6.061765"><ele></ele><time>2017-5-18T9:2:20Z</time></trkpt>
<trkpt lat="46.167986" lon="6.061786"><ele></ele><time>2017-5-18T9:2:23Z</time></trkpt>
<trkpt lat="46.168027" lon="6.061907"><ele></ele><time>2017-5-18T9:2:26Z</time></trkpt>
<trkpt lat="46.168040" lon="6.061918"><ele></ele><time>2017-5-18T9:2:29Z</time></trkpt>
<trkpt lat="46.168084" lon="6.061947"><ele></ele><time>2017-5-18T9:2:32Z</time></trkpt>
<trkpt lat="46.168094" lon="6.061964"><ele></ele><time>2017-5-18T9:2:35Z</time></trkpt>
<trkpt lat="46.168102" lon="6.061983"><ele></ele><time>2017-5-18T9:2:38Z</time></trkpt>
<trkpt lat="46.168113" lon="6.062002"><ele></ele><time>2017-5-18T9:2:41Z</time></trkpt>
<trkpt lat="46.168124" lon="6.062021"><ele></ele><time>2017-5-18T9:2:44Z</time></trkpt>
<trkpt lat="46.168135" lon="6.062043"><ele></ele><time>2017-5-18T9:2:47Z</time></trkpt>
<trkpt lat="46.168217" lon="6.062200"><ele></ele><time>2017-5-18T9:2:50Z</time></trkpt>
<trkpt lat="46.168310" lon="6.062378"><ele></ele><time>2017-5-18T9:2:53Z</time></trkpt>
<trkpt lat="46.168454" lon="6.062694"><ele></ele><time>2017-5-18T9:2:56Z</time></trkpt>
<trkpt lat="46.168567" lon="6.062891"><ele></ele><time>2017-5-18T9:2:59Z</time></trkpt>
<trkpt lat="46.168726" lon="6.063178"><ele></ele><time>2017-5-18T9:3:2Z</time></trkpt>
<trkpt lat="46.168907" lon="6.063487"><ele></ele><time>2017-5-18T9:3:5Z</time></trkpt>
<trkpt lat="46.169044" lon="6.063730"><ele></ele><time>2017-5-18T9:3:8Z</time></trkpt>
<trkpt lat="46.169252" lon="6.064075"><ele></ele><time>2017-5-18T9:3:11Z</time></trkpt>
<trkpt lat="46.169251" lon="6.064137"><ele></ele><time>2017-5-18T9:3:14Z</time></trkpt>
<trkpt lat="46.169235" lon="6.064158"><ele></ele><time>2017-5-18T9:3:17Z</time></trkpt>
<trkpt lat="46.169221" lon="6.064170"><ele></ele><time>2017-5-18T9:3:20Z</time></trkpt>
<trkpt lat="46.169204" lon="6.064182"><ele></ele><time>2017-5-18T9:3:23Z</time></trkpt>
<trkpt lat="46.169188" lon="6.064197"><ele></ele><time>2017-5-18T9:3:26Z</time></trkpt>
<trkpt lat="46.169173" lon="6.064213"><ele></ele><time>2017-5-18T9:3:29Z</time></trkpt>
<trkpt lat="46.169158" lon="6.064229"><ele></ele><time>2017-5-18T9:3:32Z</time></trkpt>
<trkpt lat="46.169026" lon="6.064382"><ele></ele><time>2017-5-18T9:3:35Z</time></trkpt>
<trkpt lat="46.168939" lon="6.064482"><ele></ele><time>2017-5-18T9:3:38Z</time></trkpt>
<trkpt lat="46.168831" lon="6.064600"><ele></ele><time>2017-5-18T9:3:41Z</time></trkpt>
<trkpt lat="46.168815" lon="6.064620"><ele></ele><time>2017-5-18T9:3:44Z</time></trkpt>
<trkpt lat="46.168801" lon="6.064639"><ele></ele><time>2017-5-18T9:3:47Z</time></trkpt>
<trkpt lat="46.168786" lon="6.064658"><ele></ele><time>2017-5-18T9:3:50Z</time></trkpt>
<trkpt lat="46.168767" lon="6.064675"><ele></ele><time>2017-5-18T9:3:53Z</time></trkpt>
<trkpt lat="46.168750" lon="6.064691"><ele></ele><time>2017-5-18T9:3:56Z</time></trkpt>
<trkpt lat="46.168734" lon="6.064709"><ele></ele><time>2017-5-18T9:3:59Z</time></trkpt>
<trkpt lat="46.168591" lon="6.064885"><ele></ele><time>2017-5-18T9:4:2Z</time></trkpt>
<trkpt lat="46.168452" lon="6.065048"><ele></ele><time>2017-5-18T9:4:5Z</time></trkpt>
<trkpt lat="46.168324" lon="6.065218"><ele></ele><time>2017-5-18T9:4:8Z</time></trkpt>
<trkpt lat="46.168144" lon="6.065391"><ele></ele><time>2017-5-18T9:4:11Z</time></trkpt>
<trkpt lat="46.167967" lon="6.065531"><ele></ele><time>2017-5-18T9:4:14Z</time></trkpt>
<trkpt lat="46.167846" lon="6.065637"><ele></ele><time>2017-5-18T9:4:17Z</time></trkpt>
<trkpt lat="46.167829" lon="6.065680"><ele></ele><time>2017-5-18T9:4:20Z</time></trkpt>
<trkpt lat="46.167824" lon="6.065735"><ele></ele><time>2017-5-18T9:4:23Z</time></trkpt>
<trkpt lat="46.167832" lon="6.065779"><ele></ele><time>2017-5-18T9:4:26Z</time></trkpt>
<trkpt lat="46.167850" lon="6.065818"><ele></ele><time>2017-5-18T9:4:29Z</time></trkpt>
<trkpt lat="46.167868" lon="6.065849"><ele></ele><time>2017-5-18T9:4:32Z</time></trkpt>
<trkpt lat="46.167980" lon="6.066068"><ele></ele><time>2017-5-18T9:4:35Z</time></trkpt>
<trkpt lat="46.168070" lon="6.066240"><ele></ele><time>2017-5-18T9:4:38Z</time></trkpt>
<trkpt lat="46.168163" lon="6.066431"><ele></ele><time>2017-5-18T9:4:41Z</time></trkpt>
<trkpt lat="46.168170" lon="6.066450"><ele></ele><time>2017-5-18T9:4:44Z</time></trkpt>
<trkpt lat="46.168260" lon="6.066625"><ele></ele><time>2017-5-18T9:4:47Z</time></trkpt>
<trkpt lat="46.168369" lon="6.066826"><ele></ele><time>2017-5-18T9:4:50Z</time></trkpt>
<trkpt lat="46.168478" lon="6.067062"><ele></ele><time>2017-5-18T9:4:53Z</time></trkpt>
<trkpt lat="46.168473" lon="6.067094"><ele></ele><time>2017-5-18T9:4:56Z</time></trkpt>
<trkpt lat="46.168461" lon="6.067119"><ele></ele><time>2017-5-18T9:4:59Z</time></trkpt>
<trkpt lat="46.168440" lon="6.067140"><ele></ele><time>2017-5-18T9:5:2Z</time></trkpt>
<trkpt lat="46.168420" lon="6.067159"><ele></ele><time>2017-5-18T9:5:5Z</time></trkpt>
<trkpt lat="46.168398" lon="6.067177"><ele></ele><time>2017-5-18T9:5:8Z</time></trkpt>
<trkpt lat="46.168373" lon="6.067194"><ele></ele><time>2017-5-18T9:5:11Z</time></trkpt>
<trkpt lat="46.168349" lon="6.067210"><ele></ele><time>2017-5-18T9:5:14Z</time></trkpt>
<trkpt lat="46.168131" lon="6.067391"><ele></ele><time>2017-5-18T9:5:17Z</time></trkpt>
<trkpt lat="46.167899" lon="6.067592"><ele></ele><time>2017-5-18T9:5:20Z</time></trkpt>
<trkpt lat="46.167715" lon="6.067751"><ele></ele><time>2017-5-18T9:5:23Z</time></trkpt>
<trkpt lat="46.167434" lon="6.067999"><ele></ele><time>2017-5-18T9:5:26Z</time></trkpt>
<trkpt lat="46.167376" lon="6.068070"><ele></ele><time>2017-5-18T9:5:29Z</time></trkpt>
<trkpt lat="46.167365" lon="6.068125"><ele></ele><time>2017-5-18T9:5:32Z</time></trkpt>
<trkpt lat="46.167375" lon="6.068182"><ele></ele><time>2017-5-18T9:5:35Z</time></trkpt>
<trkpt lat="46.167414" lon="6.068447"><ele></ele><time>2017-5-18T9:5:38Z</time></trkpt>
<trkpt lat="46.167357" lon="6.068710"><ele></ele><time>2017-5-18T9:5:41Z</time></trkpt>
<trkpt lat="46.167283" lon="6.068977"><ele></ele><time>2017-5-18T9:5:44Z</time></trkpt>
<trkpt lat="46.167210" lon="6.069251"><ele></ele><time>2017-5-18T9:5:47Z</time></trkpt>
<trkpt lat="46.167215" lon="6.069418"><ele></ele><time>2017-5-18T9:5:50Z</time></trkpt>
<trkpt lat="46.167222" lon="6.069446"><ele></ele><time>2017-5-18T9:5:53Z</time></trkpt>
<trkpt lat="46.167227" lon="6.069476"><ele></ele><time>2017-5-18T9:5:56Z</time></trkpt>
<trkpt lat="46.167331" lon="6.069721"><ele></ele><time>2017-5-18T9:5:59Z</time></trkpt>
<trkpt lat="46.167394" lon="6.069866"><ele></ele><time>2017-5-18T9:6:2Z</time></trkpt>
<trkpt lat="46.167518" lon="6.070133"><ele></ele><time>2017-5-18T9:6:5Z</time></trkpt>
<trkpt lat="46.167682" lon="6.070514"><ele></ele><time>2017-5-18T9:6:8Z</time></trkpt>
<trkpt lat="46.167846" lon="6.070854"><ele></ele><time>2017-5-18T9:6:11Z</time></trkpt>
<trkpt lat="46.168028" lon="6.071172"><ele></ele><time>2017-5-18T9:6:14Z</time></trkpt>
<trkpt lat="46.168180" lon="6.071398"><ele></ele><time>2017-5-18T9:6:17Z</time></trkpt>
<trkpt lat="46.168464" lon="6.071646"><ele></ele><time>2017-5-18T9:6:20Z</time></trkpt>
<trkpt lat="46.168653" lon="6.071816"><ele></ele><time>2017-5-18T9:6:23Z</time></trkpt>
<trkpt lat="46.168997" lon="6.072233"><ele></ele><time>2017-5-18T9:6:26Z</time></trkpt>
<trkpt lat="46.169166" lon="6.072488"><ele></ele><time>2017-5-18T9:6:29Z</time></trkpt>
<trkpt lat="46.169413" lon="6.073068"><ele></ele><time>2017-5-18T9:6:32Z</time></trkpt>
<trkpt lat="46.169650" lon="6.073816"><ele></ele><time>2017-5-18T9:6:35Z</time></trkpt>
<trkpt lat="46.170000" lon="6.074557"><ele></ele><time>2017-5-18T9:6:38Z</time></trkpt>
<trkpt lat="46.170201" lon="6.075167"><ele></ele><time>2017-5-18T9:6:41Z</time></trkpt>
<trkpt lat="46.170293" lon="6.075470"><ele></ele><time>2017-5-18T9:6:44Z</time></trkpt>
<trkpt lat="46.170344" lon="6.075583"><ele></ele><time>2017-5-18T9:6:47Z</time></trkpt>
<trkpt lat="46.170724" lon="6.076265"><ele></ele><time>2017-5-18T9:6:50Z</time></trkpt>
<trkpt lat="46.170810" lon="6.076352"><ele></ele><time>2017-5-18T9:6:53Z</time></trkpt>
</trkseg></trk></gpx>